GFSSW_sfc_wetblb_000.txt.gz
Wetbulb
56.78 57.12 57.46 57.95 58.13 58.25 58.49 58.92 59.51 60.26 60.61 60.89 60.81 60.85 61.01 60.75 59.70 54.31 51.14 54.95 57.04 63.94 66.26 61.21 59.83 57.03 55.27 53.02 50.74 46.78 40.47 37.25 38.96 38.59 40.84 44.57 46.17 48.58 49.76 47.86 48.58 49.05 49.48 53.08 55.75
56.28 56.42 56.64 56.85 57.28 57.79 58.16 58.17 58.66 59.19 59.74 60.13 60.13 60.06 60.30 59.56 52.69 50.94 56.51 60.53 62.00 63.58 60.00 56.55 54.98 54.20 49.91 50.68 48.23 44.93 39.77 41.31 44.66 42.39 42.00 46.11 45.92 47.85 47.20 46.66 46.63 47.63 53.11 55.31 55.34
56.23 56.00 56.14 56.56 56.74 57.00 57.62 58.01 58.09 58.37 58.87 59.16 59.34 59.64 59.57 56.78 48.96 47.11 59.88 61.69 61.79 61.85 60.12 60.15 56.12 53.45 48.91 47.49 46.40 44.85 41.68 44.91 46.96 47.18 46.37 47.03 47.48 48.13 45.65 45.12 47.49 48.41 49.77 51.91 54.02
55.65 55.94 56.00 56.16 56.38 56.45 56.81 57.16 57.61 57.83 57.91 58.18 58.44 58.87 58.52 52.63 38.08 52.13 59.98 61.09 62.31 59.21 58.60 59.25 56.08 49.44 47.52 45.95 48.19 43.10 46.81 46.80 48.74 49.55 48.39 47.20 48.12 46.91 46.79 48.18 50.60 50.02 49.93 49.77 53.88
55.46 55.94 55.93 55.87 55.95 55.90 55.95 56.57 56.99 57.44 57.66 57.91 58.14 57.72 53.59 47.26 45.12 52.04 58.14 56.80 57.80 56.74 55.67 56.52 50.75 48.47 46.24 46.91 47.59 44.97 47.22 49.10 49.88 49.88 48.97 48.73 46.17 45.70 46.52 49.77 49.65 49.24 49.04 49.04 52.13
56.00 55.98 55.59 55.66 55.99 55.91 56.13 55.97 56.64 57.29 57.46 57.66 57.76 57.35 48.92 41.39 50.68 53.29 52.62 51.70 54.56 54.63 55.38 56.83 52.99 50.82 48.66 47.82 47.65 48.47 48.98 49.10 48.71 48.82 47.12 46.04 46.53 45.17 46.65 47.75 48.08 47.71 47.30 47.31 49.97
56.46 56.17 55.97 55.44 55.27 55.65 56.08 56.06 56.08 56.79 56.87 57.05 57.33 53.46 47.83 44.35 50.53 52.04 53.42 50.94 53.14 54.91 53.35 57.54 57.91 52.85 51.71 48.78 50.01 48.65 44.86 46.56 46.19 46.62 46.83 45.97 44.65 43.96 48.01 45.03 46.52 45.42 44.14 45.72 46.84
56.58 56.30 55.75 55.60 55.38 55.62 55.89 56.28 56.20 56.84 56.35 56.53 56.70 50.23 42.76 52.27 52.77 51.07 51.30 52.22 53.23 55.91 55.90 59.90 59.31 53.94 51.67 50.87 46.44 43.59 41.55 38.09 43.74 44.27 45.45 45.09 39.54 44.97 46.98 44.66 45.12 44.18 42.58 45.50 47.20
56.25 55.77 55.61 55.81 55.86 56.29 55.86 56.01 56.16 55.90 55.94 55.69 50.88 47.70 42.00 53.82 48.83 50.69 50.76 48.32 51.89 53.83 56.99 60.41 56.08 51.65 51.60 45.80 42.27 42.16 38.33 36.44 39.99 43.68 43.03 41.81 38.72 44.12 44.07 44.08 42.72 41.49 42.35 44.58 46.09
56.44 55.70 54.84 55.27 55.87 56.08 56.22 55.29 55.30 53.68 52.65 52.34 50.63 43.27 44.43 44.00 48.64 50.45 51.12 50.53 50.77 51.44 52.25 54.97 52.33 48.02 46.29 42.72 38.78 38.74 38.35 35.81 36.50 40.49 40.30 39.46 39.61 44.84 43.42 42.35 40.21 40.63 41.95 43.64 45.50
56.60 56.41 55.24 54.92 55.15 56.53 55.47 51.70 44.61 42.96 46.15 42.51 42.32 42.60 45.30 47.83 51.09 49.04 50.25 48.69 49.58 48.38 45.77 51.71 46.86 43.64 44.20 47.23 43.40 40.77 37.47 37.80 38.39 41.09 38.00 37.98 38.21 42.12 43.32 42.02 39.49 40.60 42.92 43.22 45.10
56.86 56.55 55.26 54.75 55.93 56.81 53.28 45.20 44.61 46.84 39.62 45.05 46.48 44.53 47.86 49.73 44.94 47.02 50.76 45.73 46.06 38.40 46.98 47.56 43.02 47.48 46.83 46.24 45.29 40.68 39.55 35.91 40.14 41.06 38.29 38.54 38.66 41.63 41.56 41.30 39.70 41.61 42.51 43.31 44.42
56.70 56.02 55.34 55.36 56.32 55.16 49.48 46.84 53.36 50.71 40.59 41.82 44.55 44.88 45.46 47.80 43.89 44.48 48.48 46.51 43.37 38.27 43.81 43.29 46.39 49.51 47.68 43.10 42.75 39.81 38.96 37.26 38.24 39.82 39.33 37.16 36.46 37.61 38.89 39.52 41.32 42.47 43.11 43.75 44.62
56.36 55.79 54.65 55.52 52.18 52.23 48.67 51.95 53.54 51.37 34.57 36.93 39.68 43.37 46.38 46.66 41.96 49.43 50.16 48.13 44.57 38.34 44.18 45.78 48.40 47.79 46.48 44.10 43.97 40.05 41.43 42.23 39.14 35.91 31.88 36.64 29.93 34.81 36.36 37.89 39.86 40.24 42.21 43.10 44.14
56.39 55.81 55.68 55.50 51.93 49.83 52.20 52.93 53.11 48.85 21.35 37.50 40.15 48.84 46.77 42.52 43.87 45.74 50.32 47.97 42.19 41.32 45.32 43.50 45.44 45.68 45.00 45.51 45.51 42.30 43.57 41.76 40.52 34.50 30.36 32.29 30.70 33.94 34.31 36.22 38.55 39.81 40.69 42.19 43.52
55.98 56.06 55.72 53.83 53.48 53.51 54.25 53.21 49.03 33.97 23.47 34.61 41.45 39.81 40.04 41.73 43.80 46.64 47.20 50.66 49.20 43.87 43.44 42.83 47.87 47.53 46.98 47.36 46.11 45.05 41.47 39.23 36.63 32.78 28.05 32.40 33.11 31.90 33.78 36.07 36.98 38.66 39.89 42.56 43.53
55.58 55.38 54.13 54.99 50.13 55.11 53.19 47.83 33.09 27.70 37.08 34.53 35.94 39.52 39.41 38.40 41.16 42.93 41.73 41.31 39.93 36.33 37.81 39.64 43.99 44.74 47.12 41.61 42.56 42.01 38.91 32.16 29.56 27.67 27.68 30.57 29.29 34.26 36.81 38.49 41.09 41.24 40.43 41.99 43.13
55.22 54.89 54.00 53.98 55.74 54.14 50.07 38.87 29.42 35.02 33.51 40.63 39.26 38.80 36.44 39.70 40.64 41.10 41.74 40.76 44.13 38.51 38.94 36.18 35.62 39.34 41.26 42.98 40.03 39.33 36.81 30.03 26.00 25.74 27.62 30.73 28.63 35.01 37.23 39.19 40.40 43.25 41.92 42.24 42.65
54.67 51.02 51.46 53.60 55.74 52.77 42.45 32.43 33.80 37.59 40.29 39.49 38.99 34.64 36.30 39.18 41.18 42.18 40.28 40.47 43.75 42.05 36.68 36.50 35.82 37.58 41.25 40.19 44.06 35.60 35.05 36.63 31.70 27.75 27.88 30.97 33.64 38.63 38.93 38.51 38.15 40.36 40.98 41.34 42.17
49.29 46.09 47.75 54.44 55.59 49.69 39.39 35.30 39.99 44.72 42.98 40.89 34.33 37.88 35.68 36.97 39.52 39.11 40.11 44.47 43.84 44.62 41.70 37.14 30.28 38.43 37.69 41.19 39.64 38.03 39.76 32.70 31.46 26.97 25.14 27.81 28.30 32.85 35.99 36.48 37.24 38.32 39.73 40.88 42.10
47.63 42.46 51.42 54.71 54.01 46.10 36.53 36.52 43.75 45.95 44.62 41.52 39.03 37.71 38.80 36.82 39.92 38.11 38.84 43.20 45.23 41.83 40.98 37.47 34.41 34.91 37.38 35.84 35.21 34.72 32.95 32.42 33.66 30.59 26.70 24.36 29.74 35.20 36.04 37.72 38.67 39.00 39.94 40.74 41.87
43.69 39.66 52.92 53.81 44.34 45.34 40.24 45.61 45.75 46.02 48.25 45.85 44.67 42.55 40.11 38.69 39.34 39.43 39.52 41.38 45.97 44.77 39.98 39.80 34.49 31.31 34.72 36.99 37.64 34.76 34.53 34.24 30.63 27.23 26.85 26.46 30.19 36.64 36.48 37.23 40.05 39.97 41.24 41.17 42.27
40.90 47.02 52.64 52.02 41.48 42.06 45.73 44.97 46.43 45.62 46.25 45.81 41.23 43.66 42.59 38.80 38.39 41.63 42.64 44.68 45.83 44.42 41.87 41.55 34.97 31.12 34.05 35.77 36.26 34.69 34.13 33.76 32.87 31.15 26.65 26.67 30.46 38.43 36.08 38.36 40.08 41.38 42.38 42.20 41.42
42.87 41.05 46.80 48.28 46.48 42.91 43.19 42.99 43.78 47.88 46.50 46.47 43.00 43.34 42.45 40.43 41.48 39.11 40.34 43.13 45.48 44.59 47.47 45.57 36.90 33.37 31.33 32.55 35.92 33.09 34.17 33.48 34.15 28.91 28.60 29.18 32.19 35.29 35.48 38.16 39.64 40.54 41.92 41.46 40.83
40.58 41.25 43.56 38.74 40.94 41.29 43.21 44.41 43.02 42.33 45.93 46.03 42.98 42.50 40.77 37.89 38.23 38.25 39.60 40.40 42.64 45.75 41.96 42.22 35.55 34.29 33.40 35.80 36.50 35.81 35.92 33.92 33.25 34.81 32.54 33.74 32.99 35.35 36.57 38.02 37.38 38.45 39.10 40.16 40.32
39.46 38.68 40.75 37.93 39.75 40.62 40.13 40.26 40.12 40.71 42.51 42.98 41.82 42.17 41.58 40.02 39.39 38.36 39.83 39.39 39.14 39.94 39.35 40.62 34.09 33.54 29.92 33.56 32.70 32.30 34.85 34.28 33.95 33.38 32.02 33.66 33.78 35.85 37.73 38.34 39.17 37.43 39.20 40.27 39.93
41.32 43.21 41.81 39.22 37.70 38.04 39.38 40.51 40.44 41.55 42.09 42.82 42.62 41.92 38.80 39.80 39.67 40.92 40.13 39.75 41.15 40.57 37.74 36.31 33.76 32.45 28.85 31.33 30.89 28.96 32.48 34.24 33.88 33.95 35.57 32.39 34.91 36.97 38.06 39.87 39.43 40.38 40.02 40.40 39.73

GFSSW_sfc_wetblb_003.txt.gz
Wetbulb
56.11 56.21 56.65 56.98 57.53 58.16 58.34 58.40 59.02 59.92 60.76 61.34 61.57 61.46 61.72 61.56 60.46 55.74 51.45 54.77 57.22 62.04 62.43 60.85 61.11 60.22 57.59 55.88 53.22 50.33 44.75 41.32 42.98 41.67 45.95 47.68 49.21 51.92 53.04 51.28 51.77 52.74 53.93 56.72 59.11
56.30 56.27 56.09 56.22 56.53 57.09 57.76 58.35 58.28 58.66 59.35 60.35 60.59 60.96 60.73 60.29 54.82 52.21 57.04 60.70 61.39 62.03 57.85 58.52 56.31 56.13 53.12 53.52 51.71 48.82 43.91 44.08 47.63 46.29 46.01 48.05 49.40 51.10 50.88 50.06 50.84 51.96 54.30 58.17 58.43
55.88 55.82 55.91 56.13 56.46 56.71 57.02 57.60 58.46 58.46 58.61 59.21 59.71 60.06 60.27 57.29 50.49 49.64 60.65 62.44 62.66 61.44 57.97 60.19 59.21 55.37 51.37 51.35 50.14 48.04 45.05 47.47 48.87 49.18 48.90 48.89 50.00 51.81 49.66 49.19 50.78 51.83 53.29 53.48 56.24
55.68 55.51 55.63 56.04 56.27 56.34 56.49 56.88 57.55 58.03 58.12 58.43 58.96 59.07 59.06 52.61 39.98 51.01 59.70 61.47 62.62 59.63 56.40 56.85 57.29 51.49 50.11 48.07 49.72 46.40 48.23 48.92 50.70 51.57 51.37 49.90 51.26 50.30 49.78 52.24 53.70 53.11 52.40 51.57 52.41
56.12 55.66 55.85 55.69 56.05 56.07 56.06 56.10 56.96 57.54 57.97 58.00 58.18 58.19 54.00 48.46 46.94 53.10 57.63 56.19 55.93 57.53 53.92 54.26 53.63 50.71 49.36 49.75 49.05 47.04 49.44 50.46 50.99 51.11 50.76 51.18 49.79 49.91 49.40 52.32 53.25 51.62 51.21 51.00 50.81
56.50 56.11 56.18 55.81 55.66 56.18 56.10 56.37 56.43 57.12 57.85 57.70 57.82 57.37 50.12 42.37 51.65 54.15 52.57 51.82 52.28 55.15 53.72 54.83 54.14 52.65 50.54 49.62 50.05 50.25 50.67 51.16 51.14 51.44 49.99 48.49 50.12 49.03 52.96 51.63 51.36 50.32 49.46 48.75 49.24
56.58 56.62 56.70 56.39 56.22 55.65 55.91 56.38 56.46 56.71 57.45 57.59 57.38 53.53 48.15 45.11 51.59 52.09 52.87 51.20 51.75 54.78 52.27 55.61 57.22 52.98 52.35 49.47 51.37 50.43 48.05 49.08 49.20 50.02 49.89 49.12 46.63 45.86 52.16 50.19 49.56 49.18 46.95 49.11 50.49
57.06 57.00 56.96 56.18 55.98 55.81 56.08 56.39 56.93 57.35 57.09 56.36 55.52 50.84 43.58 52.96 53.59 51.39 51.19 50.28 52.69 54.78 55.23 56.36 58.23 54.42 52.22 52.27 49.05 48.23 46.57 43.79 48.47 47.71 48.01 48.12 43.76 47.90 47.93 48.37 48.34 47.02 47.48 48.90 49.58
56.60 56.74 56.81 56.37 56.08 56.12 56.37 56.73 56.89 56.69 56.44 55.11 50.62 48.10 41.85 53.71 49.19 50.58 50.67 47.80 51.04 54.63 55.60 56.59 56.80 53.41 51.70 46.19 43.45 43.92 41.01 41.17 44.12 47.38 47.32 45.86 43.09 47.35 48.13 47.92 47.24 46.95 47.51 48.48 49.13
56.41 57.36 57.35 56.27 55.49 55.64 56.27 56.70 56.18 55.12 53.32 52.72 50.22 43.28 45.70 44.34 49.02 50.36 50.58 50.28 48.48 51.92 51.30 52.20 52.71 48.69 48.32 45.54 39.40 38.13 40.66 40.72 40.42 44.67 43.75 42.76 42.35 45.65 46.49 46.71 47.24 46.51 46.91 47.78 48.12
56.80 56.91 57.19 56.41 54.73 55.21 54.75 53.52 46.77 45.03 46.76 41.52 41.95 41.77 45.28 47.78 50.87 48.91 49.90 48.02 47.76 49.11 42.14 48.34 45.94 43.59 45.52 47.33 45.55 42.07 42.26 41.64 42.89 44.23 42.29 41.56 40.77 44.73 46.09 45.73 45.09 44.67 46.29 47.15 47.71
56.49 56.77 57.16 56.17 55.29 55.44 54.74 46.15 45.36 46.13 39.04 44.87 45.13 44.86 47.01 49.31 44.52 47.01 49.78 43.37 44.05 40.44 43.73 44.97 43.13 47.85 47.65 47.06 44.59 42.19 40.67 39.82 42.15 43.32 42.23 41.94 41.77 45.11 44.50 45.06 44.79 44.59 45.85 46.87 47.53
56.17 56.55 55.45 53.99 54.83 54.54 51.14 48.68 52.03 50.46 39.14 41.73 43.44 44.04 45.29 46.25 43.12 44.39 46.57 44.97 43.57 39.22 40.94 41.17 45.06 49.36 47.47 45.25 44.78 42.05 40.39 39.71 41.01 42.12 42.16 39.92 40.12 41.02 43.62 43.59 43.09 45.09 46.56 46.96 47.41
56.40 56.57 55.57 53.99 52.50 52.64 49.07 52.47 51.50 49.31 33.35 36.34 39.18 41.98 45.62 46.58 41.14 48.23 48.41 45.99 43.89 37.96 40.47 43.93 48.04 47.04 46.13 43.84 45.06 41.32 43.04 43.70 41.17 40.32 36.63 40.77 33.85 38.67 41.88 41.08 42.11 43.77 45.65 46.26 47.01
55.96 55.87 55.77 54.12 51.34 49.27 50.73 52.47 50.95 45.85 22.49 37.86 39.24 48.31 46.15 41.67 43.07 44.15 49.38 46.38 41.36 39.58 42.16 42.29 44.82 44.68 44.10 44.78 45.88 43.11 45.58 44.00 42.47 39.06 35.56 36.06 35.13 38.42 38.42 38.62 40.64 42.55 44.24 45.73 46.98
55.86 55.25 55.45 53.19 52.63 53.00 53.12 52.56 48.92 32.03 22.55 35.20 40.31 39.48 39.39 41.43 42.44 45.12 44.48 47.77 48.42 41.91 42.57 44.51 48.38 48.84 47.21 47.05 47.22 42.65 41.73 40.66 38.26 35.94 31.33 34.98 36.29 36.64 38.27 39.35 40.19 42.16 43.30 45.34 46.26
55.82 55.45 53.46 53.82 49.64 54.01 52.42 46.70 31.97 26.55 36.25 33.97 35.49 38.52 37.36 36.22 38.45 40.97 39.51 39.05 38.87 34.36 34.65 41.72 44.84 46.82 49.23 42.72 43.66 42.94 41.31 34.52 31.06 29.87 30.62 33.62 32.96 37.78 40.50 40.77 43.24 43.58 43.30 45.04 46.42
55.56 54.94 53.57 52.39 54.53 52.94 49.58 38.30 27.80 33.93 31.82 39.04 37.66 37.56 34.61 36.87 38.60 39.46 37.98 35.12 42.09 39.58 35.65 36.12 36.00 41.66 45.77 43.80 40.47 41.97 41.08 34.32 28.69 28.19 30.62 32.97 31.85 38.36 41.38 42.83 42.63 44.71 44.50 45.32 45.57
54.91 50.31 50.30 52.10 54.48 52.39 41.28 31.15 31.91 35.47 36.04 36.75 36.43 32.59 33.85 37.14 38.58 38.24 36.98 36.31 40.18 41.50 35.15 34.86 36.07 40.36 43.64 43.09 44.66 38.00 37.90 40.13 33.00 31.87 31.00 34.16 37.09 41.75 41.78 41.01 40.36 41.99 43.34 44.61 45.06
48.85 47.11 48.26 53.54 53.53 47.95 36.39 34.18 37.07 40.20 41.45 38.18 31.20 34.31 30.04 34.51 34.83 36.27 37.18 41.09 41.27 43.54 41.79 39.04 32.12 38.65 38.95 42.57 40.34 41.35 42.00 35.63 34.00 29.16 27.59 31.07 31.58 36.25 39.22 40.02 39.54 40.11 43.10 43.68 44.35
48.23 40.94 50.89 54.95 51.72 44.19 34.35 35.03 39.92 45.30 42.61 37.98 36.97 35.55 36.01 34.22 35.78 36.29 35.96 43.22 45.29 43.41 41.42 37.60 35.49 34.29 38.03 37.35 35.13 36.69 36.35 35.78 35.78 33.17 29.93 28.05 33.01 38.47 39.21 39.86 40.80 40.69 42.79 43.83 44.12
42.06 40.16 52.90 53.46 41.92 42.15 38.63 39.93 44.08 43.42 45.03 42.34 41.58 41.53 38.03 36.83 34.98 37.49 37.98 41.31 47.59 45.92 38.02 38.53 35.26 31.10 33.53 37.88 39.76 38.67 37.40 37.40 32.46 29.52 29.38 30.28 33.27 40.04 39.26 39.59 41.30 41.15 42.36 43.80 44.69
39.80 45.61 53.40 51.70 39.28 39.75 43.54 42.87 45.22 44.31 44.85 43.65 40.58 42.19 41.17 38.32 37.80 40.99 42.20 45.29 46.35 45.42 40.51 40.90 35.09 31.06 34.50 37.28 38.00 35.85 35.80 36.05 34.55 33.08 28.64 29.74 33.43 39.76 39.73 40.91 41.27 41.89 42.95 43.48 43.62
41.00 41.63 46.84 47.40 46.81 43.37 43.30 42.34 42.87 48.09 46.58 47.14 41.60 43.24 40.78 39.02 40.49 39.15 41.43 44.30 46.21 46.21 47.63 44.99 36.44 34.19 31.88 33.51 35.96 33.56 33.94 34.13 36.06 31.08 30.40 30.90 34.90 37.85 39.11 40.60 41.17 42.72 43.80 43.79 42.92
39.59 38.64 42.88 38.95 42.11 42.69 44.20 43.56 41.93 42.31 46.42 46.77 43.30 40.48 41.21 37.53 38.04 38.31 41.92 41.39 44.19 46.64 43.81 43.10 36.08 34.71 33.50 36.51 36.95 36.27 35.87 34.13 34.07 36.78 34.70 35.44 34.02 37.90 38.95 40.09 41.04 42.07 42.08 41.90 41.18
38.65 36.99 38.77 39.28 38.36 42.04 41.93 42.81 41.80 42.10 43.24 42.84 41.96 40.74 42.18 40.22 39.66 37.64 39.74 40.29 40.41 40.29 40.03 40.71 34.97 34.33 31.02 34.56 35.32 34.70 35.62 36.16 35.55 34.05 34.89 34.94 35.06 39.50 40.34 40.60 41.68 41.87 41.29 41.38 41.01
40.90 40.84 39.26 40.07 37.62 38.39 39.46 41.68 41.83 42.37 43.23 41.47 42.99 41.32 41.39 40.74 41.24 42.66 42.43 42.09 43.06 39.19 36.76 38.20 34.58 33.33 31.64 32.62 32.71 30.40 33.41 34.47 35.55 35.16 37.58 34.10 39.73 38.50 39.27 40.24 40.74 40.99 41.65 41.56 41.42

GFSSW_sfc_wetblb_006.txt.gz
Wetbulb
56.17 56.50 56.47 56.50 56.89 57.46 57.97 58.32 58.53 59.09 59.81 61.06 61.86 61.79 62.07 62.11 61.19 58.26 53.62 57.27 58.06 61.23 61.71 60.72 62.27 63.13 62.65 59.15 58.33 56.01 49.66 46.50 48.34 48.38 50.03 52.04 52.35 56.56 57.63 55.59 56.10 56.95 56.81 58.71 61.99
55.92 56.37 56.18 56.00 56.13 56.41 57.13 57.80 58.43 58.33 58.74 59.40 60.59 60.89 61.25 60.96 57.58 54.22 59.32 61.37 61.99 62.09 57.13 57.38 58.22 60.92 58.16 57.26 57.40 54.11 49.73 49.11 52.64 53.20 51.86 52.82 54.04 55.42 55.12 55.23 55.31 55.51 57.78 58.73 59.00
56.01 55.90 55.73 55.95 55.94 56.27 56.67 56.88 57.70 58.68 58.54 58.82 59.52 60.14 60.70 59.86 52.22 52.25 61.64 62.79 63.26 62.36 59.20 57.91 60.83 59.58 55.81 56.79 55.67 54.38 49.74 53.07 53.16 53.91 53.66 53.53 54.41 56.14 54.84 53.56 55.28 54.84 56.61 58.21 58.36
56.30 55.88 55.45 55.80 55.90 56.02 56.02 56.23 56.98 57.77 58.39 58.38 58.83 59.34 59.56 56.65 40.92 55.42 60.05 60.22 62.63 61.32 58.66 55.03 55.49 54.60 53.67 52.45 55.75 50.72 53.77 54.05 54.48 54.79 54.21 53.59 55.77 54.84 56.15 56.31 59.04 59.09 59.01 57.08 57.04
57.08 56.64 55.98 56.17 55.71 55.72 55.73 55.87 56.17 57.23 57.83 58.26 58.33 58.39 56.18 49.43 49.19 57.76 57.24 56.77 57.39 58.45 55.88 52.93 52.81 54.10 52.24 53.97 54.33 51.89 53.31 54.46 55.29 54.93 54.68 55.55 54.16 54.97 55.38 58.41 59.81 59.45 57.09 56.40 56.06
57.19 56.94 56.38 56.40 56.01 55.62 55.90 56.01 56.55 56.59 57.36 58.19 58.11 57.99 52.26 43.52 55.40 56.87 56.93 55.61 54.17 56.31 54.67 54.24 54.08 56.30 53.43 54.07 53.08 54.36 53.86 53.93 54.92 54.72 55.14 53.10 54.44 53.55 56.00 58.85 57.78 56.98 56.49 55.24 55.00
57.29 56.99 56.78 56.83 56.77 56.51 55.48 55.94 56.50 56.74 56.85 57.60 57.51 55.42 49.35 46.85 54.63 55.17 54.20 53.68 54.74 54.55 53.74 55.82 56.02 55.29 55.07 52.86 56.59 55.01 51.01 53.16 53.88 54.34 53.74 54.82 51.18 52.06 56.54 54.60 53.47 54.39 53.76 54.43 54.96
57.06 57.62 57.79 57.43 56.68 56.23 55.75 56.08 56.60 57.50 56.70 56.13 56.02 53.38 44.55 53.89 56.31 53.96 54.60 52.84 55.20 54.87 55.26 56.86 55.99 53.56 54.15 56.29 54.36 51.54 51.72 46.84 52.41 53.92 54.25 52.23 46.98 53.63 53.86 52.91 52.12 52.18 53.71 54.30 54.35
56.74 57.30 57.21 57.62 56.78 56.55 56.39 56.47 56.89 56.80 56.62 55.85 52.12 49.66 43.02 54.05 50.22 53.54 54.15 50.18 52.26 53.65 54.08 55.71 53.86 51.44 53.75 47.78 47.04 49.96 44.81 45.93 48.15 53.62 52.77 51.14 48.47 52.16 52.78 52.64 52.64 53.06 53.41 53.72 54.48
56.92 57.18 57.47 57.63 57.01 56.36 55.58 55.92 56.81 55.56 54.05 52.98 51.79 44.80 46.77 45.18 50.25 51.44 53.50 52.00 49.94 51.51 50.68 50.41 48.33 47.65 49.19 46.22 40.31 42.59 44.56 46.74 46.47 50.57 49.25 48.42 49.05 51.78 53.45 51.68 52.46 52.46 53.06 53.58 53.69
56.94 57.00 57.29 57.55 56.98 55.05 53.83 52.85 46.55 45.77 47.34 42.72 43.58 43.17 45.86 49.87 52.64 49.86 52.06 49.42 49.33 47.82 42.02 47.41 41.38 40.64 46.33 47.63 48.45 47.65 47.11 45.87 48.49 50.20 47.76 48.75 49.68 50.09 53.55 52.51 51.97 51.75 52.65 53.06 52.99
56.54 56.69 57.06 57.38 57.13 55.61 53.87 48.66 47.14 48.28 41.27 45.91 45.65 45.49 48.71 49.82 44.64 47.85 51.85 44.48 43.38 39.19 44.36 42.27 38.53 46.37 48.55 49.00 47.96 48.06 45.37 44.87 49.01 48.33 47.38 48.82 48.75 52.04 53.26 51.53 51.95 51.61 52.23 52.60 52.42
56.09 56.27 56.68 56.27 54.46 53.00 51.45 50.37 52.14 50.66 39.68 41.75 44.44 44.11 45.18 47.45 44.13 45.37 48.43 45.31 41.43 38.58 40.96 38.86 42.54 47.88 47.69 47.03 46.10 46.63 44.26 45.15 45.61 46.88 47.30 46.29 47.05 49.30 48.06 48.19 48.10 51.00 53.14 53.01 52.62
56.27 56.22 56.49 54.60 50.66 52.91 50.33 50.69 51.09 49.98 33.16 35.99 40.03 42.51 45.93 47.00 41.38 48.77 49.81 45.51 42.96 37.96 41.02 40.40 45.75 46.51 45.94 45.28 47.78 43.42 49.11 47.82 45.84 43.97 41.92 46.38 40.82 47.20 49.33 47.05 47.58 50.13 51.20 51.78 52.22
56.28 55.79 56.21 54.58 52.03 48.94 50.43 50.74 50.11 46.45 24.52 38.46 39.58 48.17 45.90 42.11 43.65 43.92 50.44 45.67 40.27 40.22 39.62 37.99 42.63 42.11 44.35 45.91 49.00 45.58 49.33 48.00 46.36 44.21 43.81 44.51 41.23 46.00 45.16 44.90 46.13 49.39 50.77 51.60 52.56
56.36 55.80 55.57 53.75 53.45 52.40 51.63 50.78 47.62 31.98 24.10 35.64 40.24 38.96 39.18 41.57 42.59 45.15 45.12 47.35 46.63 41.73 41.39 41.62 47.94 45.23 48.01 48.95 49.59 48.46 46.67 45.30 44.30 43.09 38.31 43.80 42.13 44.12 45.32 45.73 46.91 49.34 50.57 51.23 51.83
56.72 55.88 54.33 53.57 48.90 53.89 51.82 45.81 32.54 27.87 36.77 34.69 35.84 39.02 37.33 36.28 38.37 40.38 40.35 38.62 36.23 35.16 34.50 37.00 37.67 48.21 50.45 45.30 44.98 47.79 44.21 36.36 35.54 34.80 36.86 40.28 39.39 44.92 47.03 46.21 48.19 48.71 50.23 51.33 51.98
56.54 55.44 53.88 52.49 54.91 53.81 48.27 38.50 29.01 33.77 34.04 38.43 38.35 38.14 34.28 38.00 37.78 38.98 38.25 35.47 39.45 39.98 35.56 33.22 34.94 44.85 49.42 46.73 41.73 43.29 45.15 39.24 32.04 34.35 37.54 38.42 37.94 43.73 46.76 47.65 48.32 50.90 51.59 51.78 51.54
55.14 52.20 50.81 52.44 55.01 51.36 41.46 31.52 32.74 36.12 36.94 36.25 37.31 33.88 34.25 37.42 37.63 37.74 37.61 36.18 39.16 39.67 34.79 33.98 34.61 45.11 48.08 47.22 46.75 41.45 39.87 45.50 38.70 38.62 38.01 40.96 43.58 47.07 46.39 46.28 46.79 48.44 50.30 50.47 51.07
49.64 47.86 48.19 52.57 53.89 47.96 36.46 34.87 36.46 40.68 38.78 39.79 32.66 36.20 32.74 35.10 36.12 37.02 36.39 39.78 38.82 42.74 45.41 39.76 34.77 41.99 42.54 47.66 43.52 45.29 47.72 38.00 40.20 33.22 32.26 38.03 39.25 43.24 44.68 45.10 45.50 46.97 48.67 50.44 50.92
49.48 43.99 50.98 53.66 51.67 42.10 33.69 35.92 39.37 43.26 42.04 38.30 36.46 35.05 36.50 35.52 36.37 36.80 36.87 41.31 42.38 43.60 45.11 43.97 42.14 35.69 43.44 40.45 40.81 43.12 40.43 42.33 42.57 39.72 36.91 35.77 39.44 46.20 45.45 45.99 46.42 47.41 49.60 50.47 50.01
48.03 42.67 52.28 52.37 40.40 40.44 36.80 38.64 42.68 43.34 44.09 41.00 41.57 39.44 37.35 38.35 35.16 35.83 37.48 41.59 44.75 46.37 41.38 45.19 43.16 36.72 37.45 41.93 46.56 46.25 43.64 43.72 39.50 35.31 38.47 38.57 40.38 45.96 46.13 46.19 46.52 48.08 49.28 50.58 50.93
45.31 46.34 52.08 49.68 37.46 37.29 41.42 40.95 41.86 42.89 42.34 41.11 41.45 42.85 42.13 38.79 34.58 38.07 40.96 44.76 46.44 45.71 44.45 45.38 41.76 35.94 35.97 39.43 40.69 41.04 43.80 45.90 44.78 41.17 38.15 37.28 40.12 44.84 46.86 47.17 47.10 47.88 48.88 49.88 49.87
45.89 41.92 46.50 47.29 46.12 42.68 40.81 40.05 41.19 46.57 44.40 46.16 44.58 45.44 41.75 38.63 41.15 39.05 41.44 45.91 48.38 46.43 47.82 46.49 42.96 40.55 36.37 39.53 43.15 40.01 41.52 44.41 44.25 39.35 39.75 39.69 42.64 43.80 45.34 46.46 46.96 48.15 49.39 49.63 49.43
45.09 44.32 46.14 39.54 40.80 42.19 43.13 42.58 40.03 42.04 46.11 47.13 43.99 44.02 41.63 38.51 39.84 40.20 43.30 44.12 46.41 47.91 47.54 45.90 40.08 42.20 41.38 42.26 43.26 42.12 41.39 41.03 40.72 43.05 39.73 42.93 41.65 45.70 46.97 47.81 48.74 49.42 49.39 48.98 48.25
43.30 42.83 44.55 45.21 44.73 43.45 42.38 41.94 40.18 43.18 42.88 41.54 42.66 44.12 44.60 41.41 42.21 41.01 43.22 44.23 43.35 45.93 45.59 46.59 40.24 39.85 38.09 40.28 42.01 40.10 42.20 42.94 43.09 43.77 43.50 43.75 43.09 47.76 47.35 48.52 46.99 47.92 47.40 47.26 47.52
47.15 45.88 44.44 43.76 41.39 42.34 41.11 43.12 42.02 43.45 44.13 44.83 45.48 43.93 43.05 44.90 48.18 48.58 48.96 48.80 47.59 45.24 44.25 43.66 41.67 39.44 36.52 38.20 38.61 36.44 40.73 41.34 42.54 44.07 43.56 40.37 45.49 46.05 44.26 45.11 46.99 47.48 47.33 47.21 47.21

GFSSW_sfc_wetblb_009.txt.gz
Wetbulb
56.74 56.74 56.93 56.69 56.82 57.03 57.43 57.95 58.23 58.63 58.97 60.21 60.99 61.85 62.09 62.06 61.14 58.88 54.64 59.11 59.44 60.99 61.13 60.73 60.16 61.86 62.84 60.11 60.57 59.44 50.22 46.84 48.77 49.73 51.02 54.82 53.14 56.57 58.49 56.40 56.99 57.95 57.85 59.36 60.70
56.82 56.61 56.50 56.53 56.54 56.67 56.68 57.06 57.76 58.41 58.48 59.16 59.75 60.81 61.28 60.67 57.82 55.00 61.07 62.27 62.16 62.22 58.46 56.67 56.09 58.36 58.37 58.05 58.13 54.53 49.48 49.27 53.33 53.83 52.90 54.36 54.23 56.05 55.61 55.65 56.20 57.56 59.05 59.84 60.18
57.08 56.63 56.52 56.36 56.52 56.56 56.83 56.57 56.97 57.78 58.87 58.56 58.93 59.91 60.13 59.92 53.20 53.40 62.78 63.39 63.55 62.67 60.31 58.16 57.41 58.39 55.35 57.68 56.34 55.08 49.67 53.55 54.21 55.07 55.29 53.91 54.34 56.92 55.47 53.91 56.74 56.14 57.89 59.74 59.78
57.33 57.09 56.52 56.20 56.61 56.77 56.33 56.32 56.25 56.99 57.77 58.39 58.48 59.06 59.86 57.05 42.22 56.38 60.42 59.82 62.48 62.04 59.48 56.67 54.12 52.96 53.20 52.00 56.25 51.68 54.26 54.46 55.06 55.81 54.66 53.41 55.55 54.59 56.03 56.62 59.43 59.81 60.37 60.25 58.82
57.41 57.55 57.14 56.41 56.70 56.47 56.43 56.07 55.80 55.90 57.15 57.82 58.26 58.16 56.40 49.68 49.98 58.69 57.83 56.75 58.47 59.63 56.50 54.98 51.23 51.64 50.39 53.11 53.62 51.70 53.68 54.98 55.71 55.51 55.29 55.74 53.78 54.10 55.28 58.69 60.12 60.06 60.05 59.71 58.85
57.30 57.41 57.31 56.85 56.91 56.55 56.38 56.22 56.50 56.08 55.93 57.21 58.12 58.00 53.11 43.46 56.65 58.47 58.18 57.29 55.93 56.72 55.45 56.23 52.63 53.53 51.53 51.24 51.73 54.47 54.65 54.36 55.20 55.01 55.23 53.52 53.96 54.90 56.21 59.03 58.50 58.27 57.29 58.25 57.87
57.23 57.09 57.62 56.99 57.10 57.22 56.77 56.10 56.41 55.99 56.00 56.54 57.10 55.89 49.93 47.69 55.41 57.18 56.43 54.90 55.91 54.94 53.85 56.68 56.51 53.22 53.45 50.17 53.75 53.93 50.35 53.19 53.45 54.40 53.56 55.38 51.39 52.15 56.80 58.11 54.52 54.39 55.63 55.93 56.94
57.20 57.06 57.81 57.66 57.55 57.22 56.97 56.49 56.35 56.24 56.21 55.96 55.94 54.14 46.21 55.23 56.89 54.71 55.21 53.51 55.04 55.29 54.20 56.49 57.02 53.00 51.16 54.54 51.14 48.95 50.14 45.02 51.80 53.69 54.30 53.83 47.06 53.64 57.03 54.65 53.33 53.66 54.80 55.94 55.92
57.67 57.01 57.31 58.16 57.99 57.49 56.81 56.52 56.55 56.85 56.34 55.72 53.06 51.11 44.31 55.02 50.85 54.15 54.86 51.14 52.63 53.89 54.16 54.87 54.28 49.94 50.63 46.58 45.07 47.36 43.48 45.02 48.39 53.89 52.96 52.44 48.41 53.37 56.06 53.67 53.32 53.97 54.85 55.34 55.80
58.33 57.69 57.54 57.74 57.91 57.49 56.93 55.51 55.95 56.19 55.04 54.05 52.43 45.88 48.45 46.02 51.12 52.57 54.65 52.91 49.76 50.45 49.48 49.39 48.38 44.81 45.54 43.52 37.68 42.65 43.06 45.67 45.74 50.95 52.12 50.37 49.79 53.20 54.83 54.40 53.52 53.91 54.62 55.20 55.24
58.27 57.39 57.30 57.25 57.30 57.00 53.99 52.48 47.75 45.63 48.31 43.88 44.83 45.17 46.91 50.78 53.06 50.50 52.22 50.36 49.44 46.79 41.35 45.80 41.12 38.43 42.66 45.93 45.81 46.76 45.72 45.89 48.76 51.51 50.82 49.73 49.33 51.21 53.84 54.40 54.15 53.60 54.11 54.80 54.59
57.80 57.05 57.08 56.96 56.89 56.78 53.75 47.28 47.88 48.92 42.08 46.88 47.42 47.34 49.33 50.80 45.06 48.29 52.40 45.18 43.62 39.73 42.86 40.98 37.42 43.87 45.86 46.11 45.47 46.05 45.28 46.09 48.48 50.42 49.52 48.88 48.49 51.92 53.56 54.18 55.23 53.61 53.71 54.51 53.85
57.26 56.61 56.50 56.25 55.43 55.06 51.65 48.31 52.25 51.32 41.07 41.32 45.66 45.07 46.11 47.49 43.73 45.83 48.96 46.32 42.33 39.04 39.38 37.52 40.79 45.34 44.12 41.41 44.36 45.78 44.60 45.47 45.15 49.04 49.28 48.19 46.82 49.54 53.07 54.40 53.08 53.58 54.77 55.06 53.86
56.93 56.53 56.11 55.64 50.84 52.24 49.15 53.34 52.29 51.35 33.11 37.01 40.26 43.42 45.02 45.54 40.60 48.43 50.52 46.74 42.04 38.41 39.99 39.41 42.66 42.18 42.52 40.67 44.10 42.32 47.83 47.80 46.43 45.55 40.90 49.04 39.92 47.81 50.89 48.75 49.58 51.31 53.59 53.93 53.87
56.68 56.45 56.40 55.06 52.99 49.91 50.29 51.57 51.05 47.49 25.72 40.17 40.38 48.18 45.82 40.97 43.43 43.58 50.03 46.88 39.54 39.20 38.07 35.45 39.28 40.03 40.03 42.47 45.73 44.42 49.69 47.99 47.07 46.09 44.74 44.08 42.46 46.54 50.72 47.85 48.86 50.79 52.89 53.58 53.80
56.79 56.43 56.07 54.41 53.29 52.91 51.49 50.77 48.00 32.46 25.82 35.75 39.99 38.69 38.85 41.11 41.68 44.73 44.55 47.93 45.97 40.03 40.52 38.72 45.04 43.82 43.03 46.36 47.79 49.25 47.61 46.95 46.94 44.63 37.77 43.79 43.50 44.16 46.92 48.29 49.73 50.88 52.20 52.84 53.11
57.36 56.29 54.64 53.76 48.88 53.48 50.89 46.16 32.09 28.61 37.21 34.72 35.47 38.47 37.96 37.33 39.05 40.65 39.78 37.96 36.12 31.59 32.95 36.77 36.47 41.58 45.67 41.67 45.66 46.81 42.90 37.15 34.74 35.60 36.20 45.30 43.27 45.77 47.15 48.66 50.15 50.27 51.43 52.61 53.14
57.05 56.14 54.26 52.46 55.59 52.71 48.19 37.77 28.24 34.92 33.98 38.59 37.74 37.44 34.42 37.05 38.03 39.07 37.49 35.14 39.35 36.87 34.35 33.28 31.30 38.33 42.13 44.08 41.75 43.32 43.49 38.03 31.51 33.21 37.61 42.52 38.77 44.70 49.19 50.21 51.22 52.19 52.47 52.79 52.62
56.26 54.08 51.74 52.09 54.69 51.41 42.02 30.82 32.97 36.52 38.14 36.64 38.11 34.42 34.49 36.19 37.36 36.52 37.14 36.87 38.72 38.07 34.31 33.29 34.48 42.40 44.05 48.03 46.60 41.89 41.64 45.64 41.14 42.63 40.01 40.96 44.77 47.07 48.80 48.38 48.87 50.70 51.76 51.66 52.26
50.20 48.23 48.23 54.28 54.25 48.21 38.23 33.88 37.19 40.96 39.08 38.60 33.48 36.82 32.69 34.87 35.47 36.10 36.08 40.41 39.03 40.30 40.35 37.59 33.40 38.85 44.61 47.47 45.39 45.30 48.47 40.06 42.19 34.19 33.90 39.59 41.46 42.56 45.19 46.92 48.08 48.82 50.67 51.70 52.54
48.76 43.97 51.98 53.72 52.07 42.54 32.72 34.87 39.06 42.81 41.17 38.56 37.68 35.91 37.07 35.72 36.89 35.87 36.82 40.67 41.72 41.01 40.85 40.39 35.81 35.26 41.15 42.16 40.58 42.47 42.03 44.09 44.92 42.29 37.57 36.45 40.13 48.58 46.78 47.86 48.10 49.23 51.27 51.91 52.16
47.87 41.31 51.73 52.37 39.96 39.58 35.55 37.25 41.31 41.12 42.72 42.37 41.70 40.13 38.75 38.63 37.06 37.49 37.35 39.84 43.95 43.25 38.45 42.50 38.71 33.23 37.27 42.61 47.83 46.59 44.06 45.37 40.57 37.58 41.15 40.00 40.12 48.24 48.31 48.73 49.39 49.84 50.94 52.58 52.71
44.68 46.91 51.32 49.10 36.33 36.16 39.03 39.09 40.30 39.93 41.77 41.62 40.32 41.87 42.26 39.48 35.78 38.98 40.35 44.71 45.06 42.70 42.70 45.15 39.33 34.86 36.20 39.98 43.69 41.75 45.14 46.78 46.30 44.92 40.70 38.03 40.63 48.26 49.22 49.27 49.63 49.69 50.83 52.22 52.08
45.39 41.84 44.29 45.76 44.75 41.48 37.87 38.79 38.66 43.61 43.40 43.36 42.28 43.29 41.37 39.71 41.57 38.63 40.12 44.52 46.82 44.52 47.54 47.84 42.36 40.22 37.31 40.31 42.80 40.42 42.76 45.53 44.08 40.09 40.87 42.00 42.78 44.94 47.42 48.11 48.85 49.65 51.03 51.66 51.61
45.08 43.35 45.23 38.05 39.70 41.10 42.11 41.56 38.58 39.63 44.34 43.77 42.99 42.71 40.83 37.34 38.82 39.28 41.30 44.22 45.42 46.54 46.45 45.95 40.86 43.09 43.49 44.51 44.51 43.55 43.05 43.39 42.99 44.08 41.10 43.64 43.53 46.74 48.06 49.11 49.92 50.62 50.89 50.77 50.32
42.91 43.05 46.01 44.75 43.61 42.27 41.33 39.84 39.23 40.25 43.41 41.53 42.05 44.46 43.69 40.85 40.35 38.25 42.38 43.45 42.72 45.89 44.24 45.69 40.78 42.48 40.77 42.91 43.91 42.25 44.09 44.67 44.37 45.10 44.95 45.42 45.32 50.39 51.07 51.09 50.24 50.56 50.28 49.86 49.98
47.84 49.43 45.79 45.40 45.46 42.55 42.28 41.31 41.60 42.84 44.77 46.21 45.15 44.44 43.87 44.42 47.16 49.24 48.40 48.57 48.04 45.34 44.61 42.89 42.15 40.64 36.97 41.36 41.38 37.89 42.68 43.55 44.33 45.59 45.50 42.17 46.85 50.83 47.14 47.91 49.25 49.82 50.16 49.84 50.13

GFSSW_sfc_wetblb_012.txt.gz
Wetbulb
56.80 56.91 57.40 57.59 57.36 57.31 57.51 58.18 58.72 58.86 59.03 59.83 60.69 61.20 61.84 61.86 61.46 58.70 54.03 58.62 60.42 62.19 62.19 58.15 58.46 58.17 60.14 58.45 59.30 58.42 47.75 44.58 46.40 47.48 49.40 52.98 50.91 54.25 55.88 53.33 54.50 55.46 53.88 56.28 57.89
57.02 57.17 56.95 57.11 57.03 56.97 57.13 57.39 57.80 58.74 58.75 58.75 59.13 60.21 60.76 60.69 57.14 54.71 60.86 63.40 63.32 61.89 57.69 54.86 53.52 55.75 52.98 56.27 56.33 52.74 47.07 47.08 51.32 51.42 50.35 52.87 52.05 52.54 53.03 53.14 52.72 54.39 56.80 57.03 57.00
57.24 57.33 56.96 57.00 56.64 56.90 56.85 57.38 57.18 57.81 58.56 58.64 58.39 59.06 60.09 59.71 52.69 52.58 63.03 64.15 64.52 62.62 59.39 57.67 55.81 54.30 52.35 54.41 54.36 53.08 47.85 51.79 52.11 53.14 53.75 52.39 52.12 53.78 51.89 50.73 53.35 53.02 55.52 56.91 56.40
57.65 57.39 57.27 56.92 56.50 56.79 56.70 56.70 56.90 57.22 57.92 58.43 58.10 58.65 59.92 56.42 41.78 56.11 60.92 60.55 62.53 61.75 58.77 56.14 53.48 49.92 50.71 49.60 54.24 49.92 53.03 53.08 53.47 54.49 54.06 51.29 53.21 51.98 52.19 52.69 56.60 56.64 57.35 57.13 56.41
57.74 57.65 57.56 57.33 56.74 56.80 56.45 56.47 56.42 56.68 57.01 57.77 58.22 58.20 55.58 48.62 48.68 58.01 58.27 57.99 57.79 58.15 55.81 53.95 51.41 49.18 47.00 50.77 52.21 50.46 52.52 53.79 54.19 54.10 53.80 54.18 51.62 51.70 51.99 54.93 56.82 57.26 57.56 56.44 56.29
58.27 57.69 57.65 57.53 57.06 56.98 56.50 56.21 56.37 56.71 56.82 56.92 57.87 58.07 52.00 42.86 55.34 56.70 57.42 56.73 56.03 55.49 54.79 54.73 52.55 52.45 48.55 48.93 49.27 52.40 52.98 53.25 53.92 53.60 53.41 51.93 51.52 51.92 52.93 55.09 55.23 56.47 55.22 53.99 54.55
58.75 58.10 58.08 57.81 57.19 57.15 57.18 56.78 56.10 56.54 56.71 56.91 57.25 55.73 49.27 46.27 55.20 55.99 56.97 55.68 55.82 54.14 51.43 55.35 54.96 52.21 50.81 47.08 52.26 51.58 47.25 51.59 52.24 52.78 52.29 53.03 48.83 49.38 53.87 54.55 53.98 54.44 51.44 52.60 53.78
58.84 58.39 58.05 58.17 57.79 57.55 57.39 56.87 56.40 56.66 56.73 56.70 56.63 53.61 45.36 55.32 56.14 54.39 54.49 53.09 54.39 54.12 53.37 54.19 55.12 52.31 50.25 50.96 49.14 47.63 47.33 41.72 50.05 52.31 52.37 50.50 43.71 51.20 54.48 53.51 52.75 50.63 48.03 52.27 53.53
59.02 58.60 57.80 58.03 58.27 58.28 57.72 56.28 56.26 56.57 56.95 56.17 52.54 50.37 43.07 55.99 50.91 53.52 54.13 50.42 51.98 52.48 53.04 53.46 51.79 48.63 49.00 43.77 42.15 44.59 39.58 41.71 45.21 51.87 50.73 49.28 45.32 51.26 54.20 52.18 50.32 48.51 49.62 51.94 52.16
59.52 58.86 58.05 57.72 57.90 57.79 57.35 55.40 54.75 54.71 55.16 54.66 52.16 44.75 47.77 45.80 50.82 52.08 53.72 52.84 49.31 49.14 47.96 47.89 46.27 43.03 44.01 41.27 33.76 37.73 40.36 42.06 42.75 48.19 49.81 47.84 46.87 50.50 52.61 50.92 49.04 49.32 49.08 50.76 51.72
59.14 58.77 57.76 57.60 57.30 57.18 55.04 52.40 47.73 46.05 49.04 43.33 44.70 44.15 47.04 50.82 52.68 50.04 52.01 49.93 48.71 46.01 39.59 44.30 39.55 36.73 39.69 41.55 42.42 42.90 42.12 42.59 45.21 49.92 47.67 47.22 47.29 49.76 51.35 51.04 49.89 49.34 48.57 50.11 50.46
58.78 58.21 57.50 57.30 57.04 56.65 54.71 47.12 47.78 48.43 41.87 47.58 47.21 46.94 49.62 50.57 44.63 47.72 51.74 44.51 43.13 38.24 41.18 39.72 35.64 40.75 43.16 43.04 41.81 41.55 40.91 41.75 46.23 49.25 47.85 47.49 46.64 49.97 49.96 50.52 50.96 50.25 49.08 49.67 49.75
58.31 57.65 57.09 56.62 56.21 54.45 50.93 49.33 53.48 51.30 41.41 43.43 46.08 45.18 46.75 48.30 43.71 45.22 48.30 45.24 40.96 38.02 38.07 35.77 38.49 42.64 41.38 40.35 39.68 39.76 39.94 41.68 42.64 47.14 47.43 45.37 43.25 45.14 49.06 50.71 51.04 52.26 50.35 51.08 49.95
57.79 57.33 56.60 55.88 50.99 51.69 49.63 54.03 53.79 51.70 34.63 36.53 40.42 44.39 46.30 45.72 40.47 48.68 49.85 45.88 41.45 36.94 38.51 37.94 41.73 39.81 39.50 38.14 40.37 36.31 44.12 44.14 44.25 43.12 38.45 44.60 33.05 42.69 46.84 48.31 49.57 47.44 47.84 49.90 49.72
57.32 57.15 56.42 55.06 52.53 49.03 51.09 52.60 51.78 48.08 24.65 38.52 40.42 48.41 46.31 41.51 42.47 42.77 49.09 45.63 38.98 38.37 39.00 35.17 37.70 37.49 36.78 38.91 41.57 38.69 45.14 43.10 44.89 43.12 40.35 41.99 37.68 41.04 46.08 45.69 44.83 45.31 47.28 49.62 49.58
57.11 56.69 56.18 53.89 52.52 52.26 52.72 51.53 48.39 32.84 24.02 35.76 39.98 39.46 39.62 40.55 41.02 43.47 43.17 46.84 45.19 39.79 39.69 37.92 42.94 40.96 39.38 41.40 41.78 44.10 41.35 42.69 44.58 42.68 36.19 40.92 38.89 38.52 42.72 44.59 45.04 46.04 47.90 49.49 49.31
57.24 56.50 54.90 53.93 48.26 52.97 51.46 46.50 32.17 27.71 37.93 35.13 35.87 38.44 37.40 37.28 38.01 38.72 38.07 36.95 34.48 30.72 30.81 36.26 36.66 40.21 40.69 39.39 41.31 42.11 39.60 34.75 33.08 34.28 33.43 41.83 39.37 40.07 42.27 46.06 47.57 46.96 48.04 48.92 49.30
56.90 56.61 54.58 52.38 52.82 51.69 48.62 38.04 27.20 34.66 34.36 38.71 37.75 37.28 35.29 37.43 37.67 37.31 36.47 33.55 38.02 36.05 32.41 29.52 27.33 37.00 39.21 38.84 38.16 39.76 39.11 32.95 29.02 31.16 32.91 41.80 35.22 39.77 45.58 46.57 48.06 49.18 49.18 49.23 48.81
56.35 54.86 51.85 51.57 52.59 50.77 42.73 29.99 31.52 35.92 38.86 36.56 36.90 33.98 33.28 36.85 37.28 36.17 35.42 34.71 36.91 37.85 31.48 32.03 30.94 39.87 42.27 41.21 43.14 38.32 33.63 40.39 37.55 39.07 34.50 35.19 38.49 41.25 44.89 44.20 45.93 47.45 48.48 48.01 48.54
51.08 50.01 49.28 53.26 52.29 47.91 38.71 33.40 35.74 40.79 39.82 38.69 34.10 35.07 30.74 33.21 32.88 33.62 34.00 38.34 37.53 40.47 40.27 34.83 31.53 39.68 41.05 44.16 44.80 42.39 45.10 37.20 37.87 31.40 28.36 33.63 35.69 36.30 40.31 41.61 43.86 46.10 46.81 47.88 48.64
48.58 44.52 50.00 53.24 50.99 42.98 33.35 34.39 37.46 41.69 41.09 37.38 36.04 35.09 35.34 33.67 34.10 33.45 34.09 38.34 40.90 40.34 39.32 36.76 33.76 35.59 38.34 40.90 39.03 40.43 40.51 41.57 41.30 38.84 32.24 29.52 33.45 42.91 42.30 44.22 43.45 45.00 47.93 48.42 48.48
47.38 40.42 50.98 52.44 40.27 40.14 35.83 38.11 40.87 40.50 42.45 40.72 39.87 38.16 36.60 37.58 34.45 34.44 34.06 38.29 43.57 41.49 36.03 37.74 36.03 32.94 35.14 40.89 45.74 44.67 41.90 42.57 37.13 34.63 35.72 34.46 32.98 43.92 43.92 44.88 45.51 45.05 48.79 49.25 49.32
44.24 45.23 51.30 48.94 35.28 36.05 38.64 39.08 39.52 38.96 41.47 40.27 39.12 40.85 40.72 37.82 33.58 36.49 38.49 44.11 43.16 40.97 38.13 38.30 34.93 31.83 32.86 39.42 43.72 42.07 43.42 43.65 41.96 40.38 35.24 31.79 32.72 44.14 43.84 43.97 45.04 45.06 47.45 49.12 48.89
44.84 40.42 44.50 45.12 43.97 39.76 37.20 38.02 36.96 41.81 40.53 42.36 41.28 41.35 39.40 37.33 39.14 37.36 38.15 43.45 44.08 42.66 45.35 46.03 40.15 34.14 33.25 36.73 40.42 39.47 41.68 42.98 40.94 35.37 35.71 35.67 34.97 40.04 42.77 43.50 44.45 45.02 46.41 48.15 48.45
44.67 42.08 43.07 36.84 38.43 40.12 40.97 39.52 37.94 36.69 42.85 43.14 39.99 39.58 38.52 35.52 37.40 36.84 39.69 42.08 44.34 44.55 43.49 40.47 38.23 39.75 41.42 42.68 42.65 41.89 41.36 41.83 40.53 40.84 35.17 37.83 38.85 40.70 43.08 43.41 44.21 45.09 46.85 47.57 47.59
42.50 40.99 44.31 43.44 41.43 40.00 39.67 38.76 38.77 38.55 41.20 40.35 38.72 42.87 41.97 37.79 38.33 36.22 39.46 39.90 39.71 42.93 40.96 42.50 37.57 40.35 38.31 41.38 42.04 40.54 42.46 42.47 42.19 41.66 40.82 42.53 40.40 45.68 45.07 45.46 44.56 44.25 45.81 46.90 47.30
48.02 47.68 43.97 43.70 43.23 40.32 40.66 40.54 40.99 42.11 41.68 43.31 42.95 40.57 42.02 42.08 44.83 44.20 44.05 44.55 45.20 42.97 41.35 39.98 39.47 37.57 32.13 38.42 38.84 34.31 39.66 41.81 42.10 43.11 43.08 39.83 43.83 44.57 42.99 45.04 44.57 44.71 46.18 46.18 46.41

GFSSW_sfc_wetblb_015.txt.gz
Wetbulb
56.69 56.67 56.72 57.06 57.01 57.19 57.25 57.44 58.14 58.88 59.15 59.77 60.37 61.46 62.00 62.25 61.99 58.67 53.35 57.09 59.35 62.00 62.32 56.91 55.10 54.76 55.22 54.39 56.74 54.75 44.13 42.60 43.79 44.42 46.89 51.00 49.10 52.14 53.73 51.28 51.97 53.19 51.82 55.37 58.18
56.93 56.97 56.94 56.66 56.68 56.75 56.87 57.37 57.40 57.97 58.90 58.82 59.21 60.27 60.85 61.37 57.07 54.38 60.21 63.55 64.13 62.52 57.09 53.84 51.83 52.74 48.77 51.70 53.65 49.71 44.56 45.56 48.69 48.87 47.88 50.60 50.06 50.68 50.66 50.55 50.33 51.68 55.48 54.96 56.32
57.23 57.26 57.37 56.78 56.42 56.36 56.53 56.50 57.03 57.09 57.91 58.80 58.39 59.00 60.50 59.88 52.67 51.16 62.40 64.35 64.43 62.80 58.83 57.04 54.98 52.04 47.95 49.22 50.58 50.16 46.58 49.38 50.55 52.08 51.67 50.10 49.93 51.91 49.20 48.12 51.33 51.83 52.54 54.69 55.33
57.81 57.48 57.54 57.35 56.68 56.34 56.37 56.30 56.29 56.43 57.07 57.81 58.22 58.54 60.04 56.20 41.14 54.59 60.16 61.55 63.35 61.71 58.38 55.43 52.65 47.05 46.62 46.87 50.27 47.28 51.70 51.91 52.61 53.82 52.36 49.66 51.47 49.37 50.36 50.29 53.66 54.18 55.01 54.54 54.86
58.44 57.89 57.73 57.59 57.32 56.46 56.52 56.14 56.21 56.26 56.22 57.07 57.78 58.07 55.57 48.39 47.74 56.85 58.70 58.72 57.88 57.94 55.16 53.71 49.89 47.72 43.35 46.27 48.03 47.44 49.93 52.59 53.65 53.45 52.79 52.41 50.00 49.70 49.98 52.79 54.12 54.76 55.07 54.36 54.49
59.21 58.51 58.03 57.57 57.48 56.90 56.83 56.23 56.17 56.09 56.10 56.20 56.61 57.52 51.64 42.50 53.22 55.08 55.85 54.67 55.02 55.67 53.72 53.65 51.34 51.23 47.06 44.98 45.32 47.89 49.52 51.08 52.87 52.74 52.49 50.54 49.64 49.56 50.94 53.07 52.70 53.59 53.38 53.49 52.37
59.88 59.28 58.67 57.73 57.40 57.13 57.10 57.26 56.51 56.02 56.16 56.22 56.39 54.97 49.26 45.09 53.12 52.98 56.14 54.27 54.43 52.82 50.73 54.96 53.79 51.14 50.39 45.36 48.51 49.52 45.71 48.04 49.44 51.53 51.13 52.34 47.82 47.65 51.44 52.35 51.75 51.83 51.97 51.04 51.97
60.24 59.69 58.80 58.25 57.49 57.36 57.41 57.18 56.98 56.38 56.56 56.57 56.11 52.26 44.34 54.42 54.56 53.18 52.92 52.23 52.38 52.29 51.80 52.64 53.87 49.54 49.28 49.28 45.94 43.95 46.32 40.43 46.49 48.96 51.19 50.92 43.96 49.35 51.68 50.55 50.65 50.54 49.09 50.14 52.21
60.10 59.79 58.86 58.27 58.13 58.20 58.18 56.97 56.12 56.16 56.51 56.25 51.77 48.63 42.09 55.73 50.40 52.43 52.20 49.46 50.27 50.40 50.65 52.48 49.76 46.54 46.95 43.19 39.79 40.23 36.80 39.17 42.37 48.62 49.00 49.07 45.27 49.28 50.99 50.47 49.02 48.70 47.52 49.17 50.09
59.91 59.50 58.72 58.14 57.90 57.73 57.53 56.51 54.92 53.87 54.55 54.90 52.16 44.07 46.51 44.61 50.39 51.80 51.90 51.51 48.07 47.78 47.07 46.60 43.25 39.89 40.15 40.51 32.12 34.49 36.65 39.25 39.68 44.87 47.45 46.07 46.50 47.88 49.92 50.10 48.45 47.95 46.27 48.10 49.43
59.21 58.75 58.37 57.78 57.49 57.01 54.22 50.26 46.15 44.44 49.21 43.41 44.41 42.64 46.50 50.13 51.97 49.89 50.99 48.81 48.13 44.07 38.87 41.99 36.93 34.55 36.98 39.91 39.90 38.19 37.41 38.44 42.27 46.45 45.27 44.83 45.53 47.73 49.70 49.29 47.19 45.44 45.11 47.30 48.39
58.82 58.47 58.40 57.67 57.40 57.02 52.66 47.23 45.34 46.79 41.64 47.77 46.92 46.59 48.85 50.50 44.38 47.40 50.74 43.77 42.42 37.66 39.09 36.97 34.60 38.98 41.06 40.92 40.30 38.92 36.83 36.71 40.90 45.52 45.04 44.79 44.55 48.10 49.21 49.83 48.87 48.11 46.16 46.97 47.38
58.52 58.09 57.78 57.32 57.03 53.37 49.51 48.62 50.73 50.40 40.10 43.16 46.28 45.31 46.36 48.24 43.53 44.56 47.99 44.48 39.91 37.20 36.88 33.74 37.09 41.40 39.83 38.12 37.37 37.70 36.14 36.41 37.47 42.80 45.22 43.50 42.06 44.55 47.92 50.18 49.63 49.08 47.73 49.04 48.85
57.70 57.78 57.04 56.56 50.61 49.90 47.83 51.74 51.39 50.64 34.54 37.04 40.32 44.79 46.29 46.19 41.29 48.81 49.57 45.01 41.10 36.14 37.48 35.98 39.60 38.08 37.79 36.54 37.83 33.38 40.22 39.91 39.09 38.43 35.90 43.27 35.89 41.27 45.61 45.80 47.06 46.29 45.39 47.68 48.01
57.16 57.37 56.73 54.23 48.38 46.73 49.98 51.93 51.97 48.62 22.74 37.48 40.50 48.62 46.45 41.82 42.67 43.13 49.39 45.86 38.58 37.86 38.19 33.84 36.18 35.85 34.82 36.55 39.31 35.50 40.96 39.45 39.37 37.80 38.69 40.23 37.90 38.58 43.64 44.48 45.77 45.42 45.66 47.21 48.38
56.86 56.86 56.05 52.60 51.68 51.66 51.67 50.44 46.91 33.01 20.72 35.36 40.06 39.45 39.53 41.70 41.69 43.82 43.26 46.35 45.15 39.86 39.27 36.78 41.50 39.62 38.07 39.81 40.02 41.53 38.72 38.51 39.13 38.50 32.31 37.70 37.28 35.56 39.72 43.31 46.01 44.20 46.02 47.01 47.71
56.86 56.64 54.80 53.17 46.52 52.16 50.86 44.83 31.03 26.00 36.28 34.39 35.30 38.35 37.15 36.76 38.05 39.51 38.21 37.70 35.43 30.60 31.19 36.53 36.47 39.42 41.02 36.88 39.59 38.16 34.12 28.14 27.93 29.26 29.10 38.99 35.23 38.29 42.05 45.23 47.62 44.59 46.03 46.91 47.71
56.34 56.16 54.58 52.78 52.43 51.19 47.72 38.33 24.81 31.90 32.53 39.08 37.70 36.67 35.06 36.70 37.52 37.93 36.07 33.86 38.78 35.30 31.37 26.97 21.98 35.36 39.15 37.00 34.01 35.02 33.82 29.34 21.95 26.33 31.87 40.73 35.22 40.36 46.46 45.37 47.16 47.06 47.29 47.22 47.10
56.20 54.49 51.54 52.04 52.20 50.45 41.82 29.90 27.28 33.13 38.59 36.68 36.75 33.63 34.36 36.32 35.73 36.23 34.81 34.09 35.09 36.28 26.93 27.37 28.35 38.93 39.19 39.62 39.27 34.70 31.17 37.07 34.21 36.37 32.75 37.45 38.88 41.79 41.56 42.62 44.94 45.67 46.17 46.02 46.19
53.12 50.07 48.35 52.24 52.08 47.10 37.90 31.97 33.61 39.88 40.15 39.04 33.68 35.51 30.99 32.75 32.52 34.51 33.43 36.75 35.83 37.80 38.47 34.42 28.09 36.40 37.86 39.98 39.78 38.13 40.56 32.16 32.94 29.40 28.48 32.42 32.37 34.75 37.24 40.47 43.87 44.53 44.84 45.73 46.44
49.69 45.10 50.05 52.40 50.77 42.49 32.86 34.19 37.21 41.58 41.50 37.43 36.25 35.59 34.38 31.92 32.75 31.34 31.96 36.81 39.25 38.36 38.88 36.79 33.40 32.55 34.31 36.23 33.77 36.25 36.75 37.21 37.60 35.14 31.78 29.35 32.18 39.42 40.11 42.30 43.26 44.75 45.60 45.81 46.19
47.65 41.14 50.62 51.10 40.23 39.75 35.96 37.89 41.28 39.65 42.30 40.25 39.31 38.31 35.91 34.78 32.28 30.83 31.69 35.86 42.04 40.41 35.39 37.74 35.05 30.22 32.70 40.01 42.61 39.88 38.34 38.07 32.85 32.89 35.81 31.55 31.06 39.89 41.86 42.11 44.47 44.78 46.33 46.82 47.12
44.75 44.88 50.42 48.81 34.47 36.09 38.99 38.62 40.24 39.25 39.91 39.75 38.52 39.62 39.59 36.51 32.74 34.16 36.50 42.03 41.37 40.22 37.01 38.14 33.75 28.06 31.67 37.69 41.72 38.23 41.04 40.84 40.05 39.13 35.69 29.60 31.23 41.79 40.58 41.44 42.72 44.47 45.95 46.52 46.54
45.30 39.16 44.39 45.49 43.79 38.92 37.09 37.20 37.26 41.33 39.92 41.47 40.80 41.22 38.08 35.21 37.32 35.15 35.71 41.94 42.61 41.66 43.08 40.38 36.63 34.04 31.41 36.09 40.58 37.44 38.78 40.94 38.98 35.22 34.59 32.50 34.42 37.84 39.72 41.44 41.37 44.01 46.15 46.29 46.64
44.62 41.50 42.46 36.52 38.11 40.21 40.11 39.09 37.54 36.02 40.30 41.88 39.63 39.21 36.65 32.59 34.35 34.27 37.85 39.72 41.52 43.37 41.51 37.85 33.41 35.58 35.92 37.12 40.13 40.54 39.76 38.21 36.14 40.02 36.40 35.35 36.49 38.64 40.45 41.01 41.33 44.35 46.05 45.95 45.91
41.20 41.92 43.41 40.41 40.65 39.20 39.58 38.89 38.24 38.72 39.16 40.20 38.61 39.94 38.97 34.86 35.15 34.19 38.27 37.95 38.49 40.56 38.04 39.39 34.65 38.08 38.12 41.26 41.45 39.80 41.48 41.86 41.54 42.04 40.97 39.87 38.24 40.49 41.11 41.42 41.17 43.36 46.02 46.01 45.83
47.59 47.68 44.84 43.01 39.83 38.47 38.60 38.55 39.28 41.35 41.66 41.88 41.89 40.38 38.78 40.14 42.93 42.73 42.34 41.70 42.84 39.87 37.83 38.41 37.66 37.88 32.29 40.39 39.16 35.86 40.28 40.61 40.93 41.49 40.90 36.94 41.44 40.51 40.78 42.86 42.09 42.25 46.09 45.65 45.13

GFSSW_sfc_wetblb_018.txt.gz
Wetbulb
57.33 57.19 57.16 57.12 56.97 56.83 56.79 56.87 57.13 58.00 59.04 59.30 60.31 61.25 62.04 62.52 61.99 59.03 53.29 56.42 57.97 62.31 61.83 56.12 54.70 53.37 53.45 51.30 54.74 53.36 43.66 40.74 42.65 43.12 45.69 49.32 48.12 51.30 52.24 49.91 51.04 51.62 51.00 53.45 56.55
57.65 57.46 57.53 57.16 57.00 56.58 56.54 56.61 56.85 57.22 57.95 58.96 58.99 60.38 60.93 60.95 57.49 54.81 59.74 63.27 63.91 63.49 56.16 53.06 51.27 52.65 47.60 49.22 51.51 49.34 44.70 44.60 47.64 48.15 46.83 49.18 48.94 49.11 48.98 49.47 48.86 50.82 53.70 54.97 57.47
58.37 57.63 57.54 57.68 57.07 56.34 56.35 56.46 56.45 56.59 57.35 58.10 58.23 58.94 60.15 59.90 52.42 51.56 61.99 64.33 64.67 63.00 58.10 56.30 54.30 51.79 46.37 47.47 48.51 49.60 46.11 48.55 49.29 51.08 50.39 48.94 48.11 50.78 48.66 46.96 49.95 50.20 50.93 52.45 53.89
59.16 58.27 57.83 57.42 57.39 56.50 56.26 56.01 56.06 56.08 56.36 57.51 58.03 58.25 59.42 55.66 40.05 53.35 60.66 62.35 64.29 61.58 57.65 54.71 51.74 47.31 44.62 45.77 49.06 44.32 49.79 50.85 51.67 52.78 51.55 48.63 50.18 48.47 48.59 49.37 52.59 53.13 53.57 53.16 53.92
59.74 58.92 58.23 57.82 57.90 57.04 56.61 56.03 55.91 56.07 56.18 56.40 57.46 58.00 55.12 47.72 47.49 55.18 58.66 59.36 58.25 58.81 55.76 53.31 49.10 47.35 42.83 44.16 45.55 44.25 47.14 50.62 52.30 52.72 52.43 52.58 49.45 48.96 49.01 51.99 52.74 53.12 53.46 52.79 53.03
60.25 59.30 58.82 58.01 57.80 57.58 56.83 56.58 56.02 55.90 55.74 56.05 56.34 57.25 50.42 40.73 52.50 53.95 55.84 53.74 54.06 55.45 53.89 53.57 50.82 50.22 46.08 44.29 43.14 45.55 46.41 47.72 50.42 50.90 51.37 50.46 50.52 48.55 50.82 51.86 51.38 52.52 52.39 52.05 52.32
60.96 60.15 59.55 58.61 57.65 57.64 57.19 57.25 56.82 56.03 55.82 56.07 56.28 54.79 48.95 44.63 51.97 52.22 52.96 52.66 53.44 53.30 51.29 53.92 53.61 50.16 48.80 45.10 47.46 46.23 43.08 45.53 46.56 48.28 48.59 51.26 47.60 48.06 50.72 50.98 50.59 50.40 51.44 50.97 51.27
60.83 60.33 59.76 58.85 57.76 57.73 57.39 57.62 57.56 56.67 56.23 56.25 56.20 51.89 42.99 53.32 53.45 51.99 52.08 50.50 53.31 51.94 51.35 51.71 53.66 50.81 48.13 49.62 45.30 41.76 41.08 37.39 44.16 47.46 48.44 48.93 42.59 49.13 50.89 48.52 48.80 49.47 49.71 49.02 50.71
60.49 60.12 59.61 58.96 58.43 58.22 58.14 57.76 56.62 56.22 56.09 56.19 51.37 47.83 40.81 54.36 49.93 51.33 51.48 48.90 49.24 49.48 49.94 52.49 50.23 46.06 44.98 43.60 39.20 38.21 32.84 35.66 40.68 47.15 46.89 46.68 43.79 49.10 51.23 48.39 47.86 48.20 48.34 48.01 48.57
59.69 59.80 59.45 58.83 58.23 57.75 57.91 57.13 55.85 53.67 53.45 54.81 52.01 45.28 46.18 44.18 49.82 50.93 50.89 50.80 47.08 46.75 45.75 45.80 43.97 38.37 39.85 40.18 32.43 34.79 33.37 35.13 35.55 43.03 45.08 44.34 44.15 47.35 48.67 47.87 48.06 49.48 47.48 46.02 48.35
59.02 58.73 58.76 58.39 57.85 57.52 55.22 50.08 44.95 44.65 48.29 43.90 44.91 43.43 44.78 49.23 51.40 49.59 50.54 48.05 46.65 42.88 36.54 40.46 36.21 33.62 35.50 38.77 38.79 37.49 35.02 34.28 37.94 43.78 42.24 42.55 43.62 46.10 48.96 47.38 46.02 46.87 45.61 44.53 47.36
58.12 58.27 58.06 58.22 57.67 57.26 50.91 44.64 44.32 45.37 39.90 46.98 47.00 46.28 48.27 49.82 44.13 47.42 50.03 42.73 41.51 37.21 38.45 37.60 34.14 38.27 39.03 38.69 38.52 37.55 35.63 35.17 38.30 41.79 42.47 41.28 41.50 45.78 47.95 48.87 48.85 48.81 46.12 44.90 46.55
57.55 57.74 57.73 57.77 56.98 53.95 48.47 47.72 49.88 47.97 39.57 42.63 45.80 45.24 45.97 48.03 43.57 44.54 47.13 43.76 39.50 37.81 38.18 34.16 35.84 39.91 38.57 37.04 35.89 35.77 34.52 34.65 34.81 39.08 40.79 40.09 37.90 41.71 46.85 48.74 49.28 50.42 48.00 47.08 48.21
56.94 57.24 57.28 56.67 50.95 49.34 47.90 50.49 49.88 50.14 33.81 36.05 40.11 44.88 46.34 47.33 41.78 48.82 49.26 45.08 40.92 36.48 36.98 36.24 39.29 37.47 37.23 35.91 36.55 32.30 38.76 38.40 37.13 35.11 29.84 40.19 31.61 38.81 43.83 45.53 46.99 48.86 43.94 46.88 47.70
56.27 57.03 56.81 54.86 46.57 46.73 48.19 50.75 50.43 48.46 12.80 36.61 40.06 48.43 46.66 42.62 43.08 43.24 49.75 45.56 38.78 37.52 37.10 34.06 35.22 35.45 33.96 35.13 38.29 34.33 39.39 37.57 37.49 35.05 33.39 34.01 32.24 37.52 43.04 41.99 45.48 48.17 43.81 46.85 47.98
56.10 56.74 55.97 51.99 50.95 51.09 51.66 51.04 47.49 27.46 15.96 35.11 39.98 38.80 39.05 41.84 42.15 44.11 43.57 46.73 45.39 39.77 39.17 36.41 41.68 38.93 37.00 38.73 39.65 40.24 36.98 36.28 35.60 35.77 28.28 32.09 33.09 33.88 39.24 42.26 44.59 46.51 45.35 46.65 47.71
55.63 56.38 54.26 51.38 47.65 52.21 51.13 45.39 28.69 16.58 34.82 34.28 35.16 38.12 37.23 37.19 38.47 39.71 38.51 37.77 35.97 31.63 29.94 35.19 36.32 39.14 40.70 36.72 38.92 37.28 32.91 24.77 22.62 23.75 22.95 33.42 31.67 34.16 41.06 43.37 46.26 47.47 44.16 45.62 47.43
53.97 55.93 53.89 50.94 52.39 51.51 47.60 38.12 20.05 29.42 31.63 38.99 37.31 37.30 33.84 36.47 37.22 37.88 36.89 33.91 37.66 35.63 32.47 29.28 26.54 34.84 39.19 37.54 34.93 34.69 33.46 25.34 16.79 17.94 23.32 35.99 30.55 35.62 43.36 46.12 47.62 47.29 46.99 46.15 46.17
52.09 53.84 51.29 51.52 52.39 50.33 41.74 30.28 27.89 31.11 37.05 35.57 36.01 32.60 33.07 35.93 36.06 36.08 34.89 33.91 35.15 37.58 30.17 28.57 28.25 37.86 38.49 39.33 38.94 33.34 31.18 35.49 29.06 30.59 29.63 32.70 36.77 42.57 45.39 42.32 42.45 46.13 45.01 44.96 46.07
51.24 51.10 49.03 52.34 51.88 47.30 37.68 32.71 32.81 39.45 39.74 38.30 31.81 34.65 30.61 32.37 32.54 33.24 32.27 34.63 35.45 37.99 37.20 32.67 24.35 34.83 37.49 38.93 38.87 35.47 37.28 28.46 28.72 22.51 20.54 30.85 35.26 36.54 41.05 41.04 41.02 42.38 43.24 44.79 46.25
48.78 45.52 49.99 52.35 50.69 42.21 32.37 33.98 36.55 41.63 40.90 37.28 35.31 35.05 34.26 31.41 32.05 31.18 31.02 35.40 37.21 36.51 37.70 34.79 30.63 31.24 34.70 32.82 32.16 33.76 32.14 33.38 31.77 29.86 29.81 27.05 32.63 41.50 41.28 42.62 42.24 42.69 44.38 44.72 45.44
48.23 37.08 50.19 50.96 39.18 38.35 35.15 37.57 40.87 39.95 41.72 39.44 39.26 38.15 36.45 34.75 31.79 30.35 30.73 34.23 39.95 38.54 33.04 36.15 33.33 27.64 30.37 37.32 39.05 36.53 33.43 33.31 28.47 27.25 31.35 31.84 32.01 42.99 42.14 44.26 45.27 44.26 44.69 45.34 46.14
44.77 43.92 49.82 48.75 33.32 34.62 38.78 38.31 40.01 38.94 39.44 39.14 38.23 39.44 39.13 35.11 31.16 32.54 34.05 40.12 41.42 39.36 36.26 37.54 33.65 27.12 28.70 33.23 37.17 35.55 35.71 37.24 36.54 35.52 32.80 30.66 32.69 40.96 40.53 42.36 45.02 43.56 43.83 44.88 45.09
44.33 38.27 43.23 45.02 42.98 38.46 36.57 36.94 36.77 41.83 40.24 41.00 39.70 40.69 38.54 35.12 35.80 33.63 34.78 40.53 41.86 41.49 43.04 40.65 35.27 31.85 27.14 33.88 37.12 34.60 34.65 37.79 35.99 31.24 32.07 31.87 34.23 39.39 38.12 39.97 41.34 42.42 43.85 44.37 44.87
45.84 40.19 41.88 35.41 38.53 39.02 39.51 39.13 36.64 36.83 40.47 41.32 38.04 38.98 38.19 32.88 32.79 32.53 36.00 38.62 40.93 43.09 41.35 37.63 31.93 33.76 34.69 35.89 37.20 37.95 36.09 37.94 36.65 36.75 32.88 35.62 36.95 40.42 40.84 40.76 42.05 43.43 43.73 43.86 44.26
42.66 41.22 42.77 39.28 40.62 39.85 39.14 37.72 37.76 39.02 39.58 38.27 36.88 39.92 38.87 35.15 33.58 31.30 36.39 37.18 36.85 40.42 39.11 38.62 31.87 34.48 35.12 38.58 37.63 38.04 38.84 39.83 39.06 36.83 35.69 35.60 35.32 42.36 39.80 40.25 41.07 42.53 43.84 43.98 44.34
46.18 45.21 43.55 40.48 39.40 38.20 38.41 38.55 38.97 40.98 41.39 41.89 40.79 39.97 38.08 39.02 40.94 40.17 41.65 40.79 41.20 39.15 37.59 37.10 34.85 34.05 33.30 39.30 38.70 36.08 38.67 38.92 38.96 38.59 36.81 33.01 39.51 40.53 39.98 41.08 40.81 41.85 44.78 44.60 44.90

GFSSW_sfc_wetblb_021.txt.gz
Wetbulb
58.28 57.66 57.37 57.37 57.52 57.51 57.44 57.37 57.15 57.73 58.69 59.13 60.20 61.37 62.11 62.79 62.33 59.47 53.97 56.27 57.52 62.04 61.22 55.35 53.93 53.69 52.15 49.75 53.22 51.10 43.05 40.04 41.26 41.50 44.15 47.35 46.49 49.97 50.66 47.33 49.33 49.56 51.44 52.74 55.52
58.77 58.17 57.61 57.70 57.49 57.40 57.18 57.06 57.08 57.08 57.64 58.52 58.74 60.45 61.13 61.40 57.91 55.61 60.10 63.16 64.07 63.80 55.64 52.03 49.98 51.88 46.86 47.65 49.84 48.47 43.66 42.93 45.98 45.70 44.74 47.61 47.69 48.13 48.38 48.25 48.09 49.23 52.30 54.70 57.45
59.66 58.86 58.07 57.68 57.78 57.44 56.93 56.92 56.54 56.64 57.19 57.69 57.98 58.55 59.96 59.08 51.66 50.75 62.38 64.32 64.76 63.22 56.98 55.21 53.44 50.94 45.17 46.33 46.93 47.67 44.30 47.63 48.31 49.66 49.88 47.71 47.03 49.55 47.16 45.73 48.89 49.26 49.99 52.51 54.03
60.62 59.63 58.60 57.88 57.40 57.60 56.92 56.78 56.41 56.12 56.24 57.29 57.80 57.99 58.75 54.90 39.73 51.86 60.56 62.13 64.15 61.17 56.86 54.05 50.75 45.94 43.30 43.92 47.67 42.81 47.04 49.47 50.64 51.69 50.57 48.26 49.13 47.61 47.28 47.96 50.82 51.27 52.47 51.69 52.43
61.32 60.35 59.10 58.33 57.94 58.00 57.12 56.92 56.39 56.32 56.10 56.31 57.29 57.83 54.32 46.73 46.73 54.07 59.66 58.35 59.02 58.64 55.26 52.70 47.94 45.97 41.85 43.02 44.45 42.67 45.38 48.57 49.97 51.14 51.05 51.68 49.73 47.91 48.71 50.92 52.26 51.80 51.73 51.66 51.73
60.91 60.61 59.91 59.01 58.25 58.18 57.49 57.03 56.48 56.27 55.87 55.95 56.22 57.04 49.76 39.46 51.08 53.08 52.93 53.54 54.66 56.51 54.56 53.71 50.02 49.52 45.90 43.65 42.27 43.97 44.53 45.17 47.30 47.96 49.27 48.65 49.23 48.82 48.90 51.05 50.51 50.67 51.13 51.41 50.85
60.81 60.66 60.04 59.54 58.33 57.83 57.79 57.25 56.95 56.34 56.09 55.93 56.18 54.35 48.13 44.30 51.05 51.69 52.57 50.83 51.98 54.35 51.86 53.82 53.22 49.95 49.13 44.52 46.81 45.11 41.29 43.55 44.45 45.92 46.42 48.91 45.83 46.85 50.65 50.77 48.98 49.15 49.63 51.10 51.35
59.90 60.26 59.70 59.43 58.86 58.03 57.77 57.44 57.71 56.99 55.97 55.84 56.09 51.08 41.91 52.17 52.39 51.51 51.23 49.92 51.20 52.03 50.64 52.32 54.97 50.61 48.98 48.52 45.48 40.52 38.88 35.05 41.37 45.12 46.72 47.19 39.72 47.03 51.24 50.73 49.00 48.33 47.90 48.93 49.95
59.54 59.75 60.19 59.37 58.71 58.18 58.15 57.90 57.18 56.36 55.82 56.13 50.75 46.55 39.85 52.93 49.51 51.07 51.14 48.34 48.68 49.35 49.18 52.58 50.14 45.83 45.95 42.63 39.96 40.67 33.52 34.08 38.34 45.41 45.43 45.12 41.33 46.51 50.05 48.54 46.76 46.93 47.09 48.58 48.70
58.89 58.82 58.78 58.81 58.34 57.99 58.01 57.11 56.22 54.06 52.84 54.18 51.95 44.57 45.61 43.82 49.31 50.30 50.44 50.38 46.19 45.97 44.96 45.63 44.47 40.67 41.40 39.86 30.60 32.37 31.87 32.39 34.25 40.97 42.44 41.72 41.96 45.29 47.50 47.47 46.94 47.42 48.44 47.48 47.51
57.26 58.17 58.23 58.37 58.09 57.83 55.28 51.28 46.20 44.69 47.47 44.08 45.14 43.98 44.69 48.58 50.90 49.05 49.71 47.80 46.01 42.18 35.80 39.60 37.38 34.37 37.00 37.06 37.53 36.28 35.79 35.30 36.18 41.06 38.84 38.45 39.73 42.82 45.80 46.38 47.61 45.26 46.14 46.18 46.18
55.02 57.69 57.62 58.05 57.93 57.50 52.06 46.02 43.89 44.99 39.64 45.88 46.51 45.96 48.23 49.72 44.03 46.91 49.71 42.77 41.19 36.26 37.72 36.13 32.47 36.86 37.91 37.17 36.42 36.12 35.36 35.04 37.29 40.38 38.91 37.55 37.14 41.08 43.03 44.59 47.12 47.94 47.37 48.20 44.62
54.59 55.35 57.09 57.47 57.51 54.57 50.12 46.78 49.34 47.18 37.70 41.45 45.16 44.80 45.45 47.55 43.40 44.29 46.79 42.74 38.55 36.24 35.98 33.36 34.75 39.30 37.43 35.36 34.05 33.94 32.74 33.25 33.63 37.23 38.72 36.31 33.81 36.62 41.77 44.94 46.87 49.10 49.67 49.89 46.51
53.89 53.42 56.73 56.94 52.74 51.30 48.14 49.84 49.20 48.34 25.74 33.73 39.73 43.81 46.19 47.08 41.29 48.04 48.63 44.76 40.64 36.85 37.32 36.86 39.85 36.71 35.26 33.97 35.16 30.74 36.81 36.41 35.13 33.18 27.54 35.98 25.61 33.84 38.19 41.31 44.77 47.05 48.21 46.87 45.43
52.47 53.29 56.00 55.93 49.29 47.09 47.74 49.52 49.53 44.26 12.17 35.63 40.57 48.26 47.03 42.28 43.13 42.50 48.74 45.36 38.53 37.47 36.73 33.95 34.77 34.51 33.25 34.99 37.39 33.86 38.08 36.55 36.31 33.24 31.12 31.69 29.20 29.89 39.12 38.34 41.86 44.19 46.84 45.16 45.89
50.49 52.99 54.06 51.09 50.29 49.45 50.52 50.57 48.53 27.39 14.80 34.02 39.78 39.17 39.86 41.73 42.20 43.76 43.45 46.90 45.05 39.91 38.95 35.49 39.46 37.95 36.28 38.16 38.27 39.40 36.09 34.78 35.59 33.15 25.64 29.98 29.33 29.50 32.76 37.52 41.34 44.13 46.78 46.41 45.53
50.99 52.53 51.84 51.98 46.87 50.97 51.11 46.27 30.39 19.13 33.62 33.24 34.05 37.42 36.10 36.30 38.38 39.83 38.15 38.24 35.48 31.69 30.36 35.45 36.43 38.87 39.40 35.14 38.12 37.12 33.86 26.08 24.41 24.09 22.15 30.25 29.17 31.53 35.65 39.85 43.27 45.02 46.17 45.58 45.67
51.51 50.90 51.09 51.87 52.07 51.51 48.24 37.06 17.00 28.43 30.20 37.70 36.33 36.70 32.57 35.47 36.56 37.88 36.57 33.48 38.56 36.54 32.45 28.40 25.82 36.12 38.49 35.78 33.37 33.65 33.37 26.42 18.60 18.11 20.68 30.63 24.84 31.37 39.85 42.37 43.44 45.40 44.90 43.73 45.63
51.03 49.77 50.72 51.37 52.21 50.96 41.78 29.38 25.65 29.32 35.52 34.83 35.90 32.89 32.94 35.83 36.11 35.75 35.47 33.34 35.37 36.61 30.08 28.56 26.46 36.92 37.91 38.73 38.13 34.29 30.28 34.92 28.70 29.16 26.41 28.36 31.79 39.45 40.21 41.57 42.29 43.42 44.24 43.13 44.79
46.75 46.01 48.06 52.06 52.28 47.69 37.64 28.92 31.13 38.15 38.09 36.72 29.85 33.41 30.25 32.91 32.92 32.96 31.29 33.80 34.70 36.45 38.46 33.65 23.44 33.61 36.27 39.03 38.81 35.63 36.87 29.16 30.01 20.41 17.78 23.71 28.92 31.86 36.34 39.92 42.28 40.85 42.94 43.20 44.77
45.67 40.55 49.25 52.03 50.41 42.47 32.40 33.51 35.18 40.72 40.19 36.10 33.77 33.53 33.90 31.81 33.26 30.94 30.38 33.79 36.33 35.74 38.43 36.30 31.91 28.03 34.98 33.45 31.60 33.54 31.71 32.59 30.37 27.27 20.77 21.50 26.03 38.41 39.80 42.53 40.81 40.30 41.82 43.32 44.70
43.96 34.78 49.78 50.90 39.99 38.63 34.83 36.16 40.16 39.15 40.67 39.06 38.82 37.39 35.78 34.68 32.48 29.86 29.55 32.86 38.00 37.56 33.72 36.06 32.86 26.94 29.50 36.15 38.14 35.47 32.45 32.12 26.65 21.80 25.97 23.81 26.14 40.01 38.84 40.76 43.23 41.24 43.32 44.52 46.05
41.97 42.60 49.61 48.08 31.55 34.02 38.31 38.03 39.06 38.89 38.88 38.64 37.47 38.71 39.30 36.48 31.94 31.92 32.82 38.44 39.34 36.91 34.36 36.67 32.50 25.61 29.04 31.49 35.22 33.55 34.06 34.12 32.87 32.09 26.09 23.23 26.55 41.40 42.84 42.11 43.94 43.79 44.67 44.79 45.00
42.40 34.08 42.65 43.87 42.04 36.87 36.19 36.28 36.38 41.11 39.81 40.52 39.59 40.30 38.26 35.19 36.57 32.29 33.14 39.03 39.52 39.41 42.68 40.14 34.40 30.78 25.74 30.69 33.31 30.67 32.60 33.85 32.77 27.34 27.89 29.02 32.43 38.34 41.05 41.52 42.12 42.07 44.31 44.76 44.15
42.74 37.98 39.93 34.70 37.13 37.35 38.05 38.47 36.15 36.90 40.38 41.39 38.73 38.19 37.82 34.33 33.68 32.69 35.07 36.95 40.34 42.77 41.47 37.71 30.75 32.69 33.29 34.31 34.40 34.43 33.11 33.71 31.56 31.99 28.09 31.73 34.69 37.67 40.69 41.57 43.31 42.81 42.99 43.01 43.48
41.96 40.47 42.09 39.07 39.82 38.32 38.40 37.27 37.15 38.05 38.77 37.51 37.30 38.86 38.56 36.73 34.34 29.79 34.08 34.36 36.46 40.59 39.12 38.65 30.04 33.07 31.16 35.67 35.01 33.71 34.93 34.16 33.80 34.41 34.08 36.43 35.49 41.50 43.19 42.09 41.00 41.84 42.88 42.82 43.35
47.27 46.36 41.33 40.43 39.07 38.07 37.83 38.82 38.32 40.90 41.37 42.11 39.74 38.85 38.52 39.86 41.19 40.99 38.91 39.17 40.40 39.23 37.87 35.03 33.32 33.30 31.79 36.84 35.13 31.98 36.18 34.83 36.03 37.55 37.71 33.99 38.40 41.85 41.16 42.02 42.35 42.55 43.83 43.32 43.65

GFSSW_sfc_wetblb_024.txt.gz
Wetbulb
60.43 58.96 57.93 57.43 57.34 57.39 57.31 57.23 57.45 57.64 57.98 59.11 59.59 61.02 61.98 62.78 62.16 59.10 53.40 56.01 57.13 62.29 60.93 54.54 53.24 52.88 51.09 49.09 52.28 49.50 42.11 38.79 39.70 40.34 42.31 46.07 44.88 48.79 49.89 46.23 48.80 48.89 49.35 51.83 55.20
60.81 59.69 58.61 57.87 57.41 57.46 57.35 57.07 56.96 57.36 57.53 58.03 58.83 60.22 61.15 61.42 59.00 56.29 60.81 63.23 63.02 62.98 55.88 51.43 48.94 50.68 46.03 47.20 48.73 47.44 42.05 41.20 45.07 44.42 43.66 46.00 46.22 46.89 47.35 47.28 46.63 49.04 51.81 53.84 56.03
60.93 60.26 59.48 58.43 57.70 57.64 57.41 56.97 56.70 56.70 57.00 57.84 58.45 58.63 59.74 59.20 50.03 49.71 62.14 64.45 64.58 63.65 56.65 54.27 52.41 49.78 44.39 45.24 45.64 45.72 42.58 44.97 46.87 48.65 48.86 47.05 46.57 48.28 45.91 45.29 47.99 47.50 49.80 52.57 55.24
60.76 60.78 60.06 59.03 58.07 57.89 57.45 56.89 56.52 56.27 56.30 57.37 58.01 58.06 58.54 54.03 38.10 50.68 60.24 61.19 63.72 61.17 56.71 52.95 49.50 44.82 42.51 42.32 45.97 40.51 45.99 47.80 49.37 50.85 49.73 47.51 49.08 47.00 46.96 47.89 49.93 49.81 51.11 50.64 51.07
60.45 60.70 60.48 59.57 58.55 57.57 57.81 56.99 56.61 56.24 56.15 56.27 57.26 57.67 53.43 44.92 46.47 53.35 59.34 57.19 57.74 58.98 55.83 52.12 46.66 44.91 41.03 41.76 42.88 41.85 44.25 47.31 47.71 47.53 48.66 50.14 48.56 48.25 48.41 50.84 52.23 52.15 51.19 50.64 50.72
59.72 60.19 60.22 59.86 59.17 58.41 58.13 57.16 56.86 56.31 56.08 56.06 56.01 56.63 49.05 37.09 49.00 52.16 51.51 52.36 56.62 57.16 55.12 52.75 49.39 48.55 44.20 42.93 41.38 42.86 43.67 43.87 45.54 45.95 46.34 45.76 46.51 47.40 48.57 50.49 49.87 50.17 50.10 50.23 49.98
58.32 59.66 59.83 59.59 59.14 58.39 58.03 57.68 57.05 56.37 56.28 55.85 56.10 53.90 47.27 43.78 50.45 50.63 51.89 49.31 51.04 54.83 53.28 53.79 52.52 48.75 47.38 42.90 46.07 44.65 40.31 42.36 43.14 44.27 43.94 47.08 43.55 44.55 49.35 50.35 49.45 48.74 49.06 50.17 50.27
56.84 58.25 59.12 59.31 59.25 58.71 57.95 57.79 57.44 57.12 56.10 55.69 56.08 50.10 40.48 51.16 51.12 50.98 50.10 48.69 50.13 51.31 50.33 53.75 54.35 50.48 48.70 46.97 44.72 41.89 42.11 34.62 40.12 42.84 44.49 45.83 37.72 45.63 47.89 48.26 48.46 49.58 47.99 48.83 50.54
55.21 56.61 58.41 58.87 58.68 58.55 58.27 57.82 57.34 57.10 56.27 55.98 49.84 45.62 39.32 52.08 49.07 50.00 50.02 47.17 47.99 49.10 48.86 52.18 50.32 44.04 43.56 39.56 37.86 40.39 33.47 35.59 36.83 42.65 43.20 43.34 38.45 44.51 46.74 46.57 45.96 46.30 46.09 47.31 48.27
53.76 54.81 56.21 58.11 58.30 57.87 57.95 57.10 56.18 54.73 52.86 53.61 52.04 43.36 44.81 43.59 48.38 49.56 49.76 49.68 45.56 45.73 45.04 44.36 44.40 40.37 39.57 36.75 28.15 30.38 34.01 35.92 35.64 38.77 39.73 39.00 39.29 42.82 44.73 45.50 45.57 45.63 45.92 46.16 47.18
52.77 54.15 55.35 57.53 57.79 57.58 55.84 51.89 46.61 45.29 47.53 41.49 43.54 43.36 44.68 48.13 50.08 48.25 49.01 47.12 45.26 41.76 36.70 39.52 37.49 34.77 37.50 36.74 35.93 34.00 35.85 35.31 38.54 41.97 39.06 37.48 37.72 40.14 42.47 43.25 43.72 45.49 47.21 45.76 46.60
52.27 53.28 54.70 55.40 57.59 57.52 52.85 47.23 46.14 44.13 38.44 45.03 45.78 46.28 48.02 49.01 43.49 46.30 49.03 42.23 40.49 35.62 37.03 35.34 32.48 37.38 38.29 38.69 37.57 36.29 34.00 33.41 36.31 38.80 37.59 36.24 35.98 39.59 41.05 41.92 43.86 44.84 46.21 46.80 47.16
51.88 52.36 54.17 53.35 56.79 54.64 49.87 47.18 48.99 46.72 36.59 40.07 44.08 43.74 45.17 47.26 43.17 43.65 45.85 42.04 38.01 35.03 34.96 32.06 33.73 38.51 37.32 34.50 34.19 34.30 31.80 30.79 30.88 34.98 36.98 35.07 32.18 34.83 39.12 41.44 42.58 44.11 45.70 47.38 47.70
50.87 51.04 52.11 53.81 52.90 51.91 48.13 49.27 49.58 46.16 23.92 31.44 39.56 43.03 45.36 46.73 41.02 48.13 48.15 43.10 39.40 35.05 35.54 35.69 38.70 36.40 34.37 33.21 33.67 29.71 35.26 34.97 33.74 31.62 25.83 32.63 24.24 30.72 35.15 37.29 38.49 41.12 43.49 45.98 47.33
50.64 50.66 50.78 52.28 50.43 48.37 49.45 49.74 49.39 40.63 11.53 34.85 40.10 48.13 46.91 40.96 42.48 41.89 48.12 45.20 38.34 37.57 37.68 33.93 34.40 34.44 33.85 34.11 35.52 32.51 36.68 34.90 34.52 31.92 30.87 29.95 27.28 27.46 32.85 33.24 36.49 40.26 42.24 45.05 47.20
49.99 49.82 50.49 50.50 51.75 50.59 50.90 50.93 45.31 22.98 15.71 34.08 39.75 39.47 40.05 41.51 41.92 43.22 43.67 46.55 44.38 39.52 38.97 36.42 38.84 37.63 35.10 37.34 37.34 38.55 35.00 34.80 34.56 32.67 25.46 29.30 27.38 28.04 30.76 34.00 35.72 40.00 41.80 44.85 46.63
49.87 50.93 49.95 50.88 47.54 51.45 51.18 44.56 28.28 19.33 32.75 32.05 34.18 37.41 37.19 36.79 38.23 40.19 38.78 38.28 35.62 31.38 30.52 35.84 36.38 39.34 39.73 34.05 37.13 36.62 33.58 25.55 23.53 24.04 21.28 28.63 27.34 29.89 33.24 36.19 37.08 38.86 40.80 44.24 45.74
51.05 51.14 50.72 50.04 52.37 51.62 47.68 32.82 19.53 28.21 29.56 37.44 35.36 35.83 32.64 35.58 36.57 37.64 36.68 34.15 38.85 37.11 32.41 26.54 23.53 34.97 38.89 35.22 31.99 33.12 32.28 26.01 19.45 17.10 19.05 28.51 23.08 28.96 36.94 40.55 41.79 42.23 42.72 43.27 43.50
50.55 48.07 47.83 48.93 51.94 50.56 39.97 27.61 25.68 28.71 35.05 34.71 35.26 30.49 31.88 35.53 35.62 35.85 35.39 33.41 35.85 37.41 31.01 29.59 26.90 35.95 38.33 37.91 37.33 33.81 30.14 34.18 29.02 29.90 25.98 25.93 28.82 34.48 38.65 36.90 39.15 39.91 40.96 42.03 42.32
46.46 45.16 45.36 50.93 52.24 46.66 35.33 28.94 30.68 36.45 37.39 35.86 29.22 32.54 29.46 32.99 32.62 33.89 32.90 32.58 34.67 37.97 36.19 30.48 27.01 32.37 35.42 38.47 38.52 36.20 36.48 28.28 29.13 20.95 19.47 21.25 23.21 27.22 33.98 37.23 39.67 39.67 39.32 40.46 42.38
44.58 39.49 47.73 52.37 50.16 41.58 32.06 29.79 34.34 39.89 39.26 34.94 32.31 31.77 32.21 32.54 33.86 31.90 29.54 32.83 35.76 34.53 36.53 35.57 31.91 27.86 35.09 33.27 30.84 34.14 32.56 33.44 31.72 29.12 18.92 17.39 21.61 33.47 36.18 37.21 40.33 41.30 42.35 41.38 42.48
42.73 34.19 49.29 50.77 36.95 38.36 34.60 35.26 40.26 38.64 39.95 38.04 37.46 36.31 33.75 34.02 32.35 31.46 29.27 32.05 36.79 36.54 33.11 36.52 33.21 27.20 28.13 35.85 37.81 35.45 32.34 32.20 25.48 20.90 25.23 22.28 25.15 38.98 38.14 41.43 42.39 42.41 41.40 41.12 43.20
40.95 40.37 49.94 47.17 31.69 33.92 37.54 37.06 38.58 38.32 38.11 37.59 36.35 38.15 39.35 35.78 31.88 32.97 32.09 37.41 38.02 36.65 34.07 36.03 31.96 25.69 26.92 31.43 35.53 32.76 33.96 33.84 32.88 30.75 23.05 19.73 24.92 37.01 36.85 41.69 42.41 41.88 42.00 42.58 42.84
40.37 33.47 41.91 43.21 41.36 37.24 34.65 35.94 35.04 40.17 39.60 40.13 39.27 40.14 36.98 36.51 37.13 33.00 32.10 37.12 38.31 38.27 41.06 39.68 34.59 29.88 25.26 29.11 31.90 30.23 32.34 33.98 32.02 27.17 26.05 26.46 28.75 34.26 37.01 39.78 42.46 43.04 41.13 42.30 42.91
42.13 35.51 38.22 32.45 36.46 37.34 36.93 36.11 34.72 35.53 39.28 40.90 38.55 38.11 37.21 35.15 34.67 33.79 33.99 35.57 37.99 40.04 39.45 37.86 30.50 32.50 33.14 34.03 32.87 32.88 32.22 33.27 31.12 30.54 25.88 28.73 29.72 34.31 38.79 39.71 42.15 42.67 44.66 44.17 44.17
40.08 40.02 41.64 37.69 39.25 36.91 37.74 34.96 34.91 37.56 38.54 37.05 37.15 38.28 38.93 36.32 35.49 31.49 33.88 33.70 33.87 39.63 38.76 39.47 30.55 33.27 30.74 34.36 34.50 31.70 34.69 34.17 32.65 32.52 32.18 32.52 31.83 39.57 41.53 43.02 42.97 43.77 43.92 44.48 43.17
45.31 46.63 42.15 39.74 38.00 36.52 36.30 36.92 37.85 39.87 40.65 41.49 39.39 38.89 37.97 39.50 41.55 42.31 38.26 37.82 37.35 38.10 37.83 36.50 32.69 32.59 29.10 34.10 33.45 30.78 32.98 34.02 34.10 35.06 33.85 29.81 34.68 39.28 39.44 41.56 41.88 41.74 42.12 43.05 43.57

GFSSW_sfc_wetblb_027.txt.gz
Wetbulb
61.43 61.48 60.22 58.78 57.74 57.40 57.42 57.46 57.45 57.65 57.73 57.96 58.95 59.82 61.62 62.20 62.22 58.75 53.33 56.72 58.08 62.74 61.11 56.20 54.79 53.92 53.32 51.69 54.33 51.84 45.65 41.96 42.60 42.22 45.20 49.54 48.70 51.92 52.89 51.08 52.57 53.68 53.96 55.65 58.81
60.80 61.17 60.85 59.66 58.46 57.66 57.39 57.47 57.00 57.13 57.32 57.69 58.23 58.98 60.52 60.99 58.51 56.34 60.46 62.90 63.56 62.90 56.74 53.09 50.62 51.71 48.44 49.54 51.02 49.84 44.82 43.74 46.87 46.54 46.79 48.59 49.03 49.93 50.68 50.27 51.33 52.74 55.13 56.43 59.01
60.56 60.61 60.82 60.41 59.42 58.03 57.61 57.50 56.83 56.74 56.85 57.33 58.04 58.14 58.94 59.13 50.80 50.53 60.69 64.75 64.90 63.29 57.54 55.23 53.60 50.92 46.80 48.41 48.38 48.60 44.47 46.88 48.24 50.19 50.83 49.68 49.44 51.30 49.56 48.62 51.48 51.94 53.28 54.73 57.95
59.39 60.36 60.51 60.59 60.06 58.61 57.91 57.43 56.78 56.41 56.19 56.58 57.61 57.71 58.14 54.31 37.53 51.79 60.50 60.95 63.25 61.22 57.20 53.16 50.79 46.67 44.66 43.89 47.36 43.99 47.11 48.64 49.69 51.07 50.21 49.28 51.13 50.46 50.01 51.32 53.62 53.29 53.79 53.65 54.59
57.99 58.89 59.85 60.14 60.21 59.11 58.03 57.61 57.06 56.44 56.04 55.96 56.72 57.51 53.31 45.92 46.84 53.90 58.49 56.02 57.25 58.84 55.51 51.96 48.06 46.27 43.08 43.96 45.41 44.76 45.65 47.79 48.81 47.52 47.61 49.47 48.49 49.14 50.10 53.01 54.18 55.17 55.18 54.62 54.75
55.98 57.20 57.93 59.17 59.92 59.57 58.76 58.03 57.21 56.67 56.26 55.85 55.87 56.17 48.58 37.13 48.58 51.76 51.67 52.49 57.47 57.92 55.61 53.50 49.94 48.91 45.63 44.68 43.64 44.92 44.91 45.27 46.28 46.48 47.22 46.56 47.16 48.03 49.74 53.02 53.17 53.11 53.73 53.78 53.59
54.21 55.44 56.51 57.49 59.02 59.47 58.62 58.40 57.53 56.65 56.42 55.74 56.21 53.45 47.29 43.56 51.31 51.32 51.93 50.17 52.34 57.07 54.06 54.94 53.34 49.83 48.08 44.96 47.74 46.31 42.64 44.04 44.51 45.50 45.20 47.29 43.02 43.85 49.75 51.34 51.07 51.99 53.11 54.42 54.74
52.85 54.02 55.07 56.45 58.08 59.08 58.77 58.33 57.69 57.28 56.62 56.19 56.41 50.05 40.33 50.71 51.44 51.07 51.31 49.81 51.54 52.82 53.33 55.46 55.16 51.67 49.13 48.30 45.11 42.67 42.19 36.86 42.19 44.24 45.17 45.55 37.24 45.05 49.14 48.75 49.05 50.51 51.75 52.37 54.48
52.85 52.95 53.47 55.55 56.92 58.27 58.50 58.32 57.73 57.10 56.66 56.42 50.18 45.45 39.99 51.77 48.73 50.54 50.36 47.63 49.34 50.36 50.44 54.29 51.47 46.20 46.23 41.86 38.07 39.79 33.28 35.83 38.41 44.15 43.99 43.74 40.16 45.84 48.32 47.27 47.31 48.72 49.96 50.77 52.12
51.97 52.40 52.70 54.13 55.61 57.42 58.25 57.80 56.62 55.52 53.79 54.17 51.77 43.84 44.33 43.65 48.19 49.21 50.46 49.45 46.53 46.84 46.40 45.98 44.12 40.07 40.42 38.41 29.12 32.24 33.85 35.66 35.53 40.54 41.09 39.41 39.30 43.22 45.35 45.48 46.12 46.94 48.15 49.01 49.87
51.59 51.77 52.44 53.91 54.67 56.70 56.40 51.80 46.18 44.87 47.40 40.80 42.36 42.11 44.72 48.50 50.44 47.84 49.50 47.28 45.61 43.34 38.50 41.69 38.01 34.09 37.31 37.94 37.81 36.82 35.52 34.60 38.18 41.54 37.84 37.75 38.21 40.76 43.81 44.13 43.86 45.06 46.26 47.77 48.83
50.82 51.19 51.78 52.65 54.48 55.02 53.40 46.75 45.45 46.04 39.12 44.88 45.31 46.10 47.96 49.01 43.24 46.20 49.04 42.63 41.00 36.47 38.03 37.50 33.69 38.36 40.51 39.88 38.24 37.20 35.15 34.55 37.53 39.34 37.79 36.51 35.84 39.91 41.83 42.51 44.13 44.75 45.56 46.84 48.99
50.15 50.82 51.17 51.47 52.33 52.75 50.27 48.16 48.81 47.68 36.64 39.53 43.62 43.30 45.23 47.08 42.88 43.35 45.84 42.45 38.81 35.74 35.63 33.33 35.42 38.79 37.93 35.96 35.06 34.85 33.68 33.89 33.09 35.91 37.22 34.92 32.68 36.38 39.75 41.49 43.11 44.58 45.84 46.81 47.79
49.81 50.19 50.84 50.81 48.66 51.89 48.56 49.80 48.79 46.86 24.80 31.29 38.94 42.51 45.21 46.50 40.30 47.82 47.40 43.39 39.31 35.95 35.92 35.28 39.11 36.77 35.03 34.24 35.20 30.75 35.93 35.27 33.72 31.96 26.38 34.32 24.60 33.71 37.52 38.84 40.80 40.92 42.57 44.39 46.02
49.72 49.87 50.29 49.71 45.76 46.04 49.80 50.51 47.42 43.12 10.89 34.34 39.38 48.15 46.30 40.84 41.47 42.37 48.01 44.93 37.87 37.10 37.18 33.81 35.39 34.92 33.85 34.56 35.70 32.99 36.71 34.72 34.37 32.21 30.81 30.91 27.59 31.27 35.03 34.52 37.91 40.45 41.73 43.00 45.81
49.42 49.31 49.43 47.30 47.85 48.38 51.78 50.43 44.71 27.73 12.68 34.30 39.67 39.82 39.98 40.90 41.88 42.99 43.69 46.54 44.32 39.44 39.21 35.61 39.52 37.87 36.26 37.80 37.59 38.78 35.19 35.04 34.90 32.77 26.04 29.87 28.88 29.57 33.38 35.47 37.42 40.78 42.51 43.77 46.27
50.39 50.95 48.38 48.01 42.56 52.44 51.57 45.04 28.73 17.94 32.52 32.47 34.49 38.72 37.93 36.66 38.71 40.04 38.87 37.85 35.19 31.53 30.56 34.99 36.93 39.63 39.50 34.92 37.12 36.43 33.64 26.10 24.55 24.99 22.96 30.11 28.21 31.02 36.21 38.66 39.33 39.62 40.76 42.55 44.47
50.47 50.82 49.76 48.18 49.78 48.96 46.91 35.89 19.09 28.02 29.78 36.79 36.02 36.71 33.41 36.66 36.63 37.57 36.78 34.84 38.64 36.95 33.19 29.44 23.98 35.58 39.31 36.25 33.16 33.60 32.70 26.81 19.29 20.10 22.61 28.54 25.54 31.04 38.15 41.30 41.98 42.40 42.95 43.63 43.51
50.44 48.44 47.41 48.67 49.75 47.15 40.46 28.55 25.58 29.11 34.99 34.20 34.85 31.63 31.57 34.58 34.70 35.76 35.04 33.84 36.70 38.67 31.75 28.76 27.33 35.90 37.95 38.24 37.31 33.43 29.74 34.71 28.57 29.00 25.91 28.51 30.36 35.00 37.85 37.88 40.61 42.31 44.11 43.20 43.07
46.11 44.66 42.56 48.90 48.99 44.41 34.06 30.44 30.20 35.75 37.29 35.96 29.96 32.17 28.76 32.09 31.98 33.29 32.27 33.70 35.22 38.34 39.81 33.08 25.68 32.11 35.56 38.65 38.29 36.02 36.48 28.61 29.25 20.61 19.73 24.91 25.84 28.40 32.75 36.20 40.15 41.68 43.73 44.54 43.93
44.28 39.22 45.72 50.09 47.24 39.50 31.26 31.22 34.77 38.65 38.48 34.50 32.40 31.48 31.98 32.05 32.73 32.82 30.38 33.05 35.57 34.77 37.66 34.52 30.36 28.38 34.95 32.52 31.39 33.82 32.30 33.11 31.48 29.03 22.06 20.16 25.21 32.74 33.99 39.74 40.12 41.95 44.09 44.01 43.99
42.62 35.05 47.80 50.31 34.49 34.53 34.40 34.99 40.55 37.73 39.49 37.95 37.16 35.15 32.83 33.33 32.33 32.61 30.31 31.85 36.52 36.16 33.45 35.89 32.06 25.29 27.55 35.05 37.58 35.39 33.08 32.29 27.28 25.02 27.99 24.61 25.87 40.15 39.55 40.54 42.36 42.83 44.48 44.35 44.19
39.09 40.29 47.94 45.03 31.50 33.53 37.37 36.74 38.97 37.59 37.12 37.02 35.99 38.13 38.03 33.65 30.70 32.40 32.03 37.02 37.55 36.02 33.57 35.69 31.49 24.17 25.69 31.14 34.99 32.66 34.10 34.28 33.25 32.14 26.78 23.29 26.02 37.74 37.64 40.37 43.05 43.05 44.57 44.29 43.37
39.67 34.78 39.36 42.16 40.66 36.87 34.72 34.95 35.59 39.74 38.72 39.85 38.63 39.29 36.69 35.82 36.74 33.16 32.74 36.65 37.54 37.72 40.98 39.40 33.32 29.07 25.19 29.55 33.48 30.73 32.88 33.93 31.90 27.42 27.42 27.26 29.15 33.97 36.12 37.37 40.40 43.39 45.14 45.26 43.64
41.31 35.40 37.66 32.27 35.51 36.96 37.04 36.41 34.38 34.20 38.78 40.18 38.12 38.08 36.49 33.67 33.79 33.57 34.32 34.86 36.98 39.40 38.75 37.14 30.75 32.60 33.10 33.71 33.57 32.22 32.12 32.82 30.91 31.01 27.49 29.90 29.91 33.76 36.00 37.62 42.17 43.61 44.20 45.04 44.29
40.39 39.14 40.22 37.46 39.17 36.80 37.06 33.12 34.46 36.93 37.05 36.52 35.93 37.83 38.33 36.30 35.46 31.11 33.41 33.48 33.31 35.75 35.93 38.61 31.68 33.54 30.99 34.39 34.35 31.89 35.28 34.39 33.18 33.06 32.25 32.45 31.36 37.95 40.41 41.88 41.02 40.82 42.03 44.07 44.92
44.60 45.70 41.69 38.35 37.37 36.27 34.60 34.67 35.24 39.09 39.39 40.37 39.49 38.16 37.72 38.30 41.34 41.17 42.20 39.29 38.43 37.09 36.14 36.98 33.66 32.39 28.80 34.59 34.81 31.48 35.31 34.31 34.28 35.03 34.02 30.13 34.63 38.94 38.23 39.71 40.51 40.81 42.01 42.98 45.33

GFSSW_sfc_wetblb_030.txt.gz
Wetbulb
60.74 61.14 61.19 60.95 59.62 58.69 57.90 57.71 57.81 57.72 57.94 57.99 58.25 59.57 61.01 61.77 62.38 59.61 55.58 58.98 59.98 62.47 61.83 58.91 57.29 56.74 57.24 54.76 57.71 57.04 47.94 44.94 46.36 46.82 48.17 52.54 51.14 54.66 55.95 54.47 55.97 56.83 56.82 58.83 61.52
58.68 60.27 60.93 60.79 60.39 59.26 58.41 57.84 57.75 57.39 57.35 57.48 58.07 58.73 59.63 60.54 59.64 56.53 60.74 62.91 63.77 62.70 59.25 55.83 53.47 54.48 52.89 53.20 54.73 52.45 47.48 47.24 50.94 51.53 49.84 51.86 52.22 53.03 53.03 53.67 54.46 56.05 58.13 59.19 61.37
57.15 58.68 59.92 60.54 60.66 60.09 58.84 58.02 57.68 57.21 57.04 57.03 57.72 58.16 58.48 59.58 53.91 54.24 62.24 64.63 64.95 64.06 60.15 57.97 56.11 53.48 50.15 52.70 52.13 51.55 47.59 50.51 50.97 52.24 52.74 52.28 52.49 54.47 52.55 51.09 54.70 55.00 56.54 58.14 59.19
55.05 56.82 58.03 59.12 60.10 60.47 59.44 58.39 57.82 57.30 56.81 56.37 57.36 57.94 57.94 56.59 43.20 55.98 60.65 60.59 63.60 62.94 59.92 56.60 53.94 50.27 48.61 47.29 50.88 47.03 50.46 51.18 51.33 53.22 52.23 51.65 53.75 52.59 53.33 53.55 56.31 57.31 57.99 58.37 58.91
53.85 54.61 56.05 57.57 58.61 59.66 59.91 58.65 58.02 57.38 56.84 56.24 56.29 57.34 54.76 48.98 49.94 56.62 57.30 56.79 59.99 60.70 57.21 53.97 51.82 50.43 47.03 47.84 48.91 47.51 48.65 49.87 51.37 51.36 51.13 51.71 50.30 50.89 51.62 55.58 57.61 58.02 57.99 58.40 59.13
53.21 53.71 53.92 55.55 57.00 58.42 59.45 59.14 58.21 57.60 57.01 56.48 56.04 56.49 50.46 41.31 52.40 54.68 54.38 56.41 59.31 58.37 57.24 55.68 52.74 52.10 48.98 47.70 47.34 48.16 48.43 48.89 49.81 49.74 50.15 48.26 49.13 50.29 51.50 54.50 54.21 54.90 55.43 56.76 58.12
52.09 53.32 53.40 53.81 55.09 56.96 58.85 58.77 58.41 57.59 57.04 56.39 56.47 54.44 49.10 46.86 54.13 54.84 54.19 54.61 57.32 59.08 55.04 56.39 54.61 50.98 51.12 47.35 50.36 48.79 45.33 47.67 48.39 48.89 48.08 49.61 45.55 46.60 51.91 53.18 52.29 53.36 54.65 55.75 56.74
51.61 52.31 52.90 53.28 53.70 55.92 57.65 59.15 58.80 58.00 57.24 56.72 56.78 52.28 45.32 52.27 55.27 52.18 53.88 53.44 56.16 56.85 57.65 58.41 56.51 52.80 50.62 50.90 47.63 44.44 44.84 41.07 46.05 46.89 48.11 47.45 41.45 47.96 51.75 51.71 51.54 53.03 53.92 54.47 55.69
51.08 51.86 52.53 52.81 53.03 54.70 56.08 58.42 58.45 57.63 57.23 56.77 52.62 49.14 44.31 52.67 49.38 52.12 53.57 51.87 53.59 53.56 55.09 57.42 55.26 48.49 49.05 44.89 41.76 42.90 38.92 39.62 42.51 47.36 46.65 45.85 43.58 48.64 51.39 50.81 50.45 52.03 53.37 54.52 55.63
51.02 51.12 51.84 52.52 52.84 54.49 54.62 57.89 57.82 56.47 55.25 54.74 52.29 45.31 47.63 45.54 49.48 50.92 53.04 52.87 50.34 51.01 49.52 48.64 47.57 43.74 43.70 41.90 35.77 37.42 38.02 40.19 39.47 43.56 44.54 43.27 43.34 47.26 49.71 49.42 49.64 51.14 52.29 53.02 53.80
50.23 50.73 51.11 51.70 52.46 53.09 53.72 54.75 47.12 45.35 47.88 44.97 45.21 43.76 45.84 49.78 52.39 49.34 51.74 49.97 49.90 47.98 42.27 45.57 40.55 37.36 40.41 41.67 42.42 39.87 38.77 37.71 40.39 43.97 41.97 41.05 41.65 44.38 47.23 47.72 47.53 48.61 49.65 51.08 52.55
50.28 50.46 50.81 51.21 52.02 52.01 51.06 47.37 47.40 49.41 41.78 47.13 47.63 47.01 49.03 50.01 44.42 47.55 51.57 45.35 44.99 40.78 43.29 40.35 36.10 41.84 42.46 42.00 39.93 38.53 37.07 37.23 40.56 42.91 40.93 40.16 39.29 42.88 44.72 45.43 46.84 47.34 48.19 49.07 50.51
50.19 50.18 50.51 50.62 51.44 49.96 47.82 48.84 51.63 52.06 42.38 42.72 46.04 45.27 46.89 48.56 44.25 45.31 48.18 45.88 42.72 39.95 40.35 38.06 38.82 41.34 40.49 39.43 37.10 36.69 34.18 35.03 36.12 40.64 41.26 38.88 37.38 41.76 44.59 45.43 46.41 47.19 48.03 49.01 49.42
49.61 50.00 50.15 50.17 47.69 47.15 46.67 52.42 51.52 50.02 36.38 36.27 40.52 44.38 46.70 47.87 42.31 49.50 49.73 46.10 42.22 39.09 39.89 39.33 42.38 38.86 38.41 37.22 38.79 34.53 39.53 38.06 36.81 34.80 30.06 37.94 30.28 39.03 42.74 43.38 44.60 46.02 47.16 48.06 49.28
49.92 50.11 50.04 49.52 46.18 43.74 46.46 52.12 49.93 45.67 26.47 37.30 39.48 49.26 47.01 42.72 43.89 44.13 49.93 45.74 39.95 39.31 39.75 36.71 37.79 37.80 35.70 37.04 39.48 35.61 39.71 37.57 37.07 34.34 32.71 34.24 28.75 36.67 40.34 39.85 42.69 45.72 47.51 48.65 49.30
49.84 50.55 50.47 47.64 47.01 46.98 50.82 50.04 46.21 32.06 24.68 34.37 40.18 40.14 39.54 41.30 42.39 44.51 44.15 47.20 45.48 40.56 40.48 39.51 42.50 40.44 39.76 40.69 40.63 40.39 37.70 36.73 36.95 34.33 27.44 33.19 30.89 33.99 39.13 41.54 43.32 45.05 46.74 47.82 48.80
50.15 50.82 49.18 49.33 43.27 50.80 51.26 43.55 30.78 29.08 35.99 32.95 34.67 39.29 38.14 36.63 39.20 40.69 39.99 38.33 36.73 32.39 32.79 37.04 38.18 40.80 40.90 36.69 39.53 37.77 34.07 27.61 26.15 26.13 26.27 35.81 32.95 35.12 41.37 42.56 43.84 44.72 45.92 47.50 49.42
51.49 50.98 50.27 49.35 50.55 50.52 47.32 35.71 27.67 31.73 33.26 37.92 37.82 38.29 35.16 36.97 37.74 38.27 37.38 35.54 39.88 37.78 34.56 31.86 30.37 37.69 40.99 37.99 35.22 34.71 34.30 28.99 22.13 25.18 28.65 34.47 29.22 35.51 43.06 44.72 45.61 45.54 47.47 49.86 50.69
49.60 48.84 47.89 49.25 50.06 48.65 39.42 29.57 31.50 33.30 36.64 34.92 36.25 32.84 32.82 35.92 36.72 36.35 36.16 35.56 38.29 39.14 32.29 32.14 30.44 38.50 40.52 41.13 39.25 34.34 31.30 37.59 29.82 31.93 27.27 31.19 35.76 40.57 42.67 42.73 43.54 45.33 47.04 48.29 49.98
45.06 45.09 45.01 50.15 50.05 43.31 34.43 32.76 33.30 38.92 39.07 38.31 32.15 34.10 29.72 32.69 34.12 34.52 35.00 38.27 37.55 40.89 41.41 36.31 29.90 35.96 37.72 40.54 40.25 36.94 38.90 29.71 30.82 21.78 21.41 29.33 31.47 32.98 38.37 40.11 44.20 44.08 45.88 48.38 49.44
44.19 38.83 46.39 50.09 47.39 38.07 32.71 33.56 37.19 40.87 40.98 37.19 34.88 33.61 34.74 33.71 35.53 34.41 34.82 36.71 39.67 39.21 41.78 38.41 33.17 31.95 35.98 33.72 33.93 33.82 32.38 34.03 33.14 30.73 23.89 23.46 29.99 39.79 39.28 41.47 42.39 43.95 46.33 47.98 48.51
42.02 34.19 46.83 48.03 35.41 36.58 35.44 37.73 40.70 39.32 41.71 39.73 39.77 37.80 36.08 36.46 34.54 35.15 34.10 35.84 40.37 40.25 36.01 38.67 33.85 27.93 31.33 38.56 40.08 38.35 34.85 33.66 28.05 26.45 29.13 28.33 29.17 42.05 42.93 44.09 44.43 44.41 45.84 48.13 48.83
37.92 40.08 47.19 46.67 33.57 35.09 37.48 38.84 40.25 39.16 38.96 38.93 38.05 40.01 39.42 36.62 33.54 36.24 36.29 39.63 40.30 39.34 37.51 38.80 32.65 27.47 30.70 34.85 37.65 33.86 35.61 35.63 34.71 33.24 28.52 25.71 29.58 41.09 43.12 43.91 44.09 43.64 45.66 47.36 48.51
41.25 34.07 39.69 41.71 42.02 37.74 36.72 36.61 36.73 41.85 40.48 41.48 39.56 40.90 38.96 36.56 37.80 34.87 35.41 38.84 40.45 40.50 41.53 41.09 35.14 31.58 28.54 32.95 36.72 32.21 34.42 35.24 32.80 28.52 29.96 29.98 32.34 37.40 39.59 40.35 42.41 43.71 45.27 46.44 47.49
42.87 35.97 39.00 33.72 36.93 38.14 38.88 38.08 36.41 36.09 40.89 41.81 38.82 39.17 37.78 34.34 34.70 34.29 36.65 37.82 39.24 40.50 40.51 39.09 31.24 33.69 34.22 35.16 35.30 34.17 33.79 34.12 31.66 32.52 29.06 33.14 33.73 37.93 40.32 41.36 42.46 43.55 44.86 45.06 46.25
39.92 39.32 41.04 38.84 39.22 38.53 38.61 37.53 37.28 37.54 39.10 37.60 37.84 39.29 39.29 36.14 35.93 34.96 36.62 37.63 36.88 39.32 38.94 39.95 32.03 34.38 31.65 35.64 35.92 33.89 36.08 36.62 35.70 34.54 33.89 34.29 34.14 41.46 43.12 43.48 42.03 44.01 44.09 43.86 45.27
44.23 44.99 43.19 38.90 38.24 37.47 37.53 37.85 38.12 40.74 40.61 41.82 40.46 39.57 38.21 39.60 41.77 42.61 41.79 40.83 39.19 38.79 37.35 37.27 34.22 32.22 29.74 35.18 35.10 33.11 36.58 36.97 36.33 36.91 36.32 31.76 36.99 41.67 40.87 41.07 41.92 42.63 43.52 44.48 45.37

GFSSW_sfc_wetblb_033.txt.gz
Wetbulb
57.33 58.83 60.13 60.73 60.92 60.50 59.32 58.73 58.18 58.13 57.98 58.06 58.14 58.47 59.93 61.12 62.03 60.06 55.66 60.13 61.42 63.54 62.00 59.99 58.57 58.09 58.10 55.94 57.39 58.37 49.15 45.50 47.34 47.47 49.17 53.37 51.85 55.31 56.65 54.92 55.88 57.42 57.52 60.31 62.90
55.68 56.58 58.16 59.44 60.22 60.64 59.95 59.13 58.45 58.18 57.75 57.49 57.83 58.32 59.16 59.96 59.03 56.43 61.71 62.22 62.84 63.12 59.57 56.73 54.77 56.22 53.79 54.09 54.54 52.88 47.50 47.35 51.03 51.72 50.96 52.82 52.83 53.72 53.29 53.53 53.83 56.24 58.86 60.16 62.06
54.48 55.04 55.98 57.42 58.82 59.65 60.29 59.53 58.65 58.15 57.61 57.22 57.36 58.34 58.38 58.90 54.06 55.19 64.02 64.28 64.53 64.02 60.83 58.68 57.11 55.00 51.68 53.40 52.72 52.07 47.41 50.97 51.53 53.56 54.03 52.62 52.57 54.73 52.97 51.90 54.15 54.20 57.26 59.17 60.52
52.86 53.87 54.69 55.22 56.53 58.03 59.49 60.09 58.98 58.25 57.68 57.05 57.05 57.96 57.92 57.17 44.30 58.13 61.41 62.98 64.40 63.39 60.02 56.87 54.68 51.02 49.48 48.79 52.67 48.25 51.24 51.95 52.67 53.57 53.22 51.89 53.96 52.63 53.52 53.83 56.53 57.25 59.05 59.03 58.97
52.36 52.29 53.01 54.02 54.70 56.05 57.92 59.33 59.28 58.43 57.72 57.01 56.59 57.32 54.81 50.60 51.22 59.15 57.65 58.64 60.74 61.21 57.85 55.24 52.47 51.49 47.89 49.76 50.16 48.41 50.10 51.33 52.41 52.89 52.66 53.29 51.27 51.72 52.77 56.06 57.22 57.68 58.00 58.52 58.83
52.14 52.20 52.40 53.57 53.86 54.61 55.58 58.11 59.40 58.53 57.67 57.15 56.43 56.91 52.05 43.17 54.43 56.96 56.66 57.45 58.82 59.33 56.99 55.96 53.49 54.01 50.97 49.84 48.52 50.52 50.23 50.28 51.36 51.07 51.59 49.55 49.82 50.75 51.78 54.54 54.42 55.16 55.87 57.07 58.09
52.01 51.74 51.83 52.60 53.28 54.10 54.64 56.99 59.02 58.56 57.75 57.37 56.76 55.15 50.18 48.47 54.91 55.69 55.29 56.98 59.53 58.69 55.95 57.22 56.06 52.50 52.09 48.49 51.30 50.03 46.52 49.01 49.64 50.19 49.27 50.86 46.72 47.59 52.32 53.60 52.79 53.64 54.52 55.19 56.12
51.99 51.38 51.66 51.99 52.84 53.47 53.81 55.52 57.67 58.47 57.68 57.03 57.03 53.34 46.18 53.93 56.48 54.02 54.90 55.94 58.68 60.35 58.70 58.98 57.34 53.05 50.96 51.43 48.93 45.84 46.69 42.19 48.30 49.23 50.03 48.53 41.86 49.74 52.73 52.46 51.84 52.90 53.71 54.32 55.24
51.39 51.14 51.05 51.53 52.20 52.89 53.29 54.83 56.12 58.57 57.66 57.05 53.68 51.39 46.02 53.60 49.89 53.23 54.79 53.61 55.39 56.78 58.36 58.42 55.49 50.19 50.43 45.53 42.14 44.37 40.20 42.77 45.04 49.57 48.06 47.09 44.68 50.43 52.59 52.20 51.29 52.56 53.63 54.30 55.23
51.02 50.89 50.82 50.91 51.64 52.18 53.08 54.02 56.06 57.59 55.50 55.04 52.87 46.86 48.73 46.77 51.04 52.20 54.90 55.58 52.58 52.59 52.38 51.91 49.84 44.32 43.48 42.47 37.82 41.03 41.26 42.75 42.31 46.23 46.15 44.63 44.48 48.37 50.61 50.63 50.66 51.75 52.91 53.62 54.17
50.75 50.53 50.80 50.78 51.29 51.48 51.51 49.74 49.64 47.81 49.84 46.18 46.39 45.47 47.57 51.23 52.97 50.24 53.29 52.94 51.54 49.55 42.86 46.11 41.47 39.17 43.38 45.57 45.32 43.44 40.90 40.70 44.02 46.34 43.84 43.02 43.45 45.77 48.29 48.60 48.54 49.63 50.90 51.83 52.88
50.44 50.24 50.58 50.82 51.00 51.23 50.16 42.45 46.55 48.58 41.48 48.24 48.41 48.34 50.34 51.36 45.48 48.25 53.01 46.90 45.32 41.25 44.31 41.26 38.14 44.11 45.29 44.20 42.40 41.35 39.47 39.37 42.79 44.44 42.73 41.86 41.42 44.73 46.17 46.75 47.84 48.07 48.94 50.20 51.67
49.95 49.49 49.99 50.43 50.59 49.53 47.24 43.95 49.50 50.56 42.86 44.37 47.67 46.86 47.50 49.64 45.38 45.47 49.47 47.38 43.98 41.23 40.51 39.44 41.27 43.47 42.60 40.87 39.34 39.82 37.78 37.59 37.11 41.07 42.88 41.17 39.30 43.12 46.48 47.60 48.41 48.72 49.27 49.83 50.27
49.37 49.89 50.33 50.02 46.96 47.99 45.81 49.84 51.23 49.03 35.18 37.90 42.01 45.45 47.89 48.56 43.52 50.38 50.55 47.23 43.68 39.70 41.14 40.54 44.25 40.49 40.22 39.02 40.58 36.18 42.18 40.10 38.25 36.15 33.48 39.79 31.61 40.02 43.46 44.77 46.60 47.28 47.96 48.57 49.57
49.73 50.33 50.06 49.74 45.92 44.50 47.58 50.94 50.50 46.16 27.11 39.99 41.22 50.40 48.21 43.98 45.19 45.31 50.65 46.71 40.69 41.47 41.12 38.39 39.29 39.38 37.22 38.77 41.37 37.28 41.01 38.94 38.45 36.03 33.82 35.66 31.70 37.86 42.54 41.55 43.79 46.24 47.98 49.50 50.60
49.84 50.36 50.81 48.71 47.79 48.16 50.46 50.45 46.94 30.53 27.66 34.77 40.48 39.79 40.06 42.67 43.32 45.48 45.02 47.90 46.64 41.32 41.43 41.17 44.08 41.92 41.19 41.98 41.94 41.56 38.48 37.19 37.05 34.25 27.49 34.21 34.48 35.75 39.94 42.39 45.04 47.51 48.73 48.51 49.22
50.36 49.81 50.64 49.17 43.87 50.29 50.04 43.62 30.37 27.62 37.85 33.70 35.06 38.91 38.58 37.10 39.25 41.19 39.35 38.45 37.25 32.90 33.19 37.89 38.34 41.45 42.71 38.25 40.77 39.26 34.43 29.76 27.05 26.47 26.58 37.63 34.71 36.21 42.18 44.08 44.89 45.33 47.05 48.10 49.14
49.86 49.81 50.30 49.69 50.56 50.85 45.61 34.73 27.85 33.55 34.27 38.97 38.24 37.98 34.54 37.16 38.10 38.94 37.33 34.99 39.89 38.61 35.04 31.02 31.78 39.19 41.29 38.55 36.48 35.31 34.95 29.83 23.92 27.00 30.70 37.88 30.93 37.00 44.14 45.52 46.05 47.04 47.36 47.94 49.82
49.62 48.37 47.92 49.66 50.66 48.93 40.00 29.30 32.53 35.86 37.69 36.32 37.12 34.11 34.18 36.95 37.70 37.94 37.58 36.26 39.48 39.71 33.99 33.26 32.06 40.66 42.12 42.22 40.30 35.37 31.36 37.87 30.96 32.27 27.78 31.96 36.66 41.62 43.58 43.78 44.93 45.34 46.11 46.97 49.76
45.26 44.41 44.79 49.95 50.45 45.01 36.43 30.72 34.96 40.21 40.13 39.86 33.01 35.00 31.18 33.89 35.07 35.54 35.04 40.11 37.96 41.70 43.27 37.92 31.31 38.09 40.04 41.60 40.91 38.21 40.39 29.90 31.26 22.74 23.36 31.06 33.21 34.40 39.88 41.82 43.76 44.14 46.21 48.22 49.53
43.81 40.33 46.04 49.81 48.15 39.28 33.35 34.60 37.56 41.72 42.20 38.83 36.47 34.24 34.41 33.83 36.51 34.90 35.59 39.20 42.25 41.20 42.66 38.99 35.23 33.38 36.44 34.81 35.19 34.71 32.84 34.15 34.51 32.25 26.29 25.40 31.21 41.67 40.58 41.69 41.86 45.37 46.76 47.75 48.84
42.33 33.56 46.88 49.30 37.08 37.91 35.76 37.99 41.29 40.36 42.66 40.77 41.46 39.44 37.24 37.65 37.03 37.25 36.74 38.55 42.81 42.60 36.89 39.83 34.70 29.84 32.62 39.50 41.09 39.77 34.84 34.37 29.19 28.45 30.62 29.10 29.48 42.73 42.10 43.42 44.62 45.13 46.46 47.57 48.79
39.18 38.73 47.57 46.74 34.34 35.88 38.18 38.85 40.58 39.37 40.28 40.33 39.48 40.94 41.46 38.83 35.04 38.54 39.00 41.55 42.24 41.11 38.70 39.34 33.26 28.61 31.18 36.17 39.30 35.39 37.09 36.96 35.86 34.35 29.44 26.19 30.19 42.77 42.66 42.78 44.24 45.02 45.80 46.38 47.68
41.59 33.23 39.36 42.25 42.54 38.86 37.43 37.39 37.32 42.79 42.19 42.79 41.50 42.47 40.42 38.41 40.22 37.30 37.13 40.00 41.83 41.51 42.22 42.63 35.48 31.83 29.52 33.95 37.26 32.51 35.12 36.58 34.02 29.92 30.60 31.07 33.41 39.31 41.29 41.92 42.96 44.11 45.52 46.03 46.88
44.11 37.44 40.11 35.37 39.25 39.63 40.28 38.77 37.13 37.39 42.20 43.27 40.40 40.92 39.58 35.96 36.78 35.89 38.40 39.19 40.97 42.11 40.96 39.55 32.26 33.76 34.97 36.15 36.02 35.06 34.74 35.92 33.04 33.54 29.58 32.93 33.94 38.69 40.77 42.21 43.40 45.05 45.40 45.04 45.66
39.36 39.94 42.03 39.76 41.20 40.03 39.18 37.16 37.93 39.25 40.55 39.06 39.42 40.65 40.58 37.96 37.94 35.56 37.37 37.75 37.85 40.55 39.00 39.84 32.99 35.11 31.99 35.86 37.11 35.50 37.56 37.77 37.39 37.14 36.43 35.14 34.21 41.30 43.11 44.15 43.04 43.91 44.82 44.56 45.56
44.16 45.02 42.92 39.44 39.85 39.12 38.46 39.69 39.73 41.63 42.07 42.96 42.11 41.07 39.38 40.68 42.30 42.97 43.35 42.93 41.76 38.51 37.30 36.80 34.83 32.98 29.47 35.84 35.61 34.28 36.83 37.28 37.87 39.14 38.03 33.77 38.64 43.14 41.48 42.28 42.88 42.82 43.75 44.38 45.94

GFSSW_sfc_wetblb_036.txt.gz
Wetbulb
55.11 56.04 56.73 57.70 58.76 59.73 60.60 60.45 59.45 58.87 58.50 58.42 58.25 58.40 58.59 59.92 60.59 59.53 54.03 58.95 61.16 63.85 62.09 60.43 58.66 57.03 56.55 54.44 55.46 55.57 45.71 42.17 44.34 45.39 46.93 50.84 49.18 52.58 53.69 51.54 52.50 52.83 52.23 57.71 64.32
53.83 54.09 54.94 55.91 56.72 57.66 59.05 60.41 59.87 59.18 58.60 58.28 57.93 57.95 58.52 59.43 56.85 54.60 60.32 63.58 63.20 63.62 58.17 55.68 53.68 54.81 51.30 51.77 52.28 49.93 45.14 45.93 49.79 49.41 48.50 50.52 49.76 50.25 49.73 50.15 50.25 51.98 56.22 58.83 60.26
53.21 53.21 53.27 54.21 55.21 56.08 57.34 58.78 60.20 59.50 58.73 58.09 57.68 57.62 58.42 57.80 52.93 53.00 63.61 64.26 64.04 63.41 59.92 57.45 56.36 53.97 49.69 50.97 50.23 49.08 44.88 48.91 49.73 50.65 52.49 51.25 50.69 51.69 49.80 47.80 50.67 50.15 53.24 56.32 58.20
53.32 53.12 53.06 53.31 53.56 54.55 55.66 57.03 58.86 60.00 58.86 58.00 57.48 57.64 58.08 55.31 42.89 57.50 64.06 65.01 64.67 62.75 59.68 56.78 53.48 49.84 47.84 46.55 50.41 45.74 49.70 50.12 50.76 52.05 51.80 49.92 52.04 50.20 50.11 50.22 54.07 53.80 54.60 55.63 55.62
53.49 53.39 52.57 52.53 52.95 53.31 54.68 55.86 57.44 59.51 59.01 57.97 57.29 57.44 54.34 49.49 50.19 59.88 61.19 60.67 60.86 60.66 57.29 55.43 50.55 49.38 45.76 47.31 48.98 46.85 48.55 50.58 51.18 51.11 50.58 52.15 49.62 49.30 49.98 52.54 54.28 54.51 54.84 53.92 54.63
53.40 52.93 52.73 52.14 52.31 53.00 53.71 54.92 56.03 58.18 59.06 57.90 57.19 57.45 51.31 42.32 55.24 57.90 56.92 56.50 56.90 57.82 56.87 56.37 52.41 52.38 49.59 48.29 46.59 48.81 48.83 48.82 49.76 49.14 49.66 48.21 48.11 48.90 49.02 51.61 51.91 52.96 52.55 52.73 54.08
53.07 52.74 52.34 51.98 52.03 52.46 53.34 54.38 55.08 56.35 58.90 58.00 57.26 54.67 49.28 47.41 54.85 55.37 55.74 55.33 58.55 57.41 55.65 57.35 55.95 52.17 51.78 47.22 50.84 48.87 44.37 46.89 47.70 48.17 47.40 48.70 44.60 45.35 50.14 51.20 50.03 50.21 50.91 52.35 53.04
52.60 52.35 51.97 51.63 51.61 51.85 52.72 53.64 53.97 55.19 57.88 58.10 57.34 52.44 45.47 54.89 56.22 53.94 54.27 54.21 57.76 59.20 58.00 58.68 57.35 53.12 50.66 50.97 48.44 44.65 44.64 39.13 46.04 47.68 48.38 46.92 38.79 46.94 50.10 49.54 48.77 49.59 50.29 50.82 52.20
51.68 51.77 51.78 51.60 51.36 51.30 51.95 52.90 53.59 54.60 57.13 57.81 52.93 50.04 44.15 53.29 49.70 53.57 53.81 51.92 54.72 57.45 57.76 58.78 55.60 49.82 49.63 44.12 41.52 42.60 35.97 38.76 42.40 47.15 46.29 44.87 40.08 47.41 49.81 48.22 47.49 47.69 48.44 50.67 51.36
51.25 51.11 51.30 51.23 51.28 51.22 51.53 52.36 53.14 53.52 55.85 54.96 52.81 46.02 48.15 46.45 50.47 51.84 53.77 55.13 52.09 52.54 52.60 52.09 48.69 44.95 44.44 42.08 33.46 36.40 37.07 38.91 39.37 44.20 44.20 42.04 41.75 45.76 47.90 47.82 46.64 47.51 48.44 48.82 50.04
50.87 50.94 50.91 50.61 51.08 51.01 50.16 48.92 46.83 46.33 50.19 44.97 44.94 45.44 46.81 51.27 52.67 49.87 52.95 52.46 51.56 49.20 43.73 48.13 42.25 38.84 40.57 42.48 42.72 42.97 39.75 37.51 40.61 44.77 41.14 40.10 40.84 43.18 45.71 45.80 45.69 46.72 47.41 48.41 50.13
50.59 50.41 50.05 50.33 50.58 50.98 49.21 42.66 42.94 46.58 42.20 48.00 48.66 48.34 50.21 50.69 44.90 48.06 53.03 47.08 45.67 41.98 44.02 41.21 36.07 42.73 44.95 44.92 42.59 40.06 36.77 36.16 40.21 43.20 40.17 38.35 38.07 41.76 43.77 44.41 45.23 45.40 46.12 47.22 48.22
49.90 49.75 50.27 50.31 50.10 47.91 45.82 44.47 48.52 46.64 41.23 43.27 47.47 46.66 47.22 49.26 44.67 45.20 49.59 47.04 43.56 40.98 40.29 38.04 40.14 44.52 42.75 40.66 38.31 37.40 35.12 35.36 35.29 38.91 39.57 37.54 35.25 38.71 42.95 44.45 45.64 46.57 46.97 47.35 47.49
49.60 50.20 50.28 50.09 45.88 46.40 43.92 49.30 49.70 47.80 32.89 38.78 41.92 45.64 47.62 48.57 43.00 49.78 50.56 47.28 43.50 39.34 40.66 39.55 43.40 40.78 39.09 38.55 39.20 34.06 40.22 39.34 37.76 33.75 27.97 37.15 25.64 34.51 39.12 40.45 42.32 41.96 42.89 44.66 46.20
50.02 50.44 50.66 50.82 44.58 41.87 46.50 50.20 49.82 45.98 23.85 39.37 41.52 50.78 48.13 43.86 44.54 44.58 50.26 46.99 40.53 40.72 40.93 37.12 38.89 38.59 36.84 38.28 40.49 35.90 40.66 37.95 37.29 33.04 31.72 31.00 26.39 30.92 37.87 37.14 39.54 41.49 42.45 43.61 45.12
49.92 50.46 50.60 48.40 48.10 46.13 48.78 49.55 44.59 30.09 23.82 35.96 40.57 40.44 40.76 43.43 43.46 44.88 44.83 48.02 46.66 41.73 41.53 40.14 44.13 40.91 39.67 41.51 41.05 41.29 37.27 36.92 35.81 33.41 24.45 29.82 29.55 28.86 33.27 36.28 38.87 41.80 42.46 44.44 43.63
49.75 50.29 49.05 49.83 43.32 49.17 49.34 42.49 28.63 24.81 36.46 33.81 35.96 39.47 38.81 38.24 39.90 40.77 39.46 38.15 35.49 31.86 32.63 37.20 37.91 41.38 42.27 37.80 40.80 39.17 34.51 23.06 22.34 24.33 20.63 33.32 30.01 31.88 38.46 41.14 42.00 41.60 42.14 42.12 43.53
50.18 50.14 49.94 48.80 50.59 49.82 45.33 35.13 25.57 33.23 34.03 38.31 38.18 38.55 34.93 38.34 38.39 38.82 37.86 35.00 39.48 37.02 33.85 30.02 29.21 37.69 40.52 37.93 35.54 35.41 34.06 23.81 18.69 20.04 23.79 33.00 26.61 31.56 40.03 42.37 42.61 43.23 42.84 44.30 41.55
50.01 47.87 47.83 48.90 50.22 48.85 40.08 27.24 30.00 33.86 37.18 36.10 37.25 33.47 33.71 37.06 37.62 36.98 35.74 35.12 37.55 39.16 32.48 31.62 31.61 40.52 40.91 41.39 39.97 34.51 29.73 34.35 26.44 27.59 20.52 26.43 31.19 37.12 40.94 40.89 41.66 41.43 42.51 42.03 42.01
46.78 44.26 44.89 49.54 50.20 45.30 36.20 31.17 33.87 39.32 39.97 38.79 32.19 35.46 30.41 33.33 34.25 35.27 34.96 38.99 37.57 40.67 40.67 37.27 30.21 37.55 40.16 41.41 40.39 36.42 38.21 29.21 28.36 16.90 17.44 25.03 27.70 30.45 35.20 37.42 39.37 39.46 40.45 42.40 45.39
44.84 39.97 45.73 49.84 48.39 39.55 30.99 33.42 37.23 40.85 41.91 38.03 35.33 34.04 34.54 33.52 35.58 34.08 34.15 39.08 40.52 39.95 41.39 38.69 34.47 32.08 35.83 33.59 32.73 33.36 31.95 33.16 32.00 29.49 21.82 20.77 25.30 34.65 36.70 38.02 38.45 39.90 41.83 43.12 43.99
41.22 33.85 46.62 49.20 34.89 36.27 34.99 38.05 40.84 39.69 43.34 41.50 40.61 37.99 35.75 36.07 35.10 34.73 34.82 38.20 42.45 41.47 36.69 39.00 34.48 25.66 29.88 37.45 39.08 37.80 33.40 32.07 25.80 22.44 27.85 26.41 26.97 41.24 40.49 38.83 40.75 40.64 43.70 44.68 45.74
40.02 39.39 47.50 45.97 32.79 35.29 37.21 38.34 40.01 39.78 40.82 40.63 39.29 40.84 39.96 37.25 33.51 37.98 38.18 41.08 41.92 40.09 38.02 38.89 30.64 22.80 26.76 32.78 36.21 32.50 35.17 35.88 34.13 32.36 26.73 24.41 26.47 40.80 40.25 41.37 42.73 41.29 41.43 43.82 44.80
42.06 33.33 40.19 42.41 41.75 37.15 36.66 36.80 36.84 43.26 42.20 42.96 40.82 42.18 39.57 37.47 39.95 36.66 36.44 39.83 41.01 41.20 43.22 41.32 35.09 27.96 22.95 29.83 35.01 29.98 33.44 34.97 33.69 28.87 28.22 28.71 30.51 36.04 39.26 40.45 42.64 43.36 44.11 43.28 43.78
44.11 37.58 40.28 35.10 38.31 38.90 39.68 38.78 36.40 37.61 42.61 43.45 40.82 41.01 39.14 35.25 36.16 35.72 37.86 38.12 40.04 41.39 39.66 37.68 30.25 30.66 32.40 33.83 32.89 32.27 33.12 34.34 32.43 33.51 29.86 31.70 32.98 37.05 39.48 40.56 42.07 42.99 43.70 43.09 42.43
39.62 39.08 42.28 39.09 41.34 39.65 38.72 37.84 37.97 39.80 40.56 39.52 38.63 40.27 40.35 37.29 36.60 35.37 37.04 37.28 36.63 39.42 37.58 38.76 30.41 31.25 27.74 33.77 33.72 31.18 34.64 35.72 36.75 37.41 37.08 36.94 35.77 42.20 43.02 43.71 42.20 41.94 43.25 43.03 43.67
44.15 44.79 42.05 39.65 39.03 38.44 38.61 38.37 39.63 41.39 41.96 42.87 41.73 40.33 39.20 40.04 41.73 41.69 41.86 41.73 40.76 37.61 36.54 36.66 32.76 32.02 23.75 33.46 32.90 31.09 35.27 37.75 38.06 39.59 38.82 34.34 38.78 41.97 42.01 43.04 42.58 42.13 42.84 42.15 43.09

GFSSW_sfc_wetblb_039.txt.gz
Wetbulb
54.16 54.10 54.26 54.50 55.60 56.74 57.81 58.81 60.11 60.31 59.48 58.89 58.57 58.50 58.63 58.63 59.67 57.92 54.10 57.71 60.08 64.66 61.98 59.21 57.25 55.82 54.39 50.60 52.35 50.40 40.67 38.29 41.70 42.98 44.48 49.13 46.75 50.53 51.84 49.67 50.20 50.54 52.45 59.08 63.63
54.18 54.10 53.96 53.89 54.18 54.74 55.94 57.10 58.45 60.01 59.91 59.18 58.59 58.22 58.19 58.99 55.26 53.54 59.21 62.99 64.50 64.79 57.48 53.82 52.86 53.31 47.97 48.43 49.03 45.75 41.63 42.55 46.65 47.11 45.25 48.74 48.48 48.81 48.25 48.05 46.71 49.62 55.22 59.52 62.93
54.07 54.08 54.07 53.72 53.36 53.84 54.19 55.58 57.05 58.30 60.18 59.38 58.56 57.87 57.94 57.90 51.64 51.58 62.65 63.69 64.41 63.76 58.94 55.86 54.59 52.02 47.19 47.58 46.45 45.60 41.88 46.93 49.14 49.77 49.91 49.00 48.98 50.52 47.42 45.01 48.03 48.36 51.25 54.90 58.62
54.38 53.92 54.19 53.38 53.24 53.12 53.18 53.77 55.67 57.25 58.98 59.85 58.44 57.56 57.91 54.38 40.36 56.38 63.48 64.43 64.72 62.26 58.18 56.16 53.26 47.72 45.58 44.38 47.57 42.60 46.75 48.57 49.57 50.60 49.44 47.69 50.28 48.46 47.61 47.51 51.22 51.02 52.17 53.37 54.30
53.96 53.77 53.48 53.62 52.82 52.85 52.93 52.84 54.35 56.50 57.70 59.39 58.23 57.47 54.76 48.19 48.56 59.10 62.61 64.40 61.78 60.17 56.77 54.74 50.36 47.28 44.05 44.89 46.18 43.28 45.64 48.73 49.24 49.15 48.31 49.56 47.28 47.12 47.92 50.58 51.87 51.57 51.99 51.23 52.91
53.62 53.14 52.85 52.81 52.85 52.32 52.29 52.86 53.68 55.33 56.20 58.27 58.22 57.68 51.04 42.26 54.78 58.18 57.57 57.85 58.20 58.19 56.02 55.52 50.84 49.36 46.06 45.12 43.61 46.06 46.35 46.36 47.93 47.59 47.65 46.81 46.19 46.29 47.22 50.10 49.37 49.76 49.89 49.57 50.86
52.71 52.50 52.74 52.54 52.30 52.27 52.20 52.48 53.37 54.30 55.25 57.23 58.20 54.68 48.72 46.19 52.40 54.17 55.43 53.81 55.56 56.53 54.80 56.32 55.23 49.86 48.54 45.00 48.55 46.52 42.61 44.67 45.54 46.52 45.68 47.56 42.83 43.23 47.96 48.85 48.28 47.95 47.75 50.11 50.04
52.09 51.82 52.21 52.01 51.75 51.87 51.97 51.99 52.60 53.23 54.44 56.22 58.34 52.64 44.55 54.90 54.56 53.30 52.69 52.38 55.70 56.59 57.49 58.47 56.92 52.74 50.02 48.29 46.10 42.76 41.71 36.76 44.03 46.23 46.80 45.60 37.72 45.12 47.84 46.25 46.62 48.47 49.24 48.88 50.43
51.69 51.59 51.68 51.73 51.25 51.34 51.46 51.80 52.36 53.04 54.28 55.44 53.36 49.42 42.95 55.28 50.49 52.43 51.85 50.50 53.42 56.85 56.62 58.51 55.13 49.46 49.52 43.62 40.50 39.91 33.27 36.34 40.29 45.98 45.34 43.50 38.54 45.80 47.75 46.87 44.51 45.74 48.09 48.90 49.88
51.10 51.06 51.02 51.39 51.15 50.73 51.28 51.56 51.80 51.92 51.92 54.01 52.48 44.26 47.23 45.57 49.91 52.09 52.10 52.18 51.11 53.24 52.81 52.17 48.88 44.60 43.73 41.25 32.60 34.08 34.46 35.43 36.66 42.38 42.69 40.80 39.73 43.41 46.17 44.89 43.93 44.03 45.07 45.74 47.19
50.74 50.78 50.76 50.48 50.63 50.60 48.86 45.91 41.67 42.24 47.05 44.49 44.43 44.68 47.18 50.82 51.90 50.11 51.33 51.88 50.03 47.98 42.74 48.62 42.19 38.89 39.34 40.84 40.40 40.60 39.56 35.27 37.67 42.38 38.14 38.02 38.17 40.42 43.39 43.18 44.58 45.51 44.13 45.31 47.99
50.39 50.28 50.18 50.65 50.66 50.67 47.00 40.99 41.49 42.95 37.95 47.31 47.56 47.43 49.42 50.38 44.28 47.33 51.71 46.48 44.86 40.90 42.20 40.57 37.29 43.59 45.41 44.06 42.52 39.21 36.38 33.24 37.56 40.44 37.65 36.60 36.20 39.50 41.22 42.30 43.71 44.09 42.75 44.06 46.61
50.06 50.07 50.42 50.82 50.35 47.54 43.49 42.42 47.79 46.03 37.59 43.54 47.37 46.19 46.33 48.82 44.01 44.24 49.47 46.88 43.33 40.75 40.14 35.73 39.01 43.96 41.67 40.31 39.34 36.51 32.59 32.80 33.28 36.87 36.40 34.34 31.94 35.04 39.68 41.68 43.44 44.74 45.62 45.92 45.81
49.86 50.37 50.66 50.66 46.27 45.72 42.56 47.06 48.15 46.23 31.90 37.32 42.38 45.46 47.54 48.09 42.21 48.94 50.28 46.67 43.79 39.90 40.92 39.69 42.15 40.77 38.87 37.86 37.55 31.75 38.05 37.42 35.94 31.67 25.73 34.01 23.57 30.20 36.45 38.17 39.58 39.95 40.75 44.25 45.48
49.77 50.27 50.48 50.65 45.50 41.98 45.73 48.25 48.79 43.34 20.96 38.45 42.14 50.66 47.74 43.30 43.41 44.03 49.91 47.25 39.46 40.07 39.78 36.34 38.71 38.59 35.81 37.32 39.14 34.98 39.16 36.35 35.29 30.45 28.12 28.29 23.87 28.68 33.43 34.52 36.83 38.76 39.41 40.48 42.62
49.65 50.12 50.79 48.02 47.30 46.63 46.90 48.23 44.19 28.32 20.31 35.96 41.26 40.86 40.00 42.28 42.89 43.90 45.00 47.31 46.12 41.33 40.68 38.44 42.92 39.90 38.50 40.08 39.59 39.77 35.70 33.82 32.82 29.45 19.15 27.18 26.22 24.86 30.93 34.80 36.48 37.41 40.30 41.33 41.26
50.11 50.66 49.59 49.27 43.11 48.30 46.76 41.89 26.10 22.17 34.93 33.66 37.04 39.69 38.64 38.76 38.90 39.92 39.68 37.38 33.90 31.03 31.53 37.31 37.98 40.60 40.68 35.69 38.13 38.52 29.53 17.38 21.15 23.41 18.80 29.29 26.73 27.91 35.60 38.34 39.24 39.59 40.53 40.13 42.28
50.32 51.28 48.35 48.86 47.94 48.10 42.11 31.86 18.58 32.53 33.14 39.59 38.91 38.84 35.79 38.65 37.55 38.85 37.48 32.70 37.58 34.95 28.80 25.98 23.14 35.98 38.86 35.93 33.28 33.10 30.91 19.30 15.84 17.41 21.59 30.14 23.94 29.87 38.47 41.62 40.89 42.33 41.83 42.42 41.81
51.32 45.58 46.85 46.66 48.07 45.05 38.60 23.46 27.16 32.83 37.45 36.94 37.08 34.21 34.44 37.38 37.27 37.09 36.30 34.27 35.77 36.08 28.50 26.70 29.09 39.81 40.20 39.76 38.25 32.43 24.94 32.41 23.45 23.69 15.72 24.18 28.37 34.59 38.59 37.89 37.95 38.14 39.79 39.73 38.49
44.24 42.65 44.71 47.67 46.99 42.97 34.46 30.78 30.98 37.86 39.72 38.99 32.42 34.43 31.63 34.12 33.72 33.33 34.54 37.11 37.03 38.55 37.87 35.60 29.57 37.36 39.79 41.42 40.07 34.62 35.83 26.02 22.25 11.50 15.03 21.38 24.17 28.52 32.27 34.61 37.51 37.65 38.16 40.13 42.34
40.62 38.95 44.78 48.07 45.31 38.91 28.20 32.15 34.03 41.01 41.14 37.90 34.89 33.72 33.98 33.61 34.46 33.68 33.04 37.79 38.77 37.70 39.92 38.25 34.25 32.14 37.70 33.23 30.98 32.37 32.43 33.24 28.68 25.50 19.27 19.09 23.50 32.99 34.45 35.31 35.57 37.16 39.15 40.95 43.26
37.51 31.23 43.57 46.52 33.77 36.38 34.05 37.41 36.83 38.01 42.28 40.40 37.63 35.66 34.09 35.18 33.85 33.65 32.08 35.27 40.58 40.30 34.58 38.70 33.62 26.83 28.10 35.17 37.60 34.64 31.49 29.81 19.65 19.21 23.32 23.05 25.84 39.35 39.67 39.04 39.49 41.26 43.05 44.21 44.12
35.31 35.30 46.22 45.63 31.84 33.73 37.87 36.68 38.04 40.29 41.18 40.60 37.87 38.25 38.02 35.29 30.72 35.83 35.45 39.82 41.79 40.05 37.81 37.44 28.43 17.87 25.53 29.84 33.64 31.63 33.85 33.43 31.21 30.09 22.18 23.32 25.92 37.34 39.38 40.26 41.63 41.99 44.14 45.25 43.43
36.01 27.85 36.26 41.67 41.16 35.12 35.82 35.36 35.83 43.37 41.43 41.21 38.83 39.62 38.76 36.93 37.12 35.44 35.11 38.55 40.22 41.08 44.39 40.33 31.85 24.27 20.44 27.20 31.45 25.25 31.70 32.67 31.45 27.66 26.64 27.63 30.01 35.13 37.88 40.09 42.64 43.76 43.85 44.75 45.16
40.95 33.30 36.98 30.82 37.04 38.09 39.39 37.95 37.80 37.48 42.20 42.95 40.41 39.64 38.51 35.05 35.61 35.15 36.98 36.14 38.65 41.87 38.25 35.43 23.95 27.76 30.69 32.81 30.07 29.66 30.91 32.44 30.97 31.98 29.12 30.89 32.71 36.95 39.91 41.88 43.02 44.48 43.60 43.52 43.06
38.29 38.74 39.38 35.31 40.74 37.71 38.78 38.20 38.30 38.75 39.61 37.54 37.35 39.01 38.40 36.28 35.24 34.80 36.94 35.45 34.29 36.03 34.86 35.92 26.61 27.17 24.47 32.23 32.57 29.85 32.83 33.03 33.18 33.50 33.92 34.48 34.94 42.12 43.84 44.30 43.73 42.55 43.00 43.01 42.81
43.76 44.16 41.63 36.91 36.39 35.98 35.78 37.72 38.34 39.24 41.15 41.18 40.48 39.48 38.03 38.92 40.03 39.05 39.02 38.72 38.50 35.08 33.99 34.34 29.42 23.60 18.66 30.68 30.62 29.11 32.80 33.93 36.48 39.09 38.59 35.09 38.42 42.85 42.12 42.89 42.26 41.44 42.01 42.84 43.44

GFSSW_sfc_wetblb_042.txt.gz
Wetbulb
54.57 54.41 54.51 54.34 54.09 54.16 54.42 55.88 57.15 58.13 59.43 60.43 59.43 58.90 58.58 58.55 58.59 56.53 52.56 56.80 58.22 64.12 62.15 58.66 56.44 54.70 53.56 49.33 50.76 48.09 39.30 37.32 39.96 40.79 42.34 47.51 45.37 48.78 50.91 47.65 48.54 48.97 54.76 59.05 62.65
54.98 55.09 54.56 54.26 54.01 53.73 53.52 53.81 55.43 56.73 58.00 59.59 59.85 59.04 58.23 58.25 54.87 52.28 58.55 62.51 63.50 64.93 58.80 54.74 52.39 52.80 47.73 47.23 47.55 44.25 39.03 40.20 45.02 45.75 44.14 46.79 47.17 48.31 47.37 46.66 45.70 50.76 56.30 61.24 62.06
55.01 54.75 54.69 54.43 54.30 53.38 53.48 53.29 53.16 54.85 56.68 58.33 60.15 58.87 57.93 57.43 50.40 50.59 61.42 63.20 63.83 63.83 59.25 55.48 53.91 51.45 46.50 46.47 45.52 44.11 40.83 45.40 47.48 48.94 48.30 47.66 47.49 49.23 46.38 44.64 46.21 46.97 53.98 56.85 59.19
54.73 54.56 54.21 54.00 53.90 53.65 53.28 52.99 52.78 53.81 55.37 57.41 58.85 58.45 57.64 54.51 38.43 54.82 63.35 63.55 64.23 61.88 57.26 55.03 52.58 47.52 44.84 43.59 46.57 41.22 45.58 47.40 48.76 49.93 47.83 46.20 49.00 46.62 47.35 47.41 50.12 49.68 50.33 51.49 55.40
54.16 53.86 53.49 53.39 53.26 53.03 53.03 52.45 52.53 52.76 54.34 56.48 57.65 58.33 54.72 47.31 47.61 56.89 62.31 63.15 61.11 59.15 55.07 53.52 50.45 47.33 43.59 44.52 45.39 41.56 43.67 47.06 48.36 48.39 46.79 47.97 46.54 46.55 47.12 50.16 50.87 49.58 50.76 50.35 50.44
53.30 52.91 52.67 52.75 52.74 52.62 52.43 52.59 52.44 52.62 53.53 55.28 56.97 57.75 50.89 41.18 54.25 57.65 58.40 59.91 59.38 57.77 55.59 54.97 51.78 49.43 45.47 44.55 43.76 44.85 45.68 45.61 46.86 46.71 46.55 45.74 45.23 45.35 46.08 49.24 48.91 49.10 48.40 48.72 49.68
52.64 52.26 52.19 52.31 52.09 52.26 52.31 52.40 52.51 52.32 53.16 54.39 56.03 54.88 48.21 44.75 52.88 56.27 57.32 56.54 57.83 57.65 54.29 55.46 54.64 49.02 47.65 44.32 47.73 45.66 41.85 43.46 44.60 45.32 44.68 46.26 43.27 42.30 47.35 48.18 46.97 47.07 47.34 48.51 48.73
51.98 51.88 51.84 51.83 51.54 51.70 51.96 51.85 51.78 52.08 52.78 53.72 54.99 53.76 43.79 53.94 53.52 52.52 52.18 51.65 54.07 56.49 57.18 58.03 56.34 50.91 47.89 47.26 45.02 42.03 40.83 36.33 42.57 44.60 45.45 44.90 38.10 43.80 47.03 44.63 45.14 45.76 46.06 46.86 48.84
51.27 51.38 51.37 51.29 51.30 51.29 51.27 51.61 52.05 52.20 52.62 53.31 50.16 49.82 41.94 55.86 49.97 52.45 51.57 50.20 52.32 54.92 55.66 58.10 55.43 49.98 47.78 41.47 37.51 38.17 32.31 35.43 38.99 45.00 44.21 42.03 37.58 44.83 48.18 45.37 43.67 44.72 44.75 46.00 47.53
50.81 50.81 50.90 50.93 50.70 50.80 51.07 51.30 51.36 51.07 50.03 51.04 50.49 43.96 46.42 45.06 50.23 51.67 51.13 51.28 50.70 52.98 52.05 51.92 50.15 45.72 44.84 40.41 32.54 33.94 33.09 33.91 35.57 40.35 41.16 39.58 39.22 43.07 44.42 44.06 43.92 43.74 44.33 44.88 45.96
50.70 50.48 50.58 50.46 50.74 50.79 48.52 44.18 39.10 40.06 43.90 43.10 44.36 43.69 45.37 50.05 51.71 50.04 50.74 49.04 50.64 48.82 42.78 48.07 42.44 39.18 42.37 43.00 40.14 38.29 38.21 37.99 37.37 40.84 37.13 36.51 35.81 38.55 41.77 40.88 41.18 43.76 44.25 44.51 45.50
50.16 50.20 50.32 50.72 51.03 50.84 47.47 40.08 39.88 42.27 35.23 44.23 45.50 46.37 49.12 49.65 44.05 47.85 51.30 46.13 44.27 41.49 44.38 43.63 39.46 42.29 44.25 43.96 41.59 39.30 37.56 34.77 36.75 39.43 36.84 35.53 35.37 39.25 40.93 41.55 42.57 43.77 44.65 44.54 45.39
50.10 50.09 50.37 50.79 50.79 46.82 44.53 41.82 46.49 45.80 36.28 39.85 45.26 44.83 46.39 48.20 43.23 44.18 48.76 46.81 42.96 40.74 38.42 38.40 40.17 44.35 43.23 41.49 40.37 37.74 32.50 32.06 33.21 36.19 35.11 33.90 33.36 34.76 38.11 40.00 41.48 43.53 44.37 44.71 44.56
49.48 49.99 50.41 50.77 46.75 46.07 42.38 46.22 47.39 46.63 30.01 34.45 40.60 45.44 47.23 47.57 41.58 48.45 50.74 46.96 43.35 39.81 39.85 37.82 41.15 40.95 40.20 38.76 36.55 32.90 37.03 36.51 34.75 31.25 25.49 33.53 23.76 29.70 34.72 35.99 37.70 37.88 38.38 41.21 42.93
49.66 49.89 50.59 50.77 46.08 42.54 45.42 47.82 47.64 42.64 12.24 37.75 40.69 50.94 47.50 43.31 43.01 44.36 49.80 46.86 39.83 40.52 40.29 35.87 37.86 36.99 35.73 37.30 39.30 34.33 38.01 35.35 33.89 29.27 26.57 26.69 24.07 27.85 31.98 33.50 35.45 36.79 37.75 39.23 39.88
50.59 50.80 50.86 48.60 46.27 46.56 48.67 47.36 43.06 27.49 16.39 35.75 41.84 41.12 40.58 41.71 42.09 44.11 45.17 46.79 46.34 41.43 40.43 37.48 41.58 39.49 37.89 39.18 38.79 38.89 34.64 32.22 31.37 26.97 17.68 25.02 24.99 25.04 29.06 33.00 34.12 36.67 39.12 39.88 40.91
51.20 51.10 50.08 49.08 43.63 48.71 47.82 42.96 23.12 20.89 32.89 32.70 36.63 39.70 38.33 37.52 38.99 41.11 40.00 36.61 34.60 32.68 32.66 37.16 36.67 39.36 40.42 35.32 37.80 35.29 28.50 18.46 15.77 14.33 17.71 27.06 25.23 26.62 33.08 36.99 36.66 38.32 39.24 39.84 39.64
51.63 50.70 47.95 48.57 48.61 46.17 42.26 31.61 19.74 29.52 32.88 39.07 38.14 38.38 35.62 37.98 38.03 39.40 37.44 33.54 37.12 34.12 30.95 27.86 23.50 35.32 38.21 35.56 32.96 32.72 29.38 19.66 14.79 17.44 20.18 28.24 23.25 28.85 35.48 37.81 38.00 38.32 38.78 39.07 39.27
48.85 46.22 45.50 46.29 47.26 44.27 36.75 21.55 25.76 31.04 36.67 36.87 37.41 35.26 34.87 36.83 37.55 36.99 36.04 33.34 35.65 34.93 28.10 24.83 26.52 38.23 38.68 38.74 36.84 31.83 25.54 31.24 22.50 21.23 15.66 22.73 26.10 32.09 34.73 35.10 36.63 37.87 39.48 39.87 39.27
41.85 42.86 43.36 48.44 46.41 42.61 33.52 30.41 31.31 34.66 39.70 38.79 31.95 34.38 31.63 33.89 33.90 34.83 34.32 36.69 35.39 37.77 36.63 33.41 25.55 36.55 38.99 40.40 39.88 33.59 35.08 22.95 17.84 10.78 13.44 19.75 21.56 26.15 31.16 33.38 35.95 36.40 38.31 40.91 42.59
39.02 38.58 42.91 47.28 45.16 38.12 29.42 32.84 34.46 39.47 40.84 37.01 33.76 32.33 33.75 32.90 33.41 33.23 33.37 36.36 37.84 36.36 38.02 35.31 30.52 31.09 37.87 32.21 30.94 33.19 30.65 28.91 27.07 23.32 18.26 17.37 22.96 31.64 32.40 33.79 35.17 36.10 37.66 39.70 41.35
36.10 30.59 42.81 47.41 33.51 36.53 32.97 35.29 35.61 37.19 41.85 39.79 36.83 36.15 34.18 34.96 32.51 32.39 31.49 33.74 38.91 38.28 34.32 37.79 30.82 20.59 30.59 33.86 35.91 33.62 30.75 28.57 17.81 16.54 20.60 21.31 24.68 36.89 34.33 35.28 38.07 40.80 42.09 44.58 45.56
33.82 36.62 44.76 44.70 32.42 31.16 37.18 36.48 36.80 40.04 39.97 39.02 35.84 36.75 36.98 33.91 30.75 32.92 34.14 39.06 40.13 39.28 35.87 35.99 26.68 17.86 24.24 29.39 32.70 30.17 32.26 31.65 29.59 29.49 17.30 20.46 24.25 36.23 35.80 40.45 42.48 43.50 44.96 46.16 46.30
34.45 26.28 37.13 41.42 40.65 35.93 33.42 35.49 36.91 41.38 40.31 39.35 36.72 38.44 36.90 33.85 35.38 34.24 33.11 38.00 41.48 41.66 44.10 39.69 30.04 24.60 21.04 23.11 27.52 23.34 30.34 31.75 30.90 26.33 22.76 24.56 28.61 34.34 37.03 39.81 42.58 43.99 45.36 44.96 44.60
38.66 31.86 35.53 31.09 37.77 38.61 38.73 38.03 36.94 36.76 40.37 40.25 38.28 38.39 37.08 33.42 34.86 33.61 35.21 35.57 39.34 41.58 39.35 34.60 24.22 26.20 28.69 31.70 28.70 28.80 29.76 30.69 25.38 30.31 23.59 29.30 30.35 34.74 37.97 40.28 42.62 45.00 44.32 44.12 43.86
37.27 36.92 39.34 38.08 39.86 35.31 36.90 36.06 36.57 37.73 38.00 36.55 36.19 37.94 37.55 35.03 33.90 33.14 34.65 33.74 33.23 35.42 34.06 34.47 22.62 26.11 24.51 31.28 31.20 28.03 30.96 31.17 31.52 32.23 32.51 32.21 31.66 39.01 41.81 44.78 44.40 41.53 41.56 41.20 42.83
42.81 43.93 41.01 36.52 35.31 32.90 33.66 35.69 37.67 38.11 40.03 40.94 39.53 38.20 37.43 38.37 39.31 38.07 38.10 37.90 36.94 34.16 33.09 32.43 27.45 23.87 20.91 28.63 28.70 25.82 30.87 32.24 32.71 33.73 34.84 32.51 37.56 42.28 42.43 43.35 40.05 39.60 38.39 36.72 36.69

GFSSW_sfc_wetblb_045.txt.gz
Wetbulb
55.86 55.91 55.01 55.10 54.85 54.75 54.60 53.65 53.79 54.87 56.49 57.46 58.93 60.05 59.08 58.72 58.41 55.41 50.90 55.23 57.49 62.51 63.44 58.30 55.97 54.40 52.76 49.42 49.40 46.65 39.19 36.80 38.72 39.74 41.27 45.20 44.59 48.30 49.55 46.96 47.48 48.32 53.57 56.54 60.91
55.52 55.74 55.48 55.16 55.20 54.84 53.93 53.96 53.96 53.41 54.35 56.00 57.71 59.77 59.30 58.37 54.09 51.10 56.18 60.56 62.65 62.69 58.70 54.12 52.24 51.69 47.29 47.36 47.03 43.07 37.64 39.57 44.27 44.43 42.83 45.76 46.08 46.75 47.28 46.02 45.46 50.19 57.08 60.04 61.00
54.82 54.95 55.13 54.86 54.78 54.35 54.15 53.68 53.01 53.32 53.21 54.82 56.55 58.41 59.31 57.14 49.35 48.51 59.41 61.19 63.19 62.65 59.83 57.04 53.84 51.08 46.03 45.42 44.74 43.55 39.19 43.62 46.20 47.82 47.55 45.65 45.95 48.03 45.36 44.51 45.00 45.41 49.98 54.28 58.37
54.34 54.16 54.06 54.06 54.06 53.62 53.69 53.55 53.27 52.55 52.61 53.85 55.54 57.52 58.42 54.34 37.46 52.81 62.17 62.53 63.77 61.14 58.12 53.43 51.11 47.15 44.33 42.96 45.66 41.09 45.22 46.41 47.48 48.95 47.09 44.36 47.12 45.29 46.85 47.34 49.21 49.23 49.96 50.56 53.62
53.49 53.34 53.25 53.50 53.22 53.13 52.97 53.08 52.91 52.77 52.50 52.83 54.40 56.49 54.94 46.48 45.84 55.41 61.11 62.82 60.12 59.50 55.59 52.37 48.50 47.01 43.55 44.19 44.40 41.59 43.19 46.29 47.69 47.67 46.18 46.86 44.68 45.03 45.72 49.53 49.12 49.92 49.69 49.13 49.24
52.86 52.65 52.48 52.54 52.36 52.20 52.41 52.47 52.51 52.63 52.86 52.77 54.04 55.67 50.38 40.17 52.51 55.23 56.39 58.94 58.70 57.08 54.10 53.58 50.23 49.27 45.59 43.98 43.45 44.56 45.35 45.50 46.01 45.73 45.80 44.92 44.45 44.32 44.42 48.08 48.28 47.78 48.47 48.04 48.31
52.36 52.09 51.98 52.06 52.07 51.94 52.09 52.29 52.00 52.19 52.61 52.84 53.42 52.47 48.14 44.78 52.17 54.73 58.35 58.05 58.81 57.64 53.84 54.96 53.26 48.50 46.58 43.45 46.36 44.79 40.95 42.20 43.71 44.57 44.21 45.01 42.16 41.09 46.21 47.48 46.41 47.65 45.69 47.42 47.86
51.79 51.59 51.39 51.39 51.58 51.68 51.82 52.11 51.75 51.68 52.06 52.67 53.39 50.94 45.29 53.40 53.90 51.72 52.10 53.81 57.64 57.94 56.41 56.83 55.37 50.83 46.81 46.47 44.04 41.43 40.11 35.67 41.76 44.26 44.67 44.17 37.63 43.37 46.10 44.28 44.18 44.78 46.57 45.82 47.02
51.46 51.36 50.90 51.02 51.34 50.98 51.23 51.54 51.69 51.95 52.06 52.36 48.90 47.30 42.74 55.24 49.55 51.56 51.23 49.92 51.56 54.09 56.56 57.53 54.79 48.48 46.43 41.43 36.75 36.86 31.87 34.81 38.49 43.67 42.94 41.49 36.73 43.61 46.38 44.68 43.49 44.29 45.37 44.65 46.19
51.03 50.79 50.67 50.67 50.82 50.96 51.36 51.58 51.56 50.38 49.18 49.75 48.73 44.61 46.50 44.55 49.81 51.15 51.01 51.24 50.23 52.14 51.79 52.02 50.12 43.66 42.93 39.05 31.43 32.93 32.45 32.43 34.71 38.72 39.78 38.87 37.92 42.86 44.56 42.98 42.36 42.84 44.25 44.58 45.34
50.72 50.54 50.55 50.43 50.86 51.11 49.28 43.38 38.92 37.45 42.28 38.40 41.61 42.52 45.49 49.80 52.34 49.48 50.25 48.64 52.08 48.75 44.31 48.13 43.02 39.78 41.65 41.11 38.28 37.53 36.20 34.86 37.06 39.97 36.04 35.57 35.06 38.41 41.13 39.71 39.54 41.65 43.62 44.62 45.78
50.47 49.75 50.18 50.46 50.90 50.99 46.98 40.90 39.84 40.58 33.70 41.32 42.72 45.85 48.55 49.67 44.19 47.38 50.60 44.83 46.43 42.80 44.43 44.05 39.61 43.53 45.57 44.55 42.21 40.34 36.54 33.86 36.36 38.22 35.78 34.51 34.04 38.43 40.49 41.07 42.14 42.80 43.72 44.30 45.40
49.92 49.58 49.92 50.43 50.82 46.55 43.34 41.34 45.45 44.34 34.71 38.24 42.78 44.73 46.20 48.07 43.82 44.21 47.47 46.94 43.73 41.88 41.45 38.35 40.73 45.29 43.38 41.83 40.24 37.77 33.65 32.13 32.75 35.55 34.13 32.64 31.31 33.77 37.53 38.69 39.70 41.54 42.90 44.03 44.28
50.73 50.80 50.34 50.26 46.39 46.32 42.19 46.84 45.69 45.36 21.63 33.04 37.49 43.83 46.50 47.19 41.48 48.05 50.06 46.93 43.88 39.36 40.38 39.17 40.51 41.97 40.84 39.31 38.97 32.72 37.62 35.94 33.87 31.20 26.10 33.02 23.65 30.18 34.22 35.13 36.78 38.15 38.37 39.93 41.05
51.45 51.18 50.81 50.48 44.57 43.49 45.08 47.84 46.62 42.20 2.94 34.39 39.68 50.15 47.60 42.71 42.60 43.48 49.77 46.39 39.97 39.76 38.48 35.54 37.47 37.96 37.97 38.89 39.20 34.67 37.54 34.90 33.13 28.31 25.29 26.63 24.03 28.79 31.22 33.43 34.81 36.21 36.90 38.42 39.51
51.93 51.25 50.52 48.38 46.87 47.04 48.72 47.62 41.85 21.36 16.82 33.39 40.48 39.72 39.68 42.03 41.83 44.09 45.20 46.78 45.87 40.75 39.90 36.45 40.79 39.15 37.22 38.43 39.25 39.10 33.67 31.07 29.46 26.28 18.28 24.31 24.13 25.64 29.11 30.60 33.64 35.97 38.69 38.58 38.70
51.24 51.30 49.20 48.59 41.22 48.66 47.77 42.69 20.45 12.01 33.60 32.56 35.29 39.56 37.56 38.39 40.23 41.40 39.72 37.57 35.98 32.91 32.70 35.96 35.88 38.96 39.89 35.05 37.28 34.41 29.33 17.97 15.55 14.51 17.67 26.14 24.54 27.60 32.47 35.44 35.75 36.51 37.00 37.39 38.07
50.34 49.05 48.32 46.76 48.24 47.34 41.93 29.60 16.73 28.84 30.26 39.24 38.92 38.30 36.41 38.32 39.16 39.44 36.27 34.25 37.43 36.08 31.91 28.33 27.36 34.98 37.17 35.14 32.99 31.15 29.27 20.32 16.07 15.41 19.08 26.68 22.95 28.55 33.28 35.17 35.52 37.25 37.24 39.83 40.79
48.82 43.53 43.96 46.89 47.19 45.04 38.50 24.80 25.11 29.48 33.58 37.05 37.77 34.97 34.67 36.85 38.01 37.42 35.99 34.19 35.75 34.68 28.53 25.49 26.22 37.01 38.06 37.96 36.51 31.27 23.60 29.92 22.10 19.43 15.79 22.80 25.96 31.10 33.69 34.94 35.91 36.92 38.61 38.71 40.20
40.07 40.42 41.29 46.92 46.66 42.32 33.51 29.41 31.03 33.80 36.16 37.72 32.58 35.17 30.91 33.26 35.39 33.78 34.38 36.91 35.46 36.98 35.94 31.96 26.66 35.98 37.44 39.15 38.29 32.87 34.09 23.93 17.74 9.81 13.39 18.58 21.15 24.38 28.80 31.12 34.55 35.87 36.37 37.75 39.45
37.38 34.22 41.37 45.93 43.39 34.74 28.73 31.80 33.86 38.57 41.36 36.55 32.75 32.31 32.36 31.63 34.66 32.72 33.39 35.92 37.42 36.17 36.99 34.45 30.70 32.89 37.28 31.81 31.07 31.39 27.76 27.64 26.31 22.63 16.90 16.14 22.37 30.07 30.58 32.51 34.44 35.87 38.37 38.65 41.66
34.95 26.25 41.48 44.62 29.66 34.53 34.07 35.66 36.77 38.25 40.84 38.99 36.44 35.65 32.99 33.05 32.43 33.21 31.86 34.18 38.52 37.82 33.49 34.99 29.86 29.50 31.66 33.29 35.03 33.26 30.19 27.80 18.19 16.70 24.07 23.39 22.95 34.47 33.45 33.92 36.70 39.93 43.92 45.90 47.17
32.59 33.05 42.70 41.56 31.42 33.20 35.41 36.33 37.96 39.02 39.14 37.66 34.55 36.01 35.47 32.98 29.80 32.33 33.38 38.51 39.01 37.61 35.11 35.00 25.94 18.09 23.28 29.12 31.75 29.36 31.40 29.87 27.53 24.13 14.65 16.54 22.70 34.82 34.45 38.25 39.84 41.98 44.21 46.23 46.43
34.02 27.81 34.30 38.98 40.61 36.38 34.68 35.98 36.01 39.97 38.42 37.80 35.82 37.48 34.98 33.35 34.49 32.44 32.65 37.75 39.64 39.42 43.31 38.76 28.45 24.01 19.23 22.71 27.22 24.01 29.64 30.11 27.25 19.28 21.70 22.93 25.79 33.69 35.60 37.31 40.20 42.90 45.44 44.69 45.13
35.24 33.43 38.11 29.20 35.53 37.94 38.42 38.11 35.66 35.18 38.74 38.79 36.33 37.15 35.81 32.64 33.55 32.29 34.05 35.02 39.37 42.35 37.65 34.42 24.21 25.67 28.81 30.93 28.06 28.77 29.63 29.47 24.22 28.86 21.16 26.40 28.07 33.11 37.20 39.53 41.29 44.95 42.77 42.28 42.39
37.48 37.35 37.93 34.69 36.18 34.47 35.24 34.50 35.43 36.77 36.90 35.90 35.21 37.69 36.91 33.67 33.07 32.48 33.74 33.00 33.58 36.53 35.65 33.72 23.70 26.36 23.77 30.10 30.00 27.80 29.82 30.34 30.30 30.97 30.63 31.65 31.28 38.51 40.68 42.24 44.62 41.74 40.42 38.91 37.99
41.66 42.64 40.64 34.66 33.62 31.99 33.78 37.37 37.56 37.58 40.20 40.55 38.66 37.45 36.53 37.66 37.70 37.64 36.94 36.94 36.11 34.00 32.57 31.69 27.34 23.57 20.60 27.37 28.29 25.22 29.41 30.16 31.00 32.02 33.86 29.25 34.86 39.53 41.51 42.85 43.26 39.27 37.62 35.26 34.89

GFSSW_sfc_wetblb_048.txt.gz
Wetbulb
55.88 55.72 55.78 55.92 56.01 55.74 55.69 55.26 54.70 53.30 54.12 54.68 55.43 56.86 58.67 59.94 59.13 55.43 50.53 54.19 57.04 62.13 62.47 58.16 58.67 55.15 52.54 48.91 48.10 46.10 38.93 35.90 38.40 39.19 41.02 44.33 43.11 47.04 48.56 45.42 46.31 47.39 49.59 55.67 61.98
54.94 55.04 55.13 55.18 55.22 55.22 55.08 54.70 54.54 54.15 52.96 53.98 54.25 55.84 57.34 59.37 53.96 50.80 55.63 59.67 61.74 61.84 56.86 55.94 53.44 51.40 47.39 47.04 46.69 42.24 37.68 39.17 43.44 43.50 42.83 44.55 44.66 45.37 45.87 45.61 44.63 47.42 53.69 59.34 64.94
54.60 54.46 54.28 54.09 54.35 54.56 54.21 54.54 54.23 53.76 53.39 52.92 53.40 54.94 56.57 57.69 48.07 46.60 58.23 60.59 61.18 61.56 58.59 56.00 53.94 50.82 45.70 45.09 44.27 43.14 38.25 42.88 45.20 46.65 47.42 44.95 45.03 46.67 43.86 43.08 44.74 44.72 47.52 53.43 58.70
53.99 53.82 53.70 53.82 53.74 53.50 53.58 53.59 53.73 53.79 53.53 53.13 52.91 53.95 55.82 54.18 38.43 50.40 60.27 60.46 61.36 59.72 58.08 54.08 51.19 46.58 44.04 42.15 44.96 40.60 44.77 44.91 46.61 47.90 46.73 43.70 45.48 43.66 45.55 46.38 48.64 48.59 49.15 48.84 51.60
53.15 53.17 53.07 53.02 52.90 52.71 52.64 52.66 53.12 53.12 53.08 52.97 52.81 53.22 52.65 45.87 44.85 54.03 59.40 59.24 57.74 58.15 55.49 51.86 48.96 46.28 42.77 43.85 43.96 41.56 42.88 46.15 47.38 47.44 45.91 46.03 43.85 44.15 44.65 48.13 48.86 49.39 49.09 48.50 47.94
52.76 52.43 52.37 52.21 52.06 52.11 52.18 52.24 52.29 52.49 52.72 52.83 52.77 52.89 48.76 41.63 52.53 53.50 53.57 58.20 56.40 57.03 55.00 52.73 50.04 48.96 45.68 43.90 42.63 44.47 44.94 44.65 45.47 45.40 45.07 43.91 43.26 43.42 44.07 45.69 46.66 47.14 48.15 47.95 47.99
52.45 52.07 51.88 51.57 51.59 51.71 52.08 52.01 51.85 52.16 52.31 52.30 52.47 50.57 46.24 45.35 52.18 52.17 56.29 56.80 57.36 57.40 53.76 53.69 52.51 49.04 46.35 42.94 46.14 43.96 40.54 41.82 43.11 43.99 43.79 44.54 41.03 40.71 45.54 46.70 45.71 45.75 45.33 47.60 47.91
51.91 51.75 51.36 51.36 51.31 51.50 51.51 51.58 51.60 51.67 51.88 51.92 52.02 49.27 42.77 53.63 54.68 52.51 51.58 55.74 57.74 57.26 56.21 56.19 54.15 49.57 46.16 46.02 43.29 40.73 39.63 34.80 40.83 43.56 44.32 43.92 35.20 42.58 45.37 43.88 43.73 43.77 43.64 44.37 47.09
51.90 51.57 51.22 50.99 51.10 51.14 51.31 51.74 51.93 51.98 52.10 51.50 46.93 46.02 41.69 54.39 49.57 51.78 50.93 52.29 55.19 55.31 56.03 56.56 53.52 47.78 45.51 39.93 36.61 37.87 30.99 33.77 38.33 42.86 41.61 40.70 35.11 41.86 43.85 41.70 42.18 42.60 42.12 43.52 44.25
51.56 51.23 50.88 50.75 50.91 50.89 51.20 51.20 51.15 49.66 48.55 49.00 47.41 41.10 46.40 43.93 49.35 50.51 51.33 51.99 50.72 52.20 51.69 50.91 48.25 43.85 40.52 39.12 30.62 34.12 31.84 32.15 34.47 37.93 38.69 37.37 36.14 40.85 42.91 42.84 41.87 41.87 42.29 42.71 43.86
50.73 50.51 50.08 49.88 50.65 51.00 49.19 43.78 37.49 36.02 41.06 36.40 38.96 40.88 45.03 48.99 51.51 49.22 49.79 50.06 51.53 49.38 44.81 47.56 43.06 39.06 40.76 40.09 38.14 36.83 35.02 33.72 35.75 39.35 35.57 35.75 34.14 37.47 41.19 38.91 38.62 39.58 41.06 42.78 45.06
51.30 50.84 50.55 49.82 50.63 50.91 46.00 39.73 38.31 40.45 33.12 39.81 40.81 42.15 45.23 49.66 43.83 46.80 50.17 45.13 46.14 42.26 45.59 42.59 39.68 44.08 44.05 43.28 40.26 37.94 35.08 32.82 35.98 37.43 34.91 34.20 33.21 37.62 40.66 40.17 41.02 41.86 42.54 43.35 43.88
52.07 51.66 51.08 50.63 50.14 45.79 42.17 41.40 44.34 43.41 34.18 37.68 41.84 42.58 45.42 47.87 43.59 43.92 47.26 46.55 43.94 42.34 42.00 39.10 41.59 45.34 43.64 42.15 40.64 39.19 36.92 34.31 32.98 34.49 33.13 31.95 31.27 32.76 36.77 37.45 38.79 40.01 40.71 41.10 41.22
51.75 51.87 51.56 50.38 44.97 46.27 41.89 46.69 44.98 46.42 16.48 32.01 36.77 42.99 45.74 47.06 41.14 47.96 48.99 47.21 43.90 40.51 40.74 38.92 43.52 42.97 41.60 40.16 40.94 35.58 38.36 35.85 33.60 31.03 26.37 32.01 24.58 30.40 33.65 34.06 35.50 35.36 36.41 37.84 38.92
51.98 52.01 50.73 49.09 44.71 42.69 45.01 47.15 46.78 40.35 1.02 33.41 38.11 49.36 47.51 42.55 43.03 43.83 49.49 46.82 40.87 40.55 40.86 35.80 40.21 40.52 39.33 40.08 41.38 34.98 37.28 34.31 32.16 28.44 24.52 26.42 24.06 28.87 30.72 31.61 33.55 35.44 36.65 36.93 37.19
51.33 51.39 50.20 47.44 46.23 46.75 46.82 45.52 40.10 18.69 11.73 31.87 39.88 38.00 39.90 41.30 42.20 44.53 45.15 47.18 45.95 40.50 39.74 37.44 41.39 40.13 38.31 38.37 39.60 37.88 33.16 30.90 28.68 26.23 18.50 23.85 23.56 25.59 28.88 29.28 32.59 34.22 36.49 38.32 38.88
50.23 50.03 48.38 47.68 41.19 48.62 47.42 39.26 17.88 13.26 33.24 32.31 34.30 38.56 38.71 38.25 39.68 41.48 39.93 37.47 36.87 32.13 30.33 36.12 36.25 39.60 39.64 34.65 37.19 34.48 31.40 25.94 16.62 15.70 18.13 25.53 24.38 26.87 31.29 34.01 33.30 33.89 36.24 37.94 39.45
50.20 49.09 47.88 47.36 48.92 45.08 42.10 29.39 14.36 28.42 30.06 37.17 37.71 38.67 36.33 38.64 38.85 39.25 37.25 34.19 37.25 35.70 30.59 27.12 29.20 36.19 37.41 35.05 32.45 29.48 29.20 20.86 15.55 16.36 19.47 26.32 22.30 27.55 32.46 33.67 35.33 35.93 36.79 38.23 38.88
48.11 41.99 44.51 46.74 46.55 43.56 34.27 19.98 20.97 28.53 33.07 34.35 37.11 34.45 34.96 37.79 38.28 37.05 34.42 33.13 35.33 35.82 29.92 26.24 26.47 36.22 37.46 36.97 35.92 30.78 24.11 29.95 21.93 19.31 15.72 22.12 25.27 29.15 32.36 32.12 33.04 35.80 37.10 37.42 38.21
39.17 38.06 39.56 46.33 47.11 40.25 27.24 28.20 29.80 34.07 36.79 37.77 32.07 33.42 30.01 34.96 33.95 34.55 34.29 36.03 35.77 37.12 35.31 30.81 26.46 34.50 36.02 37.88 36.89 33.07 33.46 23.27 18.04 13.54 14.62 18.25 20.35 23.44 27.93 31.22 34.59 35.63 37.18 37.91 38.82
36.50 33.28 39.97 45.16 42.00 33.93 28.86 31.34 33.79 38.13 39.35 35.25 32.14 31.68 31.73 33.15 33.86 31.85 32.43 35.35 38.09 35.44 36.83 33.75 30.42 32.10 36.77 31.36 30.29 30.25 26.48 27.11 25.75 22.56 17.34 16.16 21.82 28.82 29.77 31.73 33.16 35.26 36.63 38.69 42.01
33.94 27.54 40.53 42.81 32.42 34.16 34.06 36.19 38.39 37.87 39.85 36.98 36.18 34.77 32.16 32.35 31.57 31.63 31.31 33.58 38.48 38.10 33.48 34.32 30.99 29.61 30.19 32.46 34.00 32.29 29.35 27.02 18.38 16.91 23.67 21.55 21.82 32.79 32.02 33.35 34.52 36.43 39.65 43.29 46.85
32.53 32.30 41.15 40.89 32.79 34.08 35.44 36.29 38.13 38.17 38.35 35.84 34.80 35.76 34.70 31.79 29.34 31.78 33.07 37.87 38.93 37.33 34.53 34.15 25.93 18.73 27.43 31.20 31.96 29.84 31.09 28.82 26.39 22.91 14.58 16.11 22.18 33.62 32.93 35.40 37.83 37.94 39.73 44.38 43.89
33.41 29.08 34.85 37.97 40.14 37.29 36.07 36.64 35.82 39.21 37.26 36.50 35.16 36.45 34.49 32.51 33.82 31.86 32.79 37.99 38.59 38.44 42.51 37.68 27.96 24.49 19.82 23.60 27.62 24.57 29.49 28.88 25.97 18.30 20.22 20.81 24.38 32.24 34.20 35.14 38.00 39.34 42.59 43.17 43.14
34.30 33.78 38.43 33.58 36.61 37.04 37.77 37.50 34.18 34.10 37.40 37.60 36.05 35.89 34.73 31.29 32.37 31.46 33.65 34.61 38.04 41.67 36.66 33.98 23.50 24.73 28.20 30.01 27.32 28.29 29.44 28.73 22.90 26.62 20.36 24.50 26.31 31.72 35.07 36.93 38.83 41.06 42.82 41.39 39.64
36.90 35.43 39.06 35.82 36.34 35.73 35.16 33.76 34.21 35.75 36.06 34.37 34.63 36.19 35.50 33.02 32.24 31.21 33.04 32.47 32.32 35.65 35.14 32.92 25.99 26.17 22.98 29.38 29.57 27.73 29.52 29.80 29.06 29.44 28.94 30.50 30.13 37.60 39.85 40.87 42.32 42.06 40.56 38.37 36.24
41.04 42.15 38.82 35.10 31.70 30.50 31.88 35.19 36.30 36.82 39.40 40.13 38.02 36.60 35.52 36.79 36.81 36.17 35.70 35.84 35.42 33.41 32.67 33.04 27.28 23.56 19.16 27.07 27.88 24.87 28.73 29.58 29.40 30.99 32.45 27.66 33.42 37.45 37.60 41.15 42.72 40.58 38.01 35.16 34.42

GFSSW_sfc_wetblb_051.txt.gz
Wetbulb
55.88 55.70 55.54 55.32 55.04 55.22 55.31 55.69 55.51 55.43 55.04 53.81 53.65 55.10 55.43 56.76 57.86 56.14 51.19 54.21 56.83 62.09 61.73 57.58 58.98 57.56 53.54 50.69 50.08 49.07 43.24 38.63 41.21 41.01 43.75 47.18 46.35 50.38 51.36 50.02 50.39 51.80 54.58 58.44 62.76
55.18 55.17 55.01 54.70 54.69 54.48 54.37 54.48 54.89 54.76 54.64 54.06 53.58 53.89 54.40 56.01 52.93 52.26 55.80 60.00 60.85 61.58 56.33 54.41 53.46 53.23 49.48 48.53 48.43 46.36 41.54 41.21 44.89 45.75 44.86 46.85 48.07 49.20 49.65 48.64 49.58 52.31 53.98 62.63 64.91
54.31 54.09 54.12 53.99 53.85 53.86 53.70 53.70 53.83 54.32 54.14 53.74 54.15 53.25 53.73 54.56 49.84 49.13 59.73 61.13 61.12 61.25 57.75 57.53 55.75 52.58 47.65 47.32 46.25 44.50 41.12 44.51 46.24 47.26 48.73 47.30 48.13 49.90 48.31 47.13 49.44 49.46 51.75 59.10 63.22
53.63 53.69 53.55 53.33 53.30 53.04 52.97 53.13 53.33 53.43 53.37 53.48 53.46 53.52 53.22 51.50 39.29 50.43 58.44 60.66 61.66 58.47 57.25 54.94 52.37 48.57 45.64 43.63 46.28 42.85 45.29 45.60 47.43 48.87 48.36 46.94 48.78 47.47 48.55 49.46 51.49 52.22 52.49 52.57 61.83
53.27 53.15 52.90 52.63 52.55 52.18 52.31 52.38 52.66 52.71 52.78 53.11 53.34 53.03 50.40 47.00 46.61 53.78 57.54 56.38 57.99 56.48 54.65 52.41 49.72 48.98 45.14 45.29 44.94 43.45 44.86 47.04 48.54 48.18 47.90 48.22 46.57 47.25 47.17 50.12 51.29 51.24 51.50 52.05 52.31
53.10 52.65 52.24 52.11 52.06 51.63 51.75 52.07 52.28 52.25 52.42 52.66 52.56 52.27 46.35 39.51 52.48 53.70 52.65 54.11 55.81 54.62 54.83 53.34 50.59 50.40 47.26 45.58 44.57 45.80 46.06 46.09 47.10 47.07 47.22 45.46 45.54 45.90 47.44 49.15 48.97 49.09 50.54 51.07 51.65
52.92 52.49 52.21 51.75 51.63 51.72 51.75 51.75 51.72 51.79 51.96 52.40 52.12 49.30 44.41 42.68 52.26 53.79 52.86 56.12 56.20 54.80 53.71 54.63 52.97 49.80 47.04 43.87 47.14 45.22 42.29 44.31 45.01 45.56 45.49 46.46 42.72 42.40 47.87 48.80 48.34 49.16 48.75 49.95 50.95
52.59 52.32 52.18 51.62 51.46 51.35 51.42 51.61 51.58 51.72 51.91 51.83 51.60 47.60 40.13 52.81 54.54 52.75 52.98 53.82 56.88 58.09 56.85 55.82 54.42 49.88 47.56 47.13 44.61 42.09 42.27 37.53 43.23 44.51 45.39 45.59 37.35 44.34 47.26 46.39 46.80 47.44 47.51 47.24 49.10
52.21 51.71 51.38 51.25 50.81 51.20 51.01 51.59 52.05 52.07 52.08 51.58 46.80 43.90 39.31 54.15 49.72 52.58 52.29 49.42 55.24 55.95 55.67 56.12 53.26 49.15 46.98 41.04 38.69 39.59 33.82 35.73 39.36 44.31 43.48 42.97 38.53 44.22 46.16 45.62 45.49 46.05 46.32 46.19 47.45
52.25 51.95 51.18 50.55 49.99 50.64 51.11 51.42 51.00 49.06 48.89 49.12 47.05 38.99 43.57 43.81 49.86 51.19 51.25 53.87 52.08 52.47 50.61 50.14 48.48 44.19 42.12 39.45 31.78 34.51 33.98 36.04 35.96 40.27 40.96 39.74 38.97 42.85 44.35 43.30 43.98 44.92 45.73 46.41 46.56
52.85 52.35 51.90 50.88 50.01 50.45 48.86 43.54 37.08 35.67 40.72 36.06 37.30 37.99 44.20 49.14 52.20 49.66 50.61 51.72 51.63 48.92 42.47 46.80 41.71 37.51 40.73 40.42 38.83 38.07 36.31 35.65 38.15 40.59 38.64 37.91 37.02 39.33 42.16 41.88 41.95 42.88 44.13 45.27 46.69
52.33 52.11 51.96 51.41 50.40 50.18 45.81 38.45 37.68 40.37 32.69 39.30 40.51 40.79 43.13 45.82 44.18 47.21 50.96 46.45 46.57 42.50 41.36 43.02 38.30 42.60 44.05 41.78 39.50 38.22 36.18 35.77 38.08 38.94 38.11 35.78 35.23 39.50 41.88 41.63 42.38 42.63 43.47 44.14 44.98
52.18 52.26 52.34 51.36 49.89 45.46 41.59 41.28 45.91 43.32 33.63 36.58 41.41 41.02 41.11 47.01 43.36 43.74 47.26 46.44 44.22 41.34 37.64 36.22 41.17 45.37 43.20 41.64 39.32 38.39 35.84 34.91 35.54 36.56 35.94 34.09 34.55 35.69 39.21 39.80 40.26 40.14 40.52 41.80 42.30
51.81 51.80 51.98 50.53 44.30 45.32 40.90 46.53 46.57 45.23 16.37 31.92 37.24 41.32 45.77 47.10 41.47 48.09 48.59 47.34 44.01 40.80 38.88 38.10 44.29 43.13 42.26 40.41 41.36 36.85 40.66 37.13 34.91 33.81 30.11 34.05 28.16 33.72 35.29 36.33 36.88 38.97 39.59 40.18 40.76
50.71 51.24 50.44 49.89 44.46 42.60 44.60 47.53 46.53 36.67 6.10 31.40 37.71 48.17 46.83 42.74 42.17 43.45 49.52 47.15 41.09 40.47 41.12 36.35 41.64 40.60 39.02 40.03 42.09 37.08 38.64 35.29 33.55 30.49 30.67 30.01 28.31 32.04 34.02 34.08 35.60 38.07 39.23 40.93 41.58
50.68 50.92 50.20 45.13 46.08 45.53 45.81 43.94 38.12 16.79 10.73 30.80 39.11 37.40 39.88 41.31 42.28 44.99 45.67 47.43 46.23 40.66 40.12 37.51 42.23 41.55 39.69 39.75 40.95 37.88 34.09 32.00 30.33 29.43 25.37 27.47 27.14 28.99 31.59 33.81 35.90 37.99 39.68 40.60 41.89
51.26 50.03 47.67 47.42 41.00 46.75 46.10 36.78 18.56 18.53 29.59 32.83 34.02 35.00 38.27 38.27 39.83 41.29 40.07 37.98 36.46 32.60 32.17 36.02 36.39 39.39 40.56 36.10 37.97 36.47 33.95 26.53 22.11 21.96 24.04 27.35 26.17 29.79 33.91 36.00 37.33 38.63 39.87 40.80 41.72
51.08 48.69 47.83 47.34 45.28 44.32 42.81 25.62 15.76 28.61 30.42 36.57 34.75 38.50 35.29 37.90 38.61 39.38 37.40 34.00 37.23 36.29 32.11 30.31 29.02 36.31 38.76 35.98 33.44 32.68 33.38 27.05 19.67 19.85 22.03 27.42 24.05 30.30 35.34 36.57 37.97 39.49 39.65 39.98 41.32
47.81 41.06 42.42 44.62 46.40 42.67 36.10 20.12 19.19 27.60 33.46 34.41 37.50 34.55 35.43 37.43 37.46 36.80 35.65 33.79 35.38 35.73 31.12 27.92 29.17 37.77 37.66 37.89 37.50 32.14 28.28 31.15 23.16 22.07 21.30 24.72 27.60 32.00 34.89 35.54 37.41 37.99 39.72 41.20 42.02
38.25 37.27 38.38 44.75 45.05 38.50 27.04 29.33 31.31 35.05 36.56 37.64 31.81 33.73 31.71 34.37 35.20 34.38 33.71 35.46 35.10 37.05 36.31 31.91 27.43 35.81 36.33 38.90 37.13 34.35 33.53 26.74 23.84 18.46 18.39 21.98 22.89 26.43 31.21 33.89 36.46 37.62 38.53 40.09 41.99
35.75 32.80 39.12 44.12 40.96 36.78 30.17 32.90 34.26 39.01 38.38 35.32 32.22 31.41 33.61 32.25 33.43 32.50 32.30 35.84 37.57 36.35 36.79 34.29 31.62 32.67 36.54 32.79 30.88 31.62 29.63 28.14 27.30 24.08 20.18 19.00 24.57 31.15 31.99 35.24 35.38 37.74 39.01 40.30 44.32
33.33 28.27 40.21 41.66 31.62 33.39 34.23 35.71 38.90 37.50 39.52 36.45 35.43 34.32 32.15 32.08 31.20 31.41 30.93 34.33 38.47 38.63 33.88 34.79 32.19 29.78 30.76 33.64 35.38 33.33 30.19 28.21 22.61 20.75 22.59 22.70 24.25 35.12 35.03 36.37 36.37 38.15 39.91 42.31 46.38
32.61 31.72 40.12 40.52 30.89 33.39 37.07 37.11 38.30 37.25 36.84 34.74 33.71 35.11 34.32 31.80 29.78 31.90 32.76 38.05 38.96 37.53 34.31 34.71 28.12 23.55 28.19 31.60 33.16 31.57 30.90 29.32 27.03 25.15 21.67 20.36 25.18 34.87 34.67 36.07 38.04 38.52 40.55 44.66 44.60
32.71 28.53 34.14 37.03 38.39 35.30 35.75 34.36 34.58 38.51 36.39 35.96 34.61 35.32 33.72 31.94 33.37 31.42 32.15 37.63 38.36 38.65 41.54 37.51 29.03 26.70 22.27 25.65 29.03 26.41 29.68 29.51 27.63 22.14 22.45 22.94 26.03 32.33 34.81 35.62 38.13 39.72 41.83 43.66 42.56
33.42 33.09 37.97 29.03 34.37 35.18 36.61 35.04 32.96 33.24 37.06 37.00 35.07 34.82 33.97 30.89 31.32 30.75 33.22 34.67 37.81 41.18 36.22 34.37 25.86 26.25 29.07 30.70 28.31 29.27 30.01 28.82 24.87 26.89 23.79 26.11 26.62 32.39 34.85 36.38 39.85 42.10 43.25 41.51 39.08
36.62 35.77 38.73 35.43 35.84 35.07 35.98 32.34 33.36 34.80 34.92 33.90 33.87 35.37 34.51 32.09 31.65 30.60 32.69 31.78 32.55 34.91 33.72 33.23 28.19 26.87 24.40 30.08 30.01 28.68 30.43 30.29 29.55 29.96 29.17 29.98 30.35 38.10 39.26 39.29 41.89 43.14 40.93 38.48 36.24
40.91 41.91 38.77 34.55 30.73 29.11 31.86 34.45 35.50 35.83 38.31 38.81 37.06 35.15 33.75 35.26 35.93 35.53 35.09 35.78 35.61 33.81 32.57 33.17 27.70 24.65 20.46 27.97 28.38 25.44 28.92 30.16 30.16 31.09 32.46 28.26 33.56 37.09 37.02 38.85 41.13 41.01 38.44 35.02 34.50

GFSSW_sfc_wetblb_054.txt.gz
Wetbulb
55.38 55.48 55.45 55.22 55.11 55.00 55.18 55.14 54.71 55.16 55.31 55.47 55.22 54.15 54.19 54.98 55.70 54.05 51.56 56.35 57.86 61.75 61.90 57.76 58.87 59.76 56.98 54.06 54.16 54.94 47.37 44.64 46.18 46.68 48.22 51.61 50.52 52.88 54.23 53.02 53.97 55.23 56.63 61.69 64.50
54.73 54.59 54.57 54.54 54.27 54.36 54.12 54.23 54.38 54.44 54.57 54.82 54.98 54.53 53.82 53.87 50.73 49.27 56.12 60.78 61.15 61.15 58.55 54.02 54.69 57.05 52.63 52.35 51.82 49.52 45.68 45.55 49.71 50.14 48.61 50.34 50.94 52.54 52.14 52.34 53.02 54.60 58.02 64.80 66.31
54.40 54.20 54.02 53.89 53.76 53.63 53.44 53.35 53.55 53.65 53.79 53.89 54.29 54.38 53.64 53.44 46.67 48.94 60.42 61.97 61.89 60.85 58.23 57.14 56.69 55.30 50.42 51.77 50.43 49.10 45.59 48.58 48.86 50.29 50.47 50.50 51.28 53.50 51.75 50.55 52.81 52.80 56.06 62.34 64.18
54.27 54.04 53.82 53.37 53.30 52.75 52.69 52.73 52.88 52.97 53.03 53.26 53.45 53.67 52.85 49.43 36.64 54.25 59.45 63.08 62.17 59.67 57.43 54.78 54.16 50.97 48.98 46.63 50.76 46.03 48.60 49.22 50.06 51.16 50.37 50.03 52.60 51.08 52.22 52.04 54.92 56.37 55.97 57.04 63.50
54.00 53.65 53.45 52.89 52.68 52.54 52.08 52.26 52.53 52.91 52.60 52.58 52.69 52.67 50.70 43.28 44.10 55.92 56.83 57.14 59.67 57.78 54.55 53.67 51.69 50.55 47.32 48.72 48.96 46.97 47.83 49.44 50.49 50.81 50.65 51.16 50.33 50.60 51.36 54.29 55.46 55.63 55.21 55.95 56.46
53.80 53.26 53.19 52.88 52.43 52.25 52.03 51.97 52.42 52.29 52.25 52.33 52.26 51.29 46.38 38.13 52.64 56.06 54.72 54.62 56.50 56.37 53.38 54.99 52.13 53.48 48.91 48.55 47.22 49.07 48.35 48.69 49.94 49.78 49.74 48.37 49.16 49.96 51.42 54.05 53.66 54.04 54.36 55.61 56.26
53.44 52.90 52.43 52.59 52.22 51.96 51.77 51.96 52.14 52.16 52.09 52.05 52.05 50.03 44.21 42.08 53.21 54.86 54.41 54.38 57.33 56.33 51.93 56.00 55.65 52.22 51.01 46.91 50.55 48.42 45.30 47.40 48.04 48.61 47.65 49.63 45.64 46.16 51.45 52.80 51.59 52.37 53.54 54.53 55.38
53.42 53.07 52.65 51.92 51.74 51.64 51.57 51.53 51.75 52.06 52.13 52.22 51.48 48.61 39.43 50.38 51.68 51.37 54.33 53.91 57.30 57.06 55.92 57.37 57.09 53.03 50.14 50.80 48.15 45.04 44.94 40.32 46.05 47.77 48.34 47.71 40.78 47.16 50.84 51.16 50.65 51.62 52.48 53.17 54.05
53.57 53.35 53.15 52.22 51.25 50.71 50.83 51.39 51.97 52.24 51.91 52.09 48.10 44.92 38.08 52.55 48.49 51.88 54.64 51.36 55.40 55.67 56.55 57.07 54.31 50.14 48.67 44.41 41.55 43.39 37.51 38.95 41.72 47.65 46.61 45.72 41.76 47.18 50.40 49.50 49.56 50.81 51.72 52.28 53.06
53.09 52.82 52.53 52.20 51.03 50.08 50.92 51.44 51.22 49.86 50.25 50.18 47.81 40.50 42.85 43.35 49.18 52.00 54.47 52.76 52.47 52.18 51.49 51.22 48.91 45.57 45.53 42.40 33.86 37.41 37.78 39.76 39.40 43.98 45.58 44.04 43.33 46.93 49.47 48.71 48.85 50.08 51.00 51.51 52.04
52.45 52.63 52.39 51.90 51.17 49.70 50.10 47.84 42.53 41.05 43.83 38.30 38.75 39.67 42.85 46.30 52.42 49.78 50.71 51.78 52.86 49.58 42.97 46.83 41.97 40.62 43.20 43.92 42.29 41.88 39.72 38.56 41.30 43.20 42.65 42.68 43.08 45.36 47.92 48.45 48.37 49.41 50.15 51.08 51.94
51.72 52.10 52.63 51.29 50.54 50.56 49.38 42.56 40.91 43.02 35.05 40.99 41.10 41.41 43.10 44.42 43.92 47.70 51.29 47.96 46.86 41.88 44.44 41.68 39.15 44.18 46.45 44.92 42.40 41.00 39.07 38.71 41.25 42.26 42.50 41.41 41.14 45.06 46.82 47.11 46.84 46.85 48.19 49.17 49.45
51.57 51.61 52.27 51.64 50.74 48.79 45.53 43.03 46.78 46.26 35.51 37.12 41.54 40.03 40.35 43.96 43.49 43.02 48.09 47.08 44.54 40.74 41.36 38.73 41.47 46.03 44.08 42.70 40.57 40.58 38.49 39.31 38.96 40.07 40.17 39.54 39.97 40.49 41.85 43.26 44.54 44.12 45.18 46.09 46.63
51.66 51.71 50.88 49.96 46.85 46.81 42.83 46.87 47.96 46.98 31.43 31.58 36.34 39.08 41.86 44.60 42.10 49.08 49.11 46.66 44.21 36.81 39.02 37.27 44.03 43.47 42.82 40.96 42.34 37.60 42.93 41.04 39.10 38.62 35.74 38.59 34.61 38.20 39.74 41.30 43.61 45.24 46.19 47.13 48.62
51.66 51.47 50.38 49.81 46.72 42.73 45.56 48.45 48.41 41.93 18.69 33.34 37.43 46.12 45.76 42.74 43.77 43.25 50.33 47.43 39.83 38.90 39.04 36.55 39.37 41.64 40.85 41.71 44.37 40.02 42.87 39.76 38.36 37.34 36.37 35.43 34.73 36.41 39.61 38.77 41.43 44.71 46.28 47.76 49.42
52.02 50.82 49.96 48.58 48.09 47.28 48.87 47.62 44.71 29.79 20.27 33.10 38.55 37.59 39.53 41.73 43.01 44.72 46.08 47.82 46.44 40.86 41.32 39.36 44.14 42.12 39.55 40.82 43.02 41.13 39.09 37.28 37.14 36.35 31.83 33.95 33.02 34.47 37.16 39.37 41.75 44.78 46.44 47.39 49.28
51.37 51.26 49.11 48.73 42.66 49.58 49.03 43.54 31.11 25.43 33.77 32.36 35.12 37.50 38.68 38.81 40.59 42.26 40.10 39.52 37.77 34.41 33.84 36.66 36.67 40.85 41.53 35.63 38.85 40.36 37.92 31.08 29.34 30.28 30.73 31.73 30.58 36.33 39.31 41.85 42.80 43.58 45.59 47.24 49.07
50.91 49.83 48.77 48.98 49.99 48.90 46.12 36.16 26.74 30.31 31.26 36.66 36.31 38.64 35.99 38.89 39.59 39.08 35.71 36.85 40.18 38.57 35.72 33.06 30.38 36.57 39.96 38.92 36.95 37.97 37.54 33.25 25.23 25.93 28.62 30.72 29.49 35.30 40.81 42.32 43.05 43.44 44.83 45.76 47.76
48.60 47.93 47.97 49.33 49.81 48.40 40.32 31.54 28.85 30.59 34.10 34.52 37.70 34.12 35.20 37.68 38.42 37.26 36.76 37.47 38.27 39.69 34.60 33.12 31.51 39.21 39.94 40.64 41.59 35.73 34.95 35.49 30.06 27.93 28.50 31.95 33.87 37.72 38.95 40.31 41.75 43.61 45.61 46.61 47.74
46.17 44.52 44.88 47.93 49.32 45.28 39.01 32.39 33.07 35.54 37.19 38.15 32.67 35.82 33.00 34.59 35.76 36.29 36.95 38.82 37.60 39.71 40.50 36.44 31.39 37.00 37.79 40.65 40.06 38.63 38.69 31.77 32.84 25.25 24.86 28.74 29.77 33.74 36.01 38.65 41.20 43.47 45.23 46.44 48.21
43.98 41.56 45.28 48.29 47.02 44.33 33.15 34.78 36.13 40.26 39.91 37.72 35.50 35.05 36.24 35.38 36.46 35.08 35.21 38.42 40.42 38.71 40.89 39.18 36.62 33.52 37.90 36.12 35.52 35.36 34.91 33.25 34.36 30.81 27.45 27.14 30.56 37.32 39.32 40.91 40.38 43.28 45.05 46.04 48.60
42.80 40.39 46.27 47.75 40.97 40.52 37.01 36.96 39.62 40.04 42.01 39.79 39.74 38.66 36.99 36.88 35.83 35.64 34.95 38.44 41.59 41.57 37.19 38.48 37.27 31.99 33.13 36.65 38.46 37.58 35.83 34.78 31.63 27.57 29.43 29.36 31.64 40.04 41.02 41.53 41.53 43.75 45.39 47.27 48.81
39.49 40.50 46.43 46.65 36.47 36.59 38.63 38.50 40.05 39.65 39.41 38.52 37.59 39.34 38.87 36.48 34.32 36.27 36.73 40.58 41.52 40.64 38.75 39.27 34.41 28.60 29.66 33.77 36.19 34.28 34.97 34.35 32.96 32.23 28.49 29.08 32.36 39.86 41.28 41.52 43.86 44.01 45.91 47.84 47.43
41.04 38.40 42.86 45.43 43.62 39.92 37.75 37.70 37.81 41.55 39.76 39.51 38.37 39.70 38.12 35.96 37.90 35.19 36.24 39.52 40.94 41.57 41.38 41.08 33.96 31.78 29.16 31.10 34.63 32.02 33.49 34.18 34.64 31.08 30.23 31.26 33.52 37.82 39.65 41.11 43.73 44.95 46.61 47.02 45.09
40.78 35.96 37.95 36.63 39.64 39.25 39.83 38.77 36.68 36.55 40.88 41.28 38.76 38.32 37.56 34.43 35.22 34.83 37.28 38.20 40.71 40.88 39.55 39.60 33.16 32.23 32.65 33.58 33.14 32.86 33.25 32.57 30.69 33.32 32.53 32.88 32.72 37.74 40.70 42.45 43.49 45.06 46.36 44.81 41.93
37.41 36.71 38.77 36.75 38.52 37.89 38.56 37.58 37.16 38.27 38.89 37.72 37.42 38.63 39.15 36.37 36.84 34.96 37.34 37.71 37.09 39.55 38.48 37.89 32.26 32.27 30.50 32.62 32.76 31.12 33.92 34.33 33.67 34.61 33.49 34.94 34.96 42.49 43.82 43.92 43.91 45.19 44.67 42.60 40.62
41.56 41.79 39.03 37.00 36.79 37.14 37.88 38.31 38.43 40.23 41.18 41.27 40.53 39.49 37.96 38.69 40.91 41.17 41.45 41.76 40.85 38.71 37.24 36.80 33.80 32.13 28.99 31.12 31.41 29.27 32.86 33.98 34.61 35.64 35.82 32.43 38.09 42.12 41.95 42.45 43.55 44.89 43.35 40.68 39.23

GFSSW_sfc_wetblb_057.txt.gz
Wetbulb
55.65 55.46 55.33 55.05 54.79 54.81 54.66 54.61 54.79 55.06 55.06 55.23 55.79 55.98 54.58 54.14 54.48 51.65 49.02 57.20 59.15 61.74 61.67 57.15 57.16 59.53 59.02 55.10 55.78 56.27 48.05 45.89 47.59 48.53 50.46 54.66 52.81 55.19 55.74 53.85 54.39 55.41 56.74 62.79 66.15
55.36 55.31 55.09 54.68 54.31 54.37 54.02 53.85 53.99 54.17 54.24 54.50 54.97 55.37 54.94 53.71 50.74 47.80 54.77 60.58 61.91 60.81 58.32 54.18 53.59 56.92 53.39 52.94 52.81 50.81 47.52 47.32 51.77 52.09 50.97 53.28 52.50 53.30 52.25 52.31 52.64 54.37 58.70 64.51 66.07
54.93 54.95 54.75 54.59 54.06 53.65 53.56 53.43 53.45 53.31 53.58 53.78 54.14 54.30 54.46 53.39 46.66 46.89 58.02 60.68 62.65 61.37 58.54 56.39 56.50 55.61 50.82 52.18 51.26 49.86 45.70 49.64 50.91 51.15 51.30 51.74 51.66 53.42 52.16 50.49 53.02 53.27 56.00 61.78 64.44
54.28 54.62 54.36 54.14 53.71 53.42 52.97 52.99 52.75 53.05 52.99 53.24 53.54 53.54 53.46 51.04 36.38 53.28 59.31 61.41 62.71 60.68 57.46 54.62 53.04 51.32 49.23 47.49 51.29 46.75 49.39 50.16 50.99 51.02 50.04 49.48 52.50 51.72 52.77 53.02 55.71 56.05 57.73 58.20 63.26
54.48 54.31 54.03 53.66 53.39 53.23 52.82 52.63 52.71 52.82 52.89 52.85 52.86 52.76 50.61 44.50 44.48 54.05 58.64 60.98 60.44 58.76 53.92 52.79 50.05 50.57 47.37 49.19 49.12 46.89 49.52 50.68 51.35 51.24 51.04 51.56 50.49 51.36 52.07 55.18 56.38 56.95 56.59 56.64 57.44
54.32 54.07 53.61 53.27 53.07 52.72 52.68 52.45 52.62 52.53 52.39 52.18 52.40 52.02 47.02 38.98 51.86 52.57 55.24 55.48 57.76 56.17 53.45 53.83 51.01 53.22 49.99 48.81 47.75 49.54 49.78 49.68 50.74 50.13 50.78 49.47 50.20 51.68 52.74 55.34 54.75 54.68 54.80 55.73 56.76
54.35 54.09 53.65 53.32 52.98 52.32 52.21 52.17 52.17 52.21 52.11 52.28 51.82 50.61 44.63 43.05 51.81 56.00 54.26 53.22 55.62 56.51 52.60 54.54 54.24 51.51 51.53 47.36 51.30 49.18 45.99 47.82 48.91 49.53 48.55 50.44 46.64 47.88 53.00 53.89 52.81 53.00 53.81 54.30 54.96
54.21 53.76 53.38 53.23 52.84 51.74 51.58 51.30 51.87 51.91 52.22 52.37 52.16 49.19 40.54 50.46 52.41 50.24 52.07 52.79 54.88 57.73 55.89 56.11 55.89 52.65 49.98 50.77 48.71 45.42 46.17 40.38 46.97 48.20 48.87 47.96 41.56 48.65 52.29 51.81 51.16 51.97 52.46 52.95 53.84
53.73 53.06 53.17 52.84 52.39 51.46 50.42 50.81 51.58 52.26 52.46 52.21 48.95 46.05 39.14 51.73 46.27 50.43 51.88 51.22 53.52 55.74 55.69 56.08 54.99 50.37 49.58 44.38 41.68 43.31 38.09 39.99 42.62 48.19 47.52 46.22 42.70 48.21 51.05 50.62 50.60 51.49 52.01 52.42 53.15
52.99 52.84 53.06 52.63 51.76 50.11 49.71 51.20 51.35 50.83 50.85 50.68 48.71 40.84 43.66 41.53 48.07 49.63 53.48 53.27 50.90 51.94 50.42 50.18 49.03 44.54 44.51 42.35 34.66 37.24 38.33 40.82 40.21 44.99 46.02 44.52 43.98 47.48 49.42 49.61 49.82 50.58 51.46 51.85 52.28
52.63 52.49 53.01 52.22 51.24 49.61 50.29 49.24 43.78 42.74 44.97 40.05 40.02 40.31 42.10 46.19 49.41 47.08 53.09 51.38 51.55 48.84 42.52 47.24 42.48 39.33 42.48 44.16 43.70 42.07 40.46 40.01 42.41 45.56 44.03 42.97 44.19 45.78 48.59 49.26 49.06 49.93 50.35 50.78 51.52
52.61 52.28 52.30 51.69 50.87 50.32 50.23 43.65 43.09 44.16 36.42 42.01 42.02 42.02 43.62 44.57 40.21 46.94 51.99 46.08 46.74 41.62 44.50 43.61 35.88 43.98 45.97 44.77 43.43 42.06 39.87 39.90 42.78 44.07 43.24 42.94 42.61 45.79 47.38 47.83 48.85 49.28 49.87 50.67 51.64
52.62 52.15 51.03 51.03 50.17 49.71 46.64 43.97 47.59 47.05 36.28 38.19 42.10 40.87 40.32 43.79 41.06 45.22 48.80 46.99 43.98 41.51 41.89 39.49 41.09 43.97 43.47 42.52 41.14 40.96 39.14 39.32 39.50 42.01 43.49 41.83 40.04 42.51 43.99 45.30 46.24 46.64 47.81 48.72 49.08
52.01 52.06 50.84 50.54 47.17 48.04 43.63 48.10 49.42 48.20 33.29 32.94 37.45 41.01 42.43 43.65 39.62 47.04 49.95 46.02 42.99 40.75 41.83 39.26 44.56 42.06 42.16 41.35 42.35 37.83 43.26 42.06 40.31 38.59 34.26 42.21 33.95 40.67 41.27 42.58 44.73 46.11 47.05 48.50 50.23
51.43 52.15 51.10 50.52 47.28 43.85 46.39 49.21 49.49 45.27 21.77 34.49 36.63 45.03 43.65 42.11 42.84 43.48 49.66 47.17 39.58 37.74 40.55 37.75 40.29 41.25 40.08 41.95 44.12 40.43 44.76 42.49 41.15 39.33 38.33 38.13 36.02 38.70 41.12 39.72 42.72 45.50 47.19 48.99 50.84
51.16 51.60 51.23 50.15 49.95 47.92 49.75 48.89 44.78 31.64 23.12 33.28 38.98 38.01 40.21 42.51 42.88 45.06 45.02 47.15 45.78 39.29 40.13 39.36 42.44 42.44 42.72 41.24 44.55 45.56 41.74 40.57 39.99 38.15 32.47 38.31 36.93 35.10 37.66 40.78 42.79 45.80 47.56 48.94 50.57
50.92 51.41 50.63 50.10 45.41 50.91 50.06 44.48 31.63 26.67 35.12 34.06 35.45 39.70 40.35 39.88 40.91 40.66 39.50 39.13 37.25 32.96 32.30 34.36 34.98 41.23 41.43 37.66 40.74 42.53 39.10 31.64 30.26 30.88 31.22 35.94 33.85 38.50 42.07 43.82 44.76 45.26 47.12 49.10 50.40
50.60 50.19 50.62 49.90 51.58 50.47 45.91 37.56 29.18 31.90 32.10 38.03 37.97 39.42 36.39 39.61 39.50 39.69 39.71 37.54 42.42 40.76 35.51 34.00 30.32 35.14 38.88 38.44 37.18 38.76 39.77 34.62 26.96 28.57 31.50 33.34 31.05 37.70 43.36 45.38 45.74 46.38 47.49 48.32 49.67
50.27 50.75 48.75 51.15 51.12 49.45 40.76 33.82 30.00 31.99 35.68 35.82 38.96 35.56 35.22 39.31 39.18 37.97 39.09 38.44 40.73 42.03 35.14 33.55 32.68 38.34 39.40 40.76 41.39 37.28 36.02 38.63 32.26 32.43 31.25 33.14 36.16 39.26 41.74 42.73 43.81 45.77 47.45 48.25 49.39
47.76 46.89 47.63 50.20 51.11 46.85 40.56 31.87 33.91 36.71 38.55 39.45 34.04 37.53 33.64 35.89 36.93 37.84 38.71 40.91 39.23 41.31 42.75 38.12 31.78 37.42 38.80 41.88 40.91 40.31 41.18 33.88 35.31 26.65 26.13 30.60 32.60 35.01 36.30 39.21 42.61 44.95 46.47 47.92 49.41
47.43 43.69 47.99 50.99 49.75 45.59 34.79 35.66 37.47 41.77 41.26 38.89 37.48 36.73 37.36 36.99 38.35 37.44 37.54 40.03 41.96 40.29 43.00 41.80 37.74 34.26 38.97 37.44 36.72 36.88 36.24 36.15 36.00 32.84 29.33 28.35 31.48 39.24 39.21 41.40 42.12 44.34 46.27 47.37 49.42
45.99 42.13 49.23 51.67 43.23 44.01 38.85 38.87 39.85 41.64 43.49 41.41 41.74 40.41 38.99 39.31 37.85 37.53 37.29 40.41 43.49 43.25 38.95 40.92 38.41 32.68 34.42 38.77 40.75 40.07 38.66 38.50 33.20 30.23 32.20 31.13 31.93 41.26 42.98 43.60 43.26 44.38 46.59 48.25 49.52
40.67 44.08 50.17 50.52 38.15 39.77 40.75 40.70 41.73 40.78 40.64 40.25 39.40 41.18 41.73 39.11 35.97 38.44 38.92 42.24 43.38 42.12 40.16 41.18 36.08 29.35 30.34 35.43 38.33 35.93 38.36 38.26 35.62 35.20 30.94 30.25 32.19 42.50 43.19 42.89 44.46 45.03 46.79 48.36 48.50
43.00 38.16 45.19 48.63 46.17 42.24 39.66 39.17 39.18 43.10 41.20 41.32 40.22 41.79 40.36 38.39 40.44 37.53 38.18 41.05 42.73 42.70 42.19 43.41 36.92 33.95 30.57 32.94 36.63 32.79 35.73 36.78 35.66 31.75 32.19 33.00 34.87 38.61 40.85 42.17 44.90 45.67 46.96 48.18 47.11
42.85 36.94 39.00 38.09 42.12 41.78 42.08 40.62 38.28 38.00 42.24 42.64 39.97 39.85 39.32 36.36 37.26 36.85 39.42 40.05 42.01 40.70 41.52 41.33 34.29 33.52 34.72 35.67 35.08 34.88 34.53 34.60 32.41 34.86 34.17 35.34 35.69 39.29 40.96 43.23 44.53 45.79 47.56 47.05 45.54
37.28 36.71 39.44 37.64 41.23 40.70 39.79 39.44 38.62 39.70 40.40 39.10 38.82 40.28 40.57 37.94 38.59 36.65 39.18 39.66 38.75 41.04 40.18 40.49 33.63 34.22 31.94 34.68 34.73 32.34 35.21 35.96 35.16 35.41 35.67 36.49 35.94 42.88 44.60 45.28 44.97 45.79 46.31 45.62 44.38
42.25 42.92 39.29 37.90 40.00 39.28 38.69 40.19 39.87 41.63 42.38 42.90 41.93 40.89 39.45 40.80 42.83 43.50 43.86 43.44 42.52 40.30 39.15 38.36 35.42 33.35 30.70 33.04 33.05 30.06 34.26 35.49 36.21 37.51 37.46 33.14 38.88 43.49 42.88 44.08 44.93 46.11 46.34 44.60 43.36

GFSSW_sfc_wetblb_060.txt.gz
Wetbulb
56.07 55.76 55.94 55.81 55.37 55.05 54.76 54.73 54.58 54.72 54.89 55.01 55.20 55.74 55.86 55.18 54.23 51.15 47.56 54.91 58.37 61.58 60.45 56.06 55.60 56.64 58.99 55.57 55.13 54.10 45.74 43.57 45.93 46.87 48.52 53.31 51.00 52.76 53.51 50.44 50.49 51.48 57.77 61.46 66.84
55.51 55.40 55.44 55.47 55.16 54.83 54.45 54.25 53.95 53.87 54.06 54.18 54.58 54.78 55.08 55.37 50.34 46.85 53.32 58.53 62.19 62.83 56.41 52.96 50.79 54.80 53.99 52.33 52.04 47.84 43.71 45.32 50.78 50.49 49.09 52.07 52.19 51.35 49.69 49.26 48.63 50.21 59.11 62.41 65.91
54.98 55.06 55.22 55.10 54.93 54.50 54.08 53.63 53.42 53.38 53.10 53.63 53.95 54.04 54.31 53.31 45.78 45.36 57.08 58.91 61.60 61.88 57.19 56.56 53.91 54.56 51.18 50.87 49.85 47.78 43.38 49.16 50.86 51.06 50.27 49.93 50.64 51.31 48.31 47.07 49.25 49.12 53.23 60.89 62.56
55.32 55.25 55.14 54.94 54.53 54.13 53.75 53.49 53.26 53.00 52.82 53.25 53.40 53.25 53.07 50.25 35.21 51.32 59.67 59.40 61.59 60.39 56.58 54.74 50.59 49.50 48.49 46.45 50.02 44.62 48.20 49.17 51.05 50.62 49.44 48.09 50.83 48.62 49.09 49.21 52.77 53.96 55.15 58.26 60.59
55.30 55.23 54.99 54.58 54.49 53.97 53.40 53.19 53.24 52.87 52.81 52.88 53.12 52.44 49.70 42.98 43.16 52.40 58.52 58.52 58.61 58.62 53.64 52.39 48.40 49.32 46.13 47.84 48.41 46.26 47.59 49.09 50.42 49.94 49.10 50.22 48.07 47.41 48.12 51.50 53.53 54.78 54.52 52.51 52.46
55.05 54.88 54.22 54.01 53.99 53.72 53.18 52.65 52.78 52.71 52.39 52.31 51.61 51.35 45.88 36.85 50.48 52.38 53.57 54.90 56.07 55.92 53.88 52.80 49.41 51.71 48.38 48.31 46.54 48.15 48.62 48.65 49.27 49.37 49.62 47.49 47.60 48.14 49.44 51.00 51.76 52.02 50.64 51.24 52.49
54.78 54.22 53.77 53.44 53.42 53.40 52.87 52.20 52.42 52.23 52.28 51.70 51.79 49.51 43.67 41.14 50.97 55.18 54.07 51.71 54.17 55.62 52.56 53.26 53.07 49.54 50.07 47.04 50.85 48.64 44.49 46.68 46.75 48.20 47.56 49.21 45.05 45.58 49.58 50.65 50.13 49.84 49.92 51.41 51.50
54.51 53.74 53.51 53.49 53.27 52.79 51.46 51.45 51.28 51.77 51.92 52.33 51.89 48.52 39.42 49.91 51.08 49.42 52.24 51.15 53.72 54.26 55.16 54.45 54.15 50.67 49.44 50.55 47.99 44.91 43.52 39.15 45.67 47.42 48.01 46.94 39.24 47.15 50.51 48.51 48.09 48.20 47.85 48.87 50.64
54.04 53.45 53.40 53.60 52.81 51.27 50.54 50.20 51.19 51.77 52.47 52.48 48.30 45.21 38.19 52.05 45.64 48.40 49.58 47.09 51.11 52.27 55.26 55.98 53.55 48.83 48.39 43.53 40.52 42.13 35.31 37.96 41.54 47.22 46.21 44.64 39.87 46.73 49.83 48.47 46.94 47.15 47.97 47.91 48.42
53.50 53.07 53.15 52.85 51.76 50.57 49.85 50.65 51.56 51.06 50.98 50.34 48.32 40.56 43.14 40.65 46.70 48.16 50.54 51.13 48.41 50.66 50.42 49.56 48.26 43.65 43.30 40.92 33.14 35.40 36.53 38.18 38.79 43.93 45.24 42.55 41.37 45.13 46.92 46.42 45.54 45.66 46.09 46.84 48.39
52.99 52.77 52.20 52.11 51.35 50.53 50.49 49.04 43.36 42.13 44.62 39.92 39.75 39.53 41.83 45.10 49.71 47.24 50.15 45.99 45.93 48.67 41.72 45.37 40.93 37.09 40.07 41.90 41.76 40.15 38.61 37.62 40.83 45.08 42.91 41.76 42.06 44.27 45.64 45.84 44.90 45.69 45.75 46.64 47.89
52.30 52.64 51.84 51.90 51.48 51.24 49.55 42.38 42.76 43.62 35.69 42.88 41.81 41.74 44.15 44.39 39.86 44.65 50.00 42.05 41.24 40.47 43.47 41.32 36.95 42.23 44.60 43.91 42.03 40.13 37.53 37.31 41.00 44.19 42.44 40.77 40.28 43.49 45.04 45.49 46.41 45.49 45.32 45.96 46.98
51.77 51.97 52.25 51.30 51.35 50.10 45.54 43.83 48.21 47.35 35.51 38.45 42.13 40.96 41.27 43.06 38.91 41.59 47.56 44.96 40.23 39.56 40.27 37.54 40.11 44.86 43.61 41.80 40.10 38.56 36.46 37.11 37.54 40.51 41.00 39.16 36.51 40.47 43.79 43.53 44.35 43.53 43.77 44.80 44.74
50.82 51.65 52.18 51.46 47.53 47.82 43.85 48.18 49.51 47.93 31.65 33.69 37.41 41.14 42.65 40.67 36.66 47.73 49.56 45.97 43.64 38.89 41.42 40.74 43.78 42.26 41.42 40.26 41.36 36.11 41.57 40.91 39.85 36.32 30.59 39.14 26.25 37.24 40.09 39.88 42.10 41.73 41.18 42.21 44.92
50.30 51.33 51.88 51.28 47.66 44.28 46.34 49.31 49.33 44.54 19.34 35.44 37.00 45.25 43.62 37.23 41.28 43.14 50.03 46.31 40.18 39.64 40.72 36.55 39.81 40.15 37.88 40.53 42.98 39.17 42.60 40.61 39.49 36.13 34.60 34.41 28.34 33.38 37.69 36.87 39.59 41.31 42.80 44.86 46.33
50.14 50.93 51.53 50.38 49.17 48.10 50.01 49.74 45.54 30.65 23.00 32.71 36.46 36.29 37.80 40.67 42.05 44.01 44.98 47.46 46.27 39.48 40.40 38.92 42.58 42.48 40.40 43.16 43.11 44.70 40.29 38.95 37.86 35.83 29.01 34.70 32.46 29.26 33.81 37.57 39.56 42.30 43.65 45.77 47.00
50.25 50.73 49.64 49.46 44.90 50.89 49.75 44.12 30.15 25.67 36.11 33.24 34.54 39.03 38.42 38.18 38.14 38.67 38.32 39.40 37.07 32.77 32.41 36.42 35.87 40.22 41.76 39.59 42.92 41.19 35.31 28.08 27.93 27.11 26.66 34.76 31.44 32.17 37.97 40.23 41.34 42.08 43.69 45.39 46.79
50.89 50.98 50.64 49.56 51.24 49.60 45.66 36.75 25.57 32.60 32.30 38.54 38.72 39.64 36.13 38.87 37.54 39.44 39.85 37.33 41.16 38.07 33.81 31.73 28.85 35.41 39.12 39.30 36.54 38.60 36.33 28.03 21.86 23.57 25.06 32.36 26.89 32.35 39.98 42.03 43.38 44.66 44.96 45.58 45.65
51.12 50.75 49.01 51.26 51.53 48.59 40.43 30.26 28.89 32.00 36.14 35.91 39.26 35.10 35.71 38.84 38.76 39.09 38.41 37.68 40.68 41.00 34.46 32.88 31.18 37.83 39.34 41.40 40.58 37.80 34.20 35.50 28.70 27.26 24.11 28.01 32.07 35.91 39.89 39.67 40.90 42.67 44.37 44.71 45.85
46.94 46.78 47.68 50.96 51.34 45.77 39.36 31.03 33.92 37.37 39.04 39.25 34.39 37.84 32.77 36.33 36.77 37.80 37.33 40.69 39.05 41.33 42.60 37.06 30.57 36.29 39.16 41.02 40.34 38.99 41.12 30.11 28.25 18.28 20.91 25.74 28.28 29.64 33.73 36.30 39.41 41.21 42.45 44.26 46.17
46.86 43.11 47.49 51.74 49.69 43.16 33.75 35.55 38.10 42.12 41.49 38.42 37.52 36.25 36.62 36.31 38.50 36.79 36.95 39.85 41.23 39.90 41.49 40.40 36.58 34.51 38.03 35.79 34.94 35.49 35.25 33.88 31.96 28.06 21.98 19.89 24.23 33.61 36.30 37.64 38.24 41.00 43.43 43.94 45.39
45.23 39.75 48.88 51.07 41.45 43.05 37.99 39.17 40.03 41.65 43.76 41.38 41.06 40.20 38.56 38.38 37.03 36.55 36.35 38.78 42.58 42.29 37.71 39.48 36.35 30.87 33.99 38.43 40.55 38.90 37.22 36.23 31.06 27.45 25.72 24.38 25.16 37.35 38.11 39.17 41.18 41.80 44.55 45.33 47.15
39.16 42.61 49.92 49.83 37.66 38.38 40.78 40.79 41.96 40.84 40.74 40.28 39.59 41.14 41.15 38.41 34.73 37.42 38.17 42.53 42.83 41.43 38.21 39.15 32.59 26.05 27.45 33.92 36.88 34.63 37.17 37.22 33.87 32.58 28.22 23.27 24.78 39.30 39.20 39.71 41.35 42.00 43.67 45.96 46.42
41.42 35.84 41.06 46.70 44.82 41.11 39.51 39.32 39.37 43.40 41.55 41.67 40.39 41.58 39.44 37.39 39.40 36.33 37.20 41.15 42.33 41.21 43.37 42.14 34.63 30.41 25.04 30.60 34.11 30.24 34.04 35.10 31.43 24.00 27.06 26.75 29.55 34.40 37.33 39.13 41.51 43.04 43.91 45.26 44.33
41.07 36.59 38.69 34.93 39.74 39.86 41.18 40.61 38.40 38.24 42.23 42.52 39.69 39.83 39.10 35.23 36.12 35.83 38.39 38.73 41.39 40.75 39.64 38.93 28.91 28.49 32.69 35.35 32.66 32.35 33.18 33.46 25.53 30.76 24.06 30.40 31.98 34.99 37.23 38.65 41.14 42.18 45.43 45.28 43.63
36.33 35.85 38.22 36.04 38.92 39.35 39.36 39.41 38.37 40.12 40.03 39.08 38.30 40.18 39.46 36.86 37.04 35.37 37.78 37.20 36.26 38.34 36.80 38.28 28.40 30.05 28.19 34.09 33.75 29.74 33.47 34.25 33.42 33.46 32.84 33.52 32.79 37.83 40.33 41.88 42.23 42.51 45.00 44.48 42.86
39.80 40.93 38.46 36.41 37.46 37.71 37.87 38.97 39.44 41.35 42.37 42.80 41.39 39.66 38.41 39.99 41.01 41.12 40.97 40.72 39.97 37.10 35.74 35.50 31.13 27.91 23.68 30.51 30.27 25.79 31.78 33.46 33.88 35.04 34.98 29.81 35.21 40.16 40.00 42.79 42.79 43.82 45.36 43.48 41.55

GFSSW_sfc_wetblb_063.txt.gz
Wetbulb
55.36 55.94 55.67 55.70 55.74 55.71 55.36 55.06 54.61 54.58 54.40 54.57 54.83 55.24 55.48 55.73 55.42 49.85 46.81 52.76 56.74 62.18 59.88 55.93 55.23 55.60 56.67 55.75 54.01 54.31 46.05 43.55 44.71 46.18 47.75 51.21 50.01 50.28 51.09 49.27 49.66 52.75 57.48 63.94 66.56
55.97 56.13 56.20 56.01 55.61 55.28 55.01 54.52 54.36 53.85 53.71 53.98 54.19 54.42 54.80 54.71 50.83 47.34 52.41 57.03 60.22 62.28 56.34 52.08 50.00 52.87 52.22 52.91 51.91 47.31 42.85 44.57 49.05 50.70 48.97 50.12 50.35 50.58 48.02 47.40 47.40 55.09 63.54 65.33 65.79
55.93 56.07 56.24 55.81 55.49 55.06 54.73 54.05 53.87 53.56 53.30 53.25 53.59 53.82 53.72 53.17 45.57 44.77 57.30 58.31 59.20 61.19 57.50 55.46 51.89 52.34 50.09 49.91 49.41 47.38 41.61 47.43 49.68 51.80 49.73 49.44 50.14 49.87 47.04 44.98 46.87 50.37 58.00 62.63 63.55
55.75 55.78 55.72 55.18 54.81 55.05 54.42 53.95 53.59 53.45 52.99 53.01 53.23 53.56 53.27 49.53 33.53 48.85 57.03 59.62 59.52 57.80 56.64 53.46 50.10 48.92 47.82 46.03 50.21 43.28 47.60 48.04 50.27 50.86 50.53 47.78 50.28 46.90 46.87 47.23 51.39 50.45 58.08 60.06 60.65
55.39 55.50 54.99 54.61 54.18 53.98 53.86 53.62 53.04 52.88 52.65 52.57 52.61 52.23 49.18 42.02 41.23 51.31 56.67 57.11 55.13 56.58 53.55 51.77 47.95 48.83 45.68 47.51 47.51 45.27 46.55 48.62 49.59 48.43 47.97 49.78 47.64 46.14 45.67 49.57 52.51 53.08 52.81 54.71 58.63
55.17 54.74 54.36 54.17 54.20 53.68 53.60 53.34 52.11 52.02 52.14 51.81 51.61 51.36 45.76 36.55 49.39 51.34 52.22 52.08 54.11 54.85 52.93 52.49 48.48 49.88 47.19 47.08 45.47 47.26 47.75 48.03 48.76 47.88 47.53 46.68 47.00 47.72 47.10 50.06 49.93 51.20 50.37 48.92 50.28
54.95 54.05 53.73 53.89 54.27 53.34 52.80 51.78 51.47 51.31 51.52 51.59 51.56 49.25 43.45 40.33 49.48 51.88 52.87 52.45 54.07 54.16 51.83 52.57 52.35 49.08 48.10 46.24 49.31 47.04 44.01 45.64 46.21 46.80 46.01 47.82 44.46 44.73 47.48 48.17 47.16 47.44 48.29 49.89 49.42
54.24 53.87 53.54 53.69 53.31 52.44 51.82 50.94 50.63 50.83 51.16 51.51 51.65 48.00 39.10 49.25 48.13 48.00 49.01 49.92 53.75 54.16 54.47 55.03 53.23 49.84 46.96 49.03 47.07 43.90 42.32 37.96 44.49 46.11 47.10 46.07 38.77 45.52 48.34 45.65 46.84 45.37 45.21 46.12 49.03
53.71 53.85 53.25 53.10 52.39 51.79 51.04 50.23 50.18 51.08 51.71 51.93 47.88 44.58 37.39 51.34 45.89 47.34 46.17 45.97 50.66 51.90 52.78 55.00 51.58 47.78 45.99 41.52 39.83 41.77 33.87 35.73 40.41 45.68 45.87 43.56 39.30 45.40 48.19 45.79 46.36 45.35 45.56 46.44 46.51
53.00 53.01 52.70 52.63 51.95 51.42 51.45 51.56 51.21 50.28 49.94 50.04 48.14 40.29 42.61 40.58 45.49 47.63 47.88 50.77 48.13 49.10 48.88 49.22 47.11 40.91 41.38 39.24 32.70 35.27 34.05 36.39 36.86 42.00 44.14 42.03 40.46 44.47 45.64 45.23 44.90 44.90 45.07 45.08 46.46
52.17 52.36 53.02 52.10 52.22 52.19 49.52 45.73 40.25 39.29 42.99 39.55 39.68 39.14 41.42 44.31 48.22 46.81 49.00 46.41 45.71 44.98 42.78 45.31 40.47 36.21 38.75 41.24 39.90 39.39 37.72 35.77 39.19 43.44 42.00 41.45 41.35 43.74 45.04 42.66 42.80 43.81 44.78 45.35 46.28
51.07 51.78 52.34 52.50 52.28 52.39 48.06 41.42 41.98 41.49 34.66 41.91 42.68 41.40 43.64 44.61 39.11 44.28 48.03 40.22 39.42 35.12 43.09 41.45 36.67 40.42 42.51 42.29 40.90 38.57 36.04 36.10 38.75 43.07 42.31 41.00 39.74 43.37 43.55 42.97 43.88 44.44 44.39 44.63 44.92
50.55 51.36 51.92 52.53 52.43 47.95 43.72 43.33 46.15 45.74 35.45 38.49 42.10 41.02 41.28 43.10 38.97 41.58 44.40 42.16 37.15 35.85 40.51 37.76 39.43 43.29 42.18 40.17 38.75 37.26 33.46 34.06 35.23 38.86 38.93 37.73 35.30 38.09 41.92 43.66 44.58 43.58 42.45 42.88 42.76
50.82 50.87 51.43 52.40 46.37 44.67 42.08 47.13 47.43 46.77 31.19 34.73 37.63 40.29 42.78 40.94 37.60 46.05 44.27 43.19 36.96 37.61 38.87 39.12 42.47 41.31 40.29 38.78 39.11 34.12 39.40 38.94 37.92 34.41 29.52 38.12 27.01 33.45 39.00 39.35 41.47 40.52 39.75 40.09 44.71
50.56 50.59 51.16 51.47 44.71 42.09 45.25 47.37 46.09 43.71 19.13 36.06 37.21 45.36 43.31 38.10 40.82 40.26 48.78 44.75 34.89 40.08 38.91 37.67 38.75 39.54 39.28 39.62 41.67 36.81 40.86 39.16 37.14 34.04 32.41 33.43 27.82 31.43 36.22 35.43 37.80 40.05 39.60 40.37 43.58
50.04 50.61 50.50 47.92 48.26 48.21 48.60 47.10 45.00 27.56 21.24 32.64 36.75 36.89 36.57 39.57 41.21 44.14 44.92 47.70 45.95 40.78 39.77 39.41 43.46 42.49 39.73 42.16 42.95 43.28 39.37 36.55 35.53 33.46 25.49 32.78 29.97 28.79 31.38 37.46 37.18 38.85 42.20 44.15 45.44
50.78 51.06 49.27 49.51 42.69 48.78 48.75 42.39 24.59 21.63 35.33 33.91 34.55 39.04 38.27 37.47 38.13 40.14 39.59 39.16 36.41 30.36 31.91 36.66 36.68 40.19 42.98 39.50 41.40 41.56 33.10 24.33 23.70 21.35 23.08 31.79 31.16 32.50 36.26 37.39 39.06 40.08 41.89 44.02 45.77
51.04 51.88 49.76 48.56 47.72 48.50 42.55 32.61 20.18 29.99 31.17 38.20 38.83 38.82 35.43 38.16 37.53 39.64 39.11 36.74 38.68 35.49 32.52 28.48 30.39 37.25 40.05 37.82 38.07 38.95 33.28 24.86 19.11 19.97 23.41 30.43 28.13 32.46 37.35 39.92 42.34 43.26 43.36 44.40 45.26
50.31 45.72 44.43 47.18 48.84 45.94 38.67 24.33 28.02 28.40 36.03 35.48 37.25 34.53 34.88 38.82 38.38 38.62 37.37 37.28 37.84 38.33 30.76 29.91 29.02 38.16 39.52 41.69 40.65 37.55 31.42 35.34 26.66 24.72 20.06 25.16 30.06 36.08 38.28 38.86 40.94 41.64 42.69 42.81 45.04
42.30 41.91 42.83 48.51 47.82 42.61 32.26 29.72 32.45 36.07 38.35 38.79 33.94 36.94 31.99 34.41 36.36 35.81 34.53 39.26 38.99 41.16 41.00 35.22 28.75 36.86 39.11 41.53 41.33 38.61 39.97 29.97 24.44 18.96 19.27 21.95 24.72 28.34 33.66 35.92 39.13 40.46 40.35 42.19 45.08
41.52 38.37 44.59 48.73 45.87 40.75 29.30 28.46 37.62 40.97 40.33 37.84 36.60 35.08 35.30 35.78 36.08 34.61 34.26 37.66 39.54 38.74 41.46 39.73 33.72 33.94 38.37 35.81 35.92 35.45 34.07 32.97 31.30 26.23 20.76 18.58 23.23 32.86 37.25 38.43 37.83 40.15 41.53 42.54 43.74
38.06 34.19 45.47 47.07 34.74 37.82 31.91 37.17 40.96 40.64 41.82 40.35 40.69 39.50 36.58 36.35 34.28 34.80 33.91 36.19 40.99 40.67 37.51 39.18 35.82 30.19 34.05 39.36 41.06 38.95 36.26 34.57 26.15 24.73 22.80 21.37 24.29 35.58 37.26 38.53 39.58 41.00 43.28 43.95 44.87
37.57 36.23 44.97 45.56 35.44 34.35 37.24 39.66 40.99 39.74 39.06 38.72 37.79 39.01 39.58 37.48 32.78 35.28 36.00 40.80 41.33 39.59 36.73 38.14 31.45 24.94 26.70 32.39 35.94 34.49 36.49 37.89 33.68 30.14 22.60 19.39 23.82 35.14 36.24 38.61 40.60 40.98 42.35 44.66 43.68
37.00 31.53 35.85 41.92 40.38 39.08 36.28 36.46 37.99 41.38 40.12 40.12 38.40 38.71 36.64 34.63 36.66 34.22 34.95 39.95 40.81 39.04 43.81 41.38 33.35 29.40 23.10 27.35 32.01 29.01 34.38 34.10 32.08 26.64 27.88 25.72 27.11 32.23 35.10 37.29 38.81 40.77 42.54 43.97 42.50
34.82 32.99 37.72 32.44 36.69 34.64 37.57 39.39 36.72 36.58 40.03 40.16 37.44 37.77 36.37 32.68 33.88 33.76 35.95 36.62 39.53 41.27 38.56 37.17 26.95 27.91 32.06 34.77 31.23 31.67 32.72 32.64 27.09 30.36 24.23 29.07 30.75 34.73 36.01 37.37 39.47 41.58 43.81 43.18 41.83
32.01 31.50 33.75 34.24 36.02 34.37 38.12 37.79 36.65 39.44 37.80 36.91 35.92 37.93 37.27 34.87 34.01 32.83 35.81 34.73 34.39 35.72 35.01 36.36 26.26 28.00 26.31 33.16 32.26 29.10 32.67 33.66 32.41 32.30 31.41 31.30 31.52 36.85 38.36 40.99 41.52 42.15 44.06 43.67 42.08
34.63 35.63 35.75 32.47 35.32 35.23 35.86 36.29 38.12 39.76 40.29 40.82 39.34 37.28 36.43 37.80 37.97 37.37 37.73 37.44 37.53 35.27 33.61 33.69 29.04 25.56 22.33 29.80 29.58 25.39 30.54 31.57 32.63 33.36 33.58 28.38 33.41 37.79 38.18 40.83 41.19 42.06 44.01 42.99 40.83

GFSSW_sfc_wetblb_066.txt.gz
Wetbulb
55.88 56.64 56.74 56.64 56.36 56.02 55.82 55.56 55.24 54.97 54.72 54.36 54.31 54.48 55.16 55.37 55.39 51.62 46.24 51.39 55.79 61.04 61.73 55.12 53.94 55.41 56.16 54.01 55.22 55.27 45.87 42.18 43.54 44.58 47.12 51.44 48.68 49.83 50.11 48.78 52.12 55.46 58.47 62.83 65.94
56.16 56.36 56.57 56.23 55.66 55.54 55.67 55.06 54.78 54.37 54.04 53.70 53.88 54.17 54.42 54.45 50.75 47.70 52.89 56.72 58.27 60.88 55.69 50.98 48.89 53.21 52.25 52.75 51.21 48.96 45.41 44.97 49.11 49.29 47.21 50.47 50.60 50.37 46.89 48.23 52.70 59.89 63.53 64.93 64.89
55.98 55.92 56.16 55.77 55.30 54.70 55.00 54.98 54.22 53.95 53.26 53.07 53.29 53.48 53.54 52.96 45.28 44.20 56.52 58.73 58.59 58.32 56.74 52.92 51.04 51.88 49.19 50.58 49.68 47.45 43.78 47.77 49.32 50.73 50.43 50.32 50.31 51.92 46.89 43.95 49.46 57.96 60.66 62.63 62.86
55.55 55.43 55.23 54.94 55.05 54.72 54.29 54.25 53.94 53.24 52.84 52.60 52.85 53.09 52.89 49.22 31.94 48.09 56.24 58.48 58.91 56.20 55.53 52.98 48.32 48.55 46.81 46.10 50.20 44.71 47.93 49.40 49.88 51.11 50.40 48.41 51.17 49.82 46.32 47.13 50.71 57.64 61.93 61.56 61.43
55.22 55.23 54.50 54.60 54.75 54.76 53.80 53.85 52.86 52.59 52.32 51.91 51.96 51.67 48.92 41.25 41.08 50.10 55.27 54.13 51.92 54.11 51.95 51.16 45.36 47.62 44.68 46.71 48.55 45.32 47.11 48.85 50.16 50.53 50.38 51.10 48.45 48.88 46.90 50.13 50.44 55.82 59.28 60.30 60.63
54.76 54.76 54.05 54.34 54.29 54.09 53.64 52.79 52.12 51.93 51.72 51.31 51.44 51.95 44.83 35.70 47.84 49.77 50.57 52.16 52.23 51.83 51.31 51.88 48.32 49.09 46.64 46.93 46.46 48.16 47.76 48.23 48.57 47.47 48.68 48.24 48.04 47.85 46.94 48.31 48.84 50.74 50.69 51.76 57.81
54.25 54.17 53.62 53.55 53.52 53.67 53.08 52.27 51.96 51.82 51.73 52.00 52.22 48.86 43.37 39.18 47.79 49.86 49.49 49.15 53.27 52.06 50.83 52.85 51.59 48.54 47.24 45.07 49.21 46.89 44.06 46.05 46.74 46.71 46.02 47.36 43.76 44.25 47.68 48.35 46.41 45.14 46.97 49.70 49.55
53.47 53.84 53.53 52.99 52.66 52.13 51.64 51.08 50.55 50.85 51.22 51.64 51.80 47.58 38.07 48.93 47.34 48.25 49.24 48.68 52.87 54.30 53.76 54.73 53.88 48.85 45.43 47.93 46.05 43.37 42.72 38.84 44.73 45.79 47.06 45.17 38.05 44.92 48.47 45.96 46.35 44.04 45.04 44.72 47.58
52.85 53.24 53.40 52.91 52.70 52.10 51.83 51.14 50.56 50.90 51.26 51.71 47.06 43.12 35.92 50.37 45.71 48.03 47.93 45.40 50.20 51.85 53.79 54.78 52.02 45.19 44.97 41.45 39.13 40.76 34.38 35.93 40.32 45.44 45.41 43.28 38.94 45.33 47.06 45.13 45.84 45.78 44.85 45.11 45.66
51.69 51.93 52.70 53.23 52.54 52.89 53.26 52.39 51.06 49.90 49.53 50.14 48.11 38.87 41.62 40.01 44.65 46.95 48.28 49.64 46.94 48.51 49.34 49.25 47.48 39.98 41.52 39.50 32.84 35.12 34.42 35.25 37.85 42.20 43.18 41.41 40.15 44.07 45.24 43.69 44.73 44.96 45.70 45.10 45.17
51.46 51.42 51.58 52.42 52.87 52.86 50.27 44.34 40.35 37.95 41.01 38.30 38.92 38.43 41.19 44.24 46.48 46.51 48.56 45.99 44.45 43.04 40.27 46.02 40.35 35.69 38.42 40.57 39.84 39.76 36.56 36.88 38.65 42.86 41.20 40.55 40.37 43.57 45.02 40.49 41.82 42.85 44.05 44.78 45.21
51.29 50.74 51.33 51.87 52.79 52.95 45.90 41.64 41.67 42.01 34.25 41.21 41.22 41.74 43.74 44.32 38.66 43.87 47.68 39.91 38.20 36.68 41.74 41.80 35.65 39.71 41.95 42.37 40.43 39.83 36.01 35.08 38.47 42.53 41.52 40.18 40.13 43.15 44.29 42.22 42.52 43.38 43.38 44.51 43.44
51.03 50.59 51.21 51.67 52.51 46.25 42.93 43.16 46.22 46.14 35.46 37.96 41.93 40.66 40.90 42.70 38.35 40.72 44.42 42.17 37.06 35.85 35.53 37.16 38.03 42.56 41.13 40.01 38.88 36.82 36.21 34.89 34.88 38.22 38.29 37.39 35.16 38.52 41.62 41.32 43.18 43.49 42.88 43.35 43.82
50.85 50.64 51.11 51.46 45.66 44.07 41.26 46.27 46.62 45.12 30.47 33.40 37.46 39.73 42.34 41.60 37.35 45.09 45.43 42.73 38.36 35.34 35.48 40.09 41.81 40.53 39.17 38.23 38.53 33.92 38.71 37.76 37.02 34.14 29.83 37.08 26.60 32.79 38.59 39.28 40.64 40.95 40.41 41.29 42.88
50.47 50.59 50.99 50.53 44.03 43.81 45.24 46.49 45.37 43.40 20.57 36.03 37.98 45.56 43.10 38.37 40.04 40.04 45.71 42.84 37.19 37.58 37.69 37.20 38.70 38.68 37.77 38.66 39.49 36.04 39.55 37.60 36.34 33.15 30.82 30.70 27.90 31.06 35.01 35.22 37.47 38.23 38.94 38.91 43.11
50.19 50.90 50.27 46.92 46.43 47.85 48.81 45.97 44.87 24.55 21.39 32.86 37.50 37.88 37.20 38.83 38.34 40.23 43.66 45.34 43.94 40.49 40.72 39.42 42.80 40.99 39.31 41.66 41.79 42.10 37.13 35.87 35.14 32.76 24.55 30.19 28.69 27.51 31.63 35.71 39.20 37.24 38.20 40.14 42.84
50.19 51.13 49.41 48.72 41.73 48.65 48.19 42.51 23.01 22.73 33.68 34.22 35.61 38.80 38.24 35.03 38.02 39.58 36.37 35.10 36.37 31.62 32.38 37.21 37.41 40.76 41.93 37.47 40.13 38.67 32.20 25.76 26.98 27.08 22.54 30.79 28.63 32.27 34.68 36.73 38.52 38.90 40.62 42.39 44.18
50.63 50.80 49.73 48.09 46.84 47.15 42.30 30.93 18.74 29.42 30.33 38.26 38.43 38.70 35.40 38.62 38.38 39.04 38.05 35.44 38.15 35.78 33.17 30.96 30.80 37.59 39.87 37.74 38.09 36.64 31.64 23.51 19.65 21.63 23.38 29.47 26.63 32.62 36.45 37.82 40.15 43.14 43.13 43.80 43.79
49.43 44.16 43.57 46.10 47.75 44.33 36.86 21.18 21.95 23.42 33.57 35.02 36.67 33.12 35.02 38.35 38.67 38.75 35.55 34.61 38.12 36.80 29.64 28.07 29.79 38.66 40.12 41.44 40.16 36.99 30.37 33.87 24.00 22.35 19.40 25.33 29.42 34.68 37.01 36.95 38.95 40.24 42.10 42.66 44.30
40.77 40.71 41.52 47.72 46.52 41.35 29.54 28.94 28.96 35.21 37.15 37.35 32.65 34.42 32.38 35.76 35.66 34.22 34.49 38.61 37.86 39.66 37.92 32.63 28.58 36.31 39.00 41.65 41.20 38.92 38.81 28.08 23.14 17.45 18.10 22.01 22.92 27.40 32.36 36.06 39.22 40.24 40.83 42.29 44.79
40.18 38.36 43.58 47.51 45.16 35.95 24.53 25.91 34.54 39.98 39.21 36.61 34.85 33.69 32.91 34.69 35.60 32.69 32.36 36.44 38.31 39.06 38.89 35.58 31.05 33.03 38.19 36.02 35.94 36.57 34.41 31.51 30.57 24.87 20.85 18.67 22.78 30.03 35.69 39.09 39.84 41.17 41.41 41.93 44.17
36.14 31.97 44.43 46.15 35.66 33.80 30.64 35.71 40.64 39.42 40.62 38.77 38.56 37.13 34.01 33.75 32.93 32.63 32.47 34.70 39.41 39.67 36.51 38.04 33.50 30.44 32.59 39.23 41.15 38.92 35.81 34.17 25.69 22.36 20.65 20.14 22.84 34.06 36.88 38.64 40.86 40.52 42.22 43.16 44.28
35.61 34.66 43.54 44.08 34.78 31.03 36.26 38.55 39.78 38.53 38.39 37.56 36.34 37.69 37.31 34.16 31.22 33.91 34.64 39.36 40.27 38.47 36.03 37.98 29.48 22.54 28.55 33.19 37.20 36.33 35.71 35.91 31.75 26.45 18.59 18.59 23.53 35.49 35.60 37.85 40.50 41.21 42.45 44.08 43.51
35.34 27.42 35.02 41.16 40.10 37.84 35.37 36.03 36.93 40.13 39.27 38.82 36.98 37.55 35.72 34.15 35.63 33.31 33.60 38.66 39.57 38.08 44.02 40.48 32.48 26.90 22.36 26.61 31.06 30.49 34.31 34.98 31.78 23.24 25.46 24.69 27.43 32.42 35.50 38.00 39.46 41.16 42.29 44.04 42.76
32.89 29.53 35.03 27.41 32.96 34.76 35.58 38.14 37.29 37.11 38.71 38.78 36.53 36.21 34.72 30.78 32.37 32.74 34.81 35.60 38.50 40.57 37.49 35.15 24.44 26.54 31.53 33.37 30.16 30.94 33.23 32.62 28.38 33.38 28.15 31.29 29.93 33.61 36.10 37.92 39.48 41.30 42.06 42.49 41.24
30.08 28.59 31.44 30.08 33.67 32.00 37.65 36.35 36.14 38.42 36.91 35.93 34.75 37.15 35.84 32.98 32.92 32.51 34.61 33.48 33.21 34.71 33.97 34.44 25.82 25.96 25.90 32.35 31.04 28.93 32.08 33.35 31.86 31.63 31.33 31.03 31.75 37.36 37.88 36.67 38.78 40.09 42.57 42.50 41.44
33.33 34.10 34.30 30.12 32.92 34.51 33.14 33.58 36.61 39.77 39.22 39.65 38.11 36.22 35.08 36.35 36.47 36.05 37.09 37.02 36.31 34.43 32.75 31.95 27.88 24.16 20.56 28.81 27.91 23.89 30.09 31.51 32.53 32.85 33.47 29.03 33.97 36.00 36.50 39.04 39.89 40.34 43.00 42.93 41.65

GFSSW_sfc_wetblb_069.txt.gz
Wetbulb
56.34 56.50 56.63 56.53 56.32 55.89 55.82 56.02 55.71 55.41 55.08 54.73 54.14 54.20 54.53 54.75 55.14 52.61 47.85 51.49 53.64 60.11 59.91 54.46 53.02 55.17 55.93 53.10 55.77 55.17 44.93 41.58 42.56 44.05 45.99 50.05 48.67 51.52 51.53 47.30 53.59 57.27 58.11 62.20 64.79
55.96 56.14 56.19 55.49 55.46 55.50 55.12 55.17 55.06 54.58 54.41 54.39 53.47 53.48 53.77 54.04 50.25 47.61 53.29 57.51 58.27 59.49 54.91 50.52 48.42 52.75 51.77 50.87 52.84 49.63 44.65 43.42 47.77 48.50 47.55 48.94 49.28 50.17 47.26 46.24 55.04 58.74 63.03 64.35 64.71
56.04 55.98 55.31 55.23 55.53 55.53 54.97 54.56 54.36 54.00 53.76 53.67 53.01 52.83 52.91 52.21 43.89 43.65 56.37 58.39 58.88 57.72 54.82 53.32 51.09 50.49 49.90 49.36 49.35 49.17 44.65 47.76 48.88 50.69 50.77 49.49 48.82 50.09 46.43 44.48 51.32 58.35 60.85 62.11 62.94
55.72 55.56 54.45 54.75 55.02 55.20 54.65 54.12 53.67 53.23 52.91 52.71 52.51 52.41 52.23 48.34 29.75 47.38 55.54 57.48 59.01 56.39 52.86 51.96 49.42 46.54 45.65 45.37 48.48 45.17 48.63 49.11 50.19 51.78 50.74 49.33 50.53 47.34 46.59 46.32 50.24 55.82 61.45 61.26 61.82
55.14 54.92 54.06 53.93 54.31 54.65 54.27 54.02 52.77 52.19 52.17 51.69 51.60 51.66 48.43 40.48 39.95 49.80 53.97 52.53 52.86 51.42 49.92 49.46 46.32 45.68 44.16 44.80 47.36 43.11 47.18 48.99 50.81 50.98 50.47 51.16 48.58 46.79 47.47 51.37 50.86 58.28 60.29 59.43 60.27
54.35 54.33 54.37 53.26 53.42 53.41 53.72 53.25 52.76 52.29 51.77 51.22 51.30 51.54 43.91 34.48 46.18 48.82 50.11 49.57 49.03 50.74 50.10 50.63 46.13 46.85 44.78 45.41 45.45 47.43 47.04 47.36 49.20 48.90 48.20 47.44 47.75 47.35 49.00 48.66 49.59 58.08 58.51 58.53 58.89
53.95 53.53 53.72 53.04 52.69 52.36 52.10 52.52 52.30 51.98 51.59 51.73 51.67 48.59 42.13 38.21 46.41 47.93 49.15 47.81 49.51 50.49 48.93 51.93 51.31 46.60 45.45 43.37 47.76 46.94 43.48 46.24 46.54 46.87 46.64 49.15 43.59 44.95 49.94 51.27 46.90 47.31 50.79 52.18 56.37
52.51 52.97 52.92 53.59 52.61 52.68 52.41 51.16 50.74 50.97 51.25 51.60 51.75 46.45 36.87 48.04 46.60 46.72 49.43 47.88 49.58 53.28 52.63 53.94 53.80 47.33 44.69 45.89 44.83 42.19 42.78 38.49 44.80 46.65 46.86 47.06 39.56 47.00 50.58 49.79 45.90 46.05 44.63 45.11 46.87
51.83 51.66 52.48 52.76 53.09 52.74 53.06 53.02 50.80 50.86 51.14 51.48 45.85 41.76 35.25 49.31 45.05 46.51 48.55 45.18 47.30 51.68 53.36 54.22 52.65 44.38 43.76 39.42 36.86 39.87 35.13 36.99 40.32 46.42 45.36 44.10 39.41 47.16 49.90 48.93 46.37 45.33 45.14 45.06 44.21
51.51 51.29 51.76 52.14 52.64 53.09 53.09 52.19 51.13 49.43 49.29 49.93 47.72 37.79 40.45 39.25 43.81 45.84 47.87 47.69 46.02 46.37 48.22 48.46 47.99 40.24 39.35 37.54 30.63 34.62 34.58 37.08 37.88 42.62 44.18 41.45 39.94 44.09 46.18 45.12 44.88 44.83 44.68 44.57 45.07
51.49 51.05 51.18 51.51 52.28 53.18 49.15 43.03 39.22 37.54 40.76 37.43 38.11 37.52 40.58 43.37 46.05 45.54 48.22 45.42 43.90 42.22 39.98 45.05 38.69 33.87 37.51 38.77 37.47 37.70 36.25 36.28 38.52 43.22 41.97 41.07 40.57 43.34 43.88 42.20 41.06 41.69 43.12 44.29 45.14
51.52 50.97 50.54 51.38 51.94 52.82 44.52 39.50 40.09 40.16 33.52 40.44 40.34 40.96 43.33 43.80 37.83 43.43 47.23 39.33 37.16 34.85 41.27 41.92 33.22 38.59 40.98 41.26 39.28 38.25 35.31 35.78 38.99 42.05 42.07 40.11 39.82 43.22 44.64 42.92 42.72 41.88 41.74 42.99 43.65
51.46 50.79 50.52 50.95 51.67 45.52 41.95 41.16 44.76 44.19 34.98 37.85 41.30 40.38 40.22 41.92 37.89 40.04 44.31 40.93 35.79 34.06 35.99 36.25 38.98 41.88 40.91 39.28 37.58 35.49 34.18 34.80 36.09 38.61 38.44 38.24 36.23 39.09 41.53 40.53 42.51 43.44 41.92 42.39 43.19
51.27 50.79 50.62 50.28 45.34 43.07 40.48 45.56 45.65 44.18 30.38 33.53 37.32 39.23 41.80 41.86 36.94 45.05 44.89 41.93 37.51 34.30 36.77 39.23 41.75 39.71 39.03 37.91 37.67 32.87 38.44 38.01 36.65 34.89 30.82 37.90 27.80 33.55 37.47 39.28 40.15 41.99 40.99 41.31 41.57
50.81 50.61 51.00 49.75 42.40 43.16 44.62 45.80 44.76 41.91 13.34 36.67 38.00 45.83 42.66 38.79 39.62 39.34 45.72 43.26 34.71 35.61 35.48 36.27 38.29 37.71 37.07 37.87 38.86 35.04 38.80 37.27 36.22 33.41 31.63 31.53 28.63 31.18 32.76 34.57 39.96 41.48 39.17 39.88 40.88
50.43 50.53 50.08 47.23 45.60 47.54 48.57 46.52 44.34 22.21 13.56 32.85 38.61 37.81 37.45 38.78 38.06 39.99 41.01 45.15 43.93 38.07 39.61 39.67 41.99 40.31 38.42 40.85 40.27 40.88 36.37 35.51 34.49 32.21 25.05 30.47 29.27 28.33 30.46 33.31 35.88 39.16 38.06 38.65 41.83
50.57 50.84 48.99 47.71 41.08 48.89 48.07 42.83 21.98 21.45 33.42 32.31 35.15 36.62 35.48 34.80 37.15 38.93 37.61 37.12 34.72 31.52 32.10 38.00 38.01 40.85 40.75 37.26 39.56 37.42 31.98 25.25 24.40 25.87 23.33 29.52 28.73 33.82 34.87 35.50 36.84 38.13 36.93 37.39 41.69
50.43 49.77 50.13 47.88 46.59 47.60 43.58 28.49 18.36 30.18 31.59 38.36 37.80 38.18 35.31 37.97 37.31 37.39 35.14 34.54 37.68 36.74 32.41 31.56 29.75 37.56 39.28 36.75 34.62 33.63 32.03 23.68 20.07 21.94 23.48 28.78 25.83 31.24 36.82 37.30 37.89 39.17 39.55 40.66 42.43
48.66 42.91 43.32 45.29 46.73 44.86 34.79 19.48 21.10 22.54 31.88 34.29 35.90 34.94 33.94 37.67 38.17 38.12 36.78 35.97 37.00 37.98 31.03 29.02 30.45 39.28 41.30 40.53 38.68 34.42 32.89 31.55 23.39 21.16 19.61 25.14 28.30 33.56 35.76 36.00 34.62 38.41 40.88 42.01 43.39
40.06 39.97 40.88 46.61 45.81 42.94 27.61 26.24 24.30 33.64 36.15 37.03 30.63 33.96 32.14 35.72 35.39 32.76 35.24 39.09 38.25 39.77 36.98 32.43 29.39 36.63 39.41 41.94 40.08 36.86 37.01 27.88 21.81 15.83 17.91 22.14 23.26 27.95 31.47 34.08 36.03 38.12 39.93 42.19 43.87
39.12 37.74 42.92 46.66 44.55 35.61 23.38 24.51 32.82 38.50 38.53 35.57 33.69 32.49 31.77 32.70 33.71 31.29 31.17 35.67 38.39 38.55 37.42 33.76 30.88 32.79 38.71 36.22 35.77 37.20 34.67 31.19 29.41 24.15 20.49 18.83 23.35 30.53 31.85 35.78 36.84 39.75 41.91 42.16 43.15
35.56 30.55 43.33 45.25 31.32 30.87 29.47 34.69 40.08 38.16 39.04 37.76 37.64 35.79 32.60 32.65 31.86 31.10 31.54 33.65 38.43 39.66 34.90 35.60 31.78 29.46 33.06 38.12 41.24 39.79 36.78 31.45 23.92 21.71 19.56 19.61 22.90 32.88 32.37 36.42 39.57 40.07 41.90 42.54 44.42
34.85 33.89 42.19 42.87 27.45 28.69 34.77 37.40 38.81 37.50 37.42 36.74 35.21 36.60 36.00 32.83 30.62 32.74 33.43 38.38 39.09 38.28 35.69 36.57 30.84 27.03 28.87 33.54 37.85 36.71 37.56 34.61 29.98 25.01 18.21 19.16 24.14 33.95 32.24 35.47 39.60 39.60 41.02 42.94 44.26
33.30 27.08 33.82 37.80 36.71 33.23 32.34 34.31 35.57 39.24 38.01 37.66 35.83 36.29 34.40 32.77 34.40 31.84 32.67 37.68 38.49 38.03 43.80 40.76 31.18 26.32 22.39 24.95 31.30 32.77 36.30 34.46 29.59 22.34 23.26 22.89 26.71 31.30 33.00 35.31 37.88 39.88 41.31 43.18 43.30
31.13 28.53 31.18 25.39 32.73 34.61 34.08 35.89 34.97 34.74 37.57 37.69 34.90 35.27 33.39 30.19 31.46 31.28 33.81 34.88 37.54 40.06 37.02 35.12 28.52 27.67 30.86 32.38 29.71 30.00 32.98 34.79 27.09 33.31 27.48 32.27 29.34 34.71 35.91 36.18 38.46 40.49 41.18 42.41 41.69
28.38 27.04 29.60 27.16 31.52 33.10 35.10 34.24 35.11 36.36 36.25 34.98 33.85 36.50 34.64 31.22 31.53 31.86 33.68 32.51 32.63 33.86 33.11 33.31 24.88 26.24 25.59 31.44 29.98 28.69 31.30 34.13 34.10 33.01 32.82 33.05 31.06 37.60 38.36 38.92 38.97 40.65 41.44 42.09 41.89
32.34 32.74 30.68 29.00 27.77 31.46 29.34 32.83 35.34 37.61 40.23 39.23 37.53 35.59 34.05 35.14 35.66 34.88 35.82 36.03 35.18 33.69 32.02 30.91 27.49 23.56 19.81 27.96 27.95 24.31 28.64 30.90 32.27 32.46 33.86 29.69 36.86 35.68 35.05 37.43 37.96 37.72 41.07 42.15 41.87

GFSSW_sfc_wetblb_072.txt.gz
Wetbulb
56.75 56.85 56.54 55.75 55.71 55.95 55.82 55.96 55.52 55.34 55.21 54.70 53.76 53.54 53.88 54.43 54.44 52.09 47.96 51.08 52.69 58.44 59.27 53.89 52.50 53.00 56.47 51.85 55.44 53.32 44.64 40.53 41.73 43.60 45.22 49.18 47.69 50.77 52.15 46.04 54.31 59.33 56.60 60.61 64.60
56.14 56.05 55.99 55.37 55.36 55.50 55.84 55.68 55.00 54.85 54.72 54.09 53.16 52.99 52.96 53.36 48.84 46.98 53.21 57.61 59.07 58.47 53.89 51.44 48.09 50.97 49.37 48.77 52.71 48.72 43.74 42.59 46.42 47.86 47.13 48.57 47.92 48.09 47.63 45.48 53.65 58.62 62.11 63.76 65.70
55.54 55.93 55.57 54.77 54.76 55.27 55.22 54.82 54.50 54.17 53.11 53.10 52.74 52.41 52.53 51.54 42.33 41.42 55.20 56.96 58.51 57.81 54.80 54.27 50.46 48.89 46.68 47.57 47.42 49.27 43.74 46.44 48.03 50.43 50.76 49.52 48.86 49.07 46.26 43.98 45.66 46.12 58.64 62.39 64.46
55.05 55.15 55.31 53.53 54.02 54.79 54.81 54.41 54.10 53.06 52.26 52.32 52.39 52.27 52.48 47.26 28.68 45.37 56.44 57.50 57.95 55.96 52.01 52.15 50.20 44.67 43.58 43.79 47.29 43.93 48.33 48.77 50.27 52.13 50.73 49.00 50.54 47.27 46.08 46.59 50.50 51.19 56.79 60.45 62.56
54.49 54.53 54.75 54.30 53.09 53.08 54.06 53.90 53.41 52.79 52.39 51.72 51.57 51.65 47.45 39.19 38.18 48.97 53.44 54.63 52.44 52.08 47.17 48.60 47.35 43.37 41.68 44.68 46.08 41.31 45.41 49.82 51.23 50.86 50.21 49.90 47.56 46.55 46.74 49.05 50.90 51.99 59.97 59.50 60.41
53.53 53.88 53.73 54.29 53.02 52.58 52.35 53.01 52.81 52.48 51.90 51.62 51.80 51.57 42.97 32.92 44.63 47.51 49.35 49.81 48.92 48.63 48.24 49.48 47.69 46.88 43.44 44.83 44.69 46.06 46.04 48.37 50.54 49.52 47.85 46.47 46.62 47.05 48.17 48.30 49.04 50.44 58.09 58.51 59.30
52.96 52.69 52.80 53.52 53.37 53.08 52.80 51.72 52.44 52.18 52.00 51.98 51.57 48.20 41.09 37.35 45.69 46.61 48.82 48.14 48.97 47.80 46.53 50.29 51.09 46.08 44.66 43.11 47.34 46.04 44.11 46.04 47.69 47.45 46.78 48.74 44.22 44.34 49.19 49.30 47.78 48.10 52.04 57.18 58.04
52.86 51.82 52.19 52.91 53.16 53.01 53.32 53.43 50.58 50.92 51.43 51.88 52.11 45.12 36.39 46.71 45.76 46.15 47.20 46.86 48.88 49.57 50.39 52.28 53.21 46.87 44.63 45.05 44.36 42.44 42.54 38.17 44.40 46.53 47.12 45.91 38.86 46.01 49.57 47.70 47.52 48.16 46.08 46.97 48.12
52.83 51.99 51.35 52.32 52.48 53.13 53.19 53.06 51.52 50.77 51.03 51.47 44.91 40.70 33.91 48.38 44.09 45.23 46.50 44.85 46.45 49.16 52.79 53.36 52.00 44.72 45.18 39.46 35.85 40.13 34.48 35.16 40.54 45.98 45.88 44.91 40.06 45.96 50.15 47.86 47.21 47.80 45.88 45.68 45.33
52.38 51.65 50.91 51.76 52.13 52.78 53.28 52.39 51.24 49.03 49.18 49.52 47.25 36.07 39.97 38.66 43.08 44.57 47.09 47.63 44.23 45.64 47.12 47.45 46.52 39.56 38.56 36.14 30.42 33.18 30.71 31.89 37.08 42.63 44.33 42.56 41.04 45.13 48.41 47.81 47.01 47.74 44.46 44.29 44.82
52.39 51.70 50.66 51.11 51.62 52.36 48.63 42.20 38.71 37.98 39.97 36.43 37.00 36.73 39.88 43.03 44.87 44.46 47.33 44.93 43.37 43.21 37.65 42.49 36.89 33.42 37.44 36.92 35.77 36.03 34.52 34.25 37.18 43.34 41.64 40.76 41.14 42.28 46.90 46.83 46.47 47.67 43.09 44.23 44.90
52.00 51.44 50.66 51.02 50.98 52.13 43.84 37.71 38.48 39.24 32.49 39.84 40.02 39.76 42.55 43.06 37.22 42.57 47.26 38.79 37.36 35.99 37.76 39.91 33.30 37.61 40.46 40.67 37.51 36.95 33.61 32.42 37.87 42.73 41.59 40.51 40.16 43.70 44.89 43.71 44.55 45.30 44.72 43.91 42.74
51.59 50.84 50.45 51.45 50.55 44.98 40.90 40.27 44.12 43.76 34.65 37.81 40.74 39.81 39.46 41.26 37.78 39.69 43.37 39.96 35.89 34.43 35.24 35.75 37.42 41.36 40.10 38.71 36.43 33.70 33.06 32.84 34.10 38.35 38.99 39.19 37.39 40.44 44.13 46.25 44.43 43.44 41.74 41.93 42.70
50.94 50.76 50.84 50.49 44.98 42.19 39.81 44.84 44.81 43.46 29.51 33.41 36.24 38.65 41.37 41.30 36.05 44.58 44.29 40.59 36.05 34.15 36.43 38.53 40.37 39.60 38.48 37.42 36.99 31.54 37.34 36.80 36.19 34.47 30.82 38.44 29.02 36.20 41.77 42.69 43.87 45.83 41.32 41.36 41.26
50.87 50.46 51.09 49.28 40.89 42.60 44.70 45.34 44.01 40.62 18.66 36.10 36.73 45.79 41.89 38.55 38.38 39.19 45.12 41.32 34.58 35.81 35.99 36.80 36.92 38.39 37.41 37.84 38.41 34.69 38.22 36.31 35.22 32.58 31.06 31.26 29.98 32.40 33.76 36.86 42.14 45.17 41.79 40.74 40.69
50.58 50.32 50.13 46.98 44.77 47.09 47.99 46.91 43.33 20.22 14.78 32.46 38.65 37.27 36.07 37.70 37.89 39.56 40.69 44.35 42.28 36.88 36.89 37.37 42.95 41.15 38.48 39.62 39.35 38.84 35.73 36.22 34.57 32.09 26.20 30.40 29.87 29.52 31.32 34.01 35.84 40.94 41.62 42.48 40.66
50.74 50.58 49.01 46.70 40.59 48.88 47.93 42.51 20.15 18.43 32.09 31.58 33.17 35.70 35.35 35.05 35.42 36.23 36.11 35.23 33.67 30.44 30.74 37.76 38.53 40.84 40.36 37.25 39.36 35.73 31.52 24.12 24.26 23.13 23.43 29.22 28.96 33.56 35.95 35.88 37.53 38.63 38.93 39.21 39.35
50.28 49.06 49.27 47.19 47.31 47.73 43.67 29.22 18.20 27.84 28.65 37.78 37.73 37.08 34.42 36.09 36.41 36.57 34.87 33.55 38.12 33.32 32.55 31.97 29.35 37.50 38.70 35.97 34.07 34.98 32.94 22.89 19.06 20.71 22.66 28.44 25.92 31.91 37.30 38.10 37.90 39.08 39.23 37.12 39.91
47.87 42.35 44.06 44.69 47.57 45.99 34.84 16.55 21.18 22.97 31.15 33.52 36.16 32.74 34.04 37.26 37.46 36.85 35.14 34.12 36.24 38.24 30.75 30.07 31.50 39.68 41.05 40.01 37.77 33.40 32.48 30.77 22.12 19.34 18.45 25.01 28.43 33.61 35.86 36.00 36.28 36.38 38.15 37.27 40.72
39.95 39.15 40.85 47.39 47.22 42.61 26.55 26.42 23.38 31.75 35.07 36.66 29.01 32.94 30.71 34.10 34.40 34.31 35.28 38.79 36.93 38.80 37.12 32.30 30.22 36.93 39.53 40.68 39.18 35.17 35.57 28.95 22.02 15.42 16.62 20.56 22.51 26.79 31.09 34.10 35.99 36.07 37.44 39.06 41.78
38.64 36.93 42.31 47.89 46.30 35.49 21.59 25.59 31.82 37.13 37.73 34.75 32.40 31.54 31.26 32.20 32.48 29.72 29.71 35.55 37.90 36.77 36.05 33.26 31.59 33.76 38.10 34.85 32.98 35.90 31.51 29.50 28.79 23.98 20.30 18.25 23.19 30.32 31.84 33.26 33.63 36.17 39.19 40.46 42.27
35.51 29.78 42.80 44.91 35.33 29.41 28.62 33.56 39.44 37.26 38.04 36.84 36.49 34.86 31.86 31.52 31.19 31.50 30.64 32.57 38.33 38.68 33.51 34.47 31.13 29.90 33.01 37.92 38.74 37.09 34.51 30.07 22.57 20.33 18.82 19.48 22.94 32.17 32.51 33.32 35.39 37.21 41.02 42.13 42.65
33.11 33.40 40.85 41.55 25.79 27.88 33.78 36.50 37.80 36.62 36.52 35.97 34.17 35.52 34.79 31.91 29.79 31.56 32.51 37.43 38.74 38.39 35.32 35.84 28.61 26.25 28.49 32.87 35.71 34.87 36.91 34.16 29.04 25.37 17.76 20.11 25.05 33.14 32.91 34.90 37.16 38.36 40.11 41.78 43.16
32.30 27.21 32.81 36.05 34.76 31.26 30.71 33.19 34.67 38.51 37.21 36.88 34.97 35.35 33.39 31.86 33.69 31.10 31.85 36.79 37.71 37.34 43.28 38.81 29.26 25.87 21.98 25.02 30.71 32.12 35.59 36.86 30.89 29.70 25.10 24.27 26.46 31.00 32.57 33.68 36.01 38.07 39.75 40.53 42.52
29.87 27.46 29.45 24.66 30.24 31.16 32.39 34.72 34.32 33.96 36.75 37.10 34.06 35.13 32.14 29.34 30.31 30.02 32.80 33.90 36.06 40.47 36.03 34.96 27.71 27.30 28.64 31.21 29.32 29.76 32.80 35.60 33.30 33.47 30.17 30.38 29.82 35.68 35.88 34.64 35.74 38.12 39.82 40.59 41.05
27.26 26.32 27.92 26.10 29.73 29.64 33.04 31.16 33.81 35.20 35.50 34.42 33.82 35.84 34.14 30.87 30.47 30.46 32.79 31.14 31.42 33.18 32.85 32.66 26.19 28.71 27.31 31.70 29.93 28.54 30.81 33.65 35.11 35.19 34.57 34.45 32.76 37.51 37.15 35.58 38.04 39.20 40.20 40.94 41.16
30.71 31.16 29.40 27.83 26.99 29.62 29.22 29.72 34.15 35.68 38.22 38.59 36.69 34.32 33.50 34.37 35.04 34.66 34.82 35.09 33.67 32.86 31.08 29.90 27.00 24.25 21.00 27.93 27.64 23.70 28.26 30.31 32.57 35.18 35.25 31.81 36.93 35.70 35.76 36.77 38.67 38.42 40.33 41.15 41.79

GFSSW_sfc_wetblb_075.txt.gz
Wetbulb
56.20 56.38 56.53 55.32 55.37 55.85 56.02 56.35 56.12 55.46 55.38 55.04 53.70 54.25 53.57 53.69 53.93 51.65 47.33 51.92 54.23 57.59 58.75 54.69 54.68 54.30 56.19 53.85 55.35 54.66 45.64 41.81 43.35 43.97 45.85 50.18 49.67 51.88 52.79 49.93 57.26 61.52 61.09 63.06 66.81
55.50 55.71 56.05 55.27 54.25 54.67 55.55 55.45 55.24 55.03 54.77 53.35 53.27 53.14 52.97 53.39 48.80 46.20 53.12 57.00 58.08 58.97 53.96 52.26 49.91 51.94 51.57 51.01 52.82 49.55 45.00 44.40 47.82 49.06 47.75 49.32 49.44 49.63 50.19 49.08 49.49 50.92 54.44 64.56 65.49
54.92 55.13 55.23 55.67 53.83 53.86 54.99 54.99 54.83 54.12 53.32 52.71 52.95 52.78 53.09 51.72 42.39 40.74 54.93 57.37 58.01 58.20 54.83 54.32 51.28 49.94 48.55 49.98 50.01 49.35 44.80 47.17 49.02 50.70 51.29 50.13 49.54 50.23 48.55 46.00 48.73 48.57 51.06 58.98 64.20
53.88 54.65 54.55 55.05 53.82 53.37 54.05 54.45 53.85 53.56 53.21 52.89 52.76 52.39 52.52 47.74 29.10 45.91 55.70 57.29 57.86 55.71 53.69 51.73 50.03 46.04 45.99 45.68 48.93 46.27 48.93 49.41 51.21 52.08 51.04 49.18 50.53 48.36 48.34 49.38 51.68 51.70 54.59 59.43 62.79
53.58 53.65 54.07 54.18 53.95 52.96 52.62 53.61 53.55 53.39 52.71 52.32 51.84 51.88 47.50 39.63 38.27 48.07 53.85 54.42 54.25 52.84 48.69 48.99 47.49 45.36 43.29 46.50 46.96 45.19 47.90 50.07 51.49 51.25 49.95 50.51 47.63 46.94 48.30 50.70 51.42 52.45 53.74 60.12 61.22
53.94 52.54 53.36 53.54 53.85 52.99 53.07 52.11 53.08 52.71 52.47 52.26 52.16 50.98 43.33 33.18 44.87 47.69 48.83 50.29 49.77 50.11 47.76 49.63 48.13 46.93 45.36 46.21 45.76 46.94 47.26 48.83 50.78 49.76 48.46 47.87 47.36 48.50 48.56 50.94 51.23 51.62 51.46 55.14 61.00
54.28 52.56 52.01 53.14 53.23 53.56 53.30 53.40 51.27 52.00 52.25 52.25 51.29 47.97 41.14 37.58 46.58 46.91 48.17 48.73 48.93 48.36 45.90 49.70 51.20 47.44 46.88 44.78 48.42 47.98 44.45 46.91 48.39 48.43 47.47 48.70 45.66 45.77 50.45 50.70 49.82 50.47 51.17 50.96 56.02
53.62 53.20 51.87 51.88 52.85 52.83 53.57 53.29 51.60 50.44 51.10 51.82 51.82 45.29 35.69 46.46 46.37 46.77 47.83 47.43 49.15 49.52 49.31 51.99 52.55 47.70 45.83 47.53 45.94 43.80 43.81 39.88 45.49 47.91 48.04 46.60 41.31 47.21 50.40 49.39 49.06 50.04 50.70 50.37 50.18
53.36 52.88 51.78 51.52 52.40 52.23 53.32 53.07 52.32 50.71 51.03 51.34 44.92 41.39 34.57 48.07 43.90 45.19 47.31 44.88 46.80 49.37 51.12 52.66 51.05 45.50 45.04 40.96 39.11 40.73 35.69 36.81 41.43 47.10 46.08 43.95 40.84 46.76 49.84 48.80 48.31 49.60 50.13 50.04 49.92
53.03 52.80 52.03 50.77 51.89 52.06 52.84 52.18 51.47 48.93 49.08 49.27 46.99 36.14 40.22 38.78 43.08 44.87 48.20 47.93 44.76 45.21 46.56 46.46 43.52 41.33 40.02 38.50 30.82 34.20 34.99 36.90 38.08 43.35 44.76 42.10 41.84 45.46 48.18 48.15 48.46 49.46 49.49 48.22 48.22
52.52 52.40 51.66 50.93 51.61 51.44 48.27 42.62 38.41 37.14 40.81 36.29 36.79 36.95 39.70 43.15 45.08 44.26 47.15 44.45 43.30 41.71 37.28 41.84 36.11 34.78 38.02 38.76 38.14 37.29 36.63 36.79 39.91 44.25 42.63 41.67 41.53 44.02 47.33 47.75 48.31 49.65 48.77 48.78 48.77
51.97 51.69 50.90 50.43 51.64 50.94 43.59 37.75 38.10 38.74 31.98 39.41 40.04 39.37 42.36 43.08 37.49 42.75 47.08 38.39 37.34 35.79 39.65 37.71 34.03 38.14 40.98 40.98 38.46 38.32 35.01 35.70 39.34 43.37 42.37 41.18 40.53 43.80 46.43 46.30 48.35 48.79 48.17 47.92 47.32
51.50 51.04 50.64 51.69 49.96 44.68 39.97 39.84 43.90 43.25 33.40 37.59 40.56 39.70 39.65 41.30 37.49 39.67 43.13 39.11 35.78 34.80 37.10 35.54 37.21 40.44 40.41 39.26 37.00 35.86 34.58 34.30 35.63 40.23 41.07 39.95 38.00 40.92 44.50 45.74 46.79 48.17 48.55 48.68 46.47
50.86 50.61 50.68 50.03 45.75 41.72 39.45 44.23 44.50 43.01 25.47 32.81 35.81 38.77 41.27 41.39 35.91 44.45 44.52 39.96 35.48 34.55 37.50 38.13 41.17 38.44 38.53 37.90 37.73 34.01 38.09 37.63 36.66 36.57 32.23 39.89 30.26 37.92 41.89 43.22 45.29 47.09 48.50 48.20 45.65
50.59 50.71 50.45 49.32 41.05 40.85 44.58 45.03 43.81 39.91 13.09 36.19 36.54 45.79 41.60 38.07 37.95 38.80 45.29 41.48 34.65 35.28 37.03 36.13 37.94 37.04 36.94 38.38 39.57 36.27 38.74 37.23 36.58 33.85 34.12 33.70 32.44 35.28 39.84 40.03 42.65 45.95 47.81 48.50 46.21
50.47 50.46 50.13 46.49 44.07 46.82 47.39 47.11 41.26 20.82 14.34 32.40 37.91 36.37 35.06 37.10 37.76 39.32 40.40 44.34 41.85 37.86 37.87 37.45 43.11 41.82 39.87 40.70 39.95 38.95 36.85 36.73 34.95 34.61 29.90 32.86 33.35 32.82 33.81 39.40 42.98 45.60 47.14 48.40 46.30
50.81 50.47 48.25 46.63 41.04 48.59 47.78 42.18 22.13 18.43 31.36 32.57 32.97 35.96 33.87 32.80 34.46 35.86 36.23 34.65 30.85 30.63 31.61 37.39 38.31 41.48 41.27 38.70 40.09 36.93 33.83 28.45 26.57 27.33 25.57 30.76 29.87 34.93 38.24 38.38 40.20 41.71 43.52 45.83 44.40
49.88 50.53 48.38 46.30 47.82 47.73 43.56 28.92 17.00 28.40 31.39 38.27 37.46 35.42 33.50 35.10 35.99 35.35 34.20 31.26 35.68 34.79 34.31 31.17 29.26 38.51 39.93 38.15 35.63 35.05 32.95 26.06 20.83 22.74 25.53 29.93 27.00 33.62 39.36 40.18 40.44 40.73 42.12 42.04 41.25
48.17 42.26 43.22 45.02 47.75 46.29 35.41 16.99 19.90 21.86 30.53 34.76 36.45 33.84 34.66 35.65 35.75 35.89 33.91 34.12 35.39 35.47 31.62 32.02 31.26 40.34 40.68 40.51 38.52 35.25 30.28 32.43 24.27 23.13 23.31 27.49 30.29 35.15 37.31 38.34 38.83 39.38 39.70 40.49 40.38
39.71 38.74 40.71 47.82 47.66 41.90 28.91 26.70 23.84 31.14 34.78 36.48 31.07 33.81 31.24 33.94 34.76 35.33 34.47 37.13 35.78 38.37 39.06 34.37 31.10 37.36 39.40 40.67 40.00 36.36 36.13 29.24 25.33 19.51 19.75 23.21 25.28 29.25 33.96 36.18 36.93 37.41 39.04 40.37 41.33
38.56 36.55 41.82 47.92 46.48 36.56 21.09 26.76 31.62 36.21 37.13 34.60 33.91 32.39 31.95 32.42 32.29 30.42 31.78 36.30 39.03 37.71 37.65 35.50 33.88 34.47 38.46 35.14 34.51 35.16 32.32 30.71 30.34 26.55 22.80 20.56 26.12 32.65 34.52 35.54 34.84 36.12 38.39 40.81 42.34
35.63 29.84 42.05 46.66 36.00 31.42 27.97 31.98 38.73 36.81 37.36 36.95 36.35 34.72 31.19 32.03 30.56 30.04 31.12 33.17 39.25 38.58 33.98 35.66 34.04 30.96 33.79 38.26 38.79 37.79 34.11 31.21 26.18 23.20 21.49 22.72 26.21 35.41 35.16 35.08 35.52 37.45 40.49 42.34 43.82
32.92 33.41 39.71 44.46 25.35 26.88 32.46 35.67 37.26 36.03 36.07 35.68 33.61 34.80 34.27 31.87 29.74 31.58 32.53 37.48 38.76 37.66 34.99 35.63 28.77 27.37 29.27 33.78 35.15 35.17 36.40 32.52 29.22 26.75 20.92 24.13 27.30 34.37 35.38 37.83 39.84 39.67 41.48 43.07 43.87
31.52 27.33 31.90 35.14 33.17 30.35 30.25 31.91 33.23 37.94 36.27 36.31 34.46 34.79 32.63 31.81 33.39 31.64 31.98 36.40 37.90 37.52 42.59 38.39 30.23 26.91 22.47 25.63 30.96 31.37 33.90 33.86 31.59 28.55 26.05 26.74 28.68 35.08 35.24 35.95 38.38 40.59 41.57 42.70 43.98
29.15 27.23 29.18 23.98 29.80 29.33 31.17 33.47 33.09 33.15 36.52 36.45 33.41 34.58 31.80 28.72 29.97 29.66 32.96 34.13 36.49 40.83 36.53 34.97 25.92 25.85 29.71 31.04 31.24 31.70 32.69 33.96 31.08 33.01 29.32 30.85 30.74 35.75 38.03 37.89 38.35 39.49 40.59 40.98 42.82
27.27 26.76 26.93 25.59 28.24 27.58 31.68 30.71 32.71 34.16 34.32 33.44 33.00 35.06 32.72 30.56 29.79 29.76 32.28 31.74 31.98 33.67 33.01 32.46 25.39 27.51 25.57 31.42 30.74 29.51 31.21 33.25 34.72 34.62 33.64 34.11 33.28 40.35 39.32 38.00 38.26 38.78 39.65 40.46 41.68
29.25 30.44 28.95 27.24 26.64 27.34 26.26 28.62 33.91 34.15 37.28 37.10 35.38 33.35 33.14 34.23 34.28 33.81 34.39 34.54 33.92 32.88 31.05 30.15 27.26 26.04 22.26 28.27 28.04 24.65 29.19 30.36 32.82 35.06 35.59 31.97 36.59 38.81 38.49 39.09 40.29 39.86 39.78 41.23 42.55

GFSSW_sfc_wetblb_078.txt.gz
Wetbulb
56.05 56.57 56.21 56.35 54.84 54.81 55.76 55.71 55.58 55.60 55.44 55.09 54.41 54.09 54.18 53.67 54.02 52.41 47.82 52.12 55.00 57.95 58.04 56.90 57.02 56.04 57.99 56.17 58.23 57.64 48.91 45.30 47.24 47.27 47.96 52.17 51.95 54.12 55.27 53.73 60.20 58.02 60.91 64.47 68.30
55.08 56.07 55.93 55.87 55.02 54.11 54.99 55.28 55.27 54.85 54.62 53.58 53.18 53.28 53.41 53.33 49.97 47.00 52.47 56.41 57.23 58.65 55.21 53.35 51.96 53.28 52.90 53.71 55.04 52.42 47.79 47.74 52.21 52.41 50.17 51.12 52.32 51.94 52.63 54.72 54.50 55.23 60.75 64.47 67.05
54.43 54.67 55.50 55.17 55.14 53.83 53.76 54.99 54.50 54.15 53.84 53.29 52.94 52.75 52.97 52.23 44.40 43.89 54.35 56.25 57.81 57.75 55.13 54.48 54.08 52.04 48.99 52.89 52.19 51.92 47.74 51.40 51.95 53.54 53.42 51.71 51.91 52.77 51.72 50.86 52.77 52.57 56.54 58.37 65.51
54.80 53.59 54.27 54.31 54.95 53.55 53.13 54.14 54.13 53.73 53.25 52.92 52.27 52.23 52.63 48.86 33.22 48.74 55.31 56.71 58.05 56.26 53.29 51.51 51.44 48.26 47.05 47.25 52.16 48.21 51.70 51.31 52.84 54.10 52.88 51.62 53.00 51.40 52.13 52.60 54.64 55.33 58.45 57.26 63.86
55.59 54.11 52.50 53.43 54.05 53.80 53.77 52.77 53.42 53.09 52.31 52.18 51.75 52.19 48.66 41.34 40.91 50.23 53.64 55.09 55.35 53.13 50.20 49.45 48.39 48.16 44.72 48.26 50.27 48.85 50.42 52.16 53.17 53.15 52.90 52.57 50.62 50.85 51.73 54.71 54.87 56.51 57.11 60.71 62.43
55.00 54.25 52.80 52.28 53.58 53.76 53.43 53.11 52.64 52.65 52.62 52.41 52.08 50.69 45.20 36.26 48.61 50.75 50.23 51.54 51.04 51.20 49.40 50.18 48.63 49.70 47.40 47.40 47.84 50.39 49.82 51.31 52.03 50.84 51.14 50.86 50.08 51.17 51.90 54.39 54.72 55.23 55.97 56.39 62.10
54.58 53.75 52.71 52.16 52.82 53.19 53.63 53.55 51.05 51.55 52.30 52.27 51.16 49.23 42.91 40.73 49.81 51.28 50.21 49.62 49.57 50.74 47.58 49.82 51.51 49.09 49.26 46.45 50.62 50.07 44.96 48.65 49.63 50.95 50.28 51.05 47.44 48.32 54.19 54.24 53.79 54.67 55.64 56.03 56.15
54.22 53.57 52.98 51.49 52.09 52.97 52.91 53.95 52.57 50.47 51.28 52.14 51.50 48.18 39.47 48.36 51.86 49.41 49.98 48.77 49.78 50.15 50.24 50.55 52.30 49.63 48.69 50.54 48.68 45.98 46.79 40.70 48.18 49.87 49.43 49.67 43.65 51.01 54.63 53.16 52.93 53.89 55.06 55.74 55.92
53.89 53.36 52.91 51.58 51.24 52.43 52.47 53.35 52.48 50.90 51.16 51.69 47.95 45.08 38.19 50.02 45.34 48.44 49.93 46.00 47.52 48.43 50.49 50.95 50.46 46.68 47.90 44.21 41.74 43.93 38.75 40.86 42.87 49.72 47.76 47.62 44.97 50.53 53.33 52.60 51.97 53.21 54.21 54.50 55.05
53.37 52.96 52.72 51.55 51.21 51.97 52.31 52.20 52.06 50.98 50.97 50.62 48.85 40.84 43.13 40.54 45.30 46.47 50.00 48.50 45.25 44.12 45.85 45.22 44.07 42.37 43.82 41.35 34.18 37.09 38.95 39.99 40.96 45.66 46.89 45.57 45.79 47.28 49.62 50.35 51.79 53.33 54.07 54.49 53.71
52.71 52.29 51.92 51.23 51.07 51.73 51.47 49.31 43.83 42.68 44.85 39.15 39.63 39.11 41.12 45.53 47.22 45.73 47.71 45.31 45.19 42.14 37.86 41.94 36.83 36.18 40.21 42.69 42.44 42.26 39.49 38.12 42.77 45.99 45.29 44.32 44.58 46.71 49.24 50.11 51.05 52.46 53.15 54.26 54.22
52.16 51.94 51.56 51.28 51.89 50.61 48.59 43.64 42.22 43.37 36.41 41.98 42.16 41.49 43.59 44.65 39.07 43.50 47.19 39.99 39.67 35.34 39.97 38.39 34.74 40.61 43.66 43.21 41.76 41.87 39.78 39.93 43.01 46.18 45.33 44.22 43.75 47.00 48.27 49.03 50.04 50.50 52.72 53.89 54.48
51.88 51.35 51.28 51.41 50.55 49.39 45.25 43.76 48.31 47.23 38.54 38.91 41.73 40.89 41.51 43.06 38.62 39.44 43.40 40.32 36.94 35.04 36.73 36.07 38.14 42.33 42.13 40.95 39.92 40.80 39.40 40.07 40.14 44.25 45.15 43.18 41.58 44.14 47.22 48.79 50.19 51.40 52.76 54.74 54.93
51.43 51.13 51.18 50.23 47.09 47.08 44.35 47.41 48.77 47.45 34.76 34.51 37.27 40.26 42.48 42.44 37.24 44.05 44.85 40.73 37.25 35.27 37.86 38.01 40.92 39.71 40.47 39.24 41.48 36.86 42.90 42.54 41.06 40.48 35.52 43.45 35.24 41.79 44.77 45.50 47.84 50.23 51.92 53.57 54.70
50.88 50.87 50.80 49.60 47.06 44.65 46.30 49.26 48.43 45.50 24.82 35.90 37.69 46.69 42.96 38.93 39.11 40.08 45.91 42.31 36.19 37.33 39.07 37.06 38.04 37.20 38.08 39.96 42.88 38.80 42.81 41.65 41.26 39.63 38.75 38.65 35.96 40.64 43.90 42.94 45.60 48.92 51.10 53.18 55.17
50.40 50.82 50.30 48.53 49.28 48.07 49.26 49.16 46.59 32.01 23.95 32.84 38.27 36.60 35.95 38.18 38.52 40.35 41.21 44.49 43.24 39.65 39.58 39.37 42.74 40.07 41.21 42.98 42.80 43.32 41.48 40.51 40.21 38.02 32.07 37.66 36.79 38.43 40.85 43.15 46.07 48.75 50.13 51.72 53.92
50.85 50.34 49.80 49.43 45.21 49.32 49.51 45.49 32.46 28.71 34.78 32.83 33.77 36.31 34.63 33.36 35.56 36.59 37.07 36.52 35.27 32.71 32.27 37.70 37.65 42.03 42.97 40.41 42.04 42.47 39.43 31.53 29.21 29.76 29.92 36.63 35.87 38.89 44.16 45.17 45.10 47.53 49.85 51.69 52.84
50.43 50.68 49.03 48.95 49.60 49.29 46.90 36.73 30.06 32.16 33.95 38.58 36.45 34.64 31.02 35.02 35.03 35.71 34.94 33.22 38.19 37.72 35.42 32.96 30.01 37.54 42.92 40.93 38.58 40.32 39.42 33.32 24.76 26.75 30.93 34.92 32.74 39.09 44.72 44.91 44.87 45.96 47.39 49.87 52.00
49.42 49.43 48.38 48.14 49.33 48.32 40.23 32.82 32.03 33.49 36.04 36.93 36.08 33.34 33.55 35.32 35.80 35.98 35.40 34.85 36.83 38.01 33.92 33.04 32.09 40.37 42.01 42.90 41.96 37.56 36.08 37.14 32.09 30.31 31.68 35.07 37.40 42.30 43.32 44.17 44.57 44.55 45.16 46.51 47.65
47.55 46.38 46.35 48.71 48.90 44.06 37.18 32.22 34.00 34.62 38.05 38.50 32.82 35.85 32.39 34.63 34.37 34.32 36.14 38.79 37.72 39.22 40.69 37.27 31.98 38.40 40.63 42.36 42.55 40.69 40.59 33.59 34.63 26.28 25.27 30.44 32.80 36.48 40.05 41.27 42.63 42.74 43.25 45.26 47.11
46.59 43.05 45.70 48.71 47.82 39.42 35.03 33.45 35.98 38.90 39.67 37.08 35.56 35.14 35.48 34.90 36.17 35.15 35.84 38.21 39.93 39.37 41.26 38.99 37.38 34.53 39.89 37.43 37.98 38.24 37.10 36.97 36.43 33.09 29.09 28.45 33.03 41.74 40.65 41.21 41.85 44.09 44.13 44.44 46.33
44.97 39.66 45.09 47.37 37.77 36.00 37.41 36.65 39.90 39.93 40.45 39.59 39.83 38.35 37.06 37.70 35.74 35.51 35.52 37.73 42.75 41.75 37.08 39.02 37.81 33.10 35.28 39.99 41.67 40.74 38.41 39.19 33.35 30.31 31.60 31.65 33.71 42.10 42.18 42.79 42.75 45.31 45.25 46.07 46.45
42.19 40.71 44.42 45.03 36.31 37.65 38.72 38.96 40.26 39.58 39.56 38.87 37.63 38.90 39.27 37.24 34.46 36.49 37.27 40.58 43.24 41.09 38.75 39.84 35.83 30.26 31.38 35.97 38.72 37.34 39.47 38.67 36.82 34.79 31.49 30.38 34.21 40.41 41.98 42.93 44.92 45.58 46.57 46.86 46.99
40.55 36.54 39.05 40.68 39.81 38.23 37.15 37.16 37.64 41.44 39.88 39.87 38.74 39.65 38.30 36.83 38.18 36.00 36.86 39.55 42.21 41.57 42.25 42.25 36.45 33.87 30.85 33.23 37.06 33.96 36.37 38.54 36.83 33.19 33.51 33.69 36.01 39.48 40.82 42.13 43.72 45.45 46.99 48.14 47.72
38.17 35.89 36.96 35.66 36.51 37.26 37.80 37.57 36.62 36.41 40.53 40.83 38.65 38.18 36.98 35.17 36.01 35.83 37.70 38.20 40.37 41.93 40.37 40.29 34.51 33.28 33.99 34.27 35.54 35.00 35.62 36.91 34.07 36.05 32.95 36.12 36.69 39.87 42.44 44.22 45.30 45.21 45.44 46.81 47.69
36.20 34.43 34.88 34.58 34.25 36.33 35.78 36.33 35.98 36.93 38.21 37.72 37.37 37.75 38.11 36.01 36.08 35.52 38.11 38.44 38.23 39.43 39.26 38.24 34.87 33.91 32.46 34.99 34.58 33.04 35.99 36.97 37.52 37.58 37.28 37.95 37.49 43.86 44.78 45.53 44.42 45.94 45.60 44.55 46.77
36.15 37.34 39.07 31.56 33.76 36.30 34.45 33.94 35.06 36.80 39.70 39.72 39.34 38.54 37.70 37.95 39.54 40.07 41.12 40.34 40.69 39.42 37.88 36.66 35.21 32.47 30.06 32.08 32.68 29.64 34.62 36.00 37.01 38.95 38.42 34.60 39.53 43.66 42.54 43.37 44.42 45.77 46.63 46.39 46.68

GFSSW_sfc_wetblb_081.txt.gz
Wetbulb
54.56 55.51 56.42 56.24 56.39 54.86 54.59 55.86 55.56 55.29 55.20 55.31 54.83 54.26 54.40 53.82 53.71 52.37 48.02 52.00 54.70 58.24 58.65 55.97 56.59 56.10 57.10 55.60 56.50 56.82 47.13 44.96 47.39 47.31 49.76 53.89 51.76 54.90 56.30 54.93 59.89 59.30 62.17 64.89 68.28
54.89 54.21 54.81 55.87 55.69 54.65 53.92 55.53 54.86 54.54 54.42 53.65 53.34 53.29 53.22 52.85 50.14 47.57 53.50 54.29 56.94 58.36 54.65 52.60 51.88 53.26 51.87 53.12 54.26 51.69 47.37 48.38 52.93 52.54 50.96 52.85 52.80 53.35 53.10 54.94 56.11 57.37 61.81 65.14 67.56
56.57 54.69 53.69 54.68 54.95 54.66 53.78 54.21 54.58 54.07 53.83 53.25 52.84 52.69 52.56 52.32 44.69 44.66 55.03 55.30 57.10 57.15 55.16 54.40 53.84 51.91 48.86 51.87 52.00 51.29 46.19 51.83 52.41 52.91 53.84 52.80 52.86 54.06 52.57 51.98 54.76 54.27 57.51 60.96 66.25
55.91 55.33 54.04 52.80 54.21 54.80 54.13 53.11 53.70 53.38 52.85 52.59 52.17 52.15 52.60 50.47 34.49 48.78 54.58 55.59 57.09 55.60 53.38 52.21 51.69 48.67 46.55 46.83 52.01 47.58 51.50 52.18 52.62 53.69 52.53 52.35 54.22 52.33 53.17 54.08 56.10 57.33 60.26 60.70 64.92
55.17 54.95 54.44 52.84 52.98 54.23 54.30 53.99 53.68 52.89 52.57 52.63 51.91 51.98 50.23 43.15 42.77 50.69 53.14 54.53 55.12 53.70 49.53 49.61 48.70 48.37 45.14 47.69 49.70 48.07 50.01 52.42 53.37 54.27 54.17 54.38 52.09 52.23 52.67 55.70 56.41 57.94 60.06 61.48 63.71
55.05 54.50 53.92 52.83 52.42 53.42 53.72 53.93 51.87 52.66 52.86 52.24 51.94 51.68 47.18 38.52 49.62 51.64 51.20 52.11 52.62 51.54 49.53 49.00 48.61 50.26 47.47 47.63 47.53 50.06 50.40 50.78 52.81 52.88 53.44 52.09 51.85 52.31 53.25 56.16 55.61 55.91 57.53 60.15 62.15
54.82 54.26 53.75 52.95 51.60 52.79 53.42 53.87 52.72 51.38 52.61 52.65 52.26 50.31 44.85 42.33 50.89 51.88 51.18 50.56 51.34 51.08 47.72 49.37 50.49 48.46 48.56 46.52 50.71 49.77 46.60 49.59 51.03 51.82 51.12 53.41 49.13 49.00 53.48 55.03 54.29 55.18 56.69 57.83 58.55
54.46 54.00 53.43 53.08 51.83 51.83 53.11 53.27 53.30 51.15 51.76 52.36 52.08 49.42 41.43 49.98 52.69 50.15 50.85 49.53 50.69 49.55 49.76 50.36 51.12 48.94 48.80 49.81 48.53 46.25 46.60 42.08 48.42 50.72 50.92 50.77 44.51 51.28 53.66 54.15 53.39 54.52 55.60 57.06 57.49
53.80 53.67 53.17 52.73 51.72 51.67 52.38 53.20 53.03 51.74 51.55 52.14 49.71 46.23 39.48 50.77 46.36 49.04 50.99 46.58 47.78 47.91 49.47 50.67 49.24 46.20 48.52 44.10 41.63 43.48 38.58 40.98 44.13 50.47 49.27 48.01 45.37 51.05 53.45 53.11 52.22 53.33 54.80 55.78 56.61
53.42 52.91 52.52 51.90 51.60 51.48 52.09 52.56 52.08 51.39 51.32 50.70 49.01 41.99 43.74 41.77 46.12 47.11 50.52 48.71 45.60 43.97 44.55 44.54 43.43 39.82 43.60 41.59 34.03 37.81 39.43 41.87 41.89 46.52 47.82 46.29 46.61 49.61 51.33 52.27 52.05 53.35 53.90 55.15 55.67
52.98 52.49 52.16 51.38 51.52 52.11 51.11 49.93 44.98 43.25 45.74 41.10 40.98 40.33 42.04 46.27 48.18 46.23 48.36 45.78 45.07 40.09 37.89 40.38 36.25 34.65 40.97 43.20 42.88 42.29 40.99 40.29 43.88 47.56 45.83 45.31 45.60 48.61 50.95 51.15 51.05 52.05 53.15 54.56 55.44
52.27 52.09 51.48 51.48 51.97 51.33 50.91 45.11 44.42 45.93 38.76 43.15 43.19 42.57 44.41 45.83 39.48 43.90 47.89 40.49 39.80 34.62 40.31 37.75 34.71 40.53 44.05 44.11 42.77 42.26 40.27 39.61 43.51 46.34 45.60 44.99 44.41 47.76 49.81 50.13 51.32 51.87 52.59 53.92 55.33
51.82 51.57 51.28 51.30 50.33 49.63 47.92 45.26 49.52 48.10 39.90 40.25 42.75 41.87 42.42 44.19 39.33 39.75 44.26 40.89 37.74 34.29 36.32 36.30 37.98 42.80 42.58 41.76 41.11 41.27 39.90 40.52 40.54 43.89 45.83 44.42 42.38 45.12 48.74 50.49 51.10 52.47 53.78 54.49 54.82
51.40 51.02 51.14 50.35 46.90 49.20 45.66 48.47 50.58 49.40 35.03 35.31 38.17 40.99 43.12 43.26 37.93 43.29 44.43 41.20 38.43 34.05 36.80 38.32 40.79 40.80 40.80 39.88 41.88 37.96 43.90 43.16 42.13 40.43 35.47 43.96 35.00 42.77 46.14 47.03 48.67 50.72 51.90 53.06 54.89
50.91 50.60 51.11 50.15 48.87 45.56 47.73 50.35 50.16 46.54 25.66 36.57 38.64 47.28 43.89 39.30 39.76 38.71 45.08 42.37 36.35 36.20 37.96 36.37 37.71 38.42 38.35 40.27 42.96 39.84 44.27 42.94 42.67 40.75 39.59 40.02 36.73 41.03 45.46 44.06 46.69 49.40 51.39 52.83 53.91
50.56 50.95 50.48 48.87 50.53 49.41 50.80 50.22 47.82 32.25 24.10 32.93 39.16 37.24 37.24 39.32 39.21 41.08 41.87 43.88 43.83 39.60 40.96 39.44 43.13 40.98 41.79 43.84 43.98 44.34 42.36 41.65 41.44 39.49 32.03 37.99 37.66 38.36 42.40 43.91 46.26 49.22 50.82 52.23 53.50
50.79 50.36 50.27 51.43 45.44 50.88 51.07 45.84 32.24 29.67 36.53 32.85 33.36 36.63 35.74 35.30 36.90 37.81 37.67 37.93 35.41 32.08 32.58 36.90 37.47 40.90 43.79 40.46 43.66 42.44 38.61 31.31 29.50 30.00 30.05 39.14 37.00 39.46 44.83 46.32 46.74 47.43 50.06 51.84 53.46
51.01 50.93 49.53 50.73 51.12 50.82 48.05 37.98 29.85 34.48 34.84 38.37 35.70 35.69 33.45 36.74 35.94 37.26 36.37 35.77 39.73 37.69 35.13 32.72 29.64 38.87 43.57 41.38 39.11 39.92 39.26 32.87 24.94 27.05 30.93 37.87 33.07 39.22 46.24 47.32 47.20 47.88 49.29 50.70 52.76
50.49 51.38 50.34 49.45 50.91 50.04 41.26 33.50 33.02 35.33 38.78 36.13 35.67 33.16 33.33 35.43 36.58 36.64 36.32 36.37 38.86 40.63 34.48 33.24 32.14 39.95 42.47 44.14 43.34 39.57 36.81 39.87 34.50 35.30 32.98 35.66 39.17 43.76 44.82 45.31 46.46 46.65 47.18 48.53 49.52
49.65 48.22 47.52 49.99 49.97 46.72 38.30 33.45 36.12 39.03 40.67 40.25 34.02 37.08 32.55 35.01 34.87 35.36 36.20 39.93 38.59 40.97 43.28 38.88 32.11 38.43 41.75 43.91 43.58 41.36 43.41 33.88 36.15 26.88 25.63 32.17 34.54 37.29 40.88 42.20 44.44 44.94 45.40 46.54 48.93
48.79 42.70 46.91 49.69 49.89 41.83 35.34 37.32 38.79 41.19 41.86 38.08 37.39 35.73 37.15 36.29 36.73 35.88 36.89 39.41 41.12 40.34 42.19 41.09 38.28 35.09 40.45 37.55 38.20 38.83 37.16 38.68 38.28 34.71 29.45 29.22 33.33 43.42 42.24 43.84 44.49 45.87 46.62 46.60 47.35
47.25 38.63 46.48 49.00 38.93 38.26 39.52 39.90 41.36 41.25 42.55 41.19 41.54 40.67 39.09 39.43 38.01 37.30 36.34 39.46 43.22 42.42 37.99 41.08 38.68 32.80 35.21 41.75 43.36 42.42 40.02 39.79 33.56 31.19 33.90 32.63 34.40 44.68 44.48 45.38 46.17 46.66 47.69 48.21 48.36
44.25 40.75 44.42 45.81 36.01 38.86 41.07 40.57 42.10 41.12 41.20 40.45 39.55 40.99 41.45 39.33 36.26 38.64 39.05 42.53 44.33 41.97 39.44 41.39 36.79 30.23 32.40 38.01 41.01 38.60 40.72 40.85 40.23 37.15 34.42 30.74 34.29 43.98 44.54 44.25 46.38 46.34 47.42 48.55 48.56
44.31 36.77 40.91 41.12 43.14 39.91 39.29 38.96 38.68 42.77 41.43 41.63 40.76 41.59 40.19 38.50 40.54 37.97 38.46 41.47 44.50 43.38 43.57 43.04 38.42 35.29 31.57 34.42 39.04 35.17 38.07 40.14 37.87 33.73 33.78 34.57 36.84 40.62 42.23 43.55 45.47 46.42 47.98 48.34 49.03
42.40 41.10 42.34 36.34 39.41 40.80 40.78 40.31 38.52 37.66 42.06 42.48 40.40 40.32 39.55 36.45 37.58 37.49 39.80 40.18 42.50 43.00 42.33 41.70 35.69 35.11 35.96 36.18 37.13 36.50 37.12 38.03 35.41 36.53 33.53 36.56 37.41 41.22 43.54 44.64 45.95 47.35 46.95 46.93 48.63
39.33 38.60 39.09 39.82 39.69 40.37 38.02 39.10 38.67 39.13 40.13 39.16 39.02 39.78 40.50 38.12 38.26 37.33 39.74 40.43 39.67 42.24 41.57 42.20 36.21 35.74 33.43 37.17 36.25 33.89 36.77 37.50 38.06 38.51 38.09 38.25 37.65 44.29 45.99 46.80 46.30 46.22 46.45 46.57 47.07
41.20 41.05 41.53 36.41 38.90 39.06 38.82 39.13 39.02 40.47 41.27 42.26 41.32 40.68 39.47 39.38 41.10 42.00 43.20 42.96 42.77 41.18 40.19 39.35 37.57 34.18 31.48 34.07 34.28 30.43 35.37 37.14 38.21 39.86 39.34 35.16 40.28 44.69 43.94 44.56 45.32 45.86 46.63 47.00 48.16

GFSSW_sfc_wetblb_084.txt.gz
Wetbulb
56.67 55.86 54.78 55.22 56.24 56.15 54.84 54.70 56.01 55.30 55.25 54.98 54.93 54.64 54.81 54.63 54.26 51.51 47.06 51.97 53.62 58.37 57.41 54.59 54.08 54.31 55.14 53.03 55.97 56.44 45.96 43.32 45.52 46.47 48.19 51.78 50.04 53.54 55.18 54.34 56.37 59.35 60.06 64.61 67.97
56.34 56.44 55.43 54.29 55.07 55.65 54.67 53.95 55.20 54.75 54.75 54.51 54.37 54.17 53.70 53.56 49.58 47.17 54.02 55.96 55.17 56.95 52.60 50.54 49.35 52.17 49.36 50.09 52.80 49.78 45.45 45.28 50.54 51.45 49.56 50.78 50.46 51.79 51.11 53.32 54.36 57.28 63.66 66.38 67.74
55.79 56.34 55.67 54.13 53.77 55.08 55.04 54.35 54.67 54.26 53.81 54.04 53.71 53.58 53.55 52.60 44.88 45.27 55.10 55.94 56.17 56.00 53.56 52.08 51.68 50.75 47.27 49.38 50.15 49.54 44.47 49.06 49.55 52.13 52.57 51.22 51.42 52.80 50.79 50.36 52.14 52.09 59.77 62.89 66.07
55.16 55.89 55.27 54.52 53.28 53.79 54.93 54.63 53.80 54.11 53.43 53.41 53.16 52.86 53.18 50.05 33.93 48.53 52.98 54.84 55.81 54.80 52.09 49.70 49.24 46.40 45.28 44.27 49.28 45.64 48.42 49.85 50.39 52.16 52.19 50.41 52.53 50.26 51.49 51.59 55.10 56.63 60.64 62.80 65.00
54.77 55.57 54.85 54.43 53.11 52.86 54.29 54.53 53.85 53.56 53.59 53.37 52.94 52.78 49.47 43.23 42.31 50.29 52.61 53.18 53.68 52.46 49.08 47.84 46.06 46.21 43.38 44.73 46.92 46.21 48.72 50.54 51.36 52.28 51.90 52.51 50.22 50.05 50.62 53.45 55.14 57.44 61.48 61.95 64.11
54.48 55.31 54.25 54.25 53.24 52.30 53.49 53.92 54.35 52.88 53.16 53.32 52.36 51.81 46.33 37.85 49.52 51.23 50.74 51.44 51.54 50.69 48.56 48.61 47.06 48.74 46.23 45.33 44.89 48.69 48.68 50.01 51.06 49.41 51.30 50.65 50.74 50.82 51.51 53.33 53.81 55.32 57.99 61.37 62.76
54.52 54.55 54.15 53.90 53.34 52.02 52.60 53.86 53.95 53.40 52.24 53.42 53.73 50.75 44.05 42.08 50.27 51.12 51.09 50.76 50.52 50.49 46.90 49.20 49.92 45.76 46.74 44.71 48.52 48.60 44.85 47.85 49.01 49.01 49.41 52.08 47.69 47.54 52.06 53.02 52.32 52.76 54.87 58.52 61.50
53.75 54.02 53.80 53.03 52.85 51.99 51.85 53.14 53.43 53.52 51.96 52.58 53.19 48.81 40.37 49.98 51.07 49.25 50.58 49.70 50.10 49.71 48.32 50.88 50.53 46.08 45.56 48.19 46.98 44.57 44.56 39.71 47.24 48.69 49.95 49.68 41.59 49.14 51.89 50.62 50.45 51.14 53.34 55.07 55.38
53.33 53.72 53.23 52.60 52.08 51.75 51.53 52.70 53.47 53.13 51.83 52.19 48.69 46.24 39.03 50.56 46.25 48.17 49.77 46.25 47.49 47.98 48.29 49.78 47.57 43.78 45.16 40.98 39.78 41.98 36.53 38.93 42.68 48.98 48.18 47.36 41.95 49.79 51.36 50.84 49.43 48.71 50.17 54.01 54.24
53.15 53.22 52.55 51.97 51.72 51.59 52.21 52.26 52.14 51.01 50.81 50.23 48.01 40.71 43.83 41.51 45.77 46.99 49.80 48.34 45.23 44.29 43.91 42.65 41.75 37.08 40.83 39.03 32.00 35.24 36.90 38.83 39.26 45.13 46.97 44.52 43.36 47.51 49.01 48.86 48.06 49.09 50.32 51.01 53.27
52.83 52.52 52.24 51.29 51.60 51.87 51.19 48.97 44.24 42.69 45.25 40.99 40.60 40.01 42.15 45.83 47.83 45.81 47.85 45.64 44.64 41.11 35.70 39.27 34.52 33.22 38.57 41.01 41.39 40.98 38.78 38.20 41.98 46.44 44.81 43.76 43.87 45.64 48.44 47.96 47.15 48.08 49.96 50.65 52.00
52.53 52.25 51.60 51.56 51.75 51.42 49.71 44.53 44.01 45.27 38.61 43.36 43.27 42.69 44.39 45.32 39.42 43.57 47.60 40.42 39.31 33.98 35.87 37.09 33.61 39.46 43.05 43.08 41.57 40.99 38.36 38.08 42.53 46.32 44.91 43.16 42.12 45.96 48.39 47.92 48.91 49.58 50.26 51.32 51.92
51.97 51.64 51.07 51.40 50.45 49.11 47.31 45.74 49.77 48.27 38.54 40.54 42.87 41.71 42.12 43.89 38.86 39.67 43.33 41.13 37.49 34.20 36.91 35.36 37.37 41.15 41.40 40.08 38.73 39.37 37.21 37.98 39.31 42.94 43.35 41.21 38.69 41.75 45.09 46.66 48.44 49.46 50.18 51.71 52.38
51.20 50.88 50.74 50.49 46.73 48.58 45.12 48.89 50.59 49.85 34.21 35.21 38.38 41.43 43.43 43.07 37.65 43.64 44.86 41.29 37.87 35.37 37.23 37.25 40.11 39.22 40.07 39.01 41.30 36.56 42.66 42.11 41.04 37.79 32.75 40.46 27.89 38.56 42.49 43.74 46.08 46.36 46.94 48.50 51.50
50.69 50.19 50.99 50.59 47.72 45.10 47.46 50.27 50.34 45.88 22.31 36.78 38.57 46.60 44.41 39.59 38.93 40.11 44.87 42.84 35.83 36.06 37.64 35.49 37.93 38.44 38.39 39.98 42.85 38.97 43.77 42.42 41.20 37.76 37.05 35.31 30.39 34.56 42.05 40.86 43.75 45.65 46.14 47.98 49.54
50.42 50.93 50.30 48.20 49.75 49.06 50.78 50.63 47.21 32.02 21.41 32.17 38.75 37.42 37.42 39.56 39.57 41.17 41.84 43.66 43.33 38.90 40.13 38.70 42.71 40.68 40.19 43.41 43.26 43.74 40.98 40.36 38.71 36.20 25.67 34.61 33.07 32.10 36.64 39.81 41.82 44.84 46.60 48.00 49.21
50.66 50.84 49.85 50.82 45.40 51.10 50.90 45.62 31.85 27.30 36.56 32.21 33.02 36.98 36.72 35.79 36.92 38.60 37.52 36.99 35.13 31.02 31.95 36.15 37.07 40.66 42.84 39.66 42.10 40.49 36.07 26.54 24.27 21.92 23.83 35.11 31.91 34.39 39.98 42.12 42.86 41.70 43.14 46.16 48.44
50.95 51.00 49.56 50.60 51.15 51.14 47.84 37.62 28.25 33.77 34.33 37.15 35.91 36.27 33.86 36.95 36.16 37.98 37.34 35.19 39.00 37.65 32.91 30.91 28.46 37.68 42.65 40.37 37.26 37.21 35.84 27.77 20.83 21.37 24.81 34.36 27.31 34.08 41.28 43.52 43.92 44.35 43.59 45.13 45.69
51.10 50.04 49.28 49.07 51.03 49.92 41.28 31.63 31.50 34.90 37.95 35.78 35.32 33.26 33.02 35.77 36.41 36.84 36.23 35.25 38.46 39.56 33.92 32.04 30.96 40.27 42.58 43.59 41.86 36.33 31.47 36.07 31.10 29.90 25.69 30.03 34.00 37.34 41.74 40.40 42.11 42.40 43.17 42.71 43.08
48.53 47.69 46.76 50.22 50.62 46.72 38.20 32.90 34.35 40.29 41.41 39.23 33.71 35.83 31.00 33.49 33.93 34.61 35.76 39.04 38.36 40.91 41.12 36.99 29.56 37.56 41.69 43.44 42.83 40.07 40.19 30.18 30.71 20.45 19.87 26.59 29.22 31.31 35.64 37.61 39.71 39.19 39.03 41.33 42.49
47.03 42.72 46.33 50.10 49.46 41.48 34.32 36.58 39.10 41.91 42.55 38.80 37.25 35.94 35.16 34.40 35.27 34.22 35.93 38.77 40.56 39.55 41.03 39.15 35.07 34.80 39.91 36.24 35.63 36.77 34.68 35.89 34.50 29.69 23.04 21.04 26.36 37.64 37.85 39.98 39.81 40.82 42.16 40.84 40.51
46.04 37.78 46.90 49.31 39.03 38.59 37.20 40.19 40.94 40.92 42.67 41.35 41.11 40.16 37.74 37.56 35.79 36.36 35.71 38.52 42.27 41.61 37.06 39.01 36.35 29.75 33.54 40.29 42.06 40.37 37.66 35.97 27.26 26.37 27.13 26.37 27.64 40.70 40.13 41.12 42.29 42.50 44.41 43.22 43.65
42.27 40.43 45.51 46.42 35.06 37.00 40.36 40.23 42.25 40.82 40.95 40.55 39.87 41.05 40.90 38.36 35.00 37.56 37.97 42.90 43.56 41.06 38.52 38.80 35.18 29.57 29.41 34.91 38.51 36.13 38.76 39.30 36.99 32.71 26.19 22.73 27.37 40.28 38.86 39.36 42.25 41.13 41.82 44.53 44.90
42.94 35.09 39.63 41.33 41.10 38.48 38.43 38.53 38.36 43.04 41.84 42.14 40.85 41.39 39.52 37.52 39.16 36.88 37.46 41.49 43.46 42.76 44.03 41.47 36.12 31.39 25.34 29.08 34.84 31.91 35.82 37.47 34.20 27.50 29.24 29.62 31.79 34.24 37.17 39.11 41.29 42.29 40.69 42.20 44.54
41.50 38.80 39.79 33.93 37.25 39.12 40.79 40.04 38.13 36.90 41.83 42.28 39.87 39.97 38.64 34.78 36.44 36.46 38.71 39.44 42.13 43.06 40.06 38.89 31.47 29.38 32.86 34.72 34.74 34.19 35.05 35.78 31.01 33.74 27.12 32.69 34.20 38.03 38.39 39.06 40.58 42.00 43.25 42.66 42.37
37.70 37.52 38.77 38.90 40.20 39.00 38.81 38.27 37.99 38.93 39.95 38.68 38.60 40.15 39.48 36.43 36.60 35.47 38.24 37.64 36.88 39.85 37.43 39.04 30.89 31.85 28.69 35.77 34.46 31.50 34.63 34.96 35.70 36.50 36.21 36.25 35.23 41.77 42.97 43.19 42.58 42.36 43.18 43.04 43.39
40.15 40.53 38.39 37.95 37.33 37.22 37.41 38.63 39.32 40.95 41.33 42.46 41.17 39.51 38.38 38.91 39.60 39.57 40.34 41.02 39.71 38.53 36.87 36.56 33.45 28.70 24.86 31.67 31.47 26.47 33.10 34.69 35.44 36.86 36.68 32.70 37.91 41.50 40.09 41.46 41.19 41.23 43.09 43.08 44.09

GFSSW_sfc_wetblb_087.txt.gz
Wetbulb
56.43 56.78 56.53 55.24 54.53 55.01 56.23 55.23 54.95 55.27 55.05 55.20 55.06 55.10 54.84 54.88 54.51 51.29 46.41 50.54 53.00 57.67 57.73 53.62 52.35 51.86 52.57 51.00 54.67 55.86 45.87 40.98 42.25 43.15 46.43 49.08 49.01 52.20 53.59 54.75 58.45 59.12 61.03 65.53 67.86
55.78 56.12 56.63 55.90 54.22 54.11 55.53 55.12 54.27 54.74 54.32 54.51 54.44 54.55 54.49 54.03 49.02 45.53 52.50 57.12 56.31 56.06 51.86 49.58 47.50 49.07 47.00 48.47 51.60 49.22 45.18 43.61 48.05 48.97 48.00 48.88 49.38 50.57 50.86 52.68 56.68 60.80 63.54 66.64 67.03
55.26 55.48 56.37 55.57 54.59 53.53 54.34 55.67 54.70 54.65 53.99 53.73 53.62 53.40 53.52 52.85 44.45 43.50 54.75 55.08 55.26 56.45 52.72 51.23 49.95 48.05 45.16 47.28 48.17 48.97 44.22 48.40 49.21 51.26 51.90 50.79 49.32 51.49 49.73 48.42 50.35 56.36 62.78 64.49 64.52
55.00 55.50 55.89 55.16 54.64 53.50 53.32 55.01 55.06 54.09 53.82 53.82 53.70 53.27 53.08 48.74 33.42 47.24 53.07 53.79 53.16 54.34 51.10 48.84 46.73 44.43 42.61 42.47 47.28 44.63 48.34 48.84 49.94 51.98 51.61 50.33 51.06 49.04 49.85 50.40 54.05 58.72 63.06 63.75 64.10
54.85 54.95 55.67 54.42 54.38 53.56 52.75 54.46 54.53 54.33 53.34 53.81 52.97 52.91 48.99 42.51 41.59 50.40 53.48 52.83 52.43 51.45 48.05 46.52 43.69 43.59 41.49 43.15 45.43 45.71 47.13 49.09 51.13 52.48 51.60 52.39 50.04 49.11 48.53 52.51 57.11 61.67 62.90 63.86 63.76
54.71 54.93 54.97 54.71 53.91 53.70 52.32 53.24 54.35 54.67 52.95 53.27 53.44 53.16 44.96 37.09 46.93 49.24 49.60 51.20 50.26 49.85 47.63 47.13 44.40 46.43 44.24 43.97 43.19 45.89 48.14 48.41 50.43 50.44 50.36 49.05 50.20 50.66 49.64 51.08 54.56 60.27 60.90 62.39 63.70
54.66 54.15 54.40 54.14 53.58 53.43 52.10 52.57 53.75 54.09 53.40 52.34 53.26 50.42 44.13 41.03 47.47 48.11 51.05 50.24 50.37 49.23 46.07 48.47 47.83 45.71 45.44 43.74 46.47 46.48 44.03 46.90 48.63 49.07 48.19 51.42 46.79 47.35 50.50 50.85 50.77 56.00 59.15 60.70 63.35
54.28 53.83 54.22 53.38 52.78 52.64 51.92 51.76 53.15 53.62 53.59 52.15 52.69 47.50 38.80 49.51 47.38 47.69 48.66 48.79 49.71 49.81 46.95 48.22 50.29 45.50 44.03 46.07 44.96 42.31 43.49 38.88 46.53 47.60 48.28 45.41 38.43 49.51 51.45 48.72 48.68 50.65 55.05 57.37 60.43
53.70 53.54 53.94 52.79 52.31 51.40 51.28 52.62 53.30 53.46 53.07 51.54 46.89 44.22 37.72 50.59 45.82 46.30 47.85 45.77 47.22 48.10 47.81 47.48 47.54 42.89 44.31 40.37 38.30 41.01 35.65 37.52 42.37 47.82 47.10 44.77 39.68 48.85 50.82 48.63 47.59 47.92 50.70 51.83 52.57
53.48 53.10 53.02 52.02 51.40 51.59 51.80 52.70 52.52 51.28 49.97 49.38 47.93 39.42 42.77 40.99 45.05 46.21 48.71 48.24 44.74 44.82 42.67 41.25 41.08 36.08 38.89 38.65 31.44 34.76 36.16 38.18 39.36 44.09 45.06 43.74 43.91 47.55 49.52 47.43 47.15 47.58 47.54 50.56 51.33
52.92 52.90 52.22 51.57 51.33 52.08 50.25 46.91 41.54 40.19 43.34 39.23 39.66 39.52 41.56 45.08 47.00 45.85 47.19 45.00 44.15 41.28 34.89 37.37 35.20 32.27 35.07 37.48 38.81 39.51 38.44 37.67 41.25 45.98 44.23 43.31 43.54 45.31 47.49 46.31 45.02 45.54 46.37 47.66 50.69
52.46 52.45 51.69 51.16 51.39 51.20 49.14 43.21 42.77 42.09 37.70 43.01 43.00 42.68 44.30 45.21 39.40 43.32 46.45 40.21 39.46 33.82 35.18 36.17 33.13 38.13 40.65 39.89 40.08 40.29 37.98 37.30 42.35 44.90 42.58 41.81 41.56 44.92 45.81 45.97 46.44 46.50 47.00 47.83 48.75
51.87 51.58 50.67 51.02 50.57 47.24 44.96 45.42 47.07 45.88 37.36 40.41 42.89 41.50 42.06 43.85 38.48 39.72 42.90 41.45 36.61 34.40 34.98 32.80 37.31 41.92 41.13 39.52 38.75 38.29 36.56 37.02 38.42 42.74 43.94 41.79 39.19 42.11 44.63 46.35 47.10 47.38 47.49 48.36 48.98
51.18 50.32 50.21 50.88 46.05 47.13 45.06 47.17 47.63 46.01 32.09 34.98 38.55 41.21 43.12 42.10 36.66 43.59 44.95 41.31 37.28 34.91 37.25 35.53 40.35 40.52 38.98 37.79 38.49 33.92 40.75 40.44 40.46 38.10 32.81 40.90 30.66 37.73 41.43 41.93 44.23 45.01 44.85 46.54 47.55
50.75 49.85 50.25 51.21 46.90 44.87 47.08 47.61 46.40 41.93 10.63 36.89 38.05 46.48 44.41 39.37 38.96 38.37 44.93 42.69 36.85 37.14 38.09 35.66 37.72 38.15 38.24 39.32 41.31 37.32 42.37 40.65 41.06 37.51 36.46 35.64 31.18 34.52 39.29 38.26 41.19 42.41 43.90 45.28 46.50
50.12 50.37 50.83 47.32 47.75 48.13 47.84 46.59 43.62 25.56 17.18 30.20 38.32 37.41 37.47 39.54 39.64 41.08 42.00 43.45 42.68 39.56 39.37 37.79 42.55 40.15 39.80 42.40 42.04 43.32 40.91 40.30 38.81 34.15 24.63 33.03 30.30 29.58 33.92 40.05 40.11 41.78 43.66 45.27 46.76
50.25 51.07 49.38 50.16 44.73 47.48 47.48 42.17 29.03 17.52 34.28 31.26 30.03 37.33 36.46 35.69 37.54 38.38 37.10 37.02 34.74 25.87 29.48 34.75 35.64 39.23 42.33 37.60 41.26 41.22 33.15 27.07 25.38 22.37 23.43 32.39 30.58 32.19 36.83 39.63 41.26 41.84 42.66 43.88 45.29
51.26 51.14 49.87 49.51 47.56 47.45 43.80 31.89 18.02 31.51 31.01 36.33 35.17 35.09 31.74 36.13 36.02 37.54 36.24 34.34 36.59 35.42 32.97 25.91 22.61 37.11 40.74 39.05 36.64 37.56 34.84 24.35 20.24 20.40 23.24 32.22 26.28 32.56 39.07 40.99 41.91 42.79 43.29 43.31 41.66
51.57 46.67 46.17 46.95 48.21 45.94 39.42 21.42 23.66 29.04 35.50 33.96 34.51 30.05 30.12 34.49 34.84 34.27 32.96 33.71 36.82 37.34 28.50 26.96 30.65 40.12 41.95 42.10 40.26 34.83 27.74 34.81 28.05 26.44 22.07 27.07 31.47 36.41 38.05 38.49 38.39 39.18 41.46 40.26 41.60
44.93 46.24 44.67 48.59 47.29 42.84 34.98 29.98 29.67 38.13 39.75 37.96 30.93 33.17 27.65 30.81 31.02 31.24 32.65 36.80 36.90 39.13 38.83 33.77 30.54 37.36 40.61 41.57 41.69 38.60 38.89 28.05 25.13 20.12 19.67 24.57 26.70 28.94 33.13 35.22 37.19 36.85 37.10 39.70 41.04
44.96 42.15 45.97 49.32 46.42 40.47 30.24 30.12 36.84 40.88 41.36 38.23 34.37 33.18 30.96 31.02 32.17 30.91 33.24 36.76 38.51 37.79 38.26 36.72 32.21 33.29 38.93 34.58 35.21 35.95 33.69 34.51 32.44 28.33 23.06 20.23 24.50 33.51 35.77 37.60 37.88 38.55 39.96 40.04 41.00
43.76 36.19 46.08 47.91 37.03 36.23 30.99 37.21 41.51 39.30 40.72 39.54 38.34 37.73 34.03 34.00 31.69 32.33 33.64 36.49 39.92 39.35 34.79 36.68 32.91 30.34 31.08 38.57 40.15 38.42 37.02 35.12 24.82 25.34 24.46 24.07 25.36 37.41 38.00 38.99 40.84 40.86 42.23 42.03 41.95
40.68 39.34 45.00 45.56 30.14 30.79 36.73 39.07 40.88 39.39 38.96 39.09 38.16 38.87 39.63 36.32 33.74 34.83 36.17 41.38 41.43 39.13 35.55 36.73 29.70 22.02 28.33 32.48 36.34 34.57 36.88 37.56 34.47 30.35 24.54 22.23 25.41 37.83 37.13 39.32 40.48 40.52 41.36 42.64 42.72
38.52 33.66 39.40 40.96 38.63 32.90 34.61 35.99 36.85 40.86 40.18 40.37 38.35 38.69 36.56 34.59 36.60 34.76 35.40 41.00 41.74 40.69 44.07 40.46 33.24 26.95 20.82 26.66 32.75 30.14 34.82 36.62 32.79 24.42 27.93 27.39 30.07 32.97 35.65 37.42 38.84 40.46 39.04 41.31 42.79
38.80 34.05 36.68 32.54 32.75 34.52 36.16 37.81 36.16 35.39 39.44 39.86 37.15 37.62 35.66 32.02 33.86 35.50 37.64 37.77 40.51 42.92 39.03 37.19 28.16 26.39 31.30 33.58 32.82 32.58 33.50 34.20 28.30 32.11 26.79 32.29 32.53 37.15 36.29 35.23 37.48 40.49 41.39 41.53 42.51
34.84 35.47 36.03 34.12 36.76 34.65 36.42 35.25 36.06 37.48 37.41 36.33 35.86 37.93 36.79 33.57 33.23 34.33 36.04 35.10 35.18 37.18 35.75 36.81 28.19 28.87 26.46 33.52 32.53 30.22 32.92 33.24 33.66 34.24 33.91 34.05 33.41 39.60 39.74 41.79 40.24 40.30 41.09 41.07 41.94
37.66 37.15 35.89 35.13 34.06 32.94 33.44 36.02 39.06 38.86 39.39 40.66 38.72 36.95 36.09 37.02 36.95 36.43 36.37 37.74 38.42 37.30 34.98 34.64 31.02 26.20 22.16 29.95 29.54 25.27 30.60 32.96 33.19 34.69 34.84 31.04 37.02 38.07 38.43 40.04 39.57 39.57 40.51 40.58 41.67

GFSSW_sfc_wetblb_090.txt.gz
Wetbulb
55.81 56.16 56.00 56.97 55.73 54.49 54.69 56.33 55.19 54.85 54.79 54.47 54.85 54.89 54.84 54.36 53.79 50.47 46.05 49.78 51.23 57.94 58.06 51.56 51.54 50.48 50.67 48.98 52.96 54.79 45.47 40.47 41.66 40.55 44.22 47.79 48.54 51.62 54.11 56.15 58.82 59.45 61.58 64.54 66.19
55.78 55.47 55.96 56.67 55.59 54.85 53.93 54.93 55.72 54.54 54.69 53.95 54.02 54.03 53.96 54.00 48.72 45.00 51.38 56.24 56.66 56.39 50.99 48.14 46.10 48.77 45.11 47.64 48.96 48.43 44.23 43.16 47.05 47.63 46.53 48.28 48.20 49.37 51.55 53.28 56.69 60.71 64.85 66.43 66.41
55.18 55.25 55.74 56.41 55.46 54.93 53.65 53.79 55.54 54.57 54.02 53.86 54.00 53.52 53.26 51.92 43.78 42.53 54.57 54.31 54.41 54.49 52.32 50.27 48.49 47.30 43.46 46.72 46.51 46.38 44.26 48.53 49.38 50.82 51.37 49.28 48.91 50.55 49.19 47.26 51.79 58.93 62.20 64.18 64.19
55.28 55.02 55.02 56.12 54.85 54.67 53.39 53.17 55.02 55.01 53.73 53.77 53.58 53.50 53.25 47.93 31.02 46.35 54.04 53.95 55.06 53.05 48.55 47.22 45.07 42.47 40.63 41.52 46.22 43.57 47.35 49.24 50.42 51.47 51.11 48.51 50.17 47.89 48.96 49.23 55.71 61.84 63.90 63.78 63.30
55.32 54.81 55.21 55.14 55.12 54.28 53.53 52.73 54.26 54.67 53.76 53.01 53.51 53.14 48.22 41.35 40.92 49.79 53.33 52.12 52.50 50.90 46.44 44.17 41.96 41.87 38.67 41.09 43.97 43.37 45.91 47.51 50.26 52.15 51.25 51.83 48.68 47.59 48.31 52.12 58.13 62.25 62.93 62.44 62.58
55.27 54.36 54.19 54.60 54.58 54.04 53.47 52.46 53.03 54.39 54.22 52.35 53.42 53.49 44.13 35.46 46.54 48.18 48.53 50.27 49.65 48.43 45.99 45.82 43.53 44.60 41.35 41.65 41.53 44.65 46.57 46.98 49.92 50.23 50.19 48.75 48.69 48.98 48.34 52.82 58.75 60.65 60.61 61.95 62.89
55.12 54.22 53.78 54.26 53.69 53.09 53.24 52.34 52.29 53.63 53.97 53.08 52.34 50.18 43.28 40.15 46.59 46.97 51.72 49.63 49.96 48.37 44.98 45.41 47.20 43.72 44.40 41.46 45.19 44.81 43.56 45.07 47.81 49.33 48.66 49.65 46.15 46.51 49.27 49.85 57.04 58.10 58.25 60.36 62.45
54.78 53.59 53.64 54.06 53.09 52.48 51.81 51.65 52.54 53.10 53.69 53.41 51.99 46.69 38.58 48.82 46.13 46.45 47.68 48.52 49.54 49.49 47.00 47.94 47.13 43.49 43.94 45.44 42.89 41.65 42.94 39.47 46.35 47.80 48.81 47.52 40.86 46.72 50.22 46.34 50.16 55.24 55.92 57.76 60.18
54.70 53.00 53.11 52.94 52.02 51.73 51.33 51.53 52.83 53.14 52.89 52.30 45.80 43.15 36.81 50.06 45.73 45.65 45.26 45.62 47.04 47.83 47.93 47.79 46.05 42.18 43.02 39.49 36.35 39.75 34.85 37.59 42.93 47.40 46.53 44.79 40.01 46.55 49.56 48.49 45.96 49.76 53.28 55.38 57.32
53.89 52.92 52.82 51.73 51.75 51.43 51.76 52.27 52.13 51.40 49.58 49.47 47.25 37.70 41.00 40.26 44.02 45.23 46.86 47.24 44.73 44.18 42.93 41.94 41.64 36.75 36.66 36.37 29.09 34.36 35.06 37.26 38.68 43.95 44.61 42.58 42.31 46.14 48.48 47.64 48.08 46.59 49.22 49.63 54.01
53.39 52.52 52.16 50.97 50.63 51.33 49.54 45.54 40.90 39.32 42.51 38.41 38.61 38.92 41.03 44.17 46.45 45.02 46.36 44.32 43.87 41.39 34.36 38.23 34.59 31.82 34.63 38.34 37.34 38.23 36.78 36.07 41.11 44.50 42.18 41.87 42.15 43.80 47.75 47.66 46.17 45.42 45.30 48.10 49.92
53.03 52.34 50.89 50.55 50.59 50.90 47.62 41.96 41.34 41.16 36.49 42.48 41.83 41.89 43.53 44.45 39.16 42.93 46.16 39.82 39.09 34.08 36.25 36.01 31.81 36.82 37.65 39.08 38.56 37.94 36.72 37.05 42.29 44.23 42.76 41.66 41.22 45.45 47.50 47.99 48.26 45.79 45.52 46.78 48.01
52.76 51.88 50.84 49.79 50.44 46.70 43.67 44.63 46.13 44.62 35.95 40.12 42.24 40.99 41.68 43.32 38.54 39.13 42.91 41.08 36.25 34.00 34.60 34.31 36.89 40.65 38.95 38.66 38.06 38.24 36.94 37.39 38.20 42.48 42.98 39.79 37.87 40.79 44.60 47.46 48.27 46.64 46.60 47.41 47.79
52.29 51.25 50.49 50.50 45.85 46.92 43.71 46.94 46.58 45.16 24.15 33.07 37.63 40.49 42.97 42.33 36.00 43.18 44.47 40.98 36.79 33.46 36.62 37.16 40.64 39.25 38.30 37.60 38.60 34.60 40.97 40.55 39.98 38.15 33.91 41.42 30.11 36.72 41.13 41.58 44.34 46.48 44.06 45.51 46.99
51.77 51.23 50.48 50.68 45.78 43.90 45.51 46.70 45.56 39.36 9.02 33.47 36.80 45.84 43.93 38.97 38.52 37.57 44.41 42.42 37.35 37.66 38.25 34.45 38.96 38.44 37.21 38.41 40.48 37.00 42.64 41.17 40.43 37.23 35.42 36.82 32.15 35.23 37.43 38.93 40.99 42.89 45.62 45.03 45.99
51.42 50.76 50.84 47.81 47.19 47.05 46.67 45.94 42.47 20.94 11.14 26.28 37.34 37.02 37.10 39.18 39.46 40.87 41.68 43.48 42.72 38.72 38.54 37.97 41.47 40.45 38.85 41.69 41.82 42.87 40.51 39.86 39.47 36.08 29.18 33.69 32.87 32.12 32.98 38.20 41.68 40.86 43.29 44.98 45.55
51.25 51.11 49.04 48.52 44.13 46.40 46.65 40.57 22.11 15.60 31.72 27.53 28.98 36.28 36.00 35.17 37.39 37.94 37.24 36.41 34.74 27.12 29.26 34.98 35.96 39.93 41.76 38.67 41.52 40.42 35.18 28.64 27.16 26.10 24.61 33.71 32.57 34.31 38.10 39.14 41.48 41.53 42.27 43.52 44.26
51.12 51.29 49.49 49.30 46.99 46.97 42.54 28.80 16.20 28.95 28.64 35.19 34.09 33.97 30.39 34.86 34.18 36.65 35.62 32.90 37.69 34.51 31.88 25.77 27.26 36.90 40.75 38.54 36.66 37.07 34.93 27.18 22.08 21.01 22.87 31.45 27.67 32.10 37.76 40.49 41.25 41.48 41.12 41.91 42.98
51.87 46.10 45.51 46.46 47.32 45.16 37.02 18.68 22.23 27.98 33.77 32.57 33.05 28.66 29.33 33.32 33.68 33.17 31.72 32.86 35.58 36.43 28.43 25.05 27.95 39.89 40.75 40.74 40.10 36.38 29.29 34.02 26.65 24.86 21.93 26.61 31.40 36.48 37.87 38.02 38.88 40.10 40.55 40.29 41.69
44.98 44.33 43.57 47.57 46.51 41.33 30.24 27.43 28.16 36.43 37.85 36.15 29.14 31.34 25.91 29.29 29.71 30.48 31.14 35.80 35.90 38.31 37.07 32.17 25.45 35.39 39.11 39.59 39.86 36.42 37.07 27.24 25.27 18.86 19.15 23.41 25.92 28.02 31.45 35.25 36.13 35.62 36.07 36.89 38.15
44.35 39.82 44.49 47.90 45.23 37.47 23.84 27.27 35.16 39.74 39.97 36.31 33.39 31.63 29.74 29.43 30.52 29.71 32.20 36.11 38.12 37.39 38.18 35.09 30.68 31.33 36.18 32.76 33.08 34.79 31.88 32.28 29.85 26.19 20.89 19.96 24.11 31.71 34.26 35.53 36.40 37.00 38.40 38.91 39.93
42.23 35.48 45.82 46.26 35.52 34.54 29.41 35.68 40.73 38.46 39.73 38.42 37.14 36.18 31.58 32.44 30.26 31.50 32.55 35.18 39.05 38.12 33.70 35.62 31.51 26.39 29.91 37.00 39.23 37.21 34.28 32.88 23.01 22.95 22.04 22.32 24.70 35.82 35.39 37.33 38.79 38.60 40.12 40.63 41.80
38.40 39.35 45.05 44.02 30.60 29.46 34.33 37.77 39.54 37.76 37.52 37.87 36.99 37.85 36.73 34.03 31.51 33.90 35.03 40.16 40.68 38.41 34.60 35.76 28.13 26.63 26.50 31.62 35.25 33.42 35.46 36.66 32.72 28.25 21.99 20.21 24.47 36.69 35.64 36.51 39.06 38.62 39.38 41.39 41.87
38.05 34.00 39.58 40.94 39.22 32.23 33.39 34.89 35.89 39.94 38.97 39.41 37.02 37.63 35.51 33.33 35.87 33.43 34.19 39.38 40.52 39.29 43.71 39.61 31.26 25.68 20.48 25.80 30.85 29.20 33.18 35.18 31.71 22.66 27.28 26.51 30.17 33.96 35.53 36.31 36.81 36.65 38.73 39.24 41.29
37.78 31.99 37.04 32.09 32.16 33.74 34.61 36.67 35.17 34.73 38.22 38.58 35.71 36.23 34.34 31.16 32.74 34.44 36.25 36.81 39.47 41.62 37.58 36.00 27.22 24.95 30.34 32.52 31.85 31.49 32.43 32.83 27.90 31.28 26.67 31.00 31.44 35.32 36.70 36.45 38.37 40.25 40.04 40.16 40.49
35.50 33.73 34.31 31.82 34.44 33.20 34.75 34.70 34.59 36.04 36.33 34.99 34.85 36.70 35.54 32.55 32.38 32.39 35.34 33.75 34.43 36.04 34.36 35.35 26.64 27.07 25.82 32.00 31.45 29.63 31.78 32.07 32.62 32.70 32.66 33.31 32.79 40.15 39.21 38.27 39.37 39.65 40.05 39.97 39.79
37.09 36.22 35.74 34.12 32.74 32.22 32.87 35.00 36.84 37.97 38.41 39.30 37.61 35.65 34.42 35.26 36.25 35.91 35.51 36.75 38.55 36.01 33.93 33.39 29.45 25.47 21.90 29.01 28.13 24.56 29.70 30.87 31.48 32.83 33.48 30.00 35.69 38.29 37.55 39.19 39.11 38.36 39.31 39.79 40.43

GFSSW_sfc_wetblb_093.txt.gz
Wetbulb
56.43 56.19 55.59 56.16 56.70 55.59 54.61 54.35 55.37 54.62 54.74 54.07 54.02 54.31 54.43 54.44 53.88 48.98 44.88 48.79 50.90 57.09 56.28 50.76 50.08 49.18 49.47 47.24 49.74 52.07 42.97 39.86 40.12 39.50 42.86 47.82 48.24 50.96 55.62 55.76 58.22 59.75 60.14 62.64 65.75
56.05 55.40 55.45 55.95 56.64 55.48 54.84 54.18 54.39 55.42 54.32 53.83 53.70 53.85 53.59 53.54 47.95 44.49 50.96 55.32 57.11 55.94 49.82 46.75 44.93 46.61 43.85 44.68 46.67 45.08 40.76 42.63 45.02 46.12 44.43 48.73 47.72 49.47 53.14 55.14 56.76 60.31 63.47 64.90 65.75
56.28 55.62 55.10 55.16 56.32 55.19 54.85 53.72 53.72 55.25 54.02 53.33 53.61 53.67 53.35 51.06 43.17 41.80 54.68 53.53 53.65 54.54 51.41 49.64 47.07 45.36 41.93 43.77 44.00 44.37 40.51 45.12 47.91 50.56 50.40 50.07 47.53 49.85 50.29 48.99 55.88 59.37 61.32 63.52 63.72
56.61 55.55 54.93 55.09 55.51 55.31 54.50 53.59 53.07 54.97 54.47 52.91 53.46 53.00 52.96 46.93 29.21 44.64 54.53 53.61 53.98 50.77 47.44 45.61 44.77 40.68 39.20 39.09 43.23 41.03 44.83 45.94 50.12 51.40 50.61 48.38 49.67 46.81 47.96 49.53 53.99 63.17 63.58 63.00 62.46
56.62 55.71 55.12 54.51 54.84 54.72 53.58 53.55 53.09 53.80 54.60 52.60 53.12 53.72 47.19 40.10 40.02 48.42 53.44 51.21 51.66 49.93 45.32 42.92 41.02 40.19 36.93 38.54 40.58 41.45 43.96 45.35 48.04 49.67 50.83 50.97 48.10 46.89 47.55 52.74 59.35 62.94 63.41 62.97 62.64
56.85 55.76 54.83 53.88 54.38 53.66 53.54 53.05 52.40 53.08 54.03 52.44 52.21 52.87 43.37 32.99 45.33 46.34 47.21 48.78 48.96 47.15 45.46 44.72 41.83 42.80 39.41 39.70 39.20 42.14 44.01 45.68 46.79 48.28 50.19 48.72 47.33 47.21 47.85 54.25 58.16 60.16 60.55 61.79 62.29
56.72 55.73 54.44 53.84 54.13 52.98 52.23 52.66 51.91 52.28 53.45 53.46 51.78 49.79 42.27 38.71 45.88 46.18 50.07 48.33 48.81 47.78 43.84 45.70 46.41 42.41 40.92 39.16 42.83 42.52 40.63 44.28 43.87 47.35 48.70 49.89 45.59 45.66 48.17 51.33 55.95 56.85 58.82 59.77 61.53
56.59 55.42 53.73 53.53 52.87 52.20 51.97 51.20 51.42 52.71 53.41 53.44 51.89 45.86 38.71 47.74 45.51 45.68 48.36 47.81 49.07 48.92 47.15 47.45 47.40 43.90 41.49 42.95 41.90 38.60 40.16 36.34 44.04 45.99 48.00 47.56 41.86 45.59 47.90 46.09 50.78 52.38 55.05 58.82 60.39
56.54 55.26 53.49 53.19 51.91 50.72 51.06 50.88 52.19 52.79 52.47 52.24 45.02 41.94 36.58 49.10 44.61 44.90 44.13 44.76 46.63 47.26 47.73 47.85 45.27 41.06 40.66 35.73 35.51 36.27 32.63 35.52 40.04 45.10 44.05 45.41 42.61 45.51 47.84 46.90 46.29 46.23 51.60 55.90 57.87
56.31 54.59 53.30 52.51 51.45 50.45 51.21 51.74 51.79 50.80 49.24 49.30 46.61 37.44 39.90 39.29 43.22 44.48 45.59 46.08 43.62 43.22 42.68 41.77 40.66 35.03 34.30 34.98 27.59 30.91 34.19 36.84 37.61 43.82 43.19 42.44 42.09 45.39 47.05 46.35 44.98 45.97 47.50 50.44 55.37
55.74 53.82 52.78 52.02 50.30 50.16 48.94 44.65 40.53 38.29 41.75 37.49 37.78 38.25 40.25 43.31 45.43 43.97 45.52 43.33 43.52 40.34 35.41 37.99 34.17 30.49 33.22 37.15 35.46 35.88 34.85 35.37 38.90 43.75 40.85 39.59 41.21 44.05 46.47 46.29 43.90 45.12 44.99 47.16 51.03
55.12 53.40 52.64 51.45 50.40 51.54 46.85 41.20 40.42 40.48 35.21 42.05 41.07 40.65 42.75 43.46 38.41 42.13 45.76 39.11 38.62 33.47 36.51 35.12 31.20 35.59 37.75 36.76 36.52 36.84 34.88 34.66 40.57 43.42 41.33 40.27 39.10 44.81 46.96 45.66 44.89 45.18 45.36 45.72 47.89
54.50 53.13 52.04 50.83 50.96 46.63 43.02 43.53 45.17 43.17 34.99 39.18 41.41 39.86 40.35 42.67 38.11 38.96 42.93 40.14 36.56 34.04 34.90 32.72 35.64 38.53 35.98 35.28 36.40 35.60 35.92 37.30 37.49 41.54 41.49 39.64 36.71 39.24 44.62 46.79 45.94 46.81 46.34 46.31 47.19
53.96 52.76 51.55 51.16 45.55 44.82 42.09 47.05 45.48 43.61 20.66 30.14 36.46 39.35 42.45 42.24 34.63 42.83 44.26 40.16 35.84 33.85 36.40 37.23 39.91 36.76 34.88 37.02 37.46 33.37 40.39 40.97 39.27 37.63 34.34 40.59 29.49 37.48 40.79 42.44 43.80 43.87 44.38 44.75 46.04
53.56 52.25 51.28 50.81 44.83 42.66 45.13 45.74 44.29 37.50 7.23 31.57 35.92 44.89 42.79 38.94 38.93 38.79 44.86 42.09 36.27 37.85 37.85 35.13 37.92 35.68 35.87 38.06 39.33 36.33 42.04 39.96 39.02 36.25 35.55 36.79 31.83 35.21 37.74 38.58 40.28 41.38 42.87 44.51 45.21
52.80 51.85 51.28 48.38 45.67 46.06 45.96 45.27 40.76 18.38 8.67 24.89 36.12 35.86 36.52 38.79 39.08 41.22 41.74 43.75 42.51 39.13 39.76 38.16 41.77 40.34 38.88 41.03 41.69 42.71 39.70 38.62 38.06 35.70 27.80 34.87 32.97 32.88 32.24 37.08 40.44 42.94 41.69 44.18 45.53
52.22 51.37 49.37 48.09 42.30 45.86 45.70 39.34 22.06 10.91 30.09 25.78 28.40 34.82 34.38 34.03 36.51 37.53 37.10 36.84 34.95 31.43 30.15 35.91 36.34 40.23 40.97 37.88 41.61 39.89 35.43 28.96 26.51 26.74 26.39 34.34 32.04 33.40 38.00 39.94 38.68 41.74 41.54 42.78 43.98
51.53 51.54 49.29 48.40 46.04 46.36 40.78 28.47 11.36 26.67 25.70 33.90 33.08 33.43 29.20 33.68 33.40 35.56 33.54 31.59 36.65 33.91 28.39 28.91 23.33 37.27 40.11 37.92 36.56 35.14 33.49 27.37 22.40 21.52 22.71 32.73 29.13 33.47 37.55 39.10 39.57 41.37 40.95 41.11 41.73
51.56 46.71 45.16 45.66 46.85 44.46 34.10 17.95 19.37 26.45 31.76 31.37 32.19 28.16 28.32 32.39 32.64 32.60 31.27 31.86 34.69 36.27 29.67 26.16 30.10 39.19 40.94 40.81 39.61 34.53 32.00 33.43 26.57 25.26 22.17 26.91 29.51 36.34 38.48 38.61 38.56 39.22 40.02 39.82 40.58
46.00 44.09 43.42 46.75 45.60 40.45 29.03 27.14 26.63 34.18 35.89 34.35 27.90 29.62 24.83 27.87 28.55 29.39 30.50 34.76 35.08 36.86 35.35 30.55 27.31 34.85 39.48 41.23 41.03 35.46 36.88 28.45 28.12 23.08 18.12 22.12 25.09 27.55 33.15 36.20 37.84 37.68 37.13 37.58 38.44
44.88 38.63 44.55 46.70 44.59 36.93 24.52 26.59 33.11 38.82 38.26 34.17 31.32 29.99 29.34 28.42 29.39 28.87 31.18 35.26 36.82 36.32 36.34 33.23 29.05 29.79 35.33 32.97 33.60 35.30 31.68 30.76 29.37 25.01 20.48 20.09 24.49 31.16 33.81 35.54 34.76 35.61 38.41 38.17 38.70
41.96 34.28 45.24 45.27 35.14 33.01 28.57 33.06 39.68 37.38 38.84 37.17 36.65 34.79 30.15 30.77 29.93 30.37 30.74 33.59 38.75 37.41 32.57 34.00 30.48 23.14 28.60 35.87 37.87 35.88 33.20 30.01 22.54 22.62 20.58 21.57 24.66 33.63 33.65 34.58 37.08 37.71 40.44 40.54 41.05
39.32 38.70 45.21 44.65 26.11 27.80 32.07 36.41 37.75 36.66 36.41 36.62 35.78 37.05 35.47 32.44 30.38 32.70 33.55 39.48 39.84 37.43 33.25 34.07 27.20 18.24 23.60 29.04 34.06 32.52 33.82 33.49 30.25 27.37 21.36 19.41 24.03 35.39 35.96 36.87 37.34 36.68 38.53 40.16 40.78
38.19 33.94 39.45 41.16 38.97 31.23 32.75 33.92 34.70 39.07 37.58 38.44 35.94 36.33 34.21 32.85 34.30 32.32 32.89 38.34 39.83 38.57 42.78 38.40 29.21 25.22 19.80 24.93 29.66 28.75 31.20 33.58 30.03 20.61 25.04 24.83 28.19 32.63 33.54 34.29 35.71 36.61 38.14 39.66 39.67
36.84 32.38 35.98 31.87 34.18 34.68 33.21 35.55 34.28 33.99 37.20 37.44 34.73 35.11 33.74 30.39 31.42 32.35 34.66 35.24 38.67 40.72 36.70 34.67 26.81 24.27 29.37 30.90 30.93 30.80 31.00 31.79 25.46 30.24 26.54 30.99 30.42 34.08 36.00 36.15 36.62 38.02 39.35 39.36 39.47
35.71 33.17 33.31 31.28 33.84 32.48 32.08 33.73 34.14 34.81 35.19 33.94 33.83 35.33 34.30 32.14 32.51 31.93 34.51 32.12 32.09 35.68 33.55 34.14 25.68 26.05 25.94 30.71 29.80 29.01 30.35 30.70 31.16 31.57 31.77 31.72 31.58 39.84 40.17 37.48 37.80 38.70 39.46 39.33 39.81
36.12 36.90 35.59 33.62 30.94 31.20 31.26 33.91 35.72 37.19 37.90 37.85 36.46 34.40 33.43 34.42 35.15 35.47 34.76 36.27 35.48 34.45 32.78 32.15 28.37 25.05 21.57 27.45 27.45 22.98 27.84 28.93 30.02 31.33 31.82 28.23 33.24 35.54 36.23 37.90 38.32 39.00 39.40 39.44 39.62

GFSSW_sfc_wetblb_096.txt.gz
Wetbulb
57.56 57.22 56.92 56.18 56.63 56.64 55.49 54.74 54.62 54.80 54.86 54.15 53.61 53.95 54.12 53.98 53.81 47.40 43.64 47.63 50.98 56.97 55.72 49.42 48.78 47.99 48.47 45.93 48.34 49.64 41.39 38.90 40.94 40.69 41.76 46.47 46.50 49.73 54.95 54.22 55.48 56.08 56.27 60.59 64.77
57.57 57.23 56.65 56.05 56.08 56.52 55.47 54.83 54.18 54.18 55.09 53.66 53.41 53.85 53.44 53.22 47.05 43.93 50.21 54.87 56.14 55.84 48.69 45.23 43.27 45.19 42.51 42.90 44.59 44.50 39.02 39.27 45.36 46.57 43.12 47.38 47.72 48.43 53.34 55.18 56.20 58.46 62.86 62.04 62.76
58.34 57.60 56.78 55.95 55.61 56.31 55.20 54.58 53.58 53.63 55.18 53.54 53.30 53.26 53.13 50.39 41.66 41.09 54.03 54.58 53.44 53.95 50.28 48.62 45.86 43.83 39.64 42.61 41.78 41.96 38.61 42.47 46.40 48.31 49.72 49.42 48.35 49.51 50.01 51.51 55.80 55.34 59.75 60.39 60.25
58.59 58.06 56.85 56.20 55.45 55.59 54.84 54.04 53.42 53.05 54.58 53.98 52.94 53.17 53.22 45.92 27.63 43.23 53.96 53.50 54.12 50.28 46.97 44.53 43.23 38.53 37.46 37.02 41.67 38.20 42.63 44.01 45.58 49.10 49.33 48.22 50.22 46.37 48.39 50.00 53.71 59.55 61.94 61.30 61.24
58.97 58.23 56.80 55.94 54.75 54.99 54.73 53.37 52.90 52.98 53.80 54.13 52.36 53.39 46.27 39.07 39.45 47.67 53.13 51.10 51.04 49.03 44.38 42.00 39.88 38.66 35.36 36.78 39.41 38.07 40.62 44.57 46.33 49.12 48.62 50.89 49.06 46.98 47.27 50.75 59.79 62.26 62.21 60.29 59.65
59.16 57.80 56.71 55.44 54.39 54.52 52.92 53.41 52.73 52.13 53.09 53.50 51.81 52.19 42.55 32.22 42.98 45.62 46.22 47.62 48.29 46.16 43.66 43.47 40.44 41.20 38.53 36.91 37.66 39.29 40.55 42.03 46.02 46.46 47.18 48.46 47.95 47.51 48.23 49.88 58.12 60.73 61.15 60.81 60.75
59.30 57.61 56.50 54.92 54.36 54.45 52.71 52.08 51.76 51.28 52.44 53.44 52.02 49.10 41.51 36.36 44.60 45.85 48.07 47.30 47.37 46.39 42.94 44.65 44.56 41.42 39.45 36.91 40.92 40.85 37.76 39.77 42.51 45.85 44.19 45.06 45.31 44.97 47.24 49.86 54.67 58.82 60.11 60.78 61.30
59.42 57.31 56.41 54.36 54.11 53.13 52.08 51.36 50.67 51.83 52.58 53.37 52.12 44.96 35.49 46.46 45.07 44.78 47.89 46.91 47.90 47.99 46.68 47.30 47.05 43.39 40.87 41.35 39.32 35.95 38.18 33.73 40.69 44.76 45.57 41.11 38.64 43.82 48.17 48.80 48.86 53.60 57.35 59.46 61.63
59.69 57.03 56.07 53.81 53.84 52.02 50.62 51.01 51.14 52.35 52.07 52.11 44.16 40.83 35.79 48.17 43.26 44.98 44.64 43.30 45.57 46.70 46.92 47.55 44.57 40.05 39.66 35.66 32.42 34.57 27.27 32.27 39.07 44.24 42.91 39.13 38.61 44.80 47.36 47.10 46.02 46.17 52.12 56.64 58.80
59.77 56.97 55.06 53.63 52.80 51.77 50.93 51.32 51.55 50.39 49.15 48.64 46.04 36.83 38.95 38.27 42.30 43.37 44.75 45.09 42.50 42.57 42.10 41.61 38.07 35.99 35.55 33.17 24.34 27.39 29.58 32.67 34.81 42.08 41.71 38.62 34.63 40.39 46.07 46.64 45.30 44.66 46.71 50.80 55.58
58.68 56.27 54.43 53.51 52.10 50.88 49.09 44.73 40.04 38.25 41.02 36.70 36.67 37.26 39.54 42.66 44.48 42.98 44.66 42.36 42.13 39.53 34.47 37.64 31.86 29.79 31.19 34.31 33.41 32.69 32.77 33.70 38.27 43.10 39.81 38.46 37.69 40.62 45.78 44.88 45.03 45.06 45.06 47.19 50.27
57.55 55.23 53.75 53.26 51.35 51.20 46.53 40.36 40.43 39.87 34.15 41.23 40.98 39.84 41.90 42.55 37.94 42.21 45.65 37.62 37.62 32.41 35.29 34.29 30.37 35.22 36.19 37.33 35.57 33.94 33.60 35.60 40.20 41.68 39.94 39.07 37.98 41.02 43.19 44.96 45.46 45.86 45.32 45.68 47.10
56.56 54.57 53.31 52.34 51.12 47.77 43.04 43.08 44.65 42.24 34.13 38.02 40.40 39.18 39.61 41.77 38.26 39.03 41.93 39.30 35.27 33.60 31.76 31.05 34.30 37.81 36.31 35.54 35.31 33.59 34.32 36.56 36.59 39.64 41.79 39.32 36.39 38.60 41.73 44.78 45.25 46.07 47.01 45.82 46.50
55.69 53.91 52.75 51.53 45.91 43.83 41.66 45.96 45.04 41.45 19.64 28.13 35.43 38.77 41.57 41.82 34.50 43.26 44.38 39.92 35.67 33.25 35.61 35.43 38.21 35.44 34.19 35.63 37.19 31.97 38.10 39.12 37.96 36.62 32.71 39.87 28.59 36.70 39.86 41.09 42.51 42.95 43.82 45.55 46.13
55.29 53.26 52.39 51.27 44.63 41.81 44.51 44.89 43.13 36.52 6.85 29.88 34.88 43.94 42.05 38.13 38.02 38.75 45.10 41.99 35.60 37.11 36.72 34.76 35.95 35.05 34.23 37.45 37.90 34.85 40.82 39.16 38.14 36.18 35.78 35.96 32.31 34.36 38.44 37.67 39.15 40.59 42.23 44.35 45.65
55.02 52.82 51.96 48.81 46.25 45.10 45.25 44.10 39.75 18.83 7.72 23.51 35.11 34.80 35.52 38.43 38.94 41.33 41.65 43.70 42.69 38.75 40.01 36.75 36.61 37.30 38.83 40.37 40.65 41.13 37.92 36.90 36.83 34.03 26.65 34.14 31.87 32.21 33.95 37.35 39.19 40.49 41.32 42.99 44.82
54.08 52.28 50.54 49.05 42.59 45.25 44.60 37.98 21.96 10.11 28.10 25.28 28.30 33.83 32.93 32.90 35.31 37.52 37.22 37.22 33.50 28.43 29.46 35.34 37.25 40.94 40.66 36.91 40.89 38.39 31.80 24.57 23.94 25.33 23.88 33.79 30.92 33.97 37.91 39.38 38.30 39.55 40.23 41.09 42.85
52.64 51.85 49.51 48.04 46.33 45.03 39.46 29.47 12.52 25.08 24.43 32.98 32.10 32.59 28.83 32.70 32.43 34.03 33.45 31.93 34.85 31.02 25.12 20.88 26.11 37.08 40.62 38.59 36.89 35.73 32.47 24.23 21.58 22.49 23.66 32.98 28.46 31.96 37.20 38.32 38.50 38.64 39.20 40.00 40.74
51.88 47.90 46.22 45.57 46.12 42.48 34.12 19.35 18.80 24.68 30.48 30.78 31.05 27.47 27.61 31.20 31.35 31.20 30.44 30.68 33.37 34.74 25.56 25.74 30.96 38.93 40.08 41.07 39.33 35.86 27.49 31.85 25.06 24.90 22.72 27.81 30.49 35.21 37.36 37.48 37.72 37.38 37.68 37.89 39.01
46.29 44.98 44.08 46.85 44.73 38.96 29.89 26.64 26.35 32.46 34.46 32.84 26.94 28.12 24.13 27.64 28.75 28.71 29.36 33.68 34.36 36.04 33.74 29.60 29.96 35.62 39.36 40.86 39.72 35.91 35.08 26.31 25.21 18.97 17.51 21.78 23.91 27.28 31.89 35.77 37.23 37.14 36.81 37.52 38.25
45.32 40.01 45.09 46.50 43.47 36.51 26.75 25.61 32.05 37.33 36.90 32.92 29.77 28.04 27.64 26.96 27.81 27.53 29.49 34.27 36.30 35.89 34.62 31.54 29.01 30.98 33.76 33.19 32.96 32.80 31.20 29.96 28.45 24.63 21.10 19.38 23.96 30.94 32.20 34.11 35.97 35.78 37.44 37.71 38.22
42.33 33.72 45.24 45.83 35.27 35.22 30.49 31.58 38.60 36.50 38.04 36.16 35.11 32.36 29.26 29.33 29.08 28.80 29.16 32.16 37.80 36.58 32.06 33.63 29.20 26.84 28.38 35.46 36.94 35.27 32.36 28.89 23.24 22.95 20.19 21.09 24.18 32.36 32.56 33.98 36.78 37.03 38.48 38.16 39.14
38.68 38.45 45.50 44.31 28.95 30.28 30.96 35.13 36.77 35.84 35.79 35.69 34.67 35.74 33.79 30.68 29.20 31.45 32.45 38.52 38.92 36.61 32.11 32.78 26.50 17.96 23.25 28.66 32.93 31.08 32.81 31.27 28.67 25.96 20.51 18.10 23.72 34.80 33.05 35.44 36.39 36.75 38.62 39.14 39.33
39.43 33.45 38.38 41.25 37.69 29.20 30.86 32.60 33.66 37.84 36.67 37.42 34.83 35.17 33.25 31.57 33.51 30.83 31.64 37.74 39.19 38.02 41.83 37.35 28.11 24.52 19.09 24.58 28.85 28.61 31.21 31.86 28.28 20.34 23.95 23.32 25.51 31.03 33.94 34.71 35.76 36.49 37.04 38.26 39.13
37.90 32.79 35.02 31.57 34.09 33.49 31.42 34.39 33.25 33.26 36.49 36.63 33.93 33.87 32.88 28.59 29.09 30.95 33.33 34.87 37.98 39.73 35.54 33.36 26.20 23.53 28.53 30.12 30.37 30.81 31.03 30.06 24.43 27.55 24.34 27.45 28.48 32.61 34.69 35.47 36.64 36.95 37.87 38.89 40.06
34.64 32.31 33.29 30.84 34.13 34.75 34.53 32.36 33.18 34.09 34.66 33.08 32.69 33.73 33.20 31.21 30.92 30.80 33.19 30.55 30.66 34.91 31.88 33.12 25.17 25.29 25.38 29.14 29.82 28.53 29.44 29.38 30.15 30.71 30.39 29.83 30.38 36.25 36.66 36.73 37.33 37.62 38.33 38.64 38.85
35.31 36.36 34.45 35.06 30.44 33.76 30.39 33.34 34.89 36.52 36.74 36.53 35.49 33.57 32.80 33.53 34.75 35.07 33.12 35.41 34.46 32.14 31.57 30.72 27.69 24.44 21.00 26.52 26.08 22.26 27.26 27.95 29.16 29.77 30.49 27.30 31.29 33.70 33.79 35.44 36.18 37.33 38.44 38.24 38.64

GFSSW_sfc_wetblb_099.txt.gz
Wetbulb
60.23 58.70 57.94 57.72 56.77 56.82 57.38 56.18 55.33 54.71 55.04 54.87 53.85 53.47 53.83 53.80 53.20 48.09 44.00 48.16 51.79 56.29 55.51 50.30 49.55 48.21 49.68 47.85 49.73 50.53 40.71 37.57 40.10 41.47 43.18 48.13 46.90 51.27 55.34 54.36 55.47 55.83 55.71 57.54 62.56
60.99 59.52 58.12 57.62 56.65 56.45 56.98 56.08 55.37 54.45 54.46 54.91 53.46 53.43 53.37 53.26 47.31 44.06 49.96 54.63 55.96 56.31 48.91 45.35 42.90 45.84 43.50 45.02 46.44 43.43 38.54 38.68 44.82 46.48 44.96 47.33 47.69 49.13 52.15 53.52 54.61 54.27 61.57 62.29 60.97
62.33 60.21 58.58 57.92 56.86 56.30 56.10 55.92 55.01 54.16 53.93 55.03 53.21 52.92 52.60 50.56 41.75 40.85 53.80 55.71 53.68 53.77 50.33 48.79 46.62 44.47 40.89 43.31 43.33 42.87 37.53 42.38 43.70 47.03 49.30 48.94 49.43 50.84 49.33 50.35 55.06 53.24 58.78 59.41 59.56
61.40 61.13 59.12 57.92 57.11 55.72 55.82 55.29 54.08 54.08 53.57 54.86 53.10 52.88 52.53 46.68 29.42 44.24 54.32 53.41 55.27 50.33 47.49 44.82 43.83 39.82 38.20 37.28 42.27 37.90 41.47 42.66 44.18 46.76 48.06 47.11 50.36 49.06 48.83 51.84 53.02 57.51 60.53 59.00 59.07
60.40 61.52 59.50 57.88 56.97 54.76 55.09 54.80 53.90 53.60 52.91 54.49 52.51 52.98 46.99 40.03 39.48 47.78 53.22 51.43 50.65 48.76 44.83 42.37 40.15 39.16 34.54 37.04 39.07 38.30 40.18 42.55 45.42 46.08 47.30 49.53 48.38 48.61 49.53 52.24 53.15 58.71 59.34 58.25 58.06
58.97 60.54 59.14 57.43 56.23 54.79 54.94 52.97 53.47 53.30 52.22 53.67 51.99 51.74 43.41 31.95 42.66 46.71 46.42 47.79 48.66 46.79 44.22 43.77 40.94 41.48 37.73 36.83 36.86 39.09 39.21 40.22 42.50 45.04 46.98 45.88 47.12 47.37 50.20 50.82 50.78 56.98 58.99 58.19 58.11
57.16 59.38 59.04 57.27 55.97 54.96 54.72 52.90 52.24 52.37 51.94 53.23 52.47 48.59 41.95 36.70 45.26 46.41 47.04 47.54 47.65 46.51 43.02 44.62 44.05 39.41 39.64 36.08 40.44 39.35 36.25 39.48 40.27 42.03 44.60 45.83 42.78 43.31 48.51 50.14 50.82 54.54 59.06 59.43 59.28
56.82 58.29 58.62 56.68 55.45 54.35 53.20 52.23 51.40 51.75 52.63 53.13 52.63 45.29 36.08 45.77 45.85 45.87 48.35 47.15 48.28 47.93 46.22 46.79 46.72 41.48 38.78 40.77 38.35 35.01 35.75 32.43 38.73 41.18 44.84 43.97 37.41 44.38 45.65 48.14 48.75 52.57 58.26 58.44 59.74
54.84 57.16 58.54 55.85 53.97 53.70 50.90 50.78 51.00 52.51 52.20 52.93 44.69 41.31 35.41 48.03 43.38 45.36 46.24 43.73 45.69 46.48 46.73 47.29 44.62 38.89 39.21 34.97 30.83 33.30 28.09 32.53 36.44 42.20 42.16 41.26 37.24 44.37 44.82 45.60 47.71 49.06 55.35 58.28 59.02
54.51 56.27 57.94 54.96 53.73 53.12 51.26 50.91 51.47 50.27 49.31 47.96 45.73 37.19 38.86 38.38 42.73 43.57 44.46 44.92 42.82 42.61 41.87 41.33 39.07 35.40 35.31 33.26 23.12 27.99 28.68 32.91 34.77 40.55 40.63 37.70 36.99 40.06 43.55 45.00 47.06 48.28 50.25 57.03 57.84
54.26 55.67 55.65 54.37 53.50 52.64 49.92 46.26 41.07 39.21 41.72 36.28 36.94 37.10 39.34 42.88 44.63 42.59 45.00 42.85 42.28 39.64 32.82 37.57 31.39 28.99 30.52 32.86 33.14 33.72 31.46 31.78 37.37 42.35 39.51 38.40 37.71 39.89 42.64 43.53 44.83 48.23 49.56 52.49 56.92
52.90 54.70 55.12 53.55 53.02 51.89 47.79 41.57 41.01 40.20 33.95 41.06 40.56 40.06 41.73 42.55 37.73 41.57 45.56 37.65 37.45 31.38 35.22 32.91 30.29 35.33 35.62 34.64 33.54 31.33 31.14 33.91 38.80 41.83 40.25 38.77 38.39 41.30 42.60 42.93 45.17 47.22 49.35 49.25 51.50
52.09 54.00 54.28 53.40 51.96 49.76 44.71 43.50 45.54 42.05 33.86 37.41 40.36 39.23 39.56 41.32 37.74 38.96 41.77 39.06 34.97 31.37 31.87 30.16 33.65 37.95 35.53 34.04 32.37 29.89 32.08 34.88 35.08 39.83 40.99 38.88 36.76 39.17 42.80 44.59 45.42 47.70 48.81 49.64 49.95
51.08 52.80 53.37 52.38 47.82 45.43 42.56 46.39 45.49 41.41 19.85 28.27 35.34 38.89 41.33 41.62 35.08 43.13 44.12 40.42 36.56 32.88 34.79 33.59 37.20 36.65 34.14 32.77 35.28 30.72 37.69 38.58 37.64 36.76 32.77 39.90 29.25 36.95 40.49 41.89 43.49 44.97 46.20 47.75 49.12
51.62 52.70 52.73 50.89 45.16 42.75 45.09 46.00 42.72 36.65 7.55 29.43 34.77 43.66 41.99 38.95 39.47 40.02 45.22 41.01 35.60 35.37 34.40 34.20 35.96 33.33 34.44 35.11 38.51 34.29 40.36 38.93 38.56 36.43 35.73 35.40 32.01 35.29 38.83 39.57 42.01 43.75 45.56 46.86 47.92
51.04 52.93 52.39 48.45 47.29 46.38 45.65 43.30 38.84 19.57 7.73 23.58 35.00 34.71 35.74 38.72 39.03 41.66 41.17 43.14 42.23 36.21 35.54 34.31 38.50 38.04 38.46 40.45 39.66 41.31 38.26 37.83 37.47 34.91 28.13 34.04 32.44 32.63 36.49 38.95 40.59 43.13 45.54 46.73 48.16
50.94 53.38 50.73 49.47 43.60 46.06 44.19 37.44 22.04 11.35 27.37 25.68 28.60 33.66 33.10 33.17 35.73 37.83 37.11 36.50 33.01 28.87 29.77 34.96 35.57 40.66 41.32 38.24 40.40 37.74 32.75 26.49 24.80 25.65 25.70 32.18 32.25 34.01 38.55 41.10 40.95 42.14 42.32 43.71 45.84
51.37 52.65 50.29 48.89 47.69 45.16 39.12 28.96 12.91 24.58 23.94 32.30 31.82 31.91 29.12 32.76 32.82 33.79 32.93 30.48 34.87 31.13 29.03 28.72 29.58 36.88 40.92 38.71 36.26 35.41 32.34 25.59 21.09 23.52 25.54 33.68 29.26 33.50 37.99 40.06 39.91 40.47 40.87 42.23 43.79
51.35 47.99 46.59 46.75 46.93 42.88 33.57 17.64 19.28 24.06 29.94 30.56 30.85 27.63 27.85 30.92 31.69 31.25 30.54 31.12 33.41 34.43 27.77 30.39 31.30 39.62 40.87 41.36 39.79 34.71 29.23 33.42 26.34 26.76 26.50 27.67 32.44 36.35 38.24 38.46 38.74 38.32 39.19 39.72 41.41
46.48 44.53 44.35 47.11 45.37 39.42 28.29 26.12 26.07 30.87 33.51 32.13 26.58 28.01 25.12 28.04 28.77 29.15 29.33 34.10 34.01 35.54 35.06 32.23 31.25 36.56 38.88 41.10 40.77 36.95 36.15 27.95 27.67 21.04 19.60 25.16 26.72 28.66 33.03 34.86 37.46 38.17 38.28 39.24 40.25
44.43 38.39 45.01 47.28 44.55 34.53 22.61 25.70 31.38 36.04 35.74 31.76 28.80 27.97 26.52 26.76 28.27 28.27 29.95 34.10 35.91 35.70 34.76 31.97 31.24 32.23 36.05 34.06 33.86 34.73 32.49 29.95 28.91 25.77 23.65 21.15 26.13 33.59 33.23 34.72 36.98 38.41 39.70 40.37 41.18
42.43 33.49 45.66 45.86 32.73 31.10 29.79 30.60 37.81 35.39 37.18 35.52 34.53 31.65 29.09 29.08 28.79 28.97 29.68 32.77 37.94 36.43 32.06 33.59 30.09 28.04 30.69 35.25 37.02 35.50 33.21 29.25 25.21 24.39 21.82 24.43 27.10 34.80 35.78 37.35 38.63 39.53 40.29 40.78 41.80
37.49 38.83 45.92 43.87 29.52 30.27 31.30 33.83 35.88 35.05 34.77 34.95 34.05 34.96 32.60 30.53 28.93 30.91 32.32 38.23 38.46 36.45 32.80 33.61 26.99 20.31 25.04 29.52 33.26 32.56 33.71 31.01 29.11 27.67 23.00 22.82 27.09 35.52 36.60 37.55 37.94 38.77 40.70 41.19 41.21
39.30 32.27 38.12 41.23 36.27 29.23 30.25 31.66 32.34 36.87 35.82 36.92 34.28 34.81 32.82 31.06 33.05 30.54 31.48 37.42 38.97 37.87 41.16 36.82 28.40 24.71 19.59 25.40 29.87 30.01 32.35 32.57 28.83 24.10 26.16 25.75 28.88 32.61 35.08 36.22 37.97 38.48 38.74 39.86 40.58
39.28 34.86 36.72 31.02 33.87 29.68 30.07 32.84 32.24 32.12 35.62 35.81 33.19 33.31 31.72 28.40 29.21 30.45 33.12 34.24 37.02 38.83 35.17 33.28 26.67 24.38 28.46 30.83 30.87 31.77 31.84 31.76 25.46 29.35 26.14 28.69 29.80 33.60 35.42 36.04 37.52 37.97 39.12 39.68 40.56
36.07 34.27 34.08 32.68 35.81 31.23 34.94 30.72 31.79 32.73 33.84 31.75 32.38 33.29 32.56 30.12 29.74 30.55 32.81 30.81 30.77 34.65 32.37 32.59 25.91 25.74 25.96 29.21 29.40 29.48 30.19 30.40 31.49 31.94 31.71 31.65 31.82 35.88 36.20 36.13 37.35 37.38 38.19 38.67 39.19
37.14 35.64 34.02 35.10 33.65 33.73 32.64 31.94 34.32 35.54 35.96 35.77 34.66 33.11 32.57 33.15 34.15 33.72 33.64 34.12 33.78 32.26 31.60 30.34 27.85 25.01 22.03 26.95 27.06 23.89 28.10 29.19 30.32 31.48 31.86 28.53 31.81 34.31 34.91 36.66 37.15 36.92 37.78 38.14 38.87

GFSSW_sfc_wetblb_102.txt.gz
Wetbulb
61.08 62.70 61.41 59.30 58.52 57.24 56.96 57.25 56.32 54.91 54.76 55.23 54.98 54.23 54.24 54.02 53.27 49.88 45.33 49.48 52.13 55.70 55.88 52.78 51.31 51.11 51.68 49.28 51.62 51.61 42.43 38.80 40.69 42.21 44.73 50.41 49.59 53.76 55.71 53.23 55.90 58.75 57.66 58.59 59.48
60.11 61.74 62.47 59.70 58.49 57.29 56.79 56.63 55.77 54.65 54.33 54.58 55.01 53.92 53.58 53.27 48.87 45.20 50.09 54.61 56.26 56.65 51.49 47.55 45.19 46.99 45.81 46.21 47.42 45.18 40.19 40.31 45.31 46.37 46.26 48.67 49.89 51.42 50.55 51.51 53.02 55.85 59.01 60.50 59.24
58.96 59.86 61.16 60.06 58.82 57.69 56.79 55.83 55.14 54.50 53.86 54.15 54.84 53.32 52.87 52.65 43.41 43.69 54.04 55.96 56.43 54.23 51.06 49.26 47.05 44.46 42.05 44.87 44.66 43.68 38.82 43.74 45.07 47.05 49.07 47.89 49.59 52.28 49.07 48.08 52.65 53.38 56.72 59.35 57.86
57.18 58.98 59.98 60.77 59.13 57.60 56.05 55.29 54.37 53.62 53.83 53.72 54.40 52.99 52.61 48.38 33.32 47.96 55.34 54.38 55.72 53.59 50.00 46.74 44.58 40.25 38.73 38.13 42.86 39.03 42.79 43.58 44.51 46.92 47.17 46.20 50.51 49.30 51.38 50.84 55.51 56.10 58.74 59.12 58.62
55.08 56.78 59.11 60.72 59.08 57.03 54.32 54.91 54.29 53.92 53.06 53.62 53.35 53.12 48.89 41.95 41.42 50.61 53.59 54.45 52.69 49.92 45.40 44.21 41.49 40.25 36.37 38.21 39.68 38.67 40.42 42.79 44.71 45.21 45.94 47.79 47.29 47.65 50.36 54.27 56.03 55.48 56.12 59.21 58.38
54.72 55.92 58.10 59.92 58.55 56.05 53.71 54.57 52.74 53.51 52.46 52.92 53.15 52.26 44.90 35.84 47.28 50.73 49.65 49.98 49.43 48.37 46.36 46.03 42.62 43.25 39.55 38.41 37.56 39.84 40.22 40.76 43.32 43.90 45.54 44.20 46.55 48.29 50.23 51.70 53.62 54.26 55.60 58.36 58.66
54.32 54.94 55.80 59.13 57.49 55.85 54.36 54.60 52.12 52.18 52.12 52.84 53.59 50.18 43.66 41.07 48.92 50.32 49.30 49.02 50.03 48.55 44.56 46.99 46.72 42.27 40.77 37.04 41.55 40.05 36.27 39.78 41.11 41.90 42.93 46.26 42.76 44.82 49.41 50.20 51.76 52.93 54.15 55.88 58.87
53.52 53.88 56.49 57.02 56.82 55.22 54.33 53.31 52.16 51.26 52.47 53.66 53.52 48.71 39.93 47.84 50.84 48.95 49.92 48.91 50.33 50.05 48.22 48.29 48.07 43.47 39.96 41.49 38.72 36.54 36.62 31.45 39.32 42.32 43.32 45.09 36.93 45.19 48.83 48.94 48.84 50.91 52.87 55.21 58.02
52.57 53.53 55.73 57.30 55.69 54.10 52.55 51.19 51.72 51.41 52.94 53.50 48.86 44.77 37.82 49.25 45.84 48.95 49.67 45.56 47.42 48.27 48.65 48.41 46.38 40.29 37.89 34.33 33.45 34.76 28.66 30.46 34.70 42.78 42.61 42.82 39.12 45.46 47.15 46.64 47.29 49.49 49.90 52.10 57.71
51.90 52.99 55.80 56.63 54.27 53.52 51.90 51.94 52.09 51.08 50.79 49.77 47.67 40.75 43.49 40.63 45.45 46.36 48.13 46.57 44.11 44.09 42.95 42.44 40.49 34.95 35.85 32.43 26.36 28.37 29.50 31.90 32.80 39.54 42.08 40.36 40.51 44.00 46.04 45.14 46.10 48.21 49.45 52.20 54.87
51.63 51.85 54.71 54.41 54.20 52.94 51.04 48.46 42.07 41.82 44.52 40.21 40.72 40.05 41.24 45.27 46.90 44.59 46.80 44.68 43.74 40.83 33.94 37.33 32.75 30.31 32.93 35.68 35.23 33.31 32.37 32.31 37.34 40.69 40.47 39.42 40.40 42.21 45.41 45.37 45.01 47.11 48.39 51.31 54.94
51.19 51.42 53.15 54.43 53.14 52.21 48.60 42.27 43.05 43.91 38.35 43.52 43.21 42.66 44.60 45.13 39.62 42.84 47.35 39.64 38.52 33.87 36.31 33.77 30.30 35.41 36.86 36.15 34.77 32.99 32.46 33.54 38.78 41.89 41.25 40.11 40.26 43.61 45.13 44.29 45.13 46.65 48.29 50.90 54.49
50.91 51.13 53.03 53.71 52.60 50.06 46.19 44.67 48.31 46.38 38.79 39.93 42.95 42.13 42.50 43.71 39.57 40.64 43.25 40.24 36.26 33.74 33.65 30.79 33.26 36.16 36.10 32.86 31.83 32.56 32.19 34.91 36.19 40.52 42.62 41.11 38.39 40.92 44.60 45.57 46.88 48.09 48.95 50.49 53.08
50.63 51.56 54.54 52.53 47.76 46.83 44.40 48.41 48.87 46.45 34.67 34.22 38.20 41.54 42.93 43.14 38.30 44.15 44.13 40.59 36.85 33.74 35.05 34.09 36.78 35.58 34.92 32.64 34.32 30.26 36.52 38.53 38.40 38.55 34.24 40.98 31.22 38.41 41.98 42.92 45.05 46.27 48.11 50.13 50.75
50.08 51.03 53.47 51.03 46.29 43.46 46.14 49.24 47.23 44.34 23.40 33.72 37.71 45.90 43.73 40.66 40.84 41.05 45.35 40.74 34.34 34.48 33.85 34.14 34.45 33.68 32.48 34.55 37.27 35.18 39.07 39.89 39.90 37.65 37.92 36.69 34.47 36.09 39.72 40.27 43.25 45.59 47.85 49.88 51.53
49.94 50.76 52.24 48.38 47.48 47.26 48.43 46.83 44.76 32.04 21.40 32.86 38.18 37.56 37.92 39.99 39.80 42.36 41.56 42.92 41.50 34.72 37.13 35.40 39.98 38.83 38.90 40.37 39.66 41.98 38.63 38.94 39.52 37.50 30.87 33.96 33.59 34.13 36.90 39.16 42.49 45.48 47.98 48.57 49.94
50.26 51.12 50.50 49.85 43.94 48.05 46.93 43.25 32.18 26.20 31.61 31.44 33.64 36.65 36.88 36.09 36.97 38.78 38.49 37.90 35.37 32.48 31.52 34.82 37.00 40.13 42.30 38.50 41.66 40.61 36.72 30.04 28.19 29.46 27.33 35.90 34.44 33.66 39.77 42.86 42.04 43.17 44.14 46.56 49.26
49.82 51.30 49.74 48.84 48.24 46.79 45.12 36.87 26.50 28.32 30.38 35.26 35.45 35.72 34.80 36.41 36.31 36.93 37.30 36.97 39.59 36.15 34.32 32.91 30.83 37.34 41.50 39.80 37.70 38.23 36.25 31.43 23.72 25.92 29.14 36.33 31.37 33.35 40.96 42.41 42.45 41.93 43.72 46.47 46.96
49.44 48.50 47.27 46.92 47.51 45.80 39.95 31.73 30.94 31.10 34.57 34.70 34.86 33.46 33.59 35.41 35.45 36.30 36.11 36.58 38.11 38.57 33.79 33.81 32.64 39.80 41.42 42.77 41.96 37.65 33.89 35.77 31.77 33.55 31.77 32.39 34.62 39.23 41.98 41.81 42.63 42.80 44.87 45.21 46.26
46.73 44.95 44.70 47.45 46.80 44.10 38.25 31.30 33.27 34.01 36.47 35.77 31.90 33.99 32.03 34.19 34.55 35.38 35.44 38.67 38.03 39.94 39.94 36.08 32.67 37.40 39.16 43.00 42.63 39.73 38.93 33.30 34.71 27.50 25.05 29.76 32.17 33.21 37.70 39.00 42.46 42.77 43.95 45.44 46.76
44.84 39.27 44.84 47.66 46.10 40.26 33.37 33.00 35.38 38.45 38.66 36.26 33.95 33.43 33.92 33.70 34.90 34.64 35.00 38.13 40.26 39.94 40.41 37.82 37.28 35.06 38.54 37.53 36.40 38.50 36.60 34.85 34.38 32.69 30.20 27.58 30.84 38.62 38.44 39.54 41.94 43.67 44.51 45.49 46.63
42.91 34.54 45.96 46.83 36.59 37.82 34.70 34.52 38.85 37.72 40.51 39.56 38.73 36.72 35.63 35.29 35.14 35.21 34.72 37.74 42.18 40.62 36.84 38.48 37.44 33.01 34.94 39.17 39.74 39.19 36.55 35.12 33.68 29.32 30.14 34.06 31.95 41.32 41.57 42.83 44.10 44.30 45.21 46.55 47.18
39.25 39.08 46.43 46.10 32.20 33.16 35.28 36.19 38.72 38.00 38.81 38.98 37.90 38.80 38.28 36.30 33.95 36.21 37.18 42.03 42.39 40.57 38.00 38.52 34.50 31.64 32.79 36.37 38.51 37.28 37.88 37.20 35.06 35.68 29.70 32.08 32.07 41.47 42.98 43.14 44.40 44.23 45.30 46.52 47.00
41.21 33.33 39.43 41.99 39.23 35.08 34.16 36.05 35.67 40.54 39.79 40.12 38.83 39.86 38.12 36.53 38.32 35.71 36.75 40.80 42.43 41.09 40.78 40.35 34.93 32.01 30.15 31.56 35.08 33.78 36.11 37.53 35.38 35.37 33.15 34.34 34.26 38.58 40.59 40.92 42.33 43.29 44.77 45.93 46.52
41.97 36.45 38.44 33.26 35.29 35.90 36.29 37.52 35.45 35.75 40.01 40.29 38.55 38.48 37.52 34.71 35.59 35.64 38.05 39.10 41.02 40.42 40.04 39.91 32.81 32.18 33.72 34.64 35.12 35.41 35.42 36.22 34.08 34.44 33.85 34.14 35.34 36.67 39.03 40.29 41.49 43.39 44.13 44.22 44.46
38.63 37.66 39.01 36.44 37.76 35.44 36.57 36.91 35.97 36.88 38.35 37.26 37.44 37.90 38.86 36.36 36.37 35.14 37.54 37.84 37.26 40.67 38.63 38.85 33.53 32.70 32.17 34.54 35.03 33.10 34.35 34.91 35.52 35.68 36.07 36.31 35.03 39.98 41.78 42.84 41.22 41.83 42.29 42.38 43.31
41.85 41.67 41.27 35.81 35.05 34.57 36.37 37.44 37.67 39.67 39.29 39.67 39.60 39.29 38.30 38.09 40.26 40.24 40.77 39.96 39.32 38.61 37.18 36.48 35.18 33.00 29.25 32.27 32.46 30.91 32.29 33.94 34.75 36.11 35.91 33.33 35.74 39.66 39.54 39.63 40.27 41.62 42.11 42.03 42.77

GFSSW_sfc_wetblb_105.txt.gz
Wetbulb
58.47 59.89 60.93 62.30 60.74 59.26 57.66 57.10 57.30 55.92 54.88 54.41 55.70 54.59 53.95 53.75 53.85 51.40 46.30 51.20 52.57 53.70 56.85 53.73 52.30 51.41 51.86 49.63 51.73 51.71 41.09 38.76 40.84 42.03 43.92 49.20 48.73 53.53 55.09 53.91 54.69 55.75 56.91 59.86 62.04
56.48 58.21 59.31 60.51 60.83 59.16 57.54 56.69 56.77 55.42 54.37 53.93 55.11 54.14 53.49 53.33 49.92 46.34 51.46 53.26 55.38 56.35 53.22 49.25 46.88 48.10 46.31 46.50 47.78 44.33 40.16 40.14 45.31 46.19 45.42 47.64 48.29 49.95 50.02 51.84 51.71 53.55 57.83 60.99 61.02
55.30 55.65 58.03 59.46 60.98 59.49 57.69 56.49 56.08 54.90 54.17 53.70 54.64 53.65 52.81 53.29 45.17 44.55 53.40 54.80 56.54 56.18 52.01 49.98 48.07 45.71 42.98 45.35 45.32 44.25 39.27 44.03 45.08 46.93 47.81 47.08 47.52 50.90 48.96 47.65 50.65 52.34 55.05 58.39 59.50
54.51 55.19 55.67 58.45 59.92 59.82 57.88 55.65 55.45 53.87 53.45 53.41 54.24 53.41 52.99 48.91 35.34 49.90 56.64 56.61 56.76 53.86 50.40 47.37 45.48 41.80 39.72 39.18 44.22 39.31 43.39 44.15 45.01 46.36 46.13 46.11 49.28 48.37 49.75 50.66 54.14 55.25 57.18 58.17 58.41
53.92 54.73 54.80 56.82 58.00 59.68 56.72 54.90 55.30 53.92 53.33 52.77 54.32 53.43 49.62 43.48 43.14 52.68 54.39 55.75 54.20 50.78 46.37 44.49 42.27 41.18 37.33 38.92 40.17 38.56 40.75 43.36 44.95 45.24 45.48 46.75 45.49 46.80 48.71 52.76 54.20 55.82 56.26 57.15 58.71
53.37 53.47 54.26 55.65 57.71 58.37 55.08 55.13 53.88 53.22 52.86 52.59 53.50 52.53 46.00 38.55 48.61 51.82 52.50 51.96 49.89 48.24 46.22 46.01 43.35 44.04 40.58 39.39 38.24 40.13 40.00 40.48 42.14 42.80 44.68 43.13 44.13 46.40 49.08 53.06 53.40 54.58 54.92 56.73 57.57
53.15 53.23 53.26 55.25 57.35 56.12 54.52 55.30 53.47 52.47 52.28 52.13 53.53 51.33 45.47 43.74 49.05 51.17 50.44 49.22 49.87 48.57 45.03 46.88 46.76 42.90 42.05 38.41 42.20 40.58 36.74 38.84 39.43 41.38 41.78 44.46 40.40 42.09 48.69 51.70 51.50 52.69 54.24 55.27 55.77
52.72 52.65 52.93 54.77 55.97 55.08 55.34 54.64 52.53 51.50 51.59 52.25 53.72 49.66 42.32 49.07 50.77 49.30 50.07 48.73 50.46 50.17 48.42 48.65 48.24 44.24 41.35 41.88 39.72 35.68 36.60 31.71 38.27 39.60 41.68 41.49 35.28 43.53 47.99 50.27 49.71 51.56 53.21 53.60 54.96
52.01 52.31 52.52 53.61 55.11 55.07 54.50 52.73 51.47 51.39 52.73 53.42 50.03 47.04 39.81 50.02 45.53 48.51 49.62 46.53 47.75 48.82 48.94 48.74 46.55 41.42 39.96 34.20 31.24 34.04 28.97 31.42 34.52 39.63 40.76 40.09 37.61 44.13 49.03 49.03 48.84 50.41 51.44 52.46 54.16
51.50 51.79 52.22 54.75 55.91 53.90 52.01 52.04 52.58 53.04 51.71 50.78 48.55 41.21 43.91 41.74 46.55 47.61 49.78 48.22 44.97 44.87 43.74 43.12 41.46 35.86 35.18 31.37 25.14 28.97 29.82 32.42 31.86 36.38 39.41 38.27 39.32 44.74 48.18 48.13 48.24 49.30 50.93 52.09 53.93
51.43 51.32 51.69 55.50 53.79 52.37 51.53 49.43 43.14 42.27 44.82 40.77 42.00 41.53 42.33 46.21 48.21 46.01 48.23 45.89 44.87 41.56 35.50 39.05 33.49 30.04 32.70 34.71 34.74 33.91 32.83 31.13 34.66 37.79 38.39 38.49 39.57 42.69 46.47 47.31 47.13 47.86 48.80 51.31 52.73
51.20 51.44 50.76 52.78 53.08 52.13 49.78 43.15 44.18 46.16 38.84 43.78 43.84 43.80 46.11 46.75 40.99 44.15 47.80 40.64 39.10 34.03 37.29 33.86 29.93 35.50 37.69 36.89 35.82 34.60 31.59 31.96 36.24 38.96 39.27 39.37 39.55 42.99 45.35 45.85 46.93 47.39 48.44 50.19 51.87
50.92 51.06 51.22 52.70 52.76 50.20 46.45 44.85 49.33 47.54 40.19 40.94 43.88 43.34 44.11 45.10 40.90 41.81 44.49 41.57 38.15 35.15 34.97 32.03 34.39 37.03 35.99 35.52 33.37 33.76 32.12 32.56 32.02 38.97 41.26 39.83 38.21 41.39 45.14 46.76 47.38 48.24 49.19 50.61 51.54
50.31 50.91 53.12 53.73 47.97 47.89 44.26 48.56 49.98 48.45 36.91 35.95 39.48 43.16 44.32 43.27 39.32 46.74 45.13 41.68 37.65 34.10 35.58 34.61 37.10 35.55 34.98 33.82 35.10 31.00 37.38 33.81 35.51 36.33 32.54 41.62 30.96 38.57 42.24 43.55 45.99 47.55 49.40 50.68 52.06
49.62 50.27 52.86 50.90 47.85 45.35 46.62 50.29 49.55 45.42 26.22 36.88 39.47 47.68 45.15 40.57 42.83 42.99 46.28 40.64 35.22 35.97 34.21 34.49 34.54 34.28 33.83 34.70 36.95 34.58 40.44 36.84 38.99 37.53 38.00 36.85 34.31 35.99 41.47 40.44 43.52 46.94 48.32 50.64 52.06
49.56 50.74 52.43 49.03 48.26 47.58 49.28 49.98 45.57 35.41 24.55 34.23 40.39 39.54 39.18 42.10 42.22 44.25 42.31 42.72 40.26 36.10 37.18 36.12 39.99 38.02 37.82 40.88 39.60 39.61 38.01 36.59 38.05 37.08 31.14 35.00 34.75 34.66 35.65 39.12 43.04 45.23 48.39 50.31 51.23
49.98 50.56 49.86 49.83 44.34 48.57 48.55 44.52 34.09 30.30 33.88 33.23 35.51 38.94 39.62 38.50 39.61 40.51 39.78 37.92 36.17 32.47 33.33 36.43 37.24 40.70 42.30 37.76 38.95 35.60 35.60 30.84 29.49 29.24 28.10 37.12 34.81 34.98 37.64 38.97 42.41 42.50 43.39 49.17 50.95
50.27 51.14 51.04 48.94 48.99 47.47 46.38 37.76 30.07 31.65 32.82 37.74 37.97 38.33 36.19 38.73 38.96 39.34 39.25 36.72 38.91 37.74 36.14 33.25 29.69 36.30 42.31 39.79 37.02 34.24 36.94 30.85 24.81 26.17 29.24 36.66 29.16 33.52 40.86 42.08 42.26 42.79 44.64 46.78 49.12
50.44 48.90 47.24 46.97 47.80 46.73 41.19 34.32 32.66 33.51 36.72 36.64 37.22 36.00 35.98 37.97 37.72 38.74 38.78 37.63 39.44 40.04 34.45 33.82 32.94 41.26 42.64 43.89 42.45 38.40 33.80 37.56 33.86 36.20 30.94 32.21 33.01 39.22 42.57 41.19 42.58 43.12 44.59 45.16 47.30
47.27 45.86 43.92 47.77 47.80 45.26 40.00 33.05 35.21 36.99 38.58 38.71 34.11 37.01 34.26 36.20 36.77 37.65 37.97 40.76 39.13 41.77 41.12 37.96 31.68 39.11 41.82 44.45 44.32 39.41 40.19 34.51 36.80 28.44 25.07 28.85 30.15 31.47 37.39 39.77 41.89 42.33 43.66 45.33 46.92
46.06 40.08 45.02 48.16 47.33 41.18 35.96 35.72 37.37 40.02 40.46 38.27 36.56 36.02 36.91 36.15 37.64 37.04 37.06 40.51 41.81 41.14 42.60 39.59 37.93 36.62 41.02 38.55 36.36 38.68 37.14 37.50 36.48 34.46 30.15 27.50 29.93 39.53 39.32 42.20 42.59 43.21 44.80 45.73 46.86
44.27 35.32 46.12 47.68 38.05 39.38 37.63 37.10 39.34 39.38 42.71 41.13 40.92 39.56 38.21 38.08 37.18 36.96 36.63 39.52 43.67 42.63 38.42 40.79 38.74 33.86 35.49 41.06 41.18 40.47 38.31 38.22 34.41 31.60 35.21 34.29 31.12 42.86 43.17 43.78 44.72 44.54 45.66 46.73 47.53
39.81 39.24 46.91 46.43 34.75 36.82 38.44 38.65 39.99 39.51 40.65 40.66 39.56 40.88 41.25 38.42 35.79 38.27 38.78 43.37 43.92 42.14 39.12 39.82 36.42 32.10 34.01 38.35 40.81 38.07 39.56 39.66 38.00 38.99 32.49 32.54 31.48 43.53 44.64 43.99 44.56 44.61 45.80 46.56 47.09
42.27 34.31 39.44 43.57 42.20 38.41 36.66 37.11 36.43 42.22 41.55 41.78 40.74 42.14 40.21 38.63 40.48 37.40 38.24 42.08 43.76 42.44 41.61 42.86 37.82 35.07 31.61 32.84 36.88 35.37 37.53 38.96 37.76 36.23 34.72 33.74 35.11 38.94 40.57 41.42 43.30 44.43 45.56 45.97 46.26
45.33 37.16 40.13 34.41 37.12 38.46 37.60 38.98 36.47 36.89 41.96 42.43 40.31 40.63 39.26 36.20 37.44 37.21 39.65 40.71 42.46 43.09 42.28 42.42 33.97 34.47 36.05 37.02 36.67 36.29 36.21 37.59 34.79 37.49 34.16 35.97 34.97 38.00 40.37 41.16 42.66 44.40 44.88 44.70 44.83
43.18 40.00 41.60 38.39 39.72 38.26 37.42 38.28 37.18 38.42 40.13 38.64 39.01 40.48 41.28 37.88 38.21 36.95 39.16 39.71 38.99 42.61 40.80 41.68 34.55 34.96 33.66 36.78 36.95 34.03 36.44 37.67 37.34 37.97 37.68 37.55 35.24 41.45 42.82 43.19 42.48 42.84 43.31 43.09 43.67
46.17 46.27 44.76 37.77 38.44 37.20 38.49 39.22 38.72 41.01 41.20 41.76 41.76 41.14 39.59 39.77 42.77 43.26 43.79 43.02 41.94 40.72 39.68 39.10 37.16 35.11 30.93 34.69 34.57 32.00 33.47 35.62 36.26 37.34 37.36 34.85 37.42 40.97 40.27 40.69 41.39 42.46 42.63 41.62 41.71

GFSSW_sfc_wetblb_108.txt.gz
Wetbulb
55.63 56.37 57.39 58.84 60.47 61.76 60.00 58.01 57.55 57.51 55.69 54.35 54.47 55.30 54.06 53.86 53.91 51.34 46.61 51.13 52.93 55.92 56.01 53.37 51.96 50.50 50.82 47.63 49.87 50.45 39.17 36.07 38.14 39.09 41.48 46.65 44.84 48.86 53.12 50.94 52.02 52.30 52.83 59.20 60.82
55.32 55.46 55.46 57.06 59.40 60.74 59.98 58.20 57.36 57.16 55.71 53.85 54.03 55.02 53.89 53.25 49.62 46.34 52.13 54.74 55.14 55.17 51.61 49.32 46.48 47.89 44.01 44.73 45.59 42.25 38.17 38.07 42.97 43.31 42.34 45.36 45.43 46.41 46.54 48.42 49.12 50.93 55.24 60.10 60.00
54.03 54.32 55.48 55.44 57.76 59.46 60.10 58.13 57.43 56.39 55.11 53.54 53.99 54.60 53.64 52.86 45.18 45.90 54.87 55.42 56.29 56.31 53.00 50.00 47.84 45.01 40.73 43.03 42.57 42.10 37.26 42.09 43.44 45.08 45.67 44.27 44.76 47.13 45.45 45.08 49.54 48.46 51.02 57.95 58.92
54.00 54.05 54.03 55.38 56.69 58.52 60.07 57.89 57.02 55.36 54.55 53.31 53.81 54.24 53.67 49.85 35.51 51.25 55.41 56.84 57.18 53.59 50.35 46.86 44.64 40.86 38.40 36.83 41.59 37.00 41.59 43.01 43.60 44.97 44.23 42.67 45.25 43.95 46.46 46.70 51.42 52.83 55.38 55.23 56.45
54.07 53.70 53.72 53.83 55.27 57.53 59.08 57.30 56.23 55.09 53.91 53.35 54.25 53.92 50.27 43.82 43.16 54.32 55.97 55.94 54.71 50.86 45.98 43.62 41.12 39.89 35.67 37.31 38.32 35.99 38.34 40.80 42.28 43.53 43.54 44.56 42.26 42.90 44.40 48.71 51.45 54.22 54.67 54.24 56.35
53.15 53.54 53.32 53.40 54.83 56.69 57.89 56.08 56.33 54.98 54.13 53.81 54.53 53.71 47.01 38.47 48.55 53.03 52.36 52.15 50.05 47.95 45.70 45.41 42.47 43.11 38.84 37.67 36.18 38.29 38.27 38.45 40.00 40.18 41.11 40.41 41.45 42.59 43.88 47.27 48.66 52.03 52.62 53.62 54.71
53.38 53.00 53.02 53.12 54.33 57.05 56.59 55.88 54.78 54.45 53.62 53.37 54.22 51.53 45.44 42.45 49.06 50.54 50.76 48.96 49.65 48.05 44.20 46.75 46.41 42.06 41.28 36.97 40.89 39.08 34.66 37.30 38.23 39.30 37.98 41.01 36.76 38.66 44.03 45.87 46.94 50.55 51.96 53.52 53.82
53.43 52.82 52.61 52.77 53.49 56.24 56.09 55.21 53.76 52.70 52.40 52.91 54.19 50.17 42.26 49.43 50.33 48.93 49.45 47.85 49.90 49.69 47.74 48.33 48.12 43.10 39.96 41.20 38.00 34.47 34.17 28.35 36.51 38.87 39.14 38.10 29.99 40.01 43.79 43.44 43.97 47.82 49.97 52.05 53.95
53.35 52.57 52.40 52.37 52.85 53.93 55.59 53.89 52.40 52.21 53.07 53.62 50.65 47.38 39.88 49.26 44.50 47.62 48.40 45.59 47.36 48.12 48.41 48.02 46.01 40.44 40.00 33.55 30.12 32.27 25.03 28.32 32.36 39.38 38.27 35.37 31.59 38.89 42.96 43.24 43.19 46.09 47.54 49.66 50.74
52.71 52.28 52.19 51.98 54.45 55.17 53.39 52.59 52.94 53.59 52.50 51.81 49.03 41.47 43.50 41.91 46.14 47.57 49.40 48.29 44.62 44.89 43.00 42.23 40.63 35.50 35.24 31.83 19.39 24.34 27.69 30.93 29.95 36.13 37.30 33.50 34.52 38.98 42.14 43.62 43.10 44.90 46.65 48.12 49.53
52.07 51.72 51.88 53.93 55.85 52.97 51.69 49.81 44.87 42.72 45.38 40.41 41.57 41.39 42.86 46.31 48.22 45.48 47.65 45.34 44.07 40.92 33.72 38.21 31.52 27.60 30.58 32.86 32.41 31.14 30.70 28.98 33.18 37.91 34.71 32.72 34.56 36.55 43.44 43.98 43.07 44.56 45.33 46.34 49.22
51.48 51.09 51.32 52.08 53.18 53.03 49.63 43.69 44.12 45.87 37.32 43.49 43.97 43.69 45.86 46.94 41.08 44.17 47.71 39.75 38.68 33.31 36.15 34.11 29.67 34.59 35.94 35.32 33.86 32.93 30.04 29.40 34.20 37.00 35.98 32.73 33.57 38.96 41.71 42.56 44.02 44.59 44.96 46.36 48.86
50.80 50.72 50.83 50.88 52.77 50.14 46.57 45.61 49.79 48.24 39.87 40.27 43.29 43.41 44.30 45.20 40.90 41.89 44.15 41.55 37.70 35.80 35.36 32.37 34.15 37.63 35.49 33.45 31.75 32.47 30.08 30.17 30.70 34.95 36.69 34.18 31.94 36.74 41.71 43.28 43.97 45.05 45.55 45.97 48.28
50.05 50.59 51.60 53.57 48.34 47.66 45.13 48.89 50.29 48.64 35.67 34.84 39.23 42.83 44.41 44.07 39.21 46.70 46.04 41.55 38.12 34.34 35.75 34.39 36.91 35.48 34.28 32.59 33.73 28.34 36.33 34.67 32.15 31.02 27.66 34.79 23.07 35.55 39.75 41.61 43.51 42.76 45.46 46.70 49.97
50.04 52.49 52.72 51.87 47.41 44.21 47.26 49.89 50.06 44.87 24.78 37.45 39.33 47.76 45.60 40.53 42.41 41.96 46.12 40.54 35.81 35.95 34.60 33.87 35.40 33.37 31.41 33.96 36.70 31.68 37.07 37.21 33.88 33.23 32.38 33.30 30.05 34.43 40.71 39.53 42.03 45.06 45.88 49.65 52.33
51.03 52.01 51.40 49.15 48.82 47.94 49.29 50.05 45.76 32.16 19.06 31.31 40.34 39.65 39.03 40.80 41.86 42.71 41.56 42.98 41.51 36.63 36.69 35.56 40.43 38.02 36.77 39.89 40.06 39.72 36.61 35.80 33.52 32.51 28.54 33.73 33.03 32.29 34.83 36.12 41.82 43.66 47.47 50.10 52.22
50.87 51.97 50.42 49.84 44.43 48.99 48.21 44.13 31.95 26.40 34.04 31.93 34.93 39.03 38.53 38.78 39.92 40.99 39.49 37.69 35.40 31.75 30.20 36.15 36.70 39.91 41.10 37.56 39.26 36.52 32.63 27.75 27.18 27.26 27.26 34.80 32.13 32.29 38.62 39.35 41.47 41.79 43.87 50.33 51.47
51.61 51.46 49.33 48.60 48.79 48.15 45.70 37.56 25.27 31.51 32.59 38.97 38.60 38.58 36.02 39.11 39.10 40.02 38.55 35.93 39.60 37.40 33.46 30.41 24.43 36.85 42.07 37.83 34.17 35.40 35.27 29.20 23.38 25.55 28.72 34.60 28.08 33.35 39.59 42.75 43.82 44.19 45.38 48.85 49.27
51.48 48.88 46.70 47.40 48.42 48.21 40.65 32.37 29.30 32.65 37.63 36.96 37.33 34.45 35.08 38.07 37.52 38.42 37.15 36.81 38.40 38.62 33.00 33.49 30.97 40.62 41.61 42.69 41.58 37.16 32.00 36.33 32.22 32.12 28.39 32.13 33.72 38.31 39.61 39.53 42.08 43.24 45.31 46.45 46.73
48.01 44.62 44.04 48.27 48.61 45.31 38.57 33.15 33.55 38.15 39.78 39.12 33.15 36.26 33.11 35.36 35.76 36.25 36.65 39.24 38.51 40.51 39.74 36.83 31.27 39.30 41.39 43.74 43.29 39.11 39.72 30.81 31.98 26.04 23.71 28.97 28.79 30.46 34.60 35.87 40.58 41.20 41.90 43.55 44.98
47.14 39.52 45.49 48.46 48.24 40.23 34.80 34.29 37.39 40.58 41.34 37.96 36.61 35.65 35.81 35.22 36.20 35.09 35.77 39.21 40.62 39.89 40.30 37.89 36.57 34.82 40.18 36.62 34.73 36.37 33.65 35.04 33.25 30.87 24.33 23.10 27.69 38.11 37.14 38.82 39.35 41.42 42.98 43.32 43.51
44.58 34.91 46.00 48.70 38.60 38.78 35.40 37.09 39.72 39.94 43.27 41.35 40.49 38.94 37.10 37.40 35.70 35.14 35.01 37.89 42.35 41.54 36.94 38.21 35.74 30.20 32.57 38.27 39.13 38.00 35.08 34.34 26.65 27.36 28.07 27.86 28.76 40.14 40.05 41.38 41.99 41.95 43.36 43.89 44.23
39.86 39.43 47.06 45.46 35.27 34.98 38.36 38.82 40.24 40.40 40.67 40.49 39.50 40.86 40.70 37.22 34.15 36.90 37.38 42.51 42.97 40.62 36.48 37.84 32.65 25.70 28.12 33.75 37.24 35.36 36.97 36.87 35.96 33.64 27.13 24.25 28.43 41.37 39.11 39.77 41.05 41.20 42.39 43.59 44.27
41.61 34.42 39.85 41.88 41.48 36.76 36.38 37.13 36.68 42.50 41.75 41.94 40.61 41.64 39.13 37.01 38.79 36.02 37.08 41.41 42.40 40.83 42.37 40.88 34.28 30.06 23.31 27.56 33.60 30.52 34.77 36.36 34.18 27.20 29.16 29.11 30.82 34.45 36.59 37.89 39.66 40.37 41.19 41.81 42.57
44.26 36.72 39.43 34.43 36.19 37.92 37.96 38.81 36.69 37.18 41.57 41.91 39.56 39.86 38.10 34.44 35.63 35.54 37.89 38.90 41.26 43.15 39.63 38.92 29.54 29.26 32.37 35.06 33.48 32.80 33.65 34.81 31.39 33.38 27.86 31.21 31.59 33.93 35.18 36.60 38.32 40.03 41.27 41.12 41.26
41.99 38.64 39.84 37.68 38.84 37.63 36.67 37.30 37.15 38.55 39.35 38.10 38.07 40.08 39.36 35.81 36.54 34.95 37.28 36.50 35.83 39.61 36.80 38.93 29.97 30.00 27.17 34.50 33.80 30.41 33.57 34.50 34.50 35.56 34.02 33.45 32.22 37.53 37.47 38.58 39.28 39.27 40.13 39.06 38.74
45.20 45.41 41.73 38.54 36.84 35.57 36.69 38.57 38.65 40.41 40.89 41.51 40.47 39.49 37.79 38.49 40.35 40.03 39.47 39.78 37.39 36.70 36.19 35.31 32.37 28.86 24.18 31.54 31.22 26.68 30.49 32.71 32.96 34.28 34.34 30.46 34.12 37.75 36.88 38.92 38.73 39.10 39.24 37.55 36.91

GFSSW_sfc_wetblb_111.txt.gz
Wetbulb
54.98 55.55 55.74 56.12 57.10 59.58 61.11 60.74 58.64 58.78 57.06 55.28 54.21 55.95 54.35 53.98 53.91 50.76 46.28 49.37 51.96 55.85 55.46 51.56 50.32 48.95 48.06 44.58 46.21 46.52 37.65 35.30 35.74 37.34 39.23 44.08 42.56 46.37 47.79 45.72 47.59 50.08 54.83 58.08 60.14
55.04 54.49 54.91 55.41 56.11 57.89 60.01 60.67 58.91 58.71 57.10 54.93 54.26 55.73 54.32 53.51 49.29 46.11 51.72 55.76 55.90 55.11 50.63 47.88 44.04 45.22 40.57 41.21 42.44 39.51 35.25 36.62 41.17 41.28 40.20 42.89 42.21 42.84 43.74 44.65 45.83 48.17 57.86 59.09 58.63
53.76 54.17 54.09 54.15 55.29 57.12 58.75 59.52 58.62 58.34 56.79 54.62 54.66 55.87 54.23 52.89 44.87 43.49 55.52 55.07 56.15 56.20 54.00 49.11 46.49 43.65 37.98 38.62 38.29 38.83 35.31 40.56 42.06 43.51 44.20 42.66 41.93 44.07 41.38 40.99 45.62 46.70 50.13 57.50 57.44
54.00 54.07 54.04 53.91 54.33 55.45 57.35 59.45 58.54 57.62 56.30 54.64 54.65 55.26 53.75 49.63 34.33 48.44 55.14 56.23 56.96 54.52 50.76 46.03 42.84 37.90 35.37 33.43 37.47 33.57 39.16 40.85 42.20 43.73 42.50 40.51 42.71 40.96 41.43 42.29 47.43 49.05 53.56 53.80 55.29
54.14 53.62 53.70 53.59 53.77 54.85 57.06 58.25 58.51 56.90 55.56 54.46 54.87 54.74 49.82 42.23 41.33 54.68 57.46 57.49 53.73 51.15 45.54 42.87 39.07 36.98 32.57 33.91 35.77 32.00 35.27 38.57 40.02 40.44 40.02 40.81 38.50 39.73 41.10 44.19 46.60 48.51 51.17 52.20 53.17
53.92 53.68 53.19 53.39 53.56 54.39 55.53 58.41 57.13 55.85 54.74 54.41 55.33 53.90 45.46 35.08 50.46 53.25 53.21 52.49 50.19 48.07 44.76 43.64 41.12 41.24 36.02 35.04 33.21 35.69 36.70 37.23 39.16 38.93 39.30 37.42 37.37 39.16 41.15 43.36 45.01 46.53 47.06 52.07 52.44
53.70 53.53 53.20 52.96 53.23 55.40 57.25 57.56 56.90 55.23 54.61 55.10 54.77 51.00 44.45 38.79 47.14 50.72 50.68 48.35 48.28 47.58 44.02 45.89 45.08 40.24 38.69 34.69 38.61 36.93 32.58 35.17 36.57 38.01 37.55 39.63 34.17 35.01 39.83 42.62 43.06 44.82 46.45 51.00 52.16
53.65 53.55 52.85 52.72 52.72 54.28 57.29 56.02 55.19 54.52 54.07 54.46 54.49 48.63 39.63 48.80 46.62 47.99 47.54 46.83 48.50 48.56 47.02 46.64 46.22 41.64 37.75 38.12 36.81 32.75 31.37 25.54 34.34 37.29 38.17 37.24 28.37 36.15 39.43 40.19 41.00 41.98 44.29 48.39 51.48
52.73 53.05 52.63 52.55 52.51 53.79 55.65 54.14 53.03 53.11 53.24 53.71 48.86 44.78 37.54 49.11 43.95 46.20 46.20 45.18 45.99 46.39 47.12 47.57 44.98 38.20 37.82 31.21 29.16 29.06 21.56 25.82 30.23 37.46 36.53 35.32 30.56 36.91 39.67 39.65 40.03 40.95 42.53 46.16 48.24
52.17 52.26 52.44 52.47 53.07 54.95 53.43 53.14 53.58 52.94 51.69 52.05 49.35 38.97 42.25 41.31 44.70 45.81 46.08 47.21 43.97 43.63 43.07 41.30 37.55 31.44 32.01 31.54 19.33 18.57 24.90 27.92 28.15 34.06 35.54 34.06 32.59 36.30 37.97 38.16 37.98 39.46 41.29 45.24 47.29
51.76 51.77 52.09 56.16 55.65 53.29 52.42 50.60 45.09 43.01 44.69 38.84 40.02 40.27 42.33 45.48 47.59 45.19 46.81 44.45 43.12 39.05 31.49 36.86 30.45 25.91 28.19 31.28 30.85 29.53 27.78 26.45 30.27 35.86 33.83 32.53 33.04 35.35 37.92 38.45 37.83 40.43 40.13 44.21 46.27
51.55 51.43 51.99 54.41 53.79 52.77 49.11 44.44 42.61 42.67 36.19 43.24 43.46 43.48 45.72 46.53 40.69 43.82 46.85 38.45 37.33 30.66 34.61 32.37 28.61 32.96 34.83 34.39 32.48 31.79 29.89 28.73 31.97 35.08 34.52 33.18 32.18 35.72 38.18 38.36 39.82 41.05 42.53 43.79 44.62
50.89 50.76 51.90 53.82 52.24 49.57 46.84 45.99 49.47 46.19 36.18 39.68 42.81 43.24 43.70 44.66 40.77 40.33 43.08 40.35 36.50 34.87 34.12 30.17 32.32 37.60 35.41 33.78 31.75 30.76 28.86 29.34 27.05 33.22 35.07 31.96 28.90 32.10 36.80 39.09 40.01 42.19 43.70 44.59 45.51
51.65 51.00 51.42 52.88 48.35 47.81 45.61 49.18 49.17 46.17 30.48 34.37 38.60 42.50 43.89 43.58 39.22 45.40 45.37 41.70 37.96 33.08 35.78 33.15 37.08 35.07 34.55 32.98 33.61 27.53 33.98 34.24 33.02 29.47 19.85 32.24 22.04 30.03 34.15 36.16 40.29 40.22 41.90 43.49 46.23
52.36 53.85 53.39 52.23 46.39 44.42 47.52 49.98 48.08 42.40 15.79 36.23 39.39 47.78 44.83 40.39 41.72 41.39 45.93 40.57 36.45 36.10 35.11 33.45 35.00 34.61 31.58 31.96 34.92 31.15 36.02 33.87 33.33 31.57 29.98 30.35 27.56 33.61 38.15 36.71 39.09 41.30 41.09 43.21 48.53
52.21 52.21 51.54 48.64 48.19 47.83 49.47 48.11 43.63 28.26 11.71 27.42 39.57 38.29 38.39 40.22 41.65 41.72 41.06 43.23 42.11 36.84 37.02 35.57 40.47 37.18 36.30 38.37 39.15 40.20 35.47 35.26 34.33 32.03 24.88 31.37 29.29 31.38 33.40 36.15 38.24 43.00 42.94 47.50 50.48
52.55 52.22 50.34 50.07 43.78 47.95 46.45 41.70 25.82 15.50 31.43 29.34 32.04 38.39 37.59 37.19 38.76 40.04 38.63 37.10 35.25 30.54 26.19 35.26 35.37 38.34 39.73 37.05 39.74 37.12 32.07 26.04 23.49 23.59 25.80 33.19 30.24 31.66 36.21 40.48 41.08 42.16 42.37 47.76 52.50
51.08 49.72 48.33 47.61 48.25 46.74 43.12 31.22 16.66 29.11 28.80 37.74 37.44 37.09 33.31 37.57 37.13 39.37 37.94 35.65 39.52 37.35 29.47 29.51 21.88 35.45 41.73 37.74 34.26 33.95 33.71 28.36 22.82 23.68 27.77 33.96 27.81 30.76 38.91 42.14 43.80 44.57 46.67 49.18 48.08
50.10 45.16 45.74 47.18 47.98 44.69 36.24 22.55 22.33 28.92 35.75 35.09 35.71 30.85 31.57 36.07 34.93 35.47 34.25 34.48 35.73 35.55 29.20 31.06 28.24 39.48 40.77 42.17 41.00 36.73 33.42 36.36 31.74 32.37 25.91 29.95 32.73 37.12 37.89 39.73 42.56 44.67 44.56 44.45 45.17
44.23 42.24 44.11 47.26 46.16 40.92 31.22 29.00 28.90 36.89 38.38 37.33 29.47 32.96 28.54 32.16 32.29 34.96 33.21 36.68 36.84 38.96 38.07 35.29 30.08 38.56 41.31 43.04 42.37 39.55 39.94 30.57 30.46 24.52 23.40 27.56 28.85 29.32 32.71 36.22 40.12 41.55 42.16 43.66 44.67
41.75 39.41 44.63 46.86 43.98 35.84 25.89 28.35 35.26 39.71 40.33 36.38 33.52 32.53 32.34 32.01 33.34 31.81 33.06 36.90 38.75 38.46 37.92 36.32 35.89 33.09 38.52 35.11 33.30 33.94 32.98 33.24 31.96 29.98 25.51 23.63 28.00 33.33 34.20 39.08 39.12 40.14 42.74 42.80 42.91
40.34 34.40 43.19 45.55 32.48 32.52 29.60 34.96 39.79 38.30 40.78 39.47 37.44 36.17 33.81 34.36 32.93 31.92 32.51 35.41 40.33 39.21 35.29 36.94 33.68 25.36 30.74 37.74 38.32 35.66 34.04 32.84 25.08 25.47 27.40 26.79 28.13 40.08 39.02 40.33 41.13 41.12 42.39 42.99 43.18
37.29 38.50 42.97 42.98 26.62 28.42 34.26 37.21 38.96 38.58 38.78 38.50 37.16 38.54 37.48 34.11 31.51 33.89 34.89 40.95 40.84 38.54 34.26 35.87 29.62 22.18 25.99 30.81 34.39 33.37 35.37 34.81 34.09 29.58 24.04 22.40 29.27 39.41 39.05 39.00 40.28 39.97 41.00 41.96 42.30
37.60 32.60 35.58 37.16 36.33 30.09 32.39 33.73 34.74 40.01 39.58 39.88 38.30 38.62 36.06 33.75 36.02 33.28 34.39 39.79 40.66 38.96 43.32 39.86 31.78 27.51 21.95 26.92 31.86 29.26 33.09 34.01 30.65 22.87 26.35 25.86 27.87 31.51 34.55 36.11 37.47 37.85 38.88 39.45 39.90
38.97 31.46 34.38 26.30 31.96 32.96 33.44 35.65 34.34 34.87 38.99 39.35 36.79 37.23 35.11 31.29 32.64 32.73 35.30 36.43 39.47 42.11 38.23 36.47 27.71 26.39 30.76 33.58 32.07 30.32 31.80 32.31 27.25 30.24 23.78 28.41 29.30 30.59 32.67 33.81 35.28 37.35 38.54 37.72 37.25
39.12 33.68 35.29 33.00 34.98 32.49 34.20 33.63 34.37 36.11 36.67 35.99 35.47 37.20 36.40 32.91 33.04 31.76 34.39 33.55 32.95 37.15 35.18 36.01 28.02 29.06 26.23 32.02 31.12 28.55 31.32 32.68 32.71 32.96 31.66 31.51 30.46 34.92 34.87 36.36 36.95 36.42 36.77 35.17 34.97
43.94 39.78 36.92 34.23 32.08 30.31 32.11 34.83 36.16 37.95 38.43 39.05 37.77 36.16 34.79 36.19 37.25 36.96 36.56 37.52 36.12 33.66 33.69 32.86 29.88 25.97 23.28 28.96 28.40 24.74 28.64 30.06 30.56 32.51 32.72 28.70 32.38 35.67 34.86 37.18 36.30 36.21 36.05 34.63 33.52

GFSSW_sfc_wetblb_114.txt.gz
Wetbulb
54.50 55.14 54.85 54.87 55.58 56.35 58.35 60.51 60.94 59.28 58.50 56.51 54.93 55.99 55.05 54.05 53.45 49.87 45.41 48.74 51.75 55.84 54.80 50.27 49.11 47.77 46.51 43.50 44.91 45.38 36.61 33.14 34.46 36.61 38.43 42.23 40.25 43.23 45.69 43.16 45.24 48.70 54.89 57.39 59.99
53.93 54.14 54.34 54.60 54.67 55.31 58.04 59.40 60.64 59.48 58.26 56.57 55.27 56.35 54.87 53.61 48.68 45.56 51.68 55.73 56.80 54.91 49.79 46.66 42.41 44.11 39.60 39.76 41.42 38.72 34.70 35.63 39.91 39.81 38.47 41.57 40.99 41.92 41.24 41.30 43.02 45.83 51.83 58.27 58.57
54.71 53.81 54.10 54.09 53.84 54.54 56.07 58.55 60.17 59.36 58.18 55.99 55.26 56.23 54.65 52.22 44.13 42.28 55.64 55.14 56.07 56.41 53.57 48.06 44.94 42.38 36.86 37.31 36.90 37.18 34.14 39.34 40.64 42.37 43.15 41.50 40.44 42.02 39.42 38.35 40.87 42.38 46.54 54.34 56.27
53.71 54.63 53.48 53.65 53.81 53.90 55.14 57.19 59.56 59.51 57.74 55.67 55.39 56.02 54.24 48.70 34.09 47.33 55.18 56.13 56.15 52.15 48.72 44.42 41.20 36.64 33.93 32.09 35.49 31.34 37.06 38.51 39.99 41.49 40.26 37.67 40.36 37.72 39.50 40.09 44.62 45.13 48.29 50.47 54.07
54.09 54.16 53.25 52.82 53.30 53.85 54.87 56.29 59.36 58.76 56.91 55.52 55.63 55.38 48.83 41.42 41.60 52.60 57.82 55.85 51.75 49.02 43.95 41.78 38.00 35.71 31.26 32.70 34.68 31.00 34.25 37.86 39.20 39.42 38.73 39.26 36.45 36.30 37.60 41.59 44.33 45.92 46.72 46.44 50.66
54.01 53.57 53.41 52.90 52.98 53.59 54.71 56.19 59.05 57.57 55.96 55.38 55.86 54.03 44.76 34.96 49.79 53.19 52.43 51.95 49.06 46.50 43.52 42.57 40.06 39.85 34.79 33.75 31.85 34.13 35.33 35.66 37.89 37.75 38.56 36.94 36.75 36.54 37.87 39.47 42.39 44.35 44.42 45.41 48.90
53.60 53.36 53.15 52.75 53.03 54.29 57.09 58.25 57.13 55.71 55.14 55.90 55.39 50.53 43.11 38.37 46.52 51.15 51.12 47.53 47.33 46.36 43.08 44.91 43.91 39.29 37.13 33.43 37.58 35.79 31.13 33.54 34.77 36.35 35.88 38.28 33.14 33.93 38.26 39.68 39.62 41.91 43.68 45.23 46.62
53.07 52.41 52.54 52.78 52.67 54.56 57.92 57.25 55.97 55.19 55.52 55.52 54.71 47.63 38.01 47.54 46.74 47.32 46.76 45.94 47.55 47.45 45.95 45.58 45.21 40.39 36.33 36.89 35.46 31.39 29.79 24.60 32.42 36.09 37.33 36.09 26.81 34.87 37.66 36.43 37.36 38.78 41.92 44.28 45.24
52.41 52.30 51.94 52.17 52.47 53.82 56.24 55.56 55.00 54.84 55.07 54.91 48.24 43.96 36.49 48.54 44.00 44.81 45.38 44.56 44.93 45.24 45.94 47.44 43.94 36.92 36.56 29.26 24.03 27.41 20.46 23.29 28.64 36.73 35.96 33.94 29.19 36.26 39.16 36.57 36.77 38.11 38.81 41.45 43.87
52.47 51.66 51.92 51.88 53.05 54.68 54.01 53.76 54.01 53.12 52.05 51.76 48.80 37.96 41.45 40.34 43.27 44.71 44.58 46.07 43.67 42.72 42.06 40.35 36.01 29.14 29.61 23.16 15.76 17.98 18.79 24.82 25.52 31.77 33.32 31.31 31.51 36.40 39.08 36.63 35.47 36.86 37.84 38.20 41.36
51.97 52.32 55.16 56.32 54.33 53.95 53.06 49.79 43.59 42.10 43.60 38.66 39.25 39.36 41.48 44.69 46.54 44.13 45.85 43.57 42.11 38.20 31.12 35.73 28.51 25.03 25.89 30.32 28.95 27.20 26.36 25.31 29.04 33.79 31.97 31.32 31.93 34.55 38.27 36.74 33.40 34.64 36.70 38.73 39.39
51.92 53.81 55.21 54.72 54.33 53.80 49.79 43.70 42.54 43.27 36.01 42.27 42.71 42.56 44.37 45.29 39.89 42.97 45.90 37.81 36.31 29.00 33.41 29.91 27.28 31.19 33.84 32.70 31.07 29.95 28.63 27.61 30.79 34.37 32.81 31.37 31.29 35.51 37.37 36.10 36.06 36.14 36.54 39.57 39.89
51.64 52.15 53.97 53.48 52.27 48.91 46.33 45.61 48.15 44.84 34.86 39.08 42.09 42.43 42.68 44.14 40.32 40.19 43.23 39.52 35.40 33.82 33.98 29.80 30.41 37.08 34.90 32.73 30.43 30.23 27.81 27.85 26.92 32.11 34.06 31.46 27.86 31.32 35.07 36.78 37.22 37.95 39.89 41.38 42.76
51.43 52.07 53.00 52.50 48.25 47.94 45.50 48.58 47.47 44.87 25.70 33.35 38.28 42.10 43.61 43.25 38.23 44.76 46.12 41.29 37.96 33.18 34.39 33.47 35.56 34.08 33.87 32.51 32.66 27.17 33.27 32.39 30.89 31.21 20.88 29.64 17.88 28.67 36.03 36.12 35.73 35.79 36.57 39.87 43.04
51.84 51.70 52.39 51.32 44.80 45.19 47.67 48.43 46.86 41.13 12.88 35.58 39.12 47.05 44.20 40.09 40.57 41.46 45.73 41.50 36.29 35.66 34.31 31.02 33.45 33.75 32.30 32.28 34.77 30.45 35.73 33.92 33.60 33.18 30.71 27.15 19.78 29.99 37.66 35.21 36.86 39.12 40.60 40.23 43.11
53.22 53.01 51.89 47.96 45.92 46.55 49.09 46.95 42.65 24.23 12.73 27.12 38.99 37.62 37.74 40.05 40.79 41.41 41.13 43.51 42.42 37.21 36.54 35.01 39.54 36.64 35.77 37.51 37.33 38.27 36.68 35.08 35.18 31.96 22.50 28.82 25.79 30.74 33.08 34.98 36.62 39.22 42.06 43.13 44.80
51.84 51.42 48.95 48.64 41.52 47.19 45.53 40.23 24.15 16.72 30.53 28.53 31.45 37.60 36.47 36.47 38.61 39.30 38.28 36.74 34.79 28.61 23.60 33.82 35.02 37.32 39.19 35.69 39.75 37.73 31.98 24.97 22.63 22.05 21.45 33.72 29.63 31.12 34.37 37.21 40.95 41.55 43.17 46.51 48.88
50.50 49.21 48.55 47.52 46.22 45.19 41.23 29.12 17.16 28.15 27.82 36.06 36.11 36.17 32.40 36.58 36.64 39.06 36.85 33.66 37.41 37.05 29.75 28.87 22.43 35.14 40.37 38.00 33.44 34.02 32.89 27.99 21.82 21.87 26.48 34.72 27.01 30.29 37.67 43.37 44.47 45.67 45.74 46.62 47.37
49.52 43.86 44.33 45.21 46.37 43.17 34.01 21.14 22.13 28.86 34.10 33.88 34.56 29.69 30.51 35.17 35.18 36.89 33.94 32.84 34.88 34.93 27.74 28.69 26.18 38.64 40.10 42.16 39.56 37.08 33.38 36.53 31.33 32.81 24.83 29.87 32.61 35.88 37.88 38.29 42.04 42.85 43.78 44.60 45.72
41.55 40.90 40.87 45.73 44.84 39.57 30.44 28.29 28.61 35.54 37.39 36.36 28.64 31.59 27.34 31.02 30.86 31.94 31.94 35.54 35.74 37.68 37.15 35.05 29.41 37.38 40.66 42.25 41.37 38.96 39.65 30.53 29.83 24.24 19.77 25.42 28.20 27.92 31.93 33.89 38.27 39.34 41.87 43.15 44.51
40.32 35.79 41.98 44.94 42.58 34.62 25.80 27.44 33.96 38.56 39.22 35.26 32.20 30.79 30.60 30.21 31.64 31.14 31.66 35.80 37.29 37.03 37.93 35.23 33.84 32.99 36.87 33.46 32.67 33.69 32.78 32.96 32.37 31.35 24.01 22.84 27.42 34.06 32.94 35.73 37.98 40.71 41.61 41.96 42.50
38.53 29.88 42.10 44.07 32.62 29.85 29.38 33.97 39.64 37.58 39.63 38.14 36.12 34.85 32.24 32.68 31.28 30.81 31.41 34.35 38.74 38.29 33.66 34.77 32.06 26.23 30.72 35.56 36.30 34.29 32.41 31.66 25.46 25.99 27.64 27.75 27.65 39.04 39.12 39.99 40.62 40.18 40.66 41.10 41.20
34.79 34.43 41.86 40.68 26.93 27.85 33.30 35.93 37.73 37.72 37.66 37.29 35.95 37.05 36.13 32.78 29.82 32.42 33.57 39.83 40.10 37.34 33.42 34.98 28.83 21.29 24.01 29.46 33.75 31.92 33.21 32.96 31.20 27.72 24.32 23.76 27.50 38.13 38.00 37.83 38.65 38.34 38.94 39.13 38.93
35.02 27.91 33.53 35.41 34.53 29.32 30.65 32.24 33.40 38.89 38.41 38.57 37.06 37.19 34.58 32.80 34.77 32.00 33.11 38.36 39.36 38.11 43.44 38.86 30.29 26.50 18.49 25.89 30.17 28.67 31.22 31.94 28.16 20.87 24.19 23.97 28.58 30.87 33.77 34.90 36.04 36.37 36.05 35.60 35.62
35.50 30.63 33.09 26.76 31.44 32.42 31.86 34.09 33.27 33.80 37.79 38.33 35.64 35.91 33.82 29.67 31.48 31.74 34.01 35.28 37.87 40.07 36.93 35.08 27.32 25.05 29.79 32.15 31.37 28.80 29.48 30.59 26.89 27.57 23.48 27.53 27.97 30.47 32.59 33.29 34.32 35.54 35.26 34.35 33.83
35.57 35.52 34.31 31.83 33.23 32.61 33.54 31.93 32.93 34.74 35.49 34.78 34.16 36.20 35.14 31.66 31.73 30.51 33.26 32.57 31.91 35.80 33.81 34.50 27.04 28.30 26.63 31.29 30.01 28.03 30.04 31.40 31.09 31.32 30.39 29.71 28.53 33.50 34.12 35.07 35.03 34.05 34.47 33.17 32.51
43.42 39.64 35.74 33.37 30.75 29.38 30.62 34.58 35.44 36.99 37.22 37.85 36.63 35.27 33.50 35.17 36.29 35.87 35.66 35.43 34.83 32.64 32.62 31.64 28.48 25.42 23.25 27.15 27.72 24.57 28.14 28.56 29.38 31.25 31.55 27.94 31.41 34.01 33.67 36.08 35.34 34.82 33.99 32.24 32.09

GFSSW_sfc_wetblb_117.txt.gz
Wetbulb
55.42 54.57 54.96 54.78 54.50 55.30 56.26 58.82 60.48 60.42 59.46 57.41 55.87 56.44 55.31 54.24 52.73 48.56 43.80 47.84 50.66 56.39 54.51 49.08 46.04 46.06 45.18 42.66 43.96 44.44 35.67 31.84 33.38 35.77 37.32 40.81 39.36 42.65 44.25 40.89 42.99 45.40 48.90 56.82 59.70
54.97 53.79 53.94 54.05 54.70 53.96 55.54 57.99 59.93 60.18 59.27 56.95 55.84 56.71 55.24 53.41 47.70 44.71 51.04 56.16 56.42 55.49 49.50 44.01 41.35 43.22 38.66 38.50 40.49 38.59 33.53 34.73 38.86 38.46 37.25 40.29 39.41 40.38 39.61 39.43 41.25 42.82 46.84 50.47 58.85
54.33 54.53 53.48 54.08 54.06 53.67 54.45 56.26 59.30 60.20 58.66 56.96 55.89 56.66 55.05 51.37 42.98 42.19 55.25 55.72 57.24 55.65 51.41 46.59 43.24 41.34 36.23 36.45 36.02 36.40 33.66 38.31 39.39 40.88 41.18 40.38 39.48 40.18 37.43 36.49 39.60 40.00 43.36 46.81 51.09
54.54 54.73 54.16 52.72 52.87 53.40 54.04 54.85 57.54 60.07 58.60 56.58 56.00 56.36 54.46 47.64 33.33 46.45 55.46 56.21 56.04 49.99 46.88 43.12 40.20 35.83 32.84 31.02 34.27 30.10 35.81 36.36 37.58 38.87 38.08 35.75 38.31 36.01 37.99 37.71 42.72 43.77 45.48 46.63 46.69
54.71 54.37 53.76 52.39 52.01 53.10 54.03 55.22 57.15 60.02 57.83 56.47 56.64 55.62 48.67 40.84 42.05 51.57 56.91 54.88 49.61 47.53 42.99 40.85 37.31 34.47 30.18 31.52 33.64 29.66 33.19 36.72 38.06 38.42 38.11 38.58 35.50 35.04 36.40 38.58 40.85 43.89 45.09 44.98 45.66
52.93 53.63 53.36 52.46 52.65 53.10 54.11 55.15 56.52 58.73 56.65 56.35 56.56 54.04 43.94 36.61 49.16 52.61 52.18 49.72 47.30 45.66 43.23 41.72 38.99 38.41 34.09 32.76 30.80 33.42 34.36 34.42 36.48 36.58 37.05 35.56 35.59 35.78 36.38 38.33 40.14 41.13 41.62 43.11 44.73
53.23 53.16 52.87 52.30 52.74 53.59 56.10 56.65 58.28 57.08 56.19 56.57 55.48 49.83 40.88 41.12 47.31 50.38 49.87 46.02 46.22 45.74 42.15 43.53 42.72 38.35 35.92 32.37 36.50 34.98 30.18 32.20 33.17 34.71 34.61 36.81 31.67 32.59 36.39 37.79 37.77 39.41 40.70 42.45 43.85
52.38 52.26 52.36 52.56 52.92 55.02 57.88 57.42 56.36 56.42 56.56 55.69 53.87 45.06 37.32 46.79 47.74 48.43 46.10 45.14 46.71 46.59 45.05 44.65 44.11 39.46 35.22 35.57 34.29 30.47 28.32 24.04 31.07 34.58 35.97 34.95 26.54 34.20 37.35 34.55 35.31 37.11 38.65 40.96 42.76
52.40 52.48 52.10 52.22 52.61 55.32 56.06 55.61 55.86 56.32 55.74 54.51 47.49 41.73 35.73 48.21 43.65 43.85 44.95 43.59 44.05 44.65 45.56 47.22 43.05 36.04 35.63 27.94 22.94 26.23 19.51 22.20 27.46 35.24 34.78 33.00 28.19 34.89 38.12 37.38 37.02 37.74 37.96 37.94 40.60
51.90 51.42 51.65 54.73 56.11 56.28 56.18 55.44 55.46 53.82 52.08 49.73 47.48 36.16 40.43 38.79 42.44 44.15 43.71 45.93 42.69 41.93 40.86 39.55 34.47 28.28 27.38 22.33 15.07 17.31 16.58 22.75 24.62 30.52 32.24 30.11 29.81 34.39 36.87 37.03 36.35 36.81 37.61 36.03 38.50
53.31 53.68 53.28 54.61 54.58 54.80 53.40 49.85 44.25 41.96 43.59 38.69 38.38 38.22 40.61 43.65 45.58 42.95 44.99 42.74 41.21 37.54 30.69 34.84 25.16 24.51 24.84 28.08 28.24 26.46 24.47 25.29 28.42 32.80 30.83 30.03 31.01 33.75 37.00 36.23 35.29 34.42 35.76 35.17 37.24
55.01 56.28 54.62 54.77 54.81 53.25 49.88 42.18 42.89 42.73 35.11 41.55 41.78 41.64 43.38 44.36 38.96 41.74 44.89 36.99 35.49 28.54 32.58 30.32 26.75 30.32 32.40 31.84 29.83 27.67 27.66 26.53 29.76 33.12 31.23 30.41 30.19 34.45 36.46 36.62 37.04 35.28 34.73 34.09 36.57
54.42 54.70 54.25 54.20 52.55 49.39 46.11 44.37 46.97 42.98 34.15 38.57 41.59 41.56 41.72 43.36 39.06 39.54 42.49 40.83 36.25 33.61 33.87 30.56 29.04 36.27 34.35 32.61 30.93 30.17 27.93 28.18 26.99 31.11 32.56 30.32 26.99 29.35 36.41 35.73 34.59 35.31 35.65 36.92 38.75
53.64 53.83 53.18 52.84 47.80 46.82 44.35 47.97 46.62 42.72 26.83 33.04 37.50 40.97 42.66 42.37 37.23 44.76 46.28 40.91 37.42 33.36 34.62 32.85 34.68 33.70 32.18 31.31 32.06 26.73 32.76 32.23 30.58 29.63 24.00 31.30 21.99 26.54 34.14 36.05 36.21 35.81 36.66 36.26 38.43
52.40 53.12 52.34 50.84 43.99 43.89 46.07 47.16 46.31 38.53 15.25 34.26 38.03 46.06 43.08 39.59 39.75 41.28 45.25 39.74 34.17 34.45 34.10 27.64 32.24 33.49 32.29 32.69 34.22 28.92 35.55 34.14 34.42 32.31 31.81 28.77 25.12 25.84 35.01 32.77 36.27 37.63 39.68 42.23 41.83
53.34 52.56 51.31 46.87 44.66 45.47 46.75 45.45 40.10 22.81 10.91 27.03 38.02 36.81 37.20 40.02 40.31 41.61 41.62 43.97 42.35 37.85 37.10 35.94 39.14 37.08 35.38 36.74 36.87 37.17 34.81 34.92 35.31 32.31 21.73 28.04 25.66 25.87 31.68 34.25 36.44 38.44 40.33 43.13 45.67
51.13 50.57 48.00 47.40 41.78 46.57 45.36 39.22 23.36 17.40 30.23 28.38 31.18 36.81 35.55 36.94 38.54 39.23 38.16 37.04 34.90 29.31 24.87 34.51 34.28 36.46 38.18 34.91 39.21 37.27 31.99 21.54 18.32 16.34 19.91 32.71 28.52 30.96 34.99 37.51 40.36 41.59 44.29 46.80 48.26
50.44 48.80 47.54 46.41 44.75 43.71 38.87 29.61 18.04 27.92 27.62 34.88 34.81 35.19 31.36 35.63 37.12 38.56 38.00 35.30 36.90 36.97 32.50 27.30 23.38 33.44 38.65 36.78 34.59 34.59 33.04 27.54 20.07 21.86 22.36 33.10 26.12 31.10 37.76 40.48 43.01 44.65 44.92 47.13 47.65
48.53 43.07 42.20 44.17 45.50 41.97 33.21 21.10 22.02 28.50 32.88 32.83 33.51 29.31 29.58 34.02 34.71 37.15 34.09 31.75 34.41 35.44 28.16 26.71 26.91 36.39 38.78 41.03 39.66 36.00 33.28 36.83 30.77 32.30 22.30 28.25 32.22 36.33 37.46 36.06 40.09 41.45 43.53 44.45 46.57
40.87 39.51 39.97 44.31 43.68 38.30 30.46 27.30 28.41 33.80 36.30 35.11 28.46 30.32 26.43 29.60 29.69 30.65 30.68 35.17 35.21 37.42 36.32 32.40 28.49 35.45 38.79 40.87 40.23 38.70 39.56 30.93 28.97 23.09 20.30 24.86 28.17 28.01 31.79 32.16 35.35 37.59 39.61 42.55 43.02
39.38 35.32 41.27 43.82 41.56 34.38 26.01 26.81 33.12 37.72 38.07 34.13 31.28 29.68 30.00 29.47 30.50 29.82 31.07 35.70 37.21 36.64 36.07 33.64 31.38 30.45 34.95 32.07 31.39 32.17 31.56 33.21 31.80 30.53 22.99 21.65 26.36 36.46 33.80 34.90 35.19 37.42 39.77 40.11 40.17
36.89 30.05 41.45 42.34 32.02 28.96 29.06 33.05 39.48 36.98 38.63 37.08 35.22 33.70 31.67 31.70 30.25 29.47 30.39 33.52 38.14 37.27 32.50 34.24 30.50 25.15 29.32 34.16 35.44 33.33 31.63 30.23 23.79 25.88 26.29 26.00 27.45 39.81 39.16 39.05 39.98 38.56 38.77 38.23 37.70
33.96 33.73 40.71 39.18 26.75 28.01 33.06 34.91 36.51 36.45 36.23 35.91 34.55 35.78 35.04 31.97 29.16 32.13 32.77 38.37 38.79 36.36 32.85 33.70 27.30 20.13 23.92 27.63 31.88 30.87 31.62 31.28 30.23 29.56 24.20 22.88 27.03 37.75 38.34 39.58 36.98 35.51 34.35 34.76 34.87
34.02 28.66 34.23 34.78 33.38 29.10 30.46 31.50 32.35 37.89 37.13 37.25 35.60 35.91 33.49 31.33 32.82 30.99 32.14 36.85 38.32 37.16 43.43 38.20 28.87 25.43 18.66 25.32 29.00 27.71 28.90 30.23 27.46 19.75 24.16 24.75 29.43 31.33 32.74 33.86 33.88 32.95 32.37 31.96 32.67
34.42 30.71 32.71 26.59 31.12 29.64 29.79 32.80 32.46 32.27 36.31 36.64 33.95 34.60 32.55 28.67 30.60 30.15 32.56 34.20 36.50 39.12 36.30 33.89 26.78 24.31 28.76 30.32 30.31 29.16 28.45 29.18 24.10 26.62 22.97 26.85 27.29 30.37 32.40 33.06 33.82 34.31 32.60 32.71 31.88
34.59 32.71 32.45 30.75 31.85 30.30 32.06 30.82 31.79 33.99 34.48 33.62 32.96 35.15 33.73 29.98 30.71 29.03 31.77 30.55 30.53 34.61 32.57 33.07 26.81 27.81 26.65 29.41 28.48 27.96 29.24 29.55 29.36 29.45 28.82 28.41 28.47 33.02 33.46 34.08 34.07 32.56 32.62 31.38 31.15
39.38 37.56 34.97 32.10 29.60 28.39 29.36 32.94 34.11 35.80 36.16 36.72 35.91 34.46 32.79 33.91 35.47 35.74 35.21 34.76 33.89 30.89 31.51 30.58 27.89 25.35 22.62 26.15 26.22 23.07 26.91 28.72 28.89 30.54 30.67 26.87 30.67 32.55 32.32 34.50 34.46 33.92 33.58 30.89 30.31